<?xml version='1.0' encoding='UTF-8'?><gpx version="1.1" creator="JPX - https://github.com/jenetics/jpx" xmlns="http://www.topografix.com/GPX/1/1"><trk><trkseg><trkpt lat="42.67672314510029" lon="12.842877206014052"><ele>822.0</ele><time>2026-04-12T09:59:28Z</time></trkpt><trkpt lat="42.676688810794374" lon="12.843076709962064"><ele>822.0</ele><time>2026-04-12T09:59:30Z</time></trkpt><trkpt lat="42.67666127865325" lon="12.843205484925052"><ele>822.0</ele><time>2026-04-12T09:59:31Z</time></trkpt><trkpt lat="42.67663549485856" lon="12.84335066914741"><ele>822.0</ele><time>2026-04-12T09:59:32Z</time></trkpt><trkpt lat="42.67660554531148" lon="12.843511154896555"><ele>827.0</ele><time>2026-04-12T09:59:33Z</time></trkpt><trkpt lat="42.676579293974704" lon="12.843683885281832"><ele>832.0</ele><time>2026-04-12T09:59:34Z</time></trkpt><trkpt lat="42.676551831875955" lon="12.843868206811297"><ele>837.0</ele><time>2026-04-12T09:59:35Z</time></trkpt><trkpt lat="42.67652203244707" lon="12.844059502156975"><ele>842.0</ele><time>2026-04-12T09:59:36Z</time></trkpt><trkpt lat="42.67648959591744" lon="12.844261875629666"><ele>847.0</ele><time>2026-04-12T09:59:37Z</time></trkpt><trkpt lat="42.67645657049287" lon="12.84447153662139"><ele>852.0</ele><time>2026-04-12T09:59:38Z</time></trkpt><trkpt lat="42.67642348703593" lon="12.844675394358166"><ele>857.0</ele><time>2026-04-12T09:59:39Z</time></trkpt><trkpt lat="42.67639229188226" lon="12.844876245606821"><ele>857.0</ele><time>2026-04-12T09:59:40Z</time></trkpt><trkpt lat="42.6763621857189" lon="12.845078969850508"><ele>857.0</ele><time>2026-04-12T09:59:41Z</time></trkpt><trkpt lat="42.67633203537263" lon="12.84528481269685"><ele>857.0</ele><time>2026-04-12T09:59:42Z</time></trkpt><trkpt lat="42.676301046281196" lon="12.845489311937945"><ele>863.0</ele><time>2026-04-12T09:59:43Z</time></trkpt><trkpt lat="42.6762761762582" lon="12.845702803361712"><ele>869.0</ele><time>2026-04-12T09:59:44Z</time></trkpt><trkpt lat="42.67624412499596" lon="12.845910061108649"><ele>875.0</ele><time>2026-04-12T09:59:45Z</time></trkpt><trkpt lat="42.67621096150423" lon="12.846109468618952"><ele>877.6</ele><time>2026-04-12T09:59:46Z</time></trkpt><trkpt lat="42.67617017694661" lon="12.846305679965479"><ele>880.2</ele><time>2026-04-12T09:59:47Z</time></trkpt><trkpt lat="42.67613478891305" lon="12.846467281199745"><ele>882.8</ele><time>2026-04-12T09:59:48Z</time></trkpt><trkpt lat="42.676110245441166" lon="12.846588276025786"><ele>885.4</ele><time>2026-04-12T09:59:49Z</time></trkpt><trkpt lat="42.67610696188981" lon="12.84669934976091"><ele>888.0</ele><time>2026-04-12T09:59:50Z</time></trkpt><trkpt lat="42.67613189028651" lon="12.84679297912535"><ele>888.0</ele><time>2026-04-12T09:59:51Z</time></trkpt><trkpt lat="42.676193922519715" lon="12.846850010629536"><ele>888.0</ele><time>2026-04-12T09:59:52Z</time></trkpt><trkpt lat="42.676346534585186" lon="12.84675498057294"><ele>888.0</ele><time>2026-04-12T09:59:54Z</time></trkpt><trkpt lat="42.67637584581788" lon="12.846623410246545"><ele>888.0</ele><time>2026-04-12T09:59:55Z</time></trkpt><trkpt lat="42.67637898710575" lon="12.846439682351798"><ele>888.0</ele><time>2026-04-12T09:59:56Z</time></trkpt><trkpt lat="42.6763814711024" lon="12.846242423959819"><ele>888.0</ele><time>2026-04-12T09:59:57Z</time></trkpt><trkpt lat="42.676464531077045" lon="12.846072732548976"><ele>888.0</ele><time>2026-04-12T09:59:58Z</time></trkpt><trkpt lat="42.67654248017844" lon="12.845874893173315"><ele>884.75</ele><time>2026-04-12T09:59:59Z</time></trkpt><trkpt lat="42.67662102898093" lon="12.845683362569355"><ele>881.5</ele><time>2026-04-12T10:00:00Z</time></trkpt><trkpt lat="42.67669463422997" lon="12.845510150327364"><ele>878.25</ele><time>2026-04-12T10:00:01Z</time></trkpt><trkpt lat="42.67675799513102" lon="12.84536321842097"><ele>875.0</ele><time>2026-04-12T10:00:02Z</time></trkpt><trkpt lat="42.676810269453284" lon="12.845241995884502"><ele>875.0000000000001</ele><time>2026-04-12T10:00:03Z</time></trkpt><trkpt lat="42.67685463551394" lon="12.845138624434824"><ele>875.0</ele><time>2026-04-12T10:00:04Z</time></trkpt><trkpt lat="42.67689136177293" lon="12.845053092784228"><ele>875.0</ele><time>2026-04-12T10:00:05Z</time></trkpt><trkpt lat="42.676958110770734" lon="12.844905262761698"><ele>875.0</ele><time>2026-04-12T10:00:07Z</time></trkpt><trkpt lat="42.676996007307324" lon="12.844826679320342"><ele>875.0000000000001</ele><time>2026-04-12T10:00:08Z</time></trkpt><trkpt lat="42.67703683085687" lon="12.84474559218364"><ele>875.0</ele><time>2026-04-12T10:00:09Z</time></trkpt><trkpt lat="42.67707336806129" lon="12.84465447297258"><ele>875.1666666666667</ele><time>2026-04-12T10:00:10Z</time></trkpt><trkpt lat="42.67712023639434" lon="12.844560840697762"><ele>875.3333333333334</ele><time>2026-04-12T10:00:11Z</time></trkpt><trkpt lat="42.677186453997365" lon="12.844483242336546"><ele>875.5</ele><time>2026-04-12T10:00:12Z</time></trkpt><trkpt lat="42.677238816634905" lon="12.844399327378838"><ele>875.6666666666667</ele><time>2026-04-12T10:00:13Z</time></trkpt><trkpt lat="42.67728550380695" lon="12.844303807427847"><ele>875.8333333333334</ele><time>2026-04-12T10:00:14Z</time></trkpt><trkpt lat="42.67735259140299" lon="12.844227943128823"><ele>876.0</ele><time>2026-04-12T10:00:15Z</time></trkpt><trkpt lat="42.67742414243133" lon="12.844153088184601"><ele>876.0</ele><time>2026-04-12T10:00:16Z</time></trkpt><trkpt lat="42.67749279330793" lon="12.844079394368352"><ele>876.0</ele><time>2026-04-12T10:00:17Z</time></trkpt><trkpt lat="42.67756245087763" lon="12.844016277930018"><ele>876.0</ele><time>2026-04-12T10:00:18Z</time></trkpt><trkpt lat="42.67762833579662" lon="12.843977311835069"><ele>876.0</ele><time>2026-04-12T10:00:19Z</time></trkpt><trkpt lat="42.67770233863939" lon="12.84397053068422"><ele>876.0</ele><time>2026-04-12T10:00:20Z</time></trkpt><trkpt lat="42.67777993580866" lon="12.844025516176114"><ele>876.0</ele><time>2026-04-12T10:00:21Z</time></trkpt><trkpt lat="42.67784023237983" lon="12.844146031951285"><ele>874.4</ele><time>2026-04-12T10:00:22Z</time></trkpt><trkpt lat="42.677907951519344" lon="12.844263230635855"><ele>872.8</ele><time>2026-04-12T10:00:23Z</time></trkpt><trkpt lat="42.67797103780225" lon="12.844375653728125"><ele>871.1999999999999</ele><time>2026-04-12T10:00:24Z</time></trkpt><trkpt lat="42.67804314163969" lon="12.84448104080992"><ele>869.5999999999999</ele><time>2026-04-12T10:00:25Z</time></trkpt><trkpt lat="42.67810238485765" lon="12.844593997536215"><ele>868.0</ele><time>2026-04-12T10:00:26Z</time></trkpt><trkpt lat="42.67815598727304" lon="12.844693023228938"><ele>870.6666666666666</ele><time>2026-04-12T10:00:27Z</time></trkpt><trkpt lat="42.678207966915565" lon="12.844784335475714"><ele>873.3333333333333</ele><time>2026-04-12T10:00:28Z</time></trkpt><trkpt lat="42.67825064665262" lon="12.84487568068972"><ele>876.0</ele><time>2026-04-12T10:00:29Z</time></trkpt><trkpt lat="42.678280727164356" lon="12.844970381235285"><ele>878.6666666666667</ele><time>2026-04-12T10:00:30Z</time></trkpt><trkpt lat="42.678283787201416" lon="12.845072341988423"><ele>881.3333333333334</ele><time>2026-04-12T10:00:31Z</time></trkpt><trkpt lat="42.678289278328435" lon="12.845162836070665"><ele>884.0</ele><time>2026-04-12T10:00:32Z</time></trkpt><trkpt lat="42.67824269505468" lon="12.845300716477649"><ele>884.0</ele><time>2026-04-12T10:00:34Z</time></trkpt><trkpt lat="42.678161396219366" lon="12.845295227102042"><ele>884.0000000000001</ele><time>2026-04-12T10:00:35Z</time></trkpt><trkpt lat="42.678088999539355" lon="12.845220168411089"><ele>884.0000000000001</ele><time>2026-04-12T10:00:36Z</time></trkpt><trkpt lat="42.67808557852587" lon="12.845070753680202"><ele>884.0</ele><time>2026-04-12T10:00:37Z</time></trkpt><trkpt lat="42.67803964256184" lon="12.844949969824835"><ele>884.0</ele><time>2026-04-12T10:00:38Z</time></trkpt><trkpt lat="42.67799295097418" lon="12.844829281050071"><ele>884.0</ele><time>2026-04-12T10:00:39Z</time></trkpt><trkpt lat="42.67791142772286" lon="12.844741013028887"><ele>884.0000000000001</ele><time>2026-04-12T10:00:40Z</time></trkpt><trkpt lat="42.677805258428954" lon="12.844753413415981"><ele>884.0000000000001</ele><time>2026-04-12T10:00:41Z</time></trkpt><trkpt lat="42.6776958961939" lon="12.844766909709852"><ele>884.0</ele><time>2026-04-12T10:00:42Z</time></trkpt><trkpt lat="42.67759838372688" lon="12.844837199258102"><ele>884.0</ele><time>2026-04-12T10:00:43Z</time></trkpt><trkpt lat="42.677517493097454" lon="12.844922372146192"><ele>886.2</ele><time>2026-04-12T10:00:44Z</time></trkpt><trkpt lat="42.677461551480526" lon="12.845021834944971"><ele>888.4000000000001</ele><time>2026-04-12T10:00:45Z</time></trkpt><trkpt lat="42.67743070299658" lon="12.845103547919997"><ele>890.6</ele><time>2026-04-12T10:00:46Z</time></trkpt><trkpt lat="42.677402359176035" lon="12.84522505330011"><ele>892.8</ele><time>2026-04-12T10:00:48Z</time></trkpt><trkpt lat="42.67736988831106" lon="12.84535334003033"><ele>895.0</ele><time>2026-04-12T10:00:50Z</time></trkpt><trkpt lat="42.67733573807111" lon="12.845514578323725"><ele>898.5714285714286</ele><time>2026-04-12T10:00:52Z</time></trkpt><trkpt lat="42.677318332076645" lon="12.845603521615496"><ele>902.1428571428571</ele><time>2026-04-12T10:00:53Z</time></trkpt><trkpt lat="42.67730266119941" lon="12.84569460197552"><ele>905.7142857142857</ele><time>2026-04-12T10:00:54Z</time></trkpt><trkpt lat="42.67729515894081" lon="12.845787103379497"><ele>909.2857142857142</ele><time>2026-04-12T10:00:55Z</time></trkpt><trkpt lat="42.677286015990596" lon="12.845876825590691"><ele>912.8571428571429</ele><time>2026-04-12T10:00:56Z</time></trkpt><trkpt lat="42.67727331303169" lon="12.845967852338397"><ele>916.4285714285713</ele><time>2026-04-12T10:00:57Z</time></trkpt><trkpt lat="42.67725916759792" lon="12.846071700198866"><ele>919.9999999999999</ele><time>2026-04-12T10:00:58Z</time></trkpt><trkpt lat="42.677241177329435" lon="12.846188922291493"><ele>923.25</ele><time>2026-04-12T10:00:59Z</time></trkpt><trkpt lat="42.677222126511595" lon="12.846315702357348"><ele>926.5</ele><time>2026-04-12T10:01:00Z</time></trkpt><trkpt lat="42.67720453140032" lon="12.846471023502588"><ele>929.75</ele><time>2026-04-12T10:01:01Z</time></trkpt><trkpt lat="42.677180984186194" lon="12.846655398843533"><ele>933.0</ele><time>2026-04-12T10:01:02Z</time></trkpt><trkpt lat="42.67716160424172" lon="12.846817839230967"><ele>934.8</ele><time>2026-04-12T10:01:03Z</time></trkpt><trkpt lat="42.677144341799334" lon="12.84695508896326"><ele>936.5999999999999</ele><time>2026-04-12T10:01:04Z</time></trkpt><trkpt lat="42.6771217761937" lon="12.847088789073984"><ele>938.4000000000001</ele><time>2026-04-12T10:01:05Z</time></trkpt><trkpt lat="42.67710313948677" lon="12.847218356042081"><ele>940.2</ele><time>2026-04-12T10:01:06Z</time></trkpt><trkpt lat="42.677082827853546" lon="12.847325889482823"><ele>942.0</ele><time>2026-04-12T10:01:07Z</time></trkpt><trkpt lat="42.67706832794663" lon="12.847422865769083"><ele>942.0</ele><time>2026-04-12T10:01:08Z</time></trkpt><trkpt lat="42.677057649627024" lon="12.847508092476332"><ele>942.0</ele><time>2026-04-12T10:01:09Z</time></trkpt><trkpt lat="42.67704800287146" lon="12.847651699500705"><ele>942.0</ele><time>2026-04-12T10:01:11Z</time></trkpt><trkpt lat="42.67701187773294" lon="12.847798252704195"><ele>942.0</ele><time>2026-04-12T10:01:13Z</time></trkpt><trkpt lat="42.67699019063266" lon="12.84788576676301"><ele>942.0</ele><time>2026-04-12T10:01:14Z</time></trkpt><trkpt lat="42.676967381322044" lon="12.847981778506874"><ele>942.0</ele><time>2026-04-12T10:01:15Z</time></trkpt><trkpt lat="42.67694225261809" lon="12.848084227529972"><ele>939.6666666666666</ele><time>2026-04-12T10:01:16Z</time></trkpt><trkpt lat="42.67691631861061" lon="12.848189157895831"><ele>937.3333333333333</ele><time>2026-04-12T10:01:17Z</time></trkpt><trkpt lat="42.67688035151582" lon="12.848283472544662"><ele>935.0</ele><time>2026-04-12T10:01:18Z</time></trkpt><trkpt lat="42.67683900364994" lon="12.848394140520176"><ele>932.6666666666666</ele><time>2026-04-12T10:01:19Z</time></trkpt><trkpt lat="42.676798648662505" lon="12.848500879263613"><ele>930.3333333333333</ele><time>2026-04-12T10:01:20Z</time></trkpt><trkpt lat="42.676759766798476" lon="12.848611339220778"><ele>928.0</ele><time>2026-04-12T10:01:21Z</time></trkpt><trkpt lat="42.676736699923026" lon="12.848730734195284"><ele>927.9999999999999</ele><time>2026-04-12T10:01:22Z</time></trkpt><trkpt lat="42.6767322315711" lon="12.848825031539873"><ele>928.0</ele><time>2026-04-12T10:01:23Z</time></trkpt><trkpt lat="42.6767674577369" lon="12.848904704766923"><ele>928.0</ele><time>2026-04-12T10:01:24Z</time></trkpt><trkpt lat="42.67682761128194" lon="12.848972799858647"><ele>928.0</ele><time>2026-04-12T10:01:25Z</time></trkpt><trkpt lat="42.67690071398487" lon="12.848989152620613"><ele>927.9999999999999</ele><time>2026-04-12T10:01:26Z</time></trkpt><trkpt lat="42.6769708157224" lon="12.848937463019832"><ele>928.0</ele><time>2026-04-12T10:01:27Z</time></trkpt><trkpt lat="42.67702185390432" lon="12.848836201674324"><ele>933.5999999999999</ele><time>2026-04-12T10:01:28Z</time></trkpt><trkpt lat="42.677039030968686" lon="12.848679939534994"><ele>939.1999999999999</ele><time>2026-04-12T10:01:29Z</time></trkpt><trkpt lat="42.67706261673199" lon="12.848567374407052"><ele>944.8</ele><time>2026-04-12T10:01:30Z</time></trkpt><trkpt lat="42.677099690398926" lon="12.848431565345024"><ele>950.4</ele><time>2026-04-12T10:01:31Z</time></trkpt><trkpt lat="42.67713463412056" lon="12.8483103829883"><ele>956.0</ele><time>2026-04-12T10:01:32Z</time></trkpt><trkpt lat="42.67714973267168" lon="12.848209384096172"><ele>956.0000000000001</ele><time>2026-04-12T10:01:33Z</time></trkpt><trkpt lat="42.67720507382754" lon="12.848087847699729"><ele>956.0</ele><time>2026-04-12T10:01:35Z</time></trkpt><trkpt lat="42.67722616509342" lon="12.847985482387584"><ele>956.0</ele><time>2026-04-12T10:01:37Z</time></trkpt><trkpt lat="42.67725161268904" lon="12.847898472020987"><ele>956.0</ele><time>2026-04-12T10:01:41Z</time></trkpt><trkpt lat="42.67729685546503" lon="12.847812142045317"><ele>956.0000000000001</ele><time>2026-04-12T10:02:40Z</time></trkpt><trkpt lat="42.67732636739037" lon="12.847726893435452"><ele>956.0</ele><time>2026-04-12T10:02:42Z</time></trkpt><trkpt lat="42.67736813110737" lon="12.847660594231028"><ele>956.0</ele><time>2026-04-12T10:02:45Z</time></trkpt><trkpt lat="42.677338914839176" lon="12.84774377838723"><ele>955.9999999999999</ele><time>2026-04-12T10:02:49Z</time></trkpt><trkpt lat="42.677297845617694" lon="12.847862412148764"><ele>955.9999999999999</ele><time>2026-04-12T10:03:05Z</time></trkpt><trkpt lat="42.67726132299514" lon="12.847973409181359"><ele>956.0</ele><time>2026-04-12T10:03:07Z</time></trkpt><trkpt lat="42.677215051658486" lon="12.848112793598112"><ele>956.0</ele><time>2026-04-12T10:03:09Z</time></trkpt><trkpt lat="42.6772612359744" lon="12.848327854011428"><ele>956.0000000000001</ele><time>2026-04-12T10:03:11Z</time></trkpt><trkpt lat="42.677245940084234" lon="12.848411841021543"><ele>956.0</ele><time>2026-04-12T10:03:12Z</time></trkpt><trkpt lat="42.67722168493639" lon="12.848562397701944"><ele>956.0</ele><time>2026-04-12T10:03:14Z</time></trkpt><trkpt lat="42.67719521747052" lon="12.848724409593535"><ele>956.0</ele><time>2026-04-12T10:03:16Z</time></trkpt><trkpt lat="42.67718367424833" lon="12.848815022230745"><ele>956.0000000000001</ele><time>2026-04-12T10:03:17Z</time></trkpt><trkpt lat="42.67716638579446" lon="12.848923413186359"><ele>956.0</ele><time>2026-04-12T10:03:18Z</time></trkpt><trkpt lat="42.67714938587933" lon="12.849030930752555"><ele>959.5000000000001</ele><time>2026-04-12T10:03:19Z</time></trkpt><trkpt lat="42.6771365320548" lon="12.849140536630136"><ele>963.0</ele><time>2026-04-12T10:03:20Z</time></trkpt><trkpt lat="42.677122248623135" lon="12.849255932981862"><ele>966.5</ele><time>2026-04-12T10:03:21Z</time></trkpt><trkpt lat="42.677106095370654" lon="12.849371687488436"><ele>970.0</ele><time>2026-04-12T10:03:22Z</time></trkpt><trkpt lat="42.67708472789447" lon="12.84948456883284"><ele>973.5000000000001</ele><time>2026-04-12T10:03:23Z</time></trkpt><trkpt lat="42.677063029653574" lon="12.849605372117313"><ele>977.0</ele><time>2026-04-12T10:03:24Z</time></trkpt><trkpt lat="42.67703934206789" lon="12.849733103209259"><ele>981.6</ele><time>2026-04-12T10:03:25Z</time></trkpt><trkpt lat="42.677021230394935" lon="12.849862180585133"><ele>986.2</ele><time>2026-04-12T10:03:26Z</time></trkpt><trkpt lat="42.67702284812985" lon="12.850009502327556"><ele>990.8</ele><time>2026-04-12T10:03:27Z</time></trkpt><trkpt lat="42.6770157749497" lon="12.85013226396981"><ele>995.4</ele><time>2026-04-12T10:03:28Z</time></trkpt><trkpt lat="42.677025699245775" lon="12.850279872736497"><ele>1000.0</ele><time>2026-04-12T10:03:29Z</time></trkpt><trkpt lat="42.67704081337476" lon="12.850409643135432"><ele>1004.0</ele><time>2026-04-12T10:03:30Z</time></trkpt><trkpt lat="42.67704490452704" lon="12.850539031663239"><ele>1008.0</ele><time>2026-04-12T10:03:31Z</time></trkpt><trkpt lat="42.677050197385825" lon="12.850668064864875"><ele>1012.0</ele><time>2026-04-12T10:03:32Z</time></trkpt><trkpt lat="42.677024009048004" lon="12.850796206325514"><ele>1016.0</ele><time>2026-04-12T10:03:33Z</time></trkpt><trkpt lat="42.67699129040589" lon="12.850932114096842"><ele>1020.0</ele><time>2026-04-12T10:03:34Z</time></trkpt><trkpt lat="42.67695552533373" lon="12.85105572184056"><ele>1015.4</ele><time>2026-04-12T10:03:35Z</time></trkpt><trkpt lat="42.67691516690948" lon="12.851181763938357"><ele>1010.8</ele><time>2026-04-12T10:03:36Z</time></trkpt><trkpt lat="42.67687580715501" lon="12.85129792606731"><ele>1006.2</ele><time>2026-04-12T10:03:37Z</time></trkpt><trkpt lat="42.676831419856846" lon="12.851409988917426"><ele>1001.6</ele><time>2026-04-12T10:03:38Z</time></trkpt><trkpt lat="42.676791733838755" lon="12.851514526985524"><ele>997.0</ele><time>2026-04-12T10:03:39Z</time></trkpt><trkpt lat="42.67675521297296" lon="12.851624150548599"><ele>996.9999999999999</ele><time>2026-04-12T10:03:40Z</time></trkpt><trkpt lat="42.67672564970547" lon="12.851732680662996"><ele>997.0</ele><time>2026-04-12T10:03:41Z</time></trkpt><trkpt lat="42.676705979985314" lon="12.851841644753199"><ele>997.0</ele><time>2026-04-12T10:03:42Z</time></trkpt><trkpt lat="42.67669045890865" lon="12.851952633343254"><ele>997.0</ele><time>2026-04-12T10:03:43Z</time></trkpt><trkpt lat="42.67667256557176" lon="12.85207318460092"><ele>996.9999999999999</ele><time>2026-04-12T10:03:44Z</time></trkpt><trkpt lat="42.676642044917045" lon="12.852169739196333"><ele>997.0</ele><time>2026-04-12T10:03:45Z</time></trkpt><trkpt lat="42.6765936621197" lon="12.852256939666502"><ele>1001.1666666666666</ele><time>2026-04-12T10:03:46Z</time></trkpt><trkpt lat="42.676530004302" lon="12.852338118303285"><ele>1005.3333333333333</ele><time>2026-04-12T10:03:47Z</time></trkpt><trkpt lat="42.67645959951999" lon="12.852401972767272"><ele>1009.5</ele><time>2026-04-12T10:03:48Z</time></trkpt><trkpt lat="42.67637306328853" lon="12.852450890556865"><ele>1013.6666666666667</ele><time>2026-04-12T10:03:49Z</time></trkpt><trkpt lat="42.676289516633695" lon="12.852508403501314"><ele>1017.8333333333334</ele><time>2026-04-12T10:03:50Z</time></trkpt><trkpt lat="42.67623460380906" lon="12.852590547708981"><ele>1022.0</ele><time>2026-04-12T10:03:50.999Z</time></trkpt><trkpt lat="42.67620984319107" lon="12.852701834732228"><ele>1022.6666666666667</ele><time>2026-04-12T10:03:51.999Z</time></trkpt><trkpt lat="42.676211588534244" lon="12.852826783467776"><ele>1023.3333333333334</ele><time>2026-04-12T10:03:52.999Z</time></trkpt><trkpt lat="42.676212507698594" lon="12.852945524024264"><ele>1024.0</ele><time>2026-04-12T10:03:53.999Z</time></trkpt><trkpt lat="42.676223157498484" lon="12.853050359499488"><ele>1024.6666666666667</ele><time>2026-04-12T10:03:54.999Z</time></trkpt><trkpt lat="42.67622586665266" lon="12.85314851466055"><ele>1025.3333333333333</ele><time>2026-04-12T10:03:55.999Z</time></trkpt><trkpt lat="42.67614693085395" lon="12.853233054493261"><ele>1026.0</ele><time>2026-04-12T10:03:57.999Z</time></trkpt><trkpt lat="42.67601724195781" lon="12.853204586323708"><ele>1026.0</ele><time>2026-04-12T10:03:59.999Z</time></trkpt><trkpt lat="42.675928962990525" lon="12.853162960437624"><ele>1026.0</ele><time>2026-04-12T10:04:00.999Z</time></trkpt><trkpt lat="42.675844566473636" lon="12.853145482277943"><ele>1026.0</ele><time>2026-04-12T10:04:01.999Z</time></trkpt><trkpt lat="42.67575291314643" lon="12.853150811940976"><ele>1026.0</ele><time>2026-04-12T10:04:02.999Z</time></trkpt><trkpt lat="42.67566102498746" lon="12.853172537328952"><ele>1026.0</ele><time>2026-04-12T10:04:03.999Z</time></trkpt><trkpt lat="42.67557422842959" lon="12.85320076958707"><ele>1026.0</ele><time>2026-04-12T10:04:04.999Z</time></trkpt><trkpt lat="42.67549516304113" lon="12.853243834281518"><ele>1026.0</ele><time>2026-04-12T10:04:05.999Z</time></trkpt><trkpt lat="42.67544003652197" lon="12.85332612160833"><ele>1026.0</ele><time>2026-04-12T10:04:06.999Z</time></trkpt><trkpt lat="42.67540661253017" lon="12.853433072762542"><ele>1026.0</ele><time>2026-04-12T10:04:07.999Z</time></trkpt><trkpt lat="42.67537032697659" lon="12.853537892036327"><ele>1026.0</ele><time>2026-04-12T10:04:08.999Z</time></trkpt><trkpt lat="42.675320286350875" lon="12.853636486033443"><ele>1026.0</ele><time>2026-04-12T10:04:09.999Z</time></trkpt><trkpt lat="42.675250279609855" lon="12.853706206621633"><ele>1026.6</ele><time>2026-04-12T10:04:10.999Z</time></trkpt><trkpt lat="42.67517631122653" lon="12.853779076543901"><ele>1027.1999999999998</ele><time>2026-04-12T10:04:11.999Z</time></trkpt><trkpt lat="42.67511473580665" lon="12.853877654713019"><ele>1027.8000000000002</ele><time>2026-04-12T10:04:13Z</time></trkpt><trkpt lat="42.67506380605164" lon="12.853982581581722"><ele>1028.4</ele><time>2026-04-12T10:04:14Z</time></trkpt><trkpt lat="42.6750234951818" lon="12.85410992711772"><ele>1029.0</ele><time>2026-04-12T10:04:15Z</time></trkpt><trkpt lat="42.6749953792261" lon="12.854247669970558"><ele>1033.8333333333333</ele><time>2026-04-12T10:04:16Z</time></trkpt><trkpt lat="42.6749781936605" lon="12.854377042952438"><ele>1038.6666666666667</ele><time>2026-04-12T10:04:17Z</time></trkpt><trkpt lat="42.67494551446069" lon="12.85448646186618"><ele>1043.5</ele><time>2026-04-12T10:04:18Z</time></trkpt><trkpt lat="42.674888807740054" lon="12.854562281438255"><ele>1048.3333333333335</ele><time>2026-04-12T10:04:19Z</time></trkpt><trkpt lat="42.67480529976572" lon="12.854561395957894"><ele>1053.1666666666667</ele><time>2026-04-12T10:04:20Z</time></trkpt><trkpt lat="42.674730058702885" lon="12.854566618198074"><ele>1058.0</ele><time>2026-04-12T10:04:21Z</time></trkpt><trkpt lat="42.674671998463715" lon="12.854603315339004"><ele>1058.0</ele><time>2026-04-12T10:04:22Z</time></trkpt><trkpt lat="42.67464756490363" lon="12.854693722988143"><ele>1058.0</ele><time>2026-04-12T10:04:23Z</time></trkpt><trkpt lat="42.674656819925126" lon="12.854802678800674"><ele>1058.0</ele><time>2026-04-12T10:04:24Z</time></trkpt><trkpt lat="42.67465898327812" lon="12.8549094952978"><ele>1058.0</ele><time>2026-04-12T10:04:25Z</time></trkpt><trkpt lat="42.674633436043344" lon="12.85499365905877"><ele>1058.0</ele><time>2026-04-12T10:04:26Z</time></trkpt><trkpt lat="42.67457611595785" lon="12.855039572740678"><ele>1058.0</ele><time>2026-04-12T10:04:27Z</time></trkpt><trkpt lat="42.67451503803395" lon="12.855062573450022"><ele>1058.0</ele><time>2026-04-12T10:04:28Z</time></trkpt><trkpt lat="42.67444490374019" lon="12.855075069956627"><ele>1058.5</ele><time>2026-04-12T10:04:29Z</time></trkpt><trkpt lat="42.6743722103467" lon="12.855110000080355"><ele>1059.0</ele><time>2026-04-12T10:04:30Z</time></trkpt><trkpt lat="42.67431629489439" lon="12.855184199652975"><ele>1059.5</ele><time>2026-04-12T10:04:31Z</time></trkpt><trkpt lat="42.67427396802073" lon="12.855279114390427"><ele>1060.0</ele><time>2026-04-12T10:04:32Z</time></trkpt><trkpt lat="42.6742415067996" lon="12.855381648844128"><ele>1060.5</ele><time>2026-04-12T10:04:33Z</time></trkpt><trkpt lat="42.674205804532036" lon="12.855461883871124"><ele>1061.0</ele><time>2026-04-12T10:04:34Z</time></trkpt><trkpt lat="42.67413306766925" lon="12.855549711667424"><ele>1061.0</ele><time>2026-04-12T10:04:36Z</time></trkpt><trkpt lat="42.67402854166964" lon="12.855509145287172"><ele>1061.0</ele><time>2026-04-12T10:04:38Z</time></trkpt><trkpt lat="42.673980470319314" lon="12.855447367872937"><ele>1061.0</ele><time>2026-04-12T10:04:39Z</time></trkpt><trkpt lat="42.673926225489254" lon="12.855372441427637"><ele>1061.0</ele><time>2026-04-12T10:04:40Z</time></trkpt><trkpt lat="42.67387086494915" lon="12.855292790920009"><ele>1061.0</ele><time>2026-04-12T10:04:41Z</time></trkpt><trkpt lat="42.67381964732211" lon="12.85521849292643"><ele>1061.0</ele><time>2026-04-12T10:04:42Z</time></trkpt><trkpt lat="42.67374908926725" lon="12.85513004271868"><ele>1057.6666666666667</ele><time>2026-04-12T10:04:43Z</time></trkpt><trkpt lat="42.673686619409516" lon="12.855043424374019"><ele>1054.3333333333335</ele><time>2026-04-12T10:04:44Z</time></trkpt><trkpt lat="42.67361450798814" lon="12.854954210288783"><ele>1051.0</ele><time>2026-04-12T10:04:45Z</time></trkpt><trkpt lat="42.673549102971116" lon="12.854884139471395"><ele>1047.6666666666667</ele><time>2026-04-12T10:04:46Z</time></trkpt><trkpt lat="42.67346631813464" lon="12.854829815118942"><ele>1044.3333333333333</ele><time>2026-04-12T10:04:47Z</time></trkpt><trkpt lat="42.673387822148804" lon="12.85478248606252"><ele>1041.0</ele><time>2026-04-12T10:04:48Z</time></trkpt><trkpt lat="42.67330998761284" lon="12.854744772628537"><ele>1041.0</ele><time>2026-04-12T10:04:49Z</time></trkpt><trkpt lat="42.673227648563916" lon="12.854711935829183"><ele>1041.0</ele><time>2026-04-12T10:04:50Z</time></trkpt><trkpt lat="42.67314605149382" lon="12.854687810186553"><ele>1041.0</ele><time>2026-04-12T10:04:51Z</time></trkpt><trkpt lat="42.67306687153281" lon="12.85468076136667"><ele>1041.0</ele><time>2026-04-12T10:04:52Z</time></trkpt><trkpt lat="42.67299311637559" lon="12.854680932664696"><ele>1041.0</ele><time>2026-04-12T10:04:53Z</time></trkpt><trkpt lat="42.67291508500215" lon="12.854673794251369"><ele>1041.0</ele><time>2026-04-12T10:04:54Z</time></trkpt><trkpt lat="42.67284770035445" lon="12.854677168618943"><ele>1043.1666666666667</ele><time>2026-04-12T10:04:55Z</time></trkpt><trkpt lat="42.672764734699285" lon="12.854668660384535"><ele>1045.3333333333333</ele><time>2026-04-12T10:04:56Z</time></trkpt><trkpt lat="42.672679998026474" lon="12.854660960964951"><ele>1047.5</ele><time>2026-04-12T10:04:57Z</time></trkpt><trkpt lat="42.672600677652724" lon="12.854657862626786"><ele>1049.6666666666665</ele><time>2026-04-12T10:04:58Z</time></trkpt><trkpt lat="42.67252513782681" lon="12.854659391357808"><ele>1051.8333333333333</ele><time>2026-04-12T10:04:59Z</time></trkpt><trkpt lat="42.67243079997603" lon="12.85466733438991"><ele>1054.0</ele><time>2026-04-12T10:05:00Z</time></trkpt><trkpt lat="42.67234735458273" lon="12.85468105831276"><ele>1054.0</ele><time>2026-04-12T10:05:01Z</time></trkpt><trkpt lat="42.67226077880589" lon="12.854703239098955"><ele>1054.0</ele><time>2026-04-12T10:05:02Z</time></trkpt><trkpt lat="42.67218576080618" lon="12.85472770397104"><ele>1054.0</ele><time>2026-04-12T10:05:03Z</time></trkpt><trkpt lat="42.67209832998856" lon="12.854754006134803"><ele>1054.0</ele><time>2026-04-12T10:05:04Z</time></trkpt><trkpt lat="42.67201934768933" lon="12.854737681055532"><ele>1054.0</ele><time>2026-04-12T10:05:05Z</time></trkpt><trkpt lat="42.67193285634177" lon="12.854710646313782"><ele>1054.0</ele><time>2026-04-12T10:05:06Z</time></trkpt><trkpt lat="42.67184341435131" lon="12.854672781916731"><ele>1055.1666666666665</ele><time>2026-04-12T10:05:07Z</time></trkpt><trkpt lat="42.67175527201076" lon="12.85461833097426"><ele>1056.3333333333333</ele><time>2026-04-12T10:05:08Z</time></trkpt><trkpt lat="42.671674011461114" lon="12.854561322065317"><ele>1057.5</ele><time>2026-04-12T10:05:09Z</time></trkpt><trkpt lat="42.67159240458999" lon="12.854523266919022"><ele>1058.6666666666667</ele><time>2026-04-12T10:05:10Z</time></trkpt><trkpt lat="42.67150470534837" lon="12.854492286171185"><ele>1059.8333333333335</ele><time>2026-04-12T10:05:11Z</time></trkpt><trkpt lat="42.67142434797525" lon="12.854463899780761"><ele>1061.0</ele><time>2026-04-12T10:05:12Z</time></trkpt><trkpt lat="42.67135069000011" lon="12.85443442270889"><ele>1061.0</ele><time>2026-04-12T10:05:13Z</time></trkpt><trkpt lat="42.67127352777867" lon="12.854398669010259"><ele>1061.0</ele><time>2026-04-12T10:05:14Z</time></trkpt><trkpt lat="42.6712009589314" lon="12.854365956346108"><ele>1061.0</ele><time>2026-04-12T10:05:15Z</time></trkpt><trkpt lat="42.67112090210426" lon="12.854337143928666"><ele>1061.0</ele><time>2026-04-12T10:05:16Z</time></trkpt><trkpt lat="42.67105354584265" lon="12.854330486877414"><ele>1061.0</ele><time>2026-04-12T10:05:17Z</time></trkpt><trkpt lat="42.670982182612754" lon="12.854342779434802"><ele>1061.0</ele><time>2026-04-12T10:05:18Z</time></trkpt><trkpt lat="42.67091157638176" lon="12.854385433563163"><ele>1060.6666666666667</ele><time>2026-04-12T10:05:19Z</time></trkpt><trkpt lat="42.67083678171404" lon="12.854442091754112"><ele>1060.3333333333335</ele><time>2026-04-12T10:05:20Z</time></trkpt><trkpt lat="42.67076434441489" lon="12.85451129434583"><ele>1060.0</ele><time>2026-04-12T10:05:21Z</time></trkpt><trkpt lat="42.67070878276774" lon="12.85458682024738"><ele>1059.6666666666667</ele><time>2026-04-12T10:05:22Z</time></trkpt><trkpt lat="42.67065011570044" lon="12.854655646390084"><ele>1059.3333333333333</ele><time>2026-04-12T10:05:23Z</time></trkpt><trkpt lat="42.67060143212474" lon="12.854755468485646"><ele>1059.0</ele><time>2026-04-12T10:05:24Z</time></trkpt><trkpt lat="42.67055218514893" lon="12.854843380989536"><ele>1059.0</ele><time>2026-04-12T10:05:25Z</time></trkpt><trkpt lat="42.67050665755176" lon="12.854926732708199"><ele>1059.0</ele><time>2026-04-12T10:05:26Z</time></trkpt><trkpt lat="42.6704628828046" lon="12.855015876417394"><ele>1059.0</ele><time>2026-04-12T10:05:27Z</time></trkpt><trkpt lat="42.67042901052473" lon="12.85510235651603"><ele>1059.0</ele><time>2026-04-12T10:05:28Z</time></trkpt><trkpt lat="42.67039674850159" lon="12.855201381112826"><ele>1059.0</ele><time>2026-04-12T10:05:29Z</time></trkpt><trkpt lat="42.6703661318822" lon="12.855305460642436"><ele>1059.0</ele><time>2026-04-12T10:05:30Z</time></trkpt><trkpt lat="42.670312575675524" lon="12.855415575883615"><ele>1058.3333333333333</ele><time>2026-04-12T10:05:32Z</time></trkpt><trkpt lat="42.67027100826658" lon="12.855490350355636"><ele>1057.6666666666667</ele><time>2026-04-12T10:05:34Z</time></trkpt><trkpt lat="42.67022504227249" lon="12.855550088252443"><ele>1057.0</ele><time>2026-04-12T10:05:36Z</time></trkpt><trkpt lat="42.67016023798079" lon="12.855622073401248"><ele>1056.3333333333335</ele><time>2026-04-12T10:05:40Z</time></trkpt><trkpt lat="42.67011458033512" lon="12.855725645088205"><ele>1055.6666666666667</ele><time>2026-04-12T10:22:22Z</time></trkpt><trkpt lat="42.670060381982125" lon="12.855825391868784"><ele>1055.0</ele><time>2026-04-12T10:22:24Z</time></trkpt><trkpt lat="42.66998615328828" lon="12.855955114930374"><ele>1061.2</ele><time>2026-04-12T10:22:26Z</time></trkpt><trkpt lat="42.669913665656786" lon="12.85605665422106"><ele>1067.4</ele><time>2026-04-12T10:22:28Z</time></trkpt><trkpt lat="42.66983219052775" lon="12.856141099684816"><ele>1073.6</ele><time>2026-04-12T10:22:30Z</time></trkpt><trkpt lat="42.669765927373724" lon="12.85623680729288"><ele>1079.8</ele><time>2026-04-12T10:22:32Z</time></trkpt><trkpt lat="42.66969075355074" lon="12.856329023764738"><ele>1086.0</ele><time>2026-04-12T10:22:34Z</time></trkpt><trkpt lat="42.66961341222462" lon="12.856427643300904"><ele>1086.0</ele><time>2026-04-12T10:22:36Z</time></trkpt><trkpt lat="42.669548947686216" lon="12.856484812817571"><ele>1086.0</ele><time>2026-04-12T10:22:37Z</time></trkpt><trkpt lat="42.66948206229355" lon="12.856567610919425"><ele>1086.0</ele><time>2026-04-12T10:22:38Z</time></trkpt><trkpt lat="42.66940820982382" lon="12.85664588567889"><ele>1086.0</ele><time>2026-04-12T10:22:39Z</time></trkpt><trkpt lat="42.669325695598324" lon="12.856731312057995"><ele>1086.0</ele><time>2026-04-12T10:22:40Z</time></trkpt><trkpt lat="42.669262140721976" lon="12.856797240413531"><ele>1086.0</ele><time>2026-04-12T10:22:41Z</time></trkpt><trkpt lat="42.669210538174255" lon="12.856860109923753"><ele>1086.142857142857</ele><time>2026-04-12T10:22:42Z</time></trkpt><trkpt lat="42.66915073474616" lon="12.856921944220895"><ele>1086.2857142857142</ele><time>2026-04-12T10:22:43Z</time></trkpt><trkpt lat="42.66908882375954" lon="12.856988116881562"><ele>1086.4285714285713</ele><time>2026-04-12T10:22:44Z</time></trkpt><trkpt lat="42.66903441622516" lon="12.857059675213451"><ele>1086.5714285714284</ele><time>2026-04-12T10:22:44.999Z</time></trkpt><trkpt lat="42.66898649385988" lon="12.857127118786407"><ele>1086.7142857142856</ele><time>2026-04-12T10:22:45.999Z</time></trkpt><trkpt lat="42.66892946823425" lon="12.857197589458199"><ele>1086.857142857143</ele><time>2026-04-12T10:22:46.999Z</time></trkpt><trkpt lat="42.66888006403823" lon="12.85726394302056"><ele>1087.0</ele><time>2026-04-12T10:22:47.999Z</time></trkpt><trkpt lat="42.668818076310345" lon="12.857315044044615"><ele>1087.0</ele><time>2026-04-12T10:22:48.999Z</time></trkpt><trkpt lat="42.66874648601556" lon="12.857354072014697"><ele>1087.0</ele><time>2026-04-12T10:22:49.999Z</time></trkpt><trkpt lat="42.668663202261925" lon="12.85744195295711"><ele>1087.0</ele><time>2026-04-12T10:22:51.999Z</time></trkpt><trkpt lat="42.6686079424987" lon="12.857521885005312"><ele>1087.0</ele><time>2026-04-12T10:22:53.999Z</time></trkpt><trkpt lat="42.66866244930848" lon="12.857594805435685"><ele>1087.0</ele><time>2026-04-12T10:22:55.999Z</time></trkpt><trkpt lat="42.66880217161288" lon="12.857567765382958"><ele>1087.0</ele><time>2026-04-12T10:22:57.999Z</time></trkpt><trkpt lat="42.6688839125096" lon="12.85752334791419"><ele>1087.0</ele><time>2026-04-12T10:22:58.999Z</time></trkpt><trkpt lat="42.66895833427979" lon="12.85746187722789"><ele>1087.0</ele><time>2026-04-12T10:22:59.999Z</time></trkpt><trkpt lat="42.66900348079889" lon="12.857385719519513"><ele>1087.0</ele><time>2026-04-12T10:23:00.999Z</time></trkpt><trkpt lat="42.66910914793494" lon="12.857291312974754"><ele>1087.0</ele><time>2026-04-12T10:23:02.999Z</time></trkpt><trkpt lat="42.669196598686604" lon="12.857286938629363"><ele>1087.0</ele><time>2026-04-12T10:23:04.999Z</time></trkpt><trkpt lat="42.66918527198192" lon="12.857398015499992"><ele>1087.0</ele><time>2026-04-12T10:23:08Z</time></trkpt><trkpt lat="42.66907778689315" lon="12.85747130004783"><ele>1087.0</ele><time>2026-04-12T10:23:10Z</time></trkpt><trkpt lat="42.669013692642025" lon="12.857513804108489"><ele>1087.0</ele><time>2026-04-12T10:23:11Z</time></trkpt><trkpt lat="42.6689563739327" lon="12.85758472428329"><ele>1087.0</ele><time>2026-04-12T10:23:12Z</time></trkpt><trkpt lat="42.66892169816228" lon="12.85766616739904"><ele>1087.0</ele><time>2026-04-12T10:23:13Z</time></trkpt><trkpt lat="42.66888211006796" lon="12.857745713832948"><ele>1089.6666666666665</ele><time>2026-04-12T10:23:14Z</time></trkpt><trkpt lat="42.66884551775107" lon="12.857819952958316"><ele>1092.3333333333333</ele><time>2026-04-12T10:23:15Z</time></trkpt><trkpt lat="42.66880081880277" lon="12.857903524783232"><ele>1095.0</ele><time>2026-04-12T10:23:16Z</time></trkpt><trkpt lat="42.668761146804925" lon="12.857987466831664"><ele>1097.6666666666667</ele><time>2026-04-12T10:23:17Z</time></trkpt><trkpt lat="42.668715904278116" lon="12.858126032498353"><ele>1100.3333333333335</ele><time>2026-04-12T10:23:19Z</time></trkpt><trkpt lat="42.66873174835424" lon="12.85826421371691"><ele>1103.0</ele><time>2026-04-12T10:23:21Z</time></trkpt><trkpt lat="42.668807116684405" lon="12.858376547336423"><ele>1103.0</ele><time>2026-04-12T10:23:23Z</time></trkpt><trkpt lat="42.66888850919663" lon="12.858477194172858"><ele>1103.0</ele><time>2026-04-12T10:23:25Z</time></trkpt><trkpt lat="42.66892201643558" lon="12.858622936730221"><ele>1103.0</ele><time>2026-04-12T10:23:27Z</time></trkpt><trkpt lat="42.668912203055264" lon="12.858792737104626"><ele>1103.0</ele><time>2026-04-12T10:23:29Z</time></trkpt><trkpt lat="42.668905054206796" lon="12.8588876331366"><ele>1103.0</ele><time>2026-04-12T10:23:30Z</time></trkpt><trkpt lat="42.66891037261093" lon="12.858978624946522"><ele>1103.0</ele><time>2026-04-12T10:23:31Z</time></trkpt><trkpt lat="42.66891689930221" lon="12.85906794533877"><ele>1103.0</ele><time>2026-04-12T10:23:32Z</time></trkpt><trkpt lat="42.66894364876304" lon="12.859227260777462"><ele>1103.0</ele><time>2026-04-12T10:23:34Z</time></trkpt><trkpt lat="42.668968340520145" lon="12.859378529535505"><ele>1103.0</ele><time>2026-04-12T10:23:36Z</time></trkpt><trkpt lat="42.668992380717285" lon="12.85951648080896"><ele>1103.0</ele><time>2026-04-12T10:23:38Z</time></trkpt><trkpt lat="42.66901509918281" lon="12.859634688679511"><ele>1102.2</ele><time>2026-04-12T10:23:40Z</time></trkpt><trkpt lat="42.66903443936993" lon="12.85975098603984"><ele>1101.4</ele><time>2026-04-12T10:23:42Z</time></trkpt><trkpt lat="42.66906102701027" lon="12.859870545531326"><ele>1100.6000000000001</ele><time>2026-04-12T10:23:44Z</time></trkpt><trkpt lat="42.66908945543995" lon="12.859983525334565"><ele>1099.8</ele><time>2026-04-12T10:23:46Z</time></trkpt><trkpt lat="42.66911773972854" lon="12.860109836212482"><ele>1099.0</ele><time>2026-04-12T10:23:48Z</time></trkpt><trkpt lat="42.669162331567534" lon="12.86025379174452"><ele>1095.2</ele><time>2026-04-12T10:23:50Z</time></trkpt><trkpt lat="42.66922120299856" lon="12.860312058274552"><ele>1091.4</ele><time>2026-04-12T10:23:51Z</time></trkpt><trkpt lat="42.66930402042259" lon="12.860441524910614"><ele>1087.6</ele><time>2026-04-12T10:23:53Z</time></trkpt><trkpt lat="42.66936620079014" lon="12.860505307861317"><ele>1083.8</ele><time>2026-04-12T10:23:54Z</time></trkpt><trkpt lat="42.66942840959516" lon="12.860608637166163"><ele>1080.0</ele><time>2026-04-12T10:23:55Z</time></trkpt><trkpt lat="42.66949371050432" lon="12.860699832015982"><ele>1082.6666666666667</ele><time>2026-04-12T10:23:56Z</time></trkpt><trkpt lat="42.66955972608479" lon="12.860777973334537"><ele>1085.3333333333333</ele><time>2026-04-12T10:23:57Z</time></trkpt><trkpt lat="42.66961930056799" lon="12.860857987722394"><ele>1088.0</ele><time>2026-04-12T10:23:58Z</time></trkpt><trkpt lat="42.66967760672006" lon="12.860940241691413"><ele>1090.6666666666665</ele><time>2026-04-12T10:23:59Z</time></trkpt><trkpt lat="42.66974197106929" lon="12.861017470859796"><ele>1093.3333333333333</ele><time>2026-04-12T10:24:00Z</time></trkpt><trkpt lat="42.66980852788073" lon="12.861090148374632"><ele>1096.0</ele><time>2026-04-12T10:24:01Z</time></trkpt><trkpt lat="42.669877131376154" lon="12.86118254474782"><ele>1096.0</ele><time>2026-04-12T10:24:02Z</time></trkpt><trkpt lat="42.66993794986807" lon="12.86126516184518"><ele>1096.0</ele><time>2026-04-12T10:24:03Z</time></trkpt><trkpt lat="42.67000911775587" lon="12.861389807068795"><ele>1096.0</ele><time>2026-04-12T10:24:04Z</time></trkpt><trkpt lat="42.670085091282836" lon="12.861487629428614"><ele>1096.0</ele><time>2026-04-12T10:24:05Z</time></trkpt><trkpt lat="42.670159843642416" lon="12.861573056192094"><ele>1096.0</ele><time>2026-04-12T10:24:06Z</time></trkpt><trkpt lat="42.67023808577448" lon="12.861662182250637"><ele>1100.8333333333333</ele><time>2026-04-12T10:24:07Z</time></trkpt><trkpt lat="42.67030862354784" lon="12.861739125778444"><ele>1105.6666666666665</ele><time>2026-04-12T10:24:08Z</time></trkpt><trkpt lat="42.670378577477905" lon="12.861792759967921"><ele>1110.5</ele><time>2026-04-12T10:24:09Z</time></trkpt><trkpt lat="42.670466570230225" lon="12.861869001392165"><ele>1115.3333333333333</ele><time>2026-04-12T10:24:11Z</time></trkpt><trkpt lat="42.67049041215465" lon="12.861960121274963"><ele>1120.1666666666667</ele><time>2026-04-12T10:24:13Z</time></trkpt><trkpt lat="42.670452173694095" lon="12.862035711773743"><ele>1125.0</ele><time>2026-04-12T10:24:14Z</time></trkpt><trkpt lat="42.670382247310904" lon="12.862081916252214"><ele>1125.0</ele><time>2026-04-12T10:24:15Z</time></trkpt><trkpt lat="42.670291510020206" lon="12.862141930903004"><ele>1125.0</ele><time>2026-04-12T10:24:16Z</time></trkpt><trkpt lat="42.67020229039389" lon="12.862211317650546"><ele>1125.0</ele><time>2026-04-12T10:24:17Z</time></trkpt><trkpt lat="42.670092243017024" lon="12.86225231089539"><ele>1125.0</ele><time>2026-04-12T10:24:18Z</time></trkpt><trkpt lat="42.66999454335897" lon="12.862324834035407"><ele>1125.0</ele><time>2026-04-12T10:24:19Z</time></trkpt><trkpt lat="42.66989642805406" lon="12.862396715010725"><ele>1127.6</ele><time>2026-04-12T10:24:20Z</time></trkpt><trkpt lat="42.66979447819386" lon="12.862479344000755"><ele>1130.2</ele><time>2026-04-12T10:24:21Z</time></trkpt><trkpt lat="42.66972851422265" lon="12.86254137722001"><ele>1132.8</ele><time>2026-04-12T10:24:22Z</time></trkpt><trkpt lat="42.66963573832601" lon="12.862603599062076"><ele>1135.4</ele><time>2026-04-12T10:24:23Z</time></trkpt><trkpt lat="42.66956406246934" lon="12.862675188955688"><ele>1138.0</ele><time>2026-04-12T10:24:24Z</time></trkpt><trkpt lat="42.669508224622575" lon="12.862775697831898"><ele>1138.0</ele><time>2026-04-12T10:24:25Z</time></trkpt><trkpt lat="42.66946290542616" lon="12.862897927048808"><ele>1138.0</ele><time>2026-04-12T10:24:26Z</time></trkpt><trkpt lat="42.66940827901596" lon="12.863021060246453"><ele>1138.0</ele><time>2026-04-12T10:24:27Z</time></trkpt><trkpt lat="42.66935262131415" lon="12.863110138511527"><ele>1138.0</ele><time>2026-04-12T10:24:28Z</time></trkpt><trkpt lat="42.66928490641123" lon="12.863187226475505"><ele>1138.0</ele><time>2026-04-12T10:24:29Z</time></trkpt><trkpt lat="42.669210622307844" lon="12.863264001605407"><ele>1136.4</ele><time>2026-04-12T10:24:30Z</time></trkpt><trkpt lat="42.66912471649186" lon="12.863339949253277"><ele>1134.8</ele><time>2026-04-12T10:24:31Z</time></trkpt><trkpt lat="42.66904322159428" lon="12.863399498232939"><ele>1133.2</ele><time>2026-04-12T10:24:32Z</time></trkpt><trkpt lat="42.66893849241452" lon="12.863436935580145"><ele>1131.6</ele><time>2026-04-12T10:24:33Z</time></trkpt><trkpt lat="42.66885198273464" lon="12.863442794199166"><ele>1130.0</ele><time>2026-04-12T10:24:34Z</time></trkpt><trkpt lat="42.668776465394686" lon="12.863447808158734"><ele>1130.0</ele><time>2026-04-12T10:24:35Z</time></trkpt><trkpt lat="42.668703601587595" lon="12.86346901126539"><ele>1130.0</ele><time>2026-04-12T10:24:36Z</time></trkpt><trkpt lat="42.66862841230339" lon="12.86347652045651"><ele>1130.0</ele><time>2026-04-12T10:24:37Z</time></trkpt><trkpt lat="42.668558601496144" lon="12.86351637695721"><ele>1130.0</ele><time>2026-04-12T10:24:38Z</time></trkpt><trkpt lat="42.668502245865575" lon="12.86357249703944"><ele>1130.0</ele><time>2026-04-12T10:24:39Z</time></trkpt><trkpt lat="42.66845812869747" lon="12.863656513516693"><ele>1130.0</ele><time>2026-04-12T10:24:40Z</time></trkpt><trkpt lat="42.668422752954925" lon="12.863754297949404"><ele>1124.6666666666667</ele><time>2026-04-12T10:24:41Z</time></trkpt><trkpt lat="42.66838563414139" lon="12.863847995450715"><ele>1119.3333333333335</ele><time>2026-04-12T10:24:42Z</time></trkpt><trkpt lat="42.66835608750914" lon="12.863930393563495"><ele>1114.0</ele><time>2026-04-12T10:24:43Z</time></trkpt><trkpt lat="42.66836312976763" lon="12.864028453443527"><ele>1108.6666666666667</ele><time>2026-04-12T10:24:44Z</time></trkpt><trkpt lat="42.66839501685386" lon="12.864127184878825"><ele>1103.3333333333333</ele><time>2026-04-12T10:24:45Z</time></trkpt><trkpt lat="42.66842358284919" lon="12.864221757527387"><ele>1098.0</ele><time>2026-04-12T10:24:46Z</time></trkpt><trkpt lat="42.66843737831244" lon="12.864326085775847"><ele>1098.0</ele><time>2026-04-12T10:24:47Z</time></trkpt><trkpt lat="42.668461309929334" lon="12.864409258656835"><ele>1098.0</ele><time>2026-04-12T10:24:48Z</time></trkpt><trkpt lat="42.668491523757375" lon="12.86448927379127"><ele>1098.0</ele><time>2026-04-12T10:24:49Z</time></trkpt><trkpt lat="42.668548863361764" lon="12.864626292375252"><ele>1098.0</ele><time>2026-04-12T10:24:50.998Z</time></trkpt><trkpt lat="42.668602407041995" lon="12.864708455550042"><ele>1098.0</ele><time>2026-04-12T10:24:52.998Z</time></trkpt><trkpt lat="42.66857626345076" lon="12.864832623691962"><ele>1098.0</ele><time>2026-04-12T10:24:54.998Z</time></trkpt><trkpt lat="42.66849164164575" lon="12.864962291308636"><ele>1098.0</ele><time>2026-04-12T10:24:56.998Z</time></trkpt><trkpt lat="42.66844570582507" lon="12.865043512636174"><ele>1098.0</ele><time>2026-04-12T10:24:57.998Z</time></trkpt><trkpt lat="42.66841706532202" lon="12.865133581499425"><ele>1098.0</ele><time>2026-04-12T10:24:58.999Z</time></trkpt><trkpt lat="42.668379128038126" lon="12.865244317894874"><ele>1098.0</ele><time>2026-04-12T10:24:59.999Z</time></trkpt><trkpt lat="42.66833166698933" lon="12.865349038523624"><ele>1098.0</ele><time>2026-04-12T10:25:00.999Z</time></trkpt><trkpt lat="42.668280782278764" lon="12.865429597026452"><ele>1098.0</ele><time>2026-04-12T10:25:01.999Z</time></trkpt><trkpt lat="42.66824528699873" lon="12.865516102130039"><ele>1100.8333333333333</ele><time>2026-04-12T10:25:02.999Z</time></trkpt><trkpt lat="42.66819737840266" lon="12.865617222292622"><ele>1103.6666666666667</ele><time>2026-04-12T10:25:03.999Z</time></trkpt><trkpt lat="42.66816350619108" lon="12.865722378918255"><ele>1106.5</ele><time>2026-04-12T10:25:04.999Z</time></trkpt><trkpt lat="42.66813725563062" lon="12.865826048578429"><ele>1109.3333333333335</ele><time>2026-04-12T10:25:05.999Z</time></trkpt><trkpt lat="42.66810740327116" lon="12.865932506313492"><ele>1112.1666666666667</ele><time>2026-04-12T10:25:06.999Z</time></trkpt><trkpt lat="42.66808580972802" lon="12.866049319246502"><ele>1115.0</ele><time>2026-04-12T10:25:07.999Z</time></trkpt><trkpt lat="42.6680526063705" lon="12.866158755231167"><ele>1118.4</ele><time>2026-04-12T10:25:08.999Z</time></trkpt><trkpt lat="42.668022706457336" lon="12.866287166250306"><ele>1121.8</ele><time>2026-04-12T10:25:09.999Z</time></trkpt><trkpt lat="42.66800452733804" lon="12.866420217131399"><ele>1125.2</ele><time>2026-04-12T10:25:10.999Z</time></trkpt><trkpt lat="42.6679868424112" lon="12.866533103073307"><ele>1128.6</ele><time>2026-04-12T10:25:11.999Z</time></trkpt><trkpt lat="42.66797063485952" lon="12.866643855644787"><ele>1132.0</ele><time>2026-04-12T10:25:12.999Z</time></trkpt><trkpt lat="42.66795373479053" lon="12.866758550292351"><ele>1132.5</ele><time>2026-04-12T10:25:13.999Z</time></trkpt><trkpt lat="42.667934993829384" lon="12.866866726750406"><ele>1133.0</ele><time>2026-04-12T10:25:14.999Z</time></trkpt><trkpt lat="42.667926769229325" lon="12.866984591385656"><ele>1133.5</ele><time>2026-04-12T10:25:15.999Z</time></trkpt><trkpt lat="42.66792533225878" lon="12.867094034427506"><ele>1134.0</ele><time>2026-04-12T10:25:16.999Z</time></trkpt><trkpt lat="42.667928336153985" lon="12.867195218705998"><ele>1134.5</ele><time>2026-04-12T10:25:17.999Z</time></trkpt><trkpt lat="42.66794280310453" lon="12.867299607994974"><ele>1135.0</ele><time>2026-04-12T10:25:18.999Z</time></trkpt><trkpt lat="42.66794214556677" lon="12.867395943086102"><ele>1135.0</ele><time>2026-04-12T10:25:19.999Z</time></trkpt><trkpt lat="42.66797587202237" lon="12.867477422686282"><ele>1135.0</ele><time>2026-04-12T10:25:20.999Z</time></trkpt><trkpt lat="42.668028414730955" lon="12.867565610664961"><ele>1135.0</ele><time>2026-04-12T10:25:21.999Z</time></trkpt><trkpt lat="42.66807045894676" lon="12.867653194310893"><ele>1135.0</ele><time>2026-04-12T10:25:22.999Z</time></trkpt><trkpt lat="42.66811567786011" lon="12.867754783013373"><ele>1135.0</ele><time>2026-04-12T10:25:23.999Z</time></trkpt><trkpt lat="42.668141463945474" lon="12.867865323713975"><ele>1135.0</ele><time>2026-04-12T10:25:24.999Z</time></trkpt><trkpt lat="42.66815689321956" lon="12.867988560222544"><ele>1133.2</ele><time>2026-04-12T10:25:25.999Z</time></trkpt><trkpt lat="42.668162877210406" lon="12.868112865667003"><ele>1131.4</ele><time>2026-04-12T10:25:26.999Z</time></trkpt><trkpt lat="42.66816799082252" lon="12.868234450605655"><ele>1129.6</ele><time>2026-04-12T10:25:27.999Z</time></trkpt><trkpt lat="42.66818679983745" lon="12.86837053789312"><ele>1127.8</ele><time>2026-04-12T10:25:28.999Z</time></trkpt><trkpt lat="42.66819512398641" lon="12.868500286026894"><ele>1126.0</ele><time>2026-04-12T10:25:29.999Z</time></trkpt><trkpt lat="42.66821463109065" lon="12.868623936909769"><ele>1125.3999999999999</ele><time>2026-04-12T10:25:31Z</time></trkpt><trkpt lat="42.66823045549595" lon="12.868752674599875"><ele>1124.8</ele><time>2026-04-12T10:25:32Z</time></trkpt><trkpt lat="42.668239209796006" lon="12.868868837658853"><ele>1124.1999999999998</ele><time>2026-04-12T10:25:33Z</time></trkpt><trkpt lat="42.668247642391194" lon="12.868993903451598"><ele>1123.6</ele><time>2026-04-12T10:25:34Z</time></trkpt><trkpt lat="42.66824604482332" lon="12.86913250647236"><ele>1123.0</ele><time>2026-04-12T10:25:35Z</time></trkpt><trkpt lat="42.668243351951745" lon="12.869271382406415"><ele>1121.6666666666665</ele><time>2026-04-12T10:25:36Z</time></trkpt><trkpt lat="42.66824978714235" lon="12.869393962908681"><ele>1120.3333333333333</ele><time>2026-04-12T10:25:37Z</time></trkpt><trkpt lat="42.66825733412975" lon="12.86949836789265"><ele>1119.0</ele><time>2026-04-12T10:25:38Z</time></trkpt><trkpt lat="42.66826363441396" lon="12.869601426896246"><ele>1117.6666666666667</ele><time>2026-04-12T10:25:39Z</time></trkpt><trkpt lat="42.66827965622889" lon="12.869704587167938"><ele>1116.3333333333335</ele><time>2026-04-12T10:25:40Z</time></trkpt><trkpt lat="42.66830289091483" lon="12.8698207765794"><ele>1115.0</ele><time>2026-04-12T10:25:41Z</time></trkpt><trkpt lat="42.668314604056356" lon="12.869928630063525"><ele>1115.0</ele><time>2026-04-12T10:25:42Z</time></trkpt><trkpt lat="42.6683592238435" lon="12.870016619604462"><ele>1115.0</ele><time>2026-04-12T10:25:43Z</time></trkpt><trkpt lat="42.66840514385051" lon="12.87009422219968"><ele>1115.0</ele><time>2026-04-12T10:25:44Z</time></trkpt><trkpt lat="42.668452615896015" lon="12.870182964162678"><ele>1115.0</ele><time>2026-04-12T10:25:45Z</time></trkpt><trkpt lat="42.66850456684576" lon="12.87027374812833"><ele>1115.0</ele><time>2026-04-12T10:25:46Z</time></trkpt><trkpt lat="42.668548672648036" lon="12.870363520372965"><ele>1115.0</ele><time>2026-04-12T10:25:47Z</time></trkpt><trkpt lat="42.66859028437132" lon="12.870448707260856"><ele>1121.3333333333335</ele><time>2026-04-12T10:25:48Z</time></trkpt><trkpt lat="42.66862980154057" lon="12.870552943761027"><ele>1127.6666666666667</ele><time>2026-04-12T10:25:49Z</time></trkpt><trkpt lat="42.668658634370175" lon="12.87064706438788"><ele>1134.0</ele><time>2026-04-12T10:25:50Z</time></trkpt><trkpt lat="42.66868448631354" lon="12.87076709458795"><ele>1140.3333333333333</ele><time>2026-04-12T10:25:51Z</time></trkpt><trkpt lat="42.66871731918591" lon="12.870878936231785"><ele>1146.6666666666665</ele><time>2026-04-12T10:25:52Z</time></trkpt><trkpt lat="42.66874127055431" lon="12.87098972793583"><ele>1153.0</ele><time>2026-04-12T10:25:53Z</time></trkpt><trkpt lat="42.668748494727716" lon="12.871096260485851"><ele>1153.0</ele><time>2026-04-12T10:25:54Z</time></trkpt><trkpt lat="42.668746365183054" lon="12.871234785594618"><ele>1153.0</ele><time>2026-04-12T10:25:55Z</time></trkpt><trkpt lat="42.668738910873095" lon="12.871359391652536"><ele>1153.0</ele><time>2026-04-12T10:25:56Z</time></trkpt><trkpt lat="42.668730771954365" lon="12.87147592073123"><ele>1153.0</ele><time>2026-04-12T10:25:57Z</time></trkpt><trkpt lat="42.668714231449144" lon="12.871589778952917"><ele>1153.0</ele><time>2026-04-12T10:25:58Z</time></trkpt><trkpt lat="42.6686778002358" lon="12.871710554898085"><ele>1152.4</ele><time>2026-04-12T10:25:59Z</time></trkpt><trkpt lat="42.66865221644015" lon="12.871820078818185"><ele>1151.8</ele><time>2026-04-12T10:26:00Z</time></trkpt><trkpt lat="42.668645950494145" lon="12.871964123822048"><ele>1151.2</ele><time>2026-04-12T10:26:01Z</time></trkpt><trkpt lat="42.668633316794576" lon="12.87208513530352"><ele>1150.6</ele><time>2026-04-12T10:26:02Z</time></trkpt><trkpt lat="42.66860748252716" lon="12.87219233578876"><ele>1150.0</ele><time>2026-04-12T10:26:03Z</time></trkpt><trkpt lat="42.66858314865213" lon="12.872310340056503"><ele>1142.8333333333333</ele><time>2026-04-12T10:26:04Z</time></trkpt><trkpt lat="42.668562493676916" lon="12.872423513363154"><ele>1135.6666666666665</ele><time>2026-04-12T10:26:05Z</time></trkpt><trkpt lat="42.66854796779124" lon="12.872524351003465"><ele>1128.5</ele><time>2026-04-12T10:26:06Z</time></trkpt><trkpt lat="42.668533183819655" lon="12.87260789579804"><ele>1121.3333333333333</ele><time>2026-04-12T10:26:07Z</time></trkpt><trkpt lat="42.668527139580256" lon="12.872703698342894"><ele>1114.1666666666667</ele><time>2026-04-12T10:26:08Z</time></trkpt><trkpt lat="42.668549426820356" lon="12.87283085036542"><ele>1107.0</ele><time>2026-04-12T10:26:09Z</time></trkpt><trkpt lat="42.66852883141585" lon="12.872966089443462"><ele>1106.0</ele><time>2026-04-12T10:26:11Z</time></trkpt><trkpt lat="42.668549775499436" lon="12.873112163031115"><ele>1105.0</ele><time>2026-04-12T10:26:13Z</time></trkpt><trkpt lat="42.6686413931442" lon="12.873212738353406"><ele>1104.0</ele><time>2026-04-12T10:26:15Z</time></trkpt><trkpt lat="42.66869292593166" lon="12.873269448462494"><ele>1103.0</ele><time>2026-04-12T10:26:16Z</time></trkpt><trkpt lat="42.668772133595134" lon="12.8733119144821"><ele>1102.0</ele><time>2026-04-12T10:26:18Z</time></trkpt><trkpt lat="42.66884057688763" lon="12.873327056421596"><ele>1101.0</ele><time>2026-04-12T10:26:20Z</time></trkpt><trkpt lat="42.668852317344104" lon="12.873435881132922"><ele>1101.0</ele><time>2026-04-12T10:26:24Z</time></trkpt><trkpt lat="42.66881061844663" lon="12.873513210293579"><ele>1101.0</ele><time>2026-04-12T10:26:26Z</time></trkpt><trkpt lat="42.66872161497312" lon="12.873583090078858"><ele>1101.0</ele><time>2026-04-12T10:26:28Z</time></trkpt><trkpt lat="42.66862176473237" lon="12.873664062071033"><ele>1101.0</ele><time>2026-04-12T10:26:30Z</time></trkpt><trkpt lat="42.66857502868858" lon="12.873810523263836"><ele>1101.0</ele><time>2026-04-12T10:26:32Z</time></trkpt><trkpt lat="42.66854999096051" lon="12.873978068488947"><ele>1101.0</ele><time>2026-04-12T10:26:34Z</time></trkpt><trkpt lat="42.66853901626852" lon="12.874078136023003"><ele>1101.0</ele><time>2026-04-12T10:26:35Z</time></trkpt><trkpt lat="42.66853400495211" lon="12.874193414478539"><ele>1101.0</ele><time>2026-04-12T10:26:36Z</time></trkpt><trkpt lat="42.66853182066764" lon="12.874306251726944"><ele>1101.0</ele><time>2026-04-12T10:26:37Z</time></trkpt><trkpt lat="42.66851705444401" lon="12.874431106427329"><ele>1101.0</ele><time>2026-04-12T10:26:38Z</time></trkpt><trkpt lat="42.668515186199684" lon="12.874545632548976"><ele>1101.0</ele><time>2026-04-12T10:26:39Z</time></trkpt><trkpt lat="42.66846802046305" lon="12.874658495785761"><ele>1102.142857142857</ele><time>2026-04-12T10:26:40Z</time></trkpt><trkpt lat="42.66843393243661" lon="12.874761998292625"><ele>1103.2857142857142</ele><time>2026-04-12T10:26:41Z</time></trkpt><trkpt lat="42.66839701410098" lon="12.874851983278639"><ele>1104.4285714285713</ele><time>2026-04-12T10:26:42Z</time></trkpt><trkpt lat="42.66836500870768" lon="12.874943704091825"><ele>1105.5714285714284</ele><time>2026-04-12T10:26:43Z</time></trkpt><trkpt lat="42.66833164345836" lon="12.87503284834"><ele>1106.7142857142858</ele><time>2026-04-12T10:26:44Z</time></trkpt><trkpt lat="42.66829956976367" lon="12.875119552021859"><ele>1107.8571428571427</ele><time>2026-04-12T10:26:45.001Z</time></trkpt><trkpt lat="42.66826955647438" lon="12.875199463032834"><ele>1109.0</ele><time>2026-04-12T10:26:46.001Z</time></trkpt><trkpt lat="42.6682610496028" lon="12.87528460804499"><ele>1110.4</ele><time>2026-04-12T10:26:47.001Z</time></trkpt><trkpt lat="42.66828726653283" lon="12.875410519348419"><ele>1111.8000000000002</ele><time>2026-04-12T10:26:49.001Z</time></trkpt><trkpt lat="42.668317278808516" lon="12.875485845650942"><ele>1113.1999999999998</ele><time>2026-04-12T10:26:50.001Z</time></trkpt><trkpt lat="42.66831505152226" lon="12.875576304991492"><ele>1114.6</ele><time>2026-04-12T10:26:51.001Z</time></trkpt><trkpt lat="42.66824857277662" lon="12.8757249845227"><ele>1116.0</ele><time>2026-04-12T10:26:53.001Z</time></trkpt><trkpt lat="42.66828344964656" lon="12.875869222128049"><ele>1118.0</ele><time>2026-04-12T10:26:55.001Z</time></trkpt><trkpt lat="42.66834822291495" lon="12.876035177618546"><ele>1120.0</ele><time>2026-04-12T10:26:56.999Z</time></trkpt><trkpt lat="42.66835680161751" lon="12.8761545299514"><ele>1122.0</ele><time>2026-04-12T10:26:57.999Z</time></trkpt><trkpt lat="42.66836370218524" lon="12.876290029954246"><ele>1124.0</ele><time>2026-04-12T10:26:58.999Z</time></trkpt><trkpt lat="42.66834073284458" lon="12.876409300267024"><ele>1126.0</ele><time>2026-04-12T10:26:59.999Z</time></trkpt><trkpt lat="42.66833480331207" lon="12.876547411641516"><ele>1126.0</ele><time>2026-04-12T10:27:00.999Z</time></trkpt><trkpt lat="42.66832325650744" lon="12.876681943813784"><ele>1126.0</ele><time>2026-04-12T10:27:01.999Z</time></trkpt><trkpt lat="42.66829872722052" lon="12.876796702099519"><ele>1126.0</ele><time>2026-04-12T10:27:02.999Z</time></trkpt><trkpt lat="42.66830050973744" lon="12.876904796431539"><ele>1126.0</ele><time>2026-04-12T10:27:03.999Z</time></trkpt><trkpt lat="42.668298723502716" lon="12.877009399774838"><ele>1126.0</ele><time>2026-04-12T10:27:04.999Z</time></trkpt><trkpt lat="42.66830907479347" lon="12.877112317831443"><ele>1126.0</ele><time>2026-04-12T10:27:05.999Z</time></trkpt><trkpt lat="42.668313643530304" lon="12.87722394236769"><ele>1127.3333333333333</ele><time>2026-04-12T10:27:06.999Z</time></trkpt><trkpt lat="42.6683183254984" lon="12.877319971800782"><ele>1128.6666666666665</ele><time>2026-04-12T10:27:07.999Z</time></trkpt><trkpt lat="42.668325410909226" lon="12.877439977313541"><ele>1130.0</ele><time>2026-04-12T10:27:08.999Z</time></trkpt><trkpt lat="42.668349222221295" lon="12.877553271412589"><ele>1131.3333333333333</ele><time>2026-04-12T10:27:09.999Z</time></trkpt><trkpt lat="42.66835452782648" lon="12.877654960387227"><ele>1132.6666666666667</ele><time>2026-04-12T10:27:10.999Z</time></trkpt><trkpt lat="42.668353625434534" lon="12.877776083759773"><ele>1134.0</ele><time>2026-04-12T10:27:11.999Z</time></trkpt><trkpt lat="42.66833831466904" lon="12.877905276603286"><ele>1134.8333333333333</ele><time>2026-04-12T10:27:12.999Z</time></trkpt><trkpt lat="42.66831937148822" lon="12.878024351035425"><ele>1135.6666666666667</ele><time>2026-04-12T10:27:13.999Z</time></trkpt><trkpt lat="42.66829472040248" lon="12.878132007896738"><ele>1136.5</ele><time>2026-04-12T10:27:14.999Z</time></trkpt><trkpt lat="42.6682911109355" lon="12.878244938365555"><ele>1137.3333333333335</ele><time>2026-04-12T10:27:15.999Z</time></trkpt><trkpt lat="42.66828527598478" lon="12.87834196587476"><ele>1138.1666666666667</ele><time>2026-04-12T10:27:16.999Z</time></trkpt><trkpt lat="42.66827004140322" lon="12.878445236325385"><ele>1139.0</ele><time>2026-04-12T10:27:17.999Z</time></trkpt><trkpt lat="42.668233837767694" lon="12.878550467456355"><ele>1139.5</ele><time>2026-04-12T10:27:18.999Z</time></trkpt><trkpt lat="42.66820895754638" lon="12.878642334747504"><ele>1140.0</ele><time>2026-04-12T10:27:20Z</time></trkpt><trkpt lat="42.66818246984656" lon="12.87876785927853"><ele>1140.5</ele><time>2026-04-12T10:27:21Z</time></trkpt><trkpt lat="42.66818829732337" lon="12.878868685814451"><ele>1141.0</ele><time>2026-04-12T10:27:22Z</time></trkpt><trkpt lat="42.66818881426081" lon="12.878972720396442"><ele>1141.5</ele><time>2026-04-12T10:27:23Z</time></trkpt><trkpt lat="42.668169291739815" lon="12.879055902766417"><ele>1142.0</ele><time>2026-04-12T10:27:24Z</time></trkpt><trkpt lat="42.66818687646674" lon="12.8791564564954"><ele>1143.0</ele><time>2026-04-12T10:27:25Z</time></trkpt><trkpt lat="42.668200315107704" lon="12.879281259942363"><ele>1144.0</ele><time>2026-04-12T10:27:26Z</time></trkpt><trkpt lat="42.66820297384596" lon="12.879422524163962"><ele>1145.0</ele><time>2026-04-12T10:27:27Z</time></trkpt><trkpt lat="42.66821280276602" lon="12.879537222164746"><ele>1146.0</ele><time>2026-04-12T10:27:28Z</time></trkpt><trkpt lat="42.66824268026187" lon="12.879714839808981"><ele>1147.0</ele><time>2026-04-12T10:27:30Z</time></trkpt><trkpt lat="42.66827118932102" lon="12.879799723406933"><ele>1147.0</ele><time>2026-04-12T10:27:31Z</time></trkpt><trkpt lat="42.66830326756382" lon="12.87993825051637"><ele>1147.0</ele><time>2026-04-12T10:27:33Z</time></trkpt><trkpt lat="42.6683778229702" lon="12.880029309046119"><ele>1147.0</ele><time>2026-04-12T10:27:34Z</time></trkpt><trkpt lat="42.668408959523084" lon="12.880138345609824"><ele>1147.0</ele><time>2026-04-12T10:27:35Z</time></trkpt><trkpt lat="42.66840813531162" lon="12.880246794285961"><ele>1147.0</ele><time>2026-04-12T10:27:36Z</time></trkpt><trkpt lat="42.66838302965152" lon="12.880352375559134"><ele>1148.0</ele><time>2026-04-12T10:27:37Z</time></trkpt><trkpt lat="42.66834249898486" lon="12.880441468039692"><ele>1149.0</ele><time>2026-04-12T10:27:38Z</time></trkpt><trkpt lat="42.66830044848693" lon="12.880559645057104"><ele>1150.0</ele><time>2026-04-12T10:27:39Z</time></trkpt><trkpt lat="42.66824076341131" lon="12.880646234315607"><ele>1151.0</ele><time>2026-04-12T10:27:40Z</time></trkpt><trkpt lat="42.66822825243707" lon="12.880732296295784"><ele>1152.0</ele><time>2026-04-12T10:27:41Z</time></trkpt><trkpt lat="42.66822913043825" lon="12.880828782498934"><ele>1153.0</ele><time>2026-04-12T10:27:42Z</time></trkpt><trkpt lat="42.6682372010541" lon="12.880935368532853"><ele>1154.5</ele><time>2026-04-12T10:27:43Z</time></trkpt><trkpt lat="42.66823845465584" lon="12.881061080223198"><ele>1156.0</ele><time>2026-04-12T10:27:44Z</time></trkpt><trkpt lat="42.668253457859535" lon="12.881187032913902"><ele>1157.5</ele><time>2026-04-12T10:27:45Z</time></trkpt><trkpt lat="42.66824609902517" lon="12.881343773931428"><ele>1159.0</ele><time>2026-04-12T10:27:46Z</time></trkpt><trkpt lat="42.66824461173088" lon="12.881549566179643"><ele>1159.0</ele><time>2026-04-12T10:27:47Z</time></trkpt><trkpt lat="42.66824469037546" lon="12.881717312992992"><ele>1159.0</ele><time>2026-04-12T10:27:48Z</time></trkpt><trkpt lat="42.668243327097706" lon="12.881890973634283"><ele>1159.0</ele><time>2026-04-12T10:27:49Z</time></trkpt><trkpt lat="42.66824394100316" lon="12.882070008406243"><ele>1159.0</ele><time>2026-04-12T10:27:50Z</time></trkpt><trkpt lat="42.66828375676272" lon="12.882252133519515"><ele>1159.75</ele><time>2026-04-12T10:27:51Z</time></trkpt><trkpt lat="42.66830644577098" lon="12.882448510412948"><ele>1160.5</ele><time>2026-04-12T10:27:52Z</time></trkpt><trkpt lat="42.66831741881379" lon="12.882631191420495"><ele>1161.25</ele><time>2026-04-12T10:27:53Z</time></trkpt><trkpt lat="42.668335611660545" lon="12.882780938242096"><ele>1162.0</ele><time>2026-04-12T10:27:54Z</time></trkpt><trkpt lat="42.66835430692011" lon="12.88293924463105"><ele>1162.5</ele><time>2026-04-12T10:27:55Z</time></trkpt><trkpt lat="42.668392725610566" lon="12.883106450044187"><ele>1163.0</ele><time>2026-04-12T10:27:56Z</time></trkpt><trkpt lat="42.66843074854196" lon="12.883260916461007"><ele>1163.5</ele><time>2026-04-12T10:27:57Z</time></trkpt><trkpt lat="42.66849326166506" lon="12.883408513852894"><ele>1164.0</ele><time>2026-04-12T10:27:58Z</time></trkpt><trkpt lat="42.66855581544491" lon="12.883543335437606"><ele>1166.0</ele><time>2026-04-12T10:27:59Z</time></trkpt><trkpt lat="42.66863197153375" lon="12.88364624364091"><ele>1168.0</ele><time>2026-04-12T10:28:00Z</time></trkpt><trkpt lat="42.668712167036254" lon="12.883769943869375"><ele>1170.0</ele><time>2026-04-12T10:28:01Z</time></trkpt><trkpt lat="42.668780740710616" lon="12.883883765332046"><ele>1172.0</ele><time>2026-04-12T10:28:02Z</time></trkpt><trkpt lat="42.668838556696805" lon="12.883982261322352"><ele>1174.0</ele><time>2026-04-12T10:28:03Z</time></trkpt><trkpt lat="42.668918526983354" lon="12.884078826780511"><ele>1174.0</ele><time>2026-04-12T10:28:04Z</time></trkpt><trkpt lat="42.668947005231956" lon="12.88421126538672"><ele>1174.0</ele><time>2026-04-12T10:28:05Z</time></trkpt><trkpt lat="42.66897233510374" lon="12.884316067301068"><ele>1174.0</ele><time>2026-04-12T10:28:06Z</time></trkpt><trkpt lat="42.66898975642129" lon="12.884453798653198"><ele>1174.0</ele><time>2026-04-12T10:28:07Z</time></trkpt><trkpt lat="42.668973068469676" lon="12.884643594284167"><ele>1174.0</ele><time>2026-04-12T10:28:08Z</time></trkpt><trkpt lat="42.66897536997621" lon="12.88479364551197"><ele>1174.25</ele><time>2026-04-12T10:28:09Z</time></trkpt><trkpt lat="42.6689775583864" lon="12.884960149788208"><ele>1174.5</ele><time>2026-04-12T10:28:10Z</time></trkpt><trkpt lat="42.66900147399786" lon="12.885109983191526"><ele>1174.75</ele><time>2026-04-12T10:28:11Z</time></trkpt><trkpt lat="42.6690633335711" lon="12.88524722397517"><ele>1175.0</ele><time>2026-04-12T10:28:12Z</time></trkpt><trkpt lat="42.66915276733974" lon="12.885413547856269"><ele>1175.0</ele><time>2026-04-12T10:28:13Z</time></trkpt><trkpt lat="42.669256177421055" lon="12.885556391550306"><ele>1175.0</ele><time>2026-04-12T10:28:14.001Z</time></trkpt><trkpt lat="42.66937648224647" lon="12.885713736393033"><ele>1175.0</ele><time>2026-04-12T10:28:15.001Z</time></trkpt><trkpt lat="42.66953756993792" lon="12.88586174559341"><ele>1174.2</ele><time>2026-04-12T10:28:16.001Z</time></trkpt><trkpt lat="42.66958493965652" lon="12.885966686467947"><ele>1173.4</ele><time>2026-04-12T10:28:17.001Z</time></trkpt><trkpt lat="42.66963541043209" lon="12.886074237075386"><ele>1172.6</ele><time>2026-04-12T10:28:18.001Z</time></trkpt><trkpt lat="42.669687203647825" lon="12.88618813868872"><ele>1171.8</ele><time>2026-04-12T10:28:19.001Z</time></trkpt><trkpt lat="42.66972757693309" lon="12.886306675388191"><ele>1171.0</ele><time>2026-04-12T10:28:20.001Z</time></trkpt><trkpt lat="42.669747420151054" lon="12.886434118140574"><ele>1171.0</ele><time>2026-04-12T10:28:21.001Z</time></trkpt><trkpt lat="42.66975192275622" lon="12.886543136170031"><ele>1171.0</ele><time>2026-04-12T10:28:22.001Z</time></trkpt><trkpt lat="42.669753111316645" lon="12.886637539935416"><ele>1171.0</ele><time>2026-04-12T10:28:23.001Z</time></trkpt><trkpt lat="42.66972716547446" lon="12.886758479603365"><ele>1171.0</ele><time>2026-04-12T10:28:25.001Z</time></trkpt><trkpt lat="42.66976670440784" lon="12.886866462510353"><ele>1171.0</ele><time>2026-04-12T10:33:41.001Z</time></trkpt><trkpt lat="42.66978245033437" lon="12.886954927509708"><ele>1171.0</ele><time>2026-04-12T10:33:42.001Z</time></trkpt><trkpt lat="42.66980528668863" lon="12.887041528806444"><ele>1170.5</ele><time>2026-04-12T10:33:43.001Z</time></trkpt><trkpt lat="42.669839290635316" lon="12.88713729874999"><ele>1170.0</ele><time>2026-04-12T10:33:44.001Z</time></trkpt><trkpt lat="42.66986906120952" lon="12.887235323165411"><ele>1169.5</ele><time>2026-04-12T10:33:45.001Z</time></trkpt><trkpt lat="42.66990004974371" lon="12.887354015567809"><ele>1169.0</ele><time>2026-04-12T10:33:46.001Z</time></trkpt><trkpt lat="42.66993512202512" lon="12.887463031712853"><ele>1168.5</ele><time>2026-04-12T10:33:47.001Z</time></trkpt><trkpt lat="42.669975370951114" lon="12.887567152793176"><ele>1168.0</ele><time>2026-04-12T10:33:48.001Z</time></trkpt><trkpt lat="42.670024687800016" lon="12.887678806772287"><ele>1169.5</ele><time>2026-04-12T10:33:49.001Z</time></trkpt><trkpt lat="42.67006726777268" lon="12.887789280462895"><ele>1171.0</ele><time>2026-04-12T10:33:50.001Z</time></trkpt><trkpt lat="42.67010411231878" lon="12.887886450978764"><ele>1172.5</ele><time>2026-04-12T10:33:51.001Z</time></trkpt><trkpt lat="42.67014411702285" lon="12.887984956487355"><ele>1174.0</ele><time>2026-04-12T10:33:52.001Z</time></trkpt><trkpt lat="42.67017607204969" lon="12.888108058054376"><ele>1175.5</ele><time>2026-04-12T10:33:53.001Z</time></trkpt><trkpt lat="42.670190599958886" lon="12.888235901992227"><ele>1177.0</ele><time>2026-04-12T10:33:54.001Z</time></trkpt><trkpt lat="42.6702002304353" lon="12.888367688019112"><ele>1176.0</ele><time>2026-04-12T10:33:55.001Z</time></trkpt><trkpt lat="42.67021040284699" lon="12.888485709752002"><ele>1175.0</ele><time>2026-04-12T10:33:56.001Z</time></trkpt><trkpt lat="42.670222006962106" lon="12.888596781059393"><ele>1174.0</ele><time>2026-04-12T10:33:57.001Z</time></trkpt><trkpt lat="42.6702365110165" lon="12.888718436949572"><ele>1173.0</ele><time>2026-04-12T10:33:58.001Z</time></trkpt><trkpt lat="42.670280199866866" lon="12.88884009539733"><ele>1172.0</ele><time>2026-04-12T10:33:59.001Z</time></trkpt><trkpt lat="42.67035062934674" lon="12.888962113157499"><ele>1172.0</ele><time>2026-04-12T10:34:00.001Z</time></trkpt><trkpt lat="42.670418180884084" lon="12.889055917211165"><ele>1172.0</ele><time>2026-04-12T10:34:01.001Z</time></trkpt><trkpt lat="42.67045871062393" lon="12.889146225856054"><ele>1172.0</ele><time>2026-04-12T10:34:02.001Z</time></trkpt><trkpt lat="42.670486543575194" lon="12.889228725099457"><ele>1172.0</ele><time>2026-04-12T10:34:03.001Z</time></trkpt><trkpt lat="42.67051311992125" lon="12.889356514171386"><ele>1172.0</ele><time>2026-04-12T10:34:05.001Z</time></trkpt><trkpt lat="42.67050016326766" lon="12.889443567776212"><ele>1172.0</ele><time>2026-04-12T10:34:07.001Z</time></trkpt><trkpt lat="42.670492858735265" lon="12.88953892983225"><ele>1172.6666666666667</ele><time>2026-04-12T10:34:09.001Z</time></trkpt><trkpt lat="42.670489955075965" lon="12.889625919352515"><ele>1173.3333333333335</ele><time>2026-04-12T10:34:10.001Z</time></trkpt><trkpt lat="42.67048945096467" lon="12.889714626148292"><ele>1174.0</ele><time>2026-04-12T10:34:11.001Z</time></trkpt><trkpt lat="42.67049144513869" lon="12.88980242304466"><ele>1174.6666666666667</ele><time>2026-04-12T10:34:12.001Z</time></trkpt><trkpt lat="42.67048145062347" lon="12.889962703198355"><ele>1175.3333333333333</ele><time>2026-04-12T10:34:14.001Z</time></trkpt><trkpt lat="42.67048795616566" lon="12.890057798934492"><ele>1176.0</ele><time>2026-04-12T10:34:15.001Z</time></trkpt><trkpt lat="42.67050530092865" lon="12.890155397833507"><ele>1176.2</ele><time>2026-04-12T10:34:16.001Z</time></trkpt><trkpt lat="42.67051453299713" lon="12.89024712033102"><ele>1176.3999999999999</ele><time>2026-04-12T10:34:17.001Z</time></trkpt><trkpt lat="42.67055534912884" lon="12.890399356594045"><ele>1176.6</ele><time>2026-04-12T10:34:19.001Z</time></trkpt><trkpt lat="42.67059933346639" lon="12.890540948990296"><ele>1176.8</ele><time>2026-04-12T10:34:21.001Z</time></trkpt><trkpt lat="42.67065519303287" lon="12.890686260400207"><ele>1177.0</ele><time>2026-04-12T10:34:23.001Z</time></trkpt><trkpt lat="42.67069049888195" lon="12.890790649385174"><ele>1177.0</ele><time>2026-04-12T10:34:25.001Z</time></trkpt><trkpt lat="42.67071793923206" lon="12.890905859294664"><ele>1177.0</ele><time>2026-04-12T10:34:27.001Z</time></trkpt><trkpt lat="42.67074384250276" lon="12.89105530666999"><ele>1177.0</ele><time>2026-04-12T10:34:29.001Z</time></trkpt><trkpt lat="42.67077208906561" lon="12.891236047958026"><ele>1177.0</ele><time>2026-04-12T10:34:31.001Z</time></trkpt><trkpt lat="42.670752460095514" lon="12.891351285709883"><ele>1177.0</ele><time>2026-04-12T10:34:32.001Z</time></trkpt><trkpt lat="42.670757318481876" lon="12.89146911492984"><ele>1178.3333333333333</ele><time>2026-04-12T10:34:33.001Z</time></trkpt><trkpt lat="42.67077321587394" lon="12.891565534938199"><ele>1179.6666666666665</ele><time>2026-04-12T10:34:34.001Z</time></trkpt><trkpt lat="42.67080097479967" lon="12.891648177879146"><ele>1181.0</ele><time>2026-04-12T10:34:35.001Z</time></trkpt><trkpt lat="42.67087072840738" lon="12.891738064135737"><ele>1182.3333333333333</ele><time>2026-04-12T10:34:37.001Z</time></trkpt><trkpt lat="42.67086806907519" lon="12.89184485700569"><ele>1183.6666666666667</ele><time>2026-04-12T10:34:38.001Z</time></trkpt><trkpt lat="42.67088990809543" lon="12.891928494857401"><ele>1185.0</ele><time>2026-04-12T10:34:39.001Z</time></trkpt><trkpt lat="42.6709290394262" lon="12.89207302482606"><ele>1187.2</ele><time>2026-04-12T10:34:41.001Z</time></trkpt><trkpt lat="42.6709608434719" lon="12.892210673658449"><ele>1189.4</ele><time>2026-04-12T10:34:43.001Z</time></trkpt><trkpt lat="42.6710192831566" lon="12.892362714240654"><ele>1191.6</ele><time>2026-04-12T10:34:45.001Z</time></trkpt><trkpt lat="42.671028221642075" lon="12.892464254322796"><ele>1193.8</ele><time>2026-04-12T10:34:46.001Z</time></trkpt><trkpt lat="42.671065381524684" lon="12.892592556717704"><ele>1196.0</ele><time>2026-04-12T10:34:47.001Z</time></trkpt><trkpt lat="42.67108458944552" lon="12.892708638195112"><ele>1196.5714285714284</ele><time>2026-04-12T10:34:48.001Z</time></trkpt><trkpt lat="42.67109988821312" lon="12.892811406785954"><ele>1197.142857142857</ele><time>2026-04-12T10:34:49.001Z</time></trkpt><trkpt lat="42.67109990516787" lon="12.892916813218148"><ele>1197.7142857142858</ele><time>2026-04-12T10:34:50.001Z</time></trkpt><trkpt lat="42.671121582574365" lon="12.89300122413374"><ele>1198.2857142857142</ele><time>2026-04-12T10:34:51.001Z</time></trkpt><trkpt lat="42.67114489718699" lon="12.893115452493864"><ele>1198.857142857143</ele><time>2026-04-12T10:34:52.001Z</time></trkpt><trkpt lat="42.671164169165486" lon="12.893209000736572"><ele>1199.4285714285713</ele><time>2026-04-12T10:34:53.001Z</time></trkpt><trkpt lat="42.67118784954086" lon="12.893298776173802"><ele>1200.0</ele><time>2026-04-12T10:34:54.001Z</time></trkpt><trkpt lat="42.67122377764271" lon="12.893388878044913"><ele>1196.4</ele><time>2026-04-12T10:34:55.001Z</time></trkpt><trkpt lat="42.671242984420395" lon="12.893501291119861"><ele>1192.8</ele><time>2026-04-12T10:34:56.001Z</time></trkpt><trkpt lat="42.67126523719371" lon="12.893627529025013"><ele>1189.2</ele><time>2026-04-12T10:34:57.001Z</time></trkpt><trkpt lat="42.67132888179437" lon="12.8937501578258"><ele>1185.6</ele><time>2026-04-12T10:34:58.001Z</time></trkpt><trkpt lat="42.671418823610104" lon="12.893830114129265"><ele>1182.0</ele><time>2026-04-12T10:34:59.001Z</time></trkpt><trkpt lat="42.67145833256727" lon="12.89393906452778"><ele>1182.0</ele><time>2026-04-12T10:35:00.001Z</time></trkpt><trkpt lat="42.6714387061621" lon="12.894027684555114"><ele>1182.0</ele><time>2026-04-12T10:35:01.001Z</time></trkpt><trkpt lat="42.671440256431715" lon="12.894152456409133"><ele>1182.0</ele><time>2026-04-12T10:35:02.001Z</time></trkpt><trkpt lat="42.67144229158104" lon="12.894291666061509"><ele>1182.0</ele><time>2026-04-12T10:35:03.001Z</time></trkpt><trkpt lat="42.67148040028758" lon="12.89442549262269"><ele>1182.0</ele><time>2026-04-12T10:35:04.001Z</time></trkpt><trkpt lat="42.67150189712616" lon="12.894543206888866"><ele>1183.4</ele><time>2026-04-12T10:35:05.001Z</time></trkpt><trkpt lat="42.67151169218535" lon="12.894663205677812"><ele>1184.8000000000002</ele><time>2026-04-12T10:35:06.001Z</time></trkpt><trkpt lat="42.67151035798728" lon="12.894781053951029"><ele>1186.2</ele><time>2026-04-12T10:35:07.001Z</time></trkpt><trkpt lat="42.67148253519681" lon="12.894905659258994"><ele>1187.6000000000001</ele><time>2026-04-12T10:35:08.001Z</time></trkpt><trkpt lat="42.67144779148661" lon="12.895019627544773"><ele>1189.0</ele><time>2026-04-12T10:35:09.001Z</time></trkpt><trkpt lat="42.671408999256144" lon="12.895128667669361"><ele>1190.8</ele><time>2026-04-12T10:35:10.001Z</time></trkpt><trkpt lat="42.671383840375704" lon="12.895250657860926"><ele>1192.6000000000001</ele><time>2026-04-12T10:35:11.001Z</time></trkpt><trkpt lat="42.67134997720429" lon="12.895364462428905"><ele>1194.4</ele><time>2026-04-12T10:35:12.001Z</time></trkpt><trkpt lat="42.67130920242575" lon="12.895472658502605"><ele>1196.2</ele><time>2026-04-12T10:35:13.001Z</time></trkpt><trkpt lat="42.671246486832345" lon="12.895574261333708"><ele>1198.0</ele><time>2026-04-12T10:35:14.001Z</time></trkpt><trkpt lat="42.67118764545961" lon="12.895678031036375"><ele>1198.0</ele><time>2026-04-12T10:35:15.001Z</time></trkpt><trkpt lat="42.6711370318169" lon="12.895767506783525"><ele>1198.0</ele><time>2026-04-12T10:35:16.001Z</time></trkpt><trkpt lat="42.67109256672212" lon="12.89586645912107"><ele>1198.0</ele><time>2026-04-12T10:35:17.001Z</time></trkpt><trkpt lat="42.671074684606474" lon="12.895976157619103"><ele>1198.0</ele><time>2026-04-12T10:35:18.002Z</time></trkpt><trkpt lat="42.67104307240262" lon="12.896128236202095"><ele>1198.0</ele><time>2026-04-12T10:35:19.002Z</time></trkpt><trkpt lat="42.67103071909837" lon="12.89627168853838"><ele>1199.8333333333333</ele><time>2026-04-12T10:35:20.002Z</time></trkpt><trkpt lat="42.67101274110618" lon="12.896390063725427"><ele>1201.6666666666665</ele><time>2026-04-12T10:35:21.001Z</time></trkpt><trkpt lat="42.6709907398285" lon="12.896514489737887"><ele>1203.5</ele><time>2026-04-12T10:35:22.001Z</time></trkpt><trkpt lat="42.67096999282055" lon="12.89662250300119"><ele>1205.3333333333333</ele><time>2026-04-12T10:35:23.001Z</time></trkpt><trkpt lat="42.67095215683126" lon="12.896724249561622"><ele>1207.1666666666667</ele><time>2026-04-12T10:35:24.001Z</time></trkpt><trkpt lat="42.670934402101594" lon="12.896833211316823"><ele>1209.0</ele><time>2026-04-12T10:35:25.001Z</time></trkpt><trkpt lat="42.67091551839161" lon="12.896952194480715"><ele>1209.0</ele><time>2026-04-12T10:35:26.001Z</time></trkpt><trkpt lat="42.6708947930078" lon="12.897074384429962"><ele>1209.0</ele><time>2026-04-12T10:35:27.001Z</time></trkpt><trkpt lat="42.670877986002616" lon="12.897179489293201"><ele>1209.0</ele><time>2026-04-12T10:35:28.001Z</time></trkpt><trkpt lat="42.67084533158988" lon="12.897280586863666"><ele>1209.0</ele><time>2026-04-12T10:35:29.001Z</time></trkpt><trkpt lat="42.670821072591025" lon="12.897378114780302"><ele>1209.0</ele><time>2026-04-12T10:35:30.001Z</time></trkpt><trkpt lat="42.67078566910535" lon="12.897462326842284"><ele>1209.0</ele><time>2026-04-12T10:35:31.001Z</time></trkpt><trkpt lat="42.67077518121095" lon="12.897573821808777"><ele>1209.5</ele><time>2026-04-12T10:35:32.001Z</time></trkpt><trkpt lat="42.67076331041577" lon="12.897678103294496"><ele>1210.0</ele><time>2026-04-12T10:35:33.001Z</time></trkpt><trkpt lat="42.67075893319476" lon="12.897797352840568"><ele>1210.5</ele><time>2026-04-12T10:35:34.001Z</time></trkpt><trkpt lat="42.67074747139008" lon="12.897913046749226"><ele>1211.0</ele><time>2026-04-12T10:35:35.001Z</time></trkpt><trkpt lat="42.670730487465335" lon="12.898014646953447"><ele>1211.5</ele><time>2026-04-12T10:35:36.001Z</time></trkpt><trkpt lat="42.67072690691777" lon="12.89810751590368"><ele>1212.0</ele><time>2026-04-12T10:35:37.001Z</time></trkpt><trkpt lat="42.67072043861385" lon="12.898196510490394"><ele>1212.0</ele><time>2026-04-12T10:35:38.001Z</time></trkpt><trkpt lat="42.67072918378023" lon="12.898302553498244"><ele>1212.0</ele><time>2026-04-12T10:35:39.001Z</time></trkpt><trkpt lat="42.67074218526475" lon="12.8984110717947"><ele>1212.0</ele><time>2026-04-12T10:35:40.001Z</time></trkpt><trkpt lat="42.67075600699132" lon="12.898529738634547"><ele>1212.0</ele><time>2026-04-12T10:35:41.001Z</time></trkpt><trkpt lat="42.67074573614609" lon="12.898637373735452"><ele>1212.0</ele><time>2026-04-12T10:35:42.001Z</time></trkpt><trkpt lat="42.670746833941124" lon="12.898732570356232"><ele>1212.0</ele><time>2026-04-12T10:35:43.001Z</time></trkpt><trkpt lat="42.67074689279428" lon="12.898833686668668"><ele>1211.8333333333333</ele><time>2026-04-12T10:35:44.001Z</time></trkpt><trkpt lat="42.67077269917853" lon="12.898930622135515"><ele>1211.6666666666667</ele><time>2026-04-12T10:35:45.001Z</time></trkpt><trkpt lat="42.67079563527591" lon="12.899031524633864"><ele>1211.5</ele><time>2026-04-12T10:35:46.001Z</time></trkpt><trkpt lat="42.670799826488455" lon="12.89911823609184"><ele>1211.3333333333335</ele><time>2026-04-12T10:35:47.001Z</time></trkpt><trkpt lat="42.67086308522143" lon="12.899199597613789"><ele>1211.1666666666667</ele><time>2026-04-12T10:35:48.001Z</time></trkpt><trkpt lat="42.670926479364326" lon="12.899286762051263"><ele>1211.0</ele><time>2026-04-12T10:35:50.001Z</time></trkpt><trkpt lat="42.6709597428833" lon="12.899370665587865"><ele>1210.5</ele><time>2026-04-12T10:35:51.001Z</time></trkpt><trkpt lat="42.67099438491537" lon="12.89948159606807"><ele>1210.0</ele><time>2026-04-12T10:35:52.001Z</time></trkpt><trkpt lat="42.671029719329965" lon="12.899597172944354"><ele>1209.5</ele><time>2026-04-12T10:35:53.001Z</time></trkpt><trkpt lat="42.671058771263596" lon="12.899679918250516"><ele>1209.0</ele><time>2026-04-12T10:35:54.001Z</time></trkpt><trkpt lat="42.671090777546894" lon="12.89977334145872"><ele>1208.5</ele><time>2026-04-12T10:35:55.001Z</time></trkpt><trkpt lat="42.67111449321706" lon="12.899871428799202"><ele>1208.0</ele><time>2026-04-12T10:35:56.001Z</time></trkpt><trkpt lat="42.67114623321857" lon="12.900031192811833"><ele>1207.6666666666667</ele><time>2026-04-12T10:35:58.001Z</time></trkpt><trkpt lat="42.67116401719377" lon="12.900131566850508"><ele>1207.3333333333335</ele><time>2026-04-12T10:35:59.001Z</time></trkpt><trkpt lat="42.67115583576969" lon="12.900275765220545"><ele>1207.0</ele><time>2026-04-12T10:36:01.001Z</time></trkpt><trkpt lat="42.67111833395914" lon="12.900422963925234"><ele>1206.6666666666667</ele><time>2026-04-12T10:36:03.001Z</time></trkpt><trkpt lat="42.67107469570837" lon="12.900500963629321"><ele>1206.3333333333333</ele><time>2026-04-12T10:36:04.001Z</time></trkpt><trkpt lat="42.6710288243326" lon="12.90059035202931"><ele>1206.0</ele><time>2026-04-12T10:36:05.001Z</time></trkpt><trkpt lat="42.670985998265856" lon="12.900665186596237"><ele>1206.0</ele><time>2026-04-12T10:36:06.001Z</time></trkpt><trkpt lat="42.67094198158847" lon="12.900751128468004"><ele>1206.0</ele><time>2026-04-12T10:36:07.001Z</time></trkpt><trkpt lat="42.67088481522305" lon="12.900872151338808"><ele>1206.0</ele><time>2026-04-12T10:36:08.001Z</time></trkpt><trkpt lat="42.670830885219615" lon="12.900975124283136"><ele>1206.0</ele><time>2026-04-12T10:36:09.001Z</time></trkpt><trkpt lat="42.67078129500901" lon="12.901065896811767"><ele>1206.0</ele><time>2026-04-12T10:36:10.001Z</time></trkpt><trkpt lat="42.67073220910452" lon="12.901151982235742"><ele>1206.0</ele><time>2026-04-12T10:36:11.001Z</time></trkpt><trkpt lat="42.670700460120315" lon="12.901236553419722"><ele>1206.4285714285716</ele><time>2026-04-12T10:36:12.001Z</time></trkpt><trkpt lat="42.67067352958138" lon="12.901334120228592"><ele>1206.8571428571427</ele><time>2026-04-12T10:36:13.001Z</time></trkpt><trkpt lat="42.670645427766644" lon="12.901440772052286"><ele>1207.2857142857142</ele><time>2026-04-12T10:36:14.001Z</time></trkpt><trkpt lat="42.67061772222899" lon="12.901533846344174"><ele>1207.7142857142858</ele><time>2026-04-12T10:36:15.001Z</time></trkpt><trkpt lat="42.67058783473826" lon="12.901618657607987"><ele>1208.1428571428573</ele><time>2026-04-12T10:36:16.001Z</time></trkpt><trkpt lat="42.67054169431423" lon="12.901692102550916"><ele>1208.5714285714284</ele><time>2026-04-12T10:36:17.001Z</time></trkpt><trkpt lat="42.67047947193665" lon="12.901750279849669"><ele>1209.0</ele><time>2026-04-12T10:36:18.001Z</time></trkpt><trkpt lat="42.67039141684603" lon="12.90181915282496"><ele>1209.6666666666667</ele><time>2026-04-12T10:36:19.001Z</time></trkpt><trkpt lat="42.67032239508548" lon="12.90187984683138"><ele>1210.3333333333333</ele><time>2026-04-12T10:36:20.001Z</time></trkpt><trkpt lat="42.670263399723794" lon="12.901932677459389"><ele>1211.0</ele><time>2026-04-12T10:36:21.001Z</time></trkpt><trkpt lat="42.67020512268714" lon="12.902016663707784"><ele>1211.6666666666665</ele><time>2026-04-12T10:36:22.001Z</time></trkpt><trkpt lat="42.670161372324365" lon="12.902093058445196"><ele>1212.3333333333333</ele><time>2026-04-12T10:36:23.001Z</time></trkpt><trkpt lat="42.67011499665227" lon="12.902179396492556"><ele>1213.0</ele><time>2026-04-12T10:36:24.001Z</time></trkpt><trkpt lat="42.670063405499846" lon="12.902271610011603"><ele>1214.1666666666665</ele><time>2026-04-12T10:36:25.001Z</time></trkpt><trkpt lat="42.670012647683414" lon="12.902382035751089"><ele>1215.3333333333333</ele><time>2026-04-12T10:36:26.001Z</time></trkpt><trkpt lat="42.669945606694654" lon="12.902486909667168"><ele>1216.5</ele><time>2026-04-12T10:36:27.001Z</time></trkpt><trkpt lat="42.66988894696777" lon="12.902567655955613"><ele>1217.6666666666667</ele><time>2026-04-12T10:36:28.001Z</time></trkpt><trkpt lat="42.669833513468234" lon="12.902654348556652"><ele>1218.8333333333335</ele><time>2026-04-12T10:36:29.001Z</time></trkpt><trkpt lat="42.66979476112276" lon="12.902730658266206"><ele>1220.0</ele><time>2026-04-12T10:36:30.001Z</time></trkpt><trkpt lat="42.669725170040465" lon="12.90283989379244"><ele>1221.0</ele><time>2026-04-12T10:36:32.001Z</time></trkpt><trkpt lat="42.669642186681834" lon="12.902935906109391"><ele>1222.0</ele><time>2026-04-12T10:36:34.001Z</time></trkpt><trkpt lat="42.66958794322128" lon="12.90298183445654"><ele>1223.0</ele><time>2026-04-12T10:36:35.001Z</time></trkpt><trkpt lat="42.669492664563776" lon="12.903019417112752"><ele>1224.0</ele><time>2026-04-12T10:36:36.001Z</time></trkpt><trkpt lat="42.66938026186443" lon="12.903113771347659"><ele>1225.0</ele><time>2026-04-12T10:36:38.001Z</time></trkpt><trkpt lat="42.66933736345565" lon="12.90319344058037"><ele>1225.0</ele><time>2026-04-12T10:36:39.001Z</time></trkpt><trkpt lat="42.66929509656469" lon="12.903289427753053"><ele>1225.0</ele><time>2026-04-12T10:36:40.001Z</time></trkpt><trkpt lat="42.669250068482604" lon="12.903352662320687"><ele>1225.0</ele><time>2026-04-12T10:36:41.001Z</time></trkpt><trkpt lat="42.66921553139958" lon="12.903433473868017"><ele>1225.0</ele><time>2026-04-12T10:36:42.001Z</time></trkpt><trkpt lat="42.66919130737684" lon="12.903551480015468"><ele>1225.0</ele><time>2026-04-12T10:36:43.001Z</time></trkpt><trkpt lat="42.669148553133496" lon="12.90367115571029"><ele>1225.0</ele><time>2026-04-12T10:36:44.001Z</time></trkpt><trkpt lat="42.669102900925736" lon="12.90375119890068"><ele>1226.0</ele><time>2026-04-12T10:36:45.001Z</time></trkpt><trkpt lat="42.669070175491555" lon="12.903845227192221"><ele>1227.0</ele><time>2026-04-12T10:36:46.001Z</time></trkpt><trkpt lat="42.66905591996365" lon="12.90394358178025"><ele>1228.0</ele><time>2026-04-12T10:36:47.001Z</time></trkpt><trkpt lat="42.669048221997826" lon="12.90404655506025"><ele>1229.0</ele><time>2026-04-12T10:36:48.001Z</time></trkpt><trkpt lat="42.669046404370306" lon="12.904170975533608"><ele>1230.0</ele><time>2026-04-12T10:36:49.001Z</time></trkpt><trkpt lat="42.669029728313845" lon="12.904301892889869"><ele>1231.0</ele><time>2026-04-12T10:36:50.001Z</time></trkpt><trkpt lat="42.669013140517244" lon="12.904410610419815"><ele>1232.0</ele><time>2026-04-12T10:36:51.001Z</time></trkpt><trkpt lat="42.668980863085814" lon="12.904535235493745"><ele>1233.0</ele><time>2026-04-12T10:36:52.001Z</time></trkpt><trkpt lat="42.66894604859669" lon="12.904648576997051"><ele>1234.0</ele><time>2026-04-12T10:36:53.001Z</time></trkpt><trkpt lat="42.668928107524124" lon="12.904746447080303"><ele>1235.0</ele><time>2026-04-12T10:36:54.001Z</time></trkpt><trkpt lat="42.668914073534125" lon="12.90485177718473"><ele>1236.0</ele><time>2026-04-12T10:36:55.001Z</time></trkpt><trkpt lat="42.668896572728826" lon="12.90496395991281"><ele>1237.0</ele><time>2026-04-12T10:36:56.001Z</time></trkpt><trkpt lat="42.66887522004117" lon="12.90507447285806"><ele>1238.3333333333333</ele><time>2026-04-12T10:36:57.001Z</time></trkpt><trkpt lat="42.668863172174675" lon="12.905187409184"><ele>1239.6666666666665</ele><time>2026-04-12T10:36:58.001Z</time></trkpt><trkpt lat="42.668841392718434" lon="12.905295768858155"><ele>1241.0</ele><time>2026-04-12T10:36:59.001Z</time></trkpt><trkpt lat="42.668809491937736" lon="12.905406166683582"><ele>1242.3333333333333</ele><time>2026-04-12T10:37:00.001Z</time></trkpt><trkpt lat="42.668795278486215" lon="12.905493739709291"><ele>1243.6666666666667</ele><time>2026-04-12T10:37:01.001Z</time></trkpt><trkpt lat="42.66877417470843" lon="12.905598500809441"><ele>1245.0</ele><time>2026-04-12T10:37:02.001Z</time></trkpt><trkpt lat="42.66874830506976" lon="12.905715087695308"><ele>1245.0</ele><time>2026-04-12T10:37:03.001Z</time></trkpt><trkpt lat="42.668723466484835" lon="12.905839691043798"><ele>1245.0</ele><time>2026-04-12T10:37:04.001Z</time></trkpt><trkpt lat="42.668705101826596" lon="12.90597234435946"><ele>1245.0</ele><time>2026-04-12T10:37:05.001Z</time></trkpt><trkpt lat="42.66868538430132" lon="12.906086856151507"><ele>1245.0</ele><time>2026-04-12T10:37:06.001Z</time></trkpt><trkpt lat="42.66869583778827" lon="12.90618845090919"><ele>1245.0</ele><time>2026-04-12T10:37:07.001Z</time></trkpt><trkpt lat="42.66874332630722" lon="12.906338190469565"><ele>1245.6666666666667</ele><time>2026-04-12T10:37:09.001Z</time></trkpt><trkpt lat="42.668767100295575" lon="12.906438264024635"><ele>1246.3333333333333</ele><time>2026-04-12T10:37:10.001Z</time></trkpt><trkpt lat="42.66878375689574" lon="12.906550484454751"><ele>1247.0</ele><time>2026-04-12T10:37:11.001Z</time></trkpt><trkpt lat="42.66881997084013" lon="12.906649629571971"><ele>1247.6666666666665</ele><time>2026-04-12T10:37:12.001Z</time></trkpt><trkpt lat="42.66884669241612" lon="12.906788731157887"><ele>1248.3333333333333</ele><time>2026-04-12T10:37:13.001Z</time></trkpt><trkpt lat="42.66886343696609" lon="12.906914903724283"><ele>1249.0</ele><time>2026-04-12T10:37:14.001Z</time></trkpt><trkpt lat="42.66887772388717" lon="12.90703552551566"><ele>1249.6666666666665</ele><time>2026-04-12T10:37:15.001Z</time></trkpt><trkpt lat="42.66888914068627" lon="12.90713700778551"><ele>1250.3333333333333</ele><time>2026-04-12T10:37:16.001Z</time></trkpt><trkpt lat="42.66888850114388" lon="12.907246726864802"><ele>1251.0</ele><time>2026-04-12T10:37:17.001Z</time></trkpt><trkpt lat="42.668879229346025" lon="12.907350536989684"><ele>1251.6666666666667</ele><time>2026-04-12T10:37:18.001Z</time></trkpt><trkpt lat="42.6688669048472" lon="12.907459804045086"><ele>1252.3333333333335</ele><time>2026-04-12T10:37:19.001Z</time></trkpt><trkpt lat="42.66885414965479" lon="12.907562484008151"><ele>1253.0</ele><time>2026-04-12T10:37:20.001Z</time></trkpt><trkpt lat="42.66883797297955" lon="12.907666969630403"><ele>1253.3333333333335</ele><time>2026-04-12T10:37:21.001Z</time></trkpt><trkpt lat="42.66882947867098" lon="12.907777767121283"><ele>1253.6666666666667</ele><time>2026-04-12T10:37:22.001Z</time></trkpt><trkpt lat="42.668812320234906" lon="12.907889148697738"><ele>1254.0</ele><time>2026-04-12T10:37:23.001Z</time></trkpt><trkpt lat="42.66879425785608" lon="12.908009184545639"><ele>1254.3333333333333</ele><time>2026-04-12T10:37:24.001Z</time></trkpt><trkpt lat="42.66877306469169" lon="12.908099031453904"><ele>1254.6666666666665</ele><time>2026-04-12T10:37:25.001Z</time></trkpt><trkpt lat="42.6687541015443" lon="12.908214174825291"><ele>1255.0</ele><time>2026-04-12T10:37:26.001Z</time></trkpt><trkpt lat="42.66871385007674" lon="12.908356726531363"><ele>1256.5</ele><time>2026-04-12T10:37:27Z</time></trkpt><trkpt lat="42.668681637656704" lon="12.908477310656163"><ele>1258.0</ele><time>2026-04-12T10:37:28Z</time></trkpt><trkpt lat="42.668655522486276" lon="12.908573498693181"><ele>1259.5</ele><time>2026-04-12T10:37:29Z</time></trkpt><trkpt lat="42.66862373688158" lon="12.908682911246316"><ele>1261.0</ele><time>2026-04-12T10:37:30Z</time></trkpt><trkpt lat="42.66860398398514" lon="12.90877576013578"><ele>1262.5</ele><time>2026-04-12T10:37:31Z</time></trkpt><trkpt lat="42.66858444706727" lon="12.908867232276954"><ele>1264.0</ele><time>2026-04-12T10:37:32Z</time></trkpt><trkpt lat="42.668563571262375" lon="12.908960932181227"><ele>1261.6666666666665</ele><time>2026-04-12T10:37:33Z</time></trkpt><trkpt lat="42.66854012447975" lon="12.90904806692985"><ele>1259.3333333333333</ele><time>2026-04-12T10:37:34Z</time></trkpt><trkpt lat="42.668505038796425" lon="12.90913987453804"><ele>1257.0</ele><time>2026-04-12T10:37:35Z</time></trkpt><trkpt lat="42.6684602947939" lon="12.909233169789358"><ele>1254.6666666666667</ele><time>2026-04-12T10:37:36Z</time></trkpt><trkpt lat="42.66842563518721" lon="12.909325772952624"><ele>1252.3333333333335</ele><time>2026-04-12T10:37:37Z</time></trkpt><trkpt lat="42.66839076328708" lon="12.909416588984993"><ele>1250.0</ele><time>2026-04-12T10:37:38Z</time></trkpt><trkpt lat="42.66835406460598" lon="12.909515761956719"><ele>1250.0</ele><time>2026-04-12T10:37:39Z</time></trkpt><trkpt lat="42.66832705683826" lon="12.909628476707454"><ele>1250.0</ele><time>2026-04-12T10:37:40Z</time></trkpt><trkpt lat="42.66830125380178" lon="12.909739386986002"><ele>1250.0</ele><time>2026-04-12T10:37:41Z</time></trkpt><trkpt lat="42.66827816042535" lon="12.909832911785674"><ele>1250.0</ele><time>2026-04-12T10:37:42Z</time></trkpt><trkpt lat="42.66825159049386" lon="12.90993560211406"><ele>1250.0</ele><time>2026-04-12T10:37:43Z</time></trkpt><trkpt lat="42.668222290787554" lon="12.91002768439683"><ele>1250.0</ele><time>2026-04-12T10:37:44Z</time></trkpt><trkpt lat="42.66819945210542" lon="12.910124587187994"><ele>1251.0000000000002</ele><time>2026-04-12T10:37:45Z</time></trkpt><trkpt lat="42.6681806319408" lon="12.910218246117347"><ele>1252.0</ele><time>2026-04-12T10:37:46Z</time></trkpt><trkpt lat="42.66815537391806" lon="12.910323748907922"><ele>1253.0</ele><time>2026-04-12T10:37:47Z</time></trkpt><trkpt lat="42.668124299581976" lon="12.910416279348745"><ele>1254.0</ele><time>2026-04-12T10:37:48Z</time></trkpt><trkpt lat="42.66809563302915" lon="12.910503931470176"><ele>1255.0</ele><time>2026-04-12T10:37:49Z</time></trkpt><trkpt lat="42.66806475896637" lon="12.910598631414379"><ele>1256.0000000000002</ele><time>2026-04-12T10:37:50Z</time></trkpt><trkpt lat="42.66804033376532" lon="12.910683347261877"><ele>1257.0</ele><time>2026-04-12T10:37:51Z</time></trkpt><trkpt lat="42.668009666085034" lon="12.910779388291255"><ele>1257.0</ele><time>2026-04-12T10:37:52Z</time></trkpt><trkpt lat="42.6679780293674" lon="12.910878763735457"><ele>1257.0</ele><time>2026-04-12T10:37:53Z</time></trkpt><trkpt lat="42.667963693178" lon="12.910969440086847"><ele>1257.0</ele><time>2026-04-12T10:37:54Z</time></trkpt><trkpt lat="42.66793832005864" lon="12.911080239155716"><ele>1257.0</ele><time>2026-04-12T10:37:55Z</time></trkpt><trkpt lat="42.66790115563448" lon="12.91119659946157"><ele>1257.0</ele><time>2026-04-12T10:37:56Z</time></trkpt><trkpt lat="42.66786861325328" lon="12.911311635158095"><ele>1257.0</ele><time>2026-04-12T10:37:57Z</time></trkpt><trkpt lat="42.66783821584993" lon="12.911412481376056"><ele>1256.2</ele><time>2026-04-12T10:37:58Z</time></trkpt><trkpt lat="42.667801279325076" lon="12.911522082374157"><ele>1255.4</ele><time>2026-04-12T10:37:59Z</time></trkpt><trkpt lat="42.667766690626166" lon="12.911616945481919"><ele>1254.6</ele><time>2026-04-12T10:38:00Z</time></trkpt><trkpt lat="42.66772685357903" lon="12.911737489510816"><ele>1253.8</ele><time>2026-04-12T10:38:01Z</time></trkpt><trkpt lat="42.66768697200171" lon="12.911851213707687"><ele>1253.0</ele><time>2026-04-12T10:38:02Z</time></trkpt><trkpt lat="42.6676275971424" lon="12.911956670486708"><ele>1253.0</ele><time>2026-04-12T10:38:03Z</time></trkpt><trkpt lat="42.66757023145976" lon="12.91207380482719"><ele>1253.0</ele><time>2026-04-12T10:38:04Z</time></trkpt><trkpt lat="42.66752817119718" lon="12.912174705002357"><ele>1253.0</ele><time>2026-04-12T10:38:05Z</time></trkpt><trkpt lat="42.66748935240163" lon="12.912280931968175"><ele>1253.0</ele><time>2026-04-12T10:38:06Z</time></trkpt><trkpt lat="42.667456729241835" lon="12.912387086586925"><ele>1253.0</ele><time>2026-04-12T10:38:07Z</time></trkpt><trkpt lat="42.66742999429014" lon="12.912483974455906"><ele>1253.0</ele><time>2026-04-12T10:38:08Z</time></trkpt><trkpt lat="42.66741789537587" lon="12.912591758493411"><ele>1253.0</ele><time>2026-04-12T10:38:09Z</time></trkpt><trkpt lat="42.667416308934904" lon="12.912701155886031"><ele>1253.0</ele><time>2026-04-12T10:38:10Z</time></trkpt><trkpt lat="42.66742100610504" lon="12.912807531929174"><ele>1253.0</ele><time>2026-04-12T10:38:11Z</time></trkpt><trkpt lat="42.66742992300829" lon="12.912899801534117"><ele>1253.0</ele><time>2026-04-12T10:38:12Z</time></trkpt><trkpt lat="42.667482794511365" lon="12.913050637960872"><ele>1253.0</ele><time>2026-04-12T10:38:14Z</time></trkpt><trkpt lat="42.66753735604543" lon="12.913119624408736"><ele>1253.0</ele><time>2026-04-12T10:38:15Z</time></trkpt><trkpt lat="42.667601494177134" lon="12.913221993537311"><ele>1253.0</ele><time>2026-04-12T10:38:16Z</time></trkpt><trkpt lat="42.66762440141478" lon="12.913327357849871"><ele>1253.0</ele><time>2026-04-12T10:38:17Z</time></trkpt><trkpt lat="42.667653351596535" lon="12.913460554527111"><ele>1253.0</ele><time>2026-04-12T10:38:18Z</time></trkpt><trkpt lat="42.66766956513" lon="12.91358272573708"><ele>1253.0</ele><time>2026-04-12T10:38:19Z</time></trkpt><trkpt lat="42.667676807800234" lon="12.91367652826325"><ele>1253.0</ele><time>2026-04-12T10:38:20Z</time></trkpt><trkpt lat="42.667695278896005" lon="12.913775288872616"><ele>1253.0</ele><time>2026-04-12T10:38:21Z</time></trkpt><trkpt lat="42.66771255935166" lon="12.913880578869366"><ele>1252.2</ele><time>2026-04-12T10:38:22Z</time></trkpt><trkpt lat="42.667752060197316" lon="12.91398298818205"><ele>1251.4</ele><time>2026-04-12T10:38:23Z</time></trkpt><trkpt lat="42.66778784483289" lon="12.914085563915956"><ele>1250.6000000000001</ele><time>2026-04-12T10:38:24Z</time></trkpt><trkpt lat="42.667802020980254" lon="12.914218792971237"><ele>1249.8</ele><time>2026-04-12T10:38:25Z</time></trkpt><trkpt lat="42.667766381399545" lon="12.914340691252603"><ele>1249.0</ele><time>2026-04-12T10:38:26Z</time></trkpt><trkpt lat="42.667742565031375" lon="12.914459854598821"><ele>1249.2857142857142</ele><time>2026-04-12T10:38:27Z</time></trkpt><trkpt lat="42.6677559647683" lon="12.914561019484944"><ele>1249.5714285714284</ele><time>2026-04-12T10:38:28Z</time></trkpt><trkpt lat="42.66777777762696" lon="12.914659809563648"><ele>1249.8571428571427</ele><time>2026-04-12T10:38:29Z</time></trkpt><trkpt lat="42.6677989404267" lon="12.914745063807173"><ele>1250.142857142857</ele><time>2026-04-12T10:38:30Z</time></trkpt><trkpt lat="42.66782864352432" lon="12.914833921012287"><ele>1250.4285714285716</ele><time>2026-04-12T10:38:31Z</time></trkpt><trkpt lat="42.667858951888775" lon="12.914920648757587"><ele>1250.7142857142856</ele><time>2026-04-12T10:38:32Z</time></trkpt><trkpt lat="42.667895937074036" lon="12.915010474324779"><ele>1251.0</ele><time>2026-04-12T10:38:33Z</time></trkpt><trkpt lat="42.66793411433417" lon="12.91509783171815"><ele>1251.0</ele><time>2026-04-12T10:38:34Z</time></trkpt><trkpt lat="42.667969815302946" lon="12.915197807963287"><ele>1251.0</ele><time>2026-04-12T10:38:35Z</time></trkpt><trkpt lat="42.66800699284112" lon="12.915292311552156"><ele>1251.0</ele><time>2026-04-12T10:38:36Z</time></trkpt><trkpt lat="42.668042593981625" lon="12.915389370085181"><ele>1251.0</ele><time>2026-04-12T10:38:37Z</time></trkpt><trkpt lat="42.66808151724037" lon="12.915484660380944"><ele>1251.0</ele><time>2026-04-12T10:38:38Z</time></trkpt><trkpt lat="42.66813330950715" lon="12.91557071503528"><ele>1251.0</ele><time>2026-04-12T10:38:39Z</time></trkpt><trkpt lat="42.66820566779554" lon="12.91564405855474"><ele>1251.0</ele><time>2026-04-12T10:38:40Z</time></trkpt><trkpt lat="42.66824947298977" lon="12.9157427628497"><ele>1251.0</ele><time>2026-04-12T10:38:41Z</time></trkpt><trkpt lat="42.668259381766546" lon="12.915863561352067"><ele>1251.0</ele><time>2026-04-12T10:38:42Z</time></trkpt><trkpt lat="42.668280651838685" lon="12.9159750494992"><ele>1251.0</ele><time>2026-04-12T10:38:43Z</time></trkpt><trkpt lat="42.668327308314524" lon="12.916069232703498"><ele>1251.0</ele><time>2026-04-12T10:38:44Z</time></trkpt><trkpt lat="42.66837265047191" lon="12.91613949013881"><ele>1251.0</ele><time>2026-04-12T10:38:45Z</time></trkpt><trkpt lat="42.66840246813181" lon="12.91623453456014"><ele>1251.2</ele><time>2026-04-12T10:38:46Z</time></trkpt><trkpt lat="42.668390443521076" lon="12.916351197495544"><ele>1251.3999999999999</ele><time>2026-04-12T10:38:47Z</time></trkpt><trkpt lat="42.66834284805012" lon="12.916466728980806"><ele>1251.6</ele><time>2026-04-12T10:38:48Z</time></trkpt><trkpt lat="42.66826355243919" lon="12.916600144677608"><ele>1251.8</ele><time>2026-04-12T10:38:49Z</time></trkpt><trkpt lat="42.66819074316668" lon="12.916710971882683"><ele>1252.0</ele><time>2026-04-12T10:38:50Z</time></trkpt><trkpt lat="42.66814082223651" lon="12.916800262272575"><ele>1252.0</ele><time>2026-04-12T10:38:51Z</time></trkpt><trkpt lat="42.66809154469752" lon="12.916876790394465"><ele>1252.0</ele><time>2026-04-12T10:38:52Z</time></trkpt><trkpt lat="42.66805994080125" lon="12.916970448376961"><ele>1252.0</ele><time>2026-04-12T10:38:53Z</time></trkpt><trkpt lat="42.66802660036097" lon="12.917048005891326"><ele>1252.0</ele><time>2026-04-12T10:38:54Z</time></trkpt><trkpt lat="42.66798999547877" lon="12.917127821210984"><ele>1252.0</ele><time>2026-04-12T10:38:55Z</time></trkpt><trkpt lat="42.66790868806659" lon="12.917254766249041"><ele>1252.0</ele><time>2026-04-12T10:38:57Z</time></trkpt><trkpt lat="42.667867197014644" lon="12.917335581690539"><ele>1252.0</ele><time>2026-04-12T10:38:58Z</time></trkpt><trkpt lat="42.66782066723993" lon="12.917425807131822"><ele>1252.0</ele><time>2026-04-12T10:38:59Z</time></trkpt><trkpt lat="42.66778509678242" lon="12.917511436437007"><ele>1252.0</ele><time>2026-04-12T10:39:00Z</time></trkpt><trkpt lat="42.667773694466" lon="12.91761576498742"><ele>1252.0</ele><time>2026-04-12T10:39:01Z</time></trkpt><trkpt lat="42.66776406225868" lon="12.917728522683836"><ele>1252.0</ele><time>2026-04-12T10:39:02Z</time></trkpt><trkpt lat="42.667758432364884" lon="12.917832312044796"><ele>1252.0</ele><time>2026-04-12T10:39:03Z</time></trkpt><trkpt lat="42.66777269540058" lon="12.917926889482262"><ele>1252.0</ele><time>2026-04-12T10:39:04Z</time></trkpt><trkpt lat="42.66776841587381" lon="12.91802878995091"><ele>1252.0</ele><time>2026-04-12T10:39:05Z</time></trkpt><trkpt lat="42.66776307347496" lon="12.918144924614126"><ele>1252.0</ele><time>2026-04-12T10:39:06Z</time></trkpt><trkpt lat="42.66777208398773" lon="12.918242280762577"><ele>1252.0</ele><time>2026-04-12T10:39:07Z</time></trkpt><trkpt lat="42.667806647322166" lon="12.918345816383725"><ele>1252.0</ele><time>2026-04-12T10:39:08Z</time></trkpt><trkpt lat="42.6678401207866" lon="12.9184516880173"><ele>1252.0</ele><time>2026-04-12T10:39:09Z</time></trkpt><trkpt lat="42.66789049561999" lon="12.918557024999354"><ele>1250.6666666666665</ele><time>2026-04-12T10:39:10Z</time></trkpt><trkpt lat="42.66793549519228" lon="12.91864014515094"><ele>1249.3333333333333</ele><time>2026-04-12T10:39:11Z</time></trkpt><trkpt lat="42.66798461633369" lon="12.918726889691147"><ele>1248.0</ele><time>2026-04-12T10:39:12.001Z</time></trkpt><trkpt lat="42.66803550085022" lon="12.918807323818653"><ele>1246.6666666666667</ele><time>2026-04-12T10:39:13.001Z</time></trkpt><trkpt lat="42.6680926052507" lon="12.91889272594843"><ele>1245.3333333333335</ele><time>2026-04-12T10:39:14.001Z</time></trkpt><trkpt lat="42.668161393282375" lon="12.919002732792542"><ele>1244.0</ele><time>2026-04-12T10:39:15.001Z</time></trkpt><trkpt lat="42.66824973209488" lon="12.919128706205289"><ele>1244.25</ele><time>2026-04-12T10:39:16.001Z</time></trkpt><trkpt lat="42.66832899835542" lon="12.91926342509373"><ele>1244.5</ele><time>2026-04-12T10:39:17.001Z</time></trkpt><trkpt lat="42.66839226873624" lon="12.919401398773763"><ele>1244.75</ele><time>2026-04-12T10:39:18.001Z</time></trkpt><trkpt lat="42.66845689392299" lon="12.919514177787793"><ele>1245.0</ele><time>2026-04-12T10:39:19.001Z</time></trkpt><trkpt lat="42.66853480528195" lon="12.919647448762628"><ele>1245.0</ele><time>2026-04-12T10:39:20.001Z</time></trkpt><trkpt lat="42.66860082202879" lon="12.91976206759948"><ele>1245.0</ele><time>2026-04-12T10:39:21.001Z</time></trkpt><trkpt lat="42.66866944420299" lon="12.919843131052414"><ele>1245.0</ele><time>2026-04-12T10:39:22.001Z</time></trkpt><trkpt lat="42.668725083281785" lon="12.919914135350401"><ele>1245.0</ele><time>2026-04-12T10:39:23.001Z</time></trkpt><trkpt lat="42.66879256545405" lon="12.91997929759334"><ele>1245.0</ele><time>2026-04-12T10:39:24.001Z</time></trkpt><trkpt lat="42.66886617142209" lon="12.920038013500799"><ele>1245.0</ele><time>2026-04-12T10:39:25.001Z</time></trkpt><trkpt lat="42.668933729729204" lon="12.92010970310148"><ele>1242.6</ele><time>2026-04-12T10:39:26.001Z</time></trkpt><trkpt lat="42.668976616707845" lon="12.920214823117199"><ele>1240.2</ele><time>2026-04-12T10:39:27.001Z</time></trkpt><trkpt lat="42.66898883117197" lon="12.920353911248128"><ele>1237.8</ele><time>2026-04-12T10:39:28.001Z</time></trkpt><trkpt lat="42.66896914074266" lon="12.920506448498811"><ele>1235.4</ele><time>2026-04-12T10:39:29.001Z</time></trkpt><trkpt lat="42.668949222054074" lon="12.920643321734858"><ele>1233.0</ele><time>2026-04-12T10:39:30.001Z</time></trkpt><trkpt lat="42.668953636314505" lon="12.920766702708699"><ele>1233.0</ele><time>2026-04-12T10:39:31.001Z</time></trkpt><trkpt lat="42.668983376239474" lon="12.920874457448173"><ele>1233.0</ele><time>2026-04-12T10:39:32.001Z</time></trkpt><trkpt lat="42.66901954800697" lon="12.920972476077445"><ele>1233.0</ele><time>2026-04-12T10:39:33Z</time></trkpt><trkpt lat="42.669063664977216" lon="12.921078139723383"><ele>1233.0</ele><time>2026-04-12T10:39:34Z</time></trkpt><trkpt lat="42.66911409382987" lon="12.921200373293441"><ele>1233.0</ele><time>2026-04-12T10:39:35Z</time></trkpt><trkpt lat="42.669166532363626" lon="12.921323928228214"><ele>1232.2</ele><time>2026-04-12T10:39:36Z</time></trkpt><trkpt lat="42.66920344015811" lon="12.921448941969908"><ele>1231.4</ele><time>2026-04-12T10:39:37Z</time></trkpt><trkpt lat="42.669231550483566" lon="12.921571757163383"><ele>1230.6000000000001</ele><time>2026-04-12T10:39:38Z</time></trkpt><trkpt lat="42.66924871542597" lon="12.921688606164812"><ele>1229.8</ele><time>2026-04-12T10:39:39Z</time></trkpt><trkpt lat="42.66926260421869" lon="12.921826810457842"><ele>1229.0</ele><time>2026-04-12T10:39:40Z</time></trkpt><trkpt lat="42.6692698977294" lon="12.921942742042283"><ele>1228.1666666666667</ele><time>2026-04-12T10:39:41Z</time></trkpt><trkpt lat="42.66926583467694" lon="12.922060321875497"><ele>1227.3333333333335</ele><time>2026-04-12T10:39:42Z</time></trkpt><trkpt lat="42.66925782592367" lon="12.922179273062696"><ele>1226.5</ele><time>2026-04-12T10:39:43Z</time></trkpt><trkpt lat="42.66925608132753" lon="12.922298022777161"><ele>1225.6666666666667</ele><time>2026-04-12T10:39:44Z</time></trkpt><trkpt lat="42.66925493525409" lon="12.922414008308493"><ele>1224.8333333333333</ele><time>2026-04-12T10:39:45Z</time></trkpt><trkpt lat="42.66924628350006" lon="12.922516999667094"><ele>1224.0</ele><time>2026-04-12T10:39:46Z</time></trkpt><trkpt lat="42.669235250827526" lon="12.9226195184037"><ele>1222.8333333333333</ele><time>2026-04-12T10:39:47Z</time></trkpt><trkpt lat="42.6692469823393" lon="12.922709036914256"><ele>1221.6666666666667</ele><time>2026-04-12T10:39:48Z</time></trkpt><trkpt lat="42.66925705383622" lon="12.922794162389968"><ele>1220.5</ele><time>2026-04-12T10:39:49Z</time></trkpt><trkpt lat="42.66926554385271" lon="12.922879317860327"><ele>1219.3333333333335</ele><time>2026-04-12T10:39:50Z</time></trkpt><trkpt lat="42.669292275403805" lon="12.92302943029686"><ele>1218.1666666666667</ele><time>2026-04-12T10:39:52Z</time></trkpt><trkpt lat="42.66933442853183" lon="12.923170936797304"><ele>1217.0</ele><time>2026-04-12T10:39:54Z</time></trkpt><trkpt lat="42.66935304587605" lon="12.923254860673298"><ele>1217.0</ele><time>2026-04-12T10:39:55Z</time></trkpt><trkpt lat="42.66941300527858" lon="12.923393421678593"><ele>1217.0</ele><time>2026-04-12T10:39:57Z</time></trkpt><trkpt lat="42.66946482926376" lon="12.92347790226074"><ele>1217.0</ele><time>2026-04-12T10:39:58Z</time></trkpt><trkpt lat="42.669515692718214" lon="12.923568902157342"><ele>1217.0</ele><time>2026-04-12T10:39:59Z</time></trkpt><trkpt lat="42.66955586152987" lon="12.92365523387651"><ele>1217.0</ele><time>2026-04-12T10:40:00Z</time></trkpt><trkpt lat="42.669579016039535" lon="12.92375200746126"><ele>1217.0</ele><time>2026-04-12T10:40:01Z</time></trkpt><trkpt lat="42.669589975028394" lon="12.923856280547698"><ele>1217.1666666666667</ele><time>2026-04-12T10:40:02Z</time></trkpt><trkpt lat="42.66958080095403" lon="12.92395674501325"><ele>1217.3333333333335</ele><time>2026-04-12T10:40:03Z</time></trkpt><trkpt lat="42.6695550228736" lon="12.92406813041949"><ele>1217.5</ele><time>2026-04-12T10:40:04Z</time></trkpt><trkpt lat="42.669510301539475" lon="12.924178104802841"><ele>1217.6666666666667</ele><time>2026-04-12T10:40:05Z</time></trkpt><trkpt lat="42.669455545548864" lon="12.924296221232087"><ele>1217.8333333333333</ele><time>2026-04-12T10:40:06Z</time></trkpt><trkpt lat="42.66942165530598" lon="12.924406099558514"><ele>1218.0</ele><time>2026-04-12T10:40:07Z</time></trkpt><trkpt lat="42.66939456114198" lon="12.924514686555925"><ele>1218.0</ele><time>2026-04-12T10:40:08Z</time></trkpt><trkpt lat="42.66937831403843" lon="12.924620104820566"><ele>1218.0</ele><time>2026-04-12T10:40:09Z</time></trkpt><trkpt lat="42.66937604475855" lon="12.924724537074892"><ele>1218.0</ele><time>2026-04-12T10:40:10Z</time></trkpt><trkpt lat="42.669371500245184" lon="12.924824815148412"><ele>1218.0</ele><time>2026-04-12T10:40:11Z</time></trkpt><trkpt lat="42.66936496130236" lon="12.924978400237201"><ele>1218.0</ele><time>2026-04-12T10:40:13Z</time></trkpt><trkpt lat="42.66936216628145" lon="12.925137204127875"><ele>1218.8</ele><time>2026-04-12T10:40:15Z</time></trkpt><trkpt lat="42.6693840957792" lon="12.925292847858367"><ele>1219.6</ele><time>2026-04-12T10:40:17Z</time></trkpt><trkpt lat="42.66939927790729" lon="12.92539449106139"><ele>1220.4</ele><time>2026-04-12T10:40:18Z</time></trkpt><trkpt lat="42.66940591586242" lon="12.92548567336601"><ele>1221.2</ele><time>2026-04-12T10:40:19Z</time></trkpt><trkpt lat="42.66945940798936" lon="12.925630025812332"><ele>1222.0</ele><time>2026-04-12T10:40:21Z</time></trkpt><trkpt lat="42.66950264429399" lon="12.925721958032145"><ele>1222.3333333333333</ele><time>2026-04-12T10:40:22Z</time></trkpt><trkpt lat="42.66954189389096" lon="12.925795575083278"><ele>1222.6666666666665</ele><time>2026-04-12T10:40:23Z</time></trkpt><trkpt lat="42.66959243657798" lon="12.9258553409107"><ele>1223.0</ele><time>2026-04-12T10:40:24Z</time></trkpt><trkpt lat="42.66965029342193" lon="12.92591883844569"><ele>1223.3333333333333</ele><time>2026-04-12T10:40:25Z</time></trkpt><trkpt lat="42.66972316570592" lon="12.92595905890733"><ele>1223.6666666666667</ele><time>2026-04-12T10:40:26Z</time></trkpt><trkpt lat="42.66980758631281" lon="12.925982378409694"><ele>1224.0</ele><time>2026-04-12T10:40:27Z</time></trkpt><trkpt lat="42.669890487878185" lon="12.925984687122293"><ele>1222.0</ele><time>2026-04-12T10:40:28Z</time></trkpt><trkpt lat="42.669962091799945" lon="12.92594665350923"><ele>1220.0</ele><time>2026-04-12T10:40:29Z</time></trkpt><trkpt lat="42.67003644186472" lon="12.925943291675416"><ele>1218.0</ele><time>2026-04-12T10:40:30Z</time></trkpt><trkpt lat="42.67010718646531" lon="12.92596795876492"><ele>1216.0</ele><time>2026-04-12T10:40:31Z</time></trkpt><trkpt lat="42.67018185206652" lon="12.926012626163166"><ele>1214.0</ele><time>2026-04-12T10:40:32Z</time></trkpt><trkpt lat="42.67022781195054" lon="12.926071715647469"><ele>1212.0</ele><time>2026-04-12T10:40:33Z</time></trkpt><trkpt lat="42.67026794647934" lon="12.926201143890754"><ele>1214.6</ele><time>2026-04-12T10:40:35Z</time></trkpt><trkpt lat="42.67028174530422" lon="12.926375108250372"><ele>1217.2</ele><time>2026-04-12T10:40:37Z</time></trkpt><trkpt lat="42.67032098126586" lon="12.926464079768813"><ele>1219.8</ele><time>2026-04-12T10:40:38Z</time></trkpt><trkpt lat="42.67038505573824" lon="12.926525520347274"><ele>1222.4</ele><time>2026-04-12T10:40:39Z</time></trkpt><trkpt lat="42.67047309602513" lon="12.926557390620344"><ele>1225.0</ele><time>2026-04-12T10:40:40Z</time></trkpt><trkpt lat="42.670570020353566" lon="12.926623960720896"><ele>1225.0</ele><time>2026-04-12T10:40:41Z</time></trkpt><trkpt lat="42.6706533803926" lon="12.926698437427797"><ele>1225.0</ele><time>2026-04-12T10:40:42Z</time></trkpt><trkpt lat="42.67073059923623" lon="12.926781364279691"><ele>1225.0</ele><time>2026-04-12T10:40:43Z</time></trkpt><trkpt lat="42.67080698336828" lon="12.9268427966037"><ele>1225.0</ele><time>2026-04-12T10:40:44Z</time></trkpt><trkpt lat="42.67087911732078" lon="12.926902462490867"><ele>1225.0</ele><time>2026-04-12T10:40:45Z</time></trkpt><trkpt lat="42.67097700819499" lon="12.926992403579375"><ele>1224.6666666666665</ele><time>2026-04-12T10:40:47Z</time></trkpt><trkpt lat="42.67102508833898" lon="12.92705523758522"><ele>1224.3333333333333</ele><time>2026-04-12T10:40:48Z</time></trkpt><trkpt lat="42.671100638540544" lon="12.927172193972039"><ele>1224.0</ele><time>2026-04-12T10:40:50Z</time></trkpt><trkpt lat="42.671181713132" lon="12.927241917967548"><ele>1223.6666666666667</ele><time>2026-04-12T10:40:52Z</time></trkpt><trkpt lat="42.67124053970184" lon="12.927274702185658"><ele>1223.3333333333335</ele><time>2026-04-12T10:40:53Z</time></trkpt><trkpt lat="42.67129735399757" lon="12.927314199164027"><ele>1223.0</ele><time>2026-04-12T10:40:54Z</time></trkpt><trkpt lat="42.67137896116713" lon="12.92740836693573"><ele>1222.3333333333335</ele><time>2026-04-12T10:40:55Z</time></trkpt><trkpt lat="42.67141405030427" lon="12.927508507089655"><ele>1221.6666666666667</ele><time>2026-04-12T10:40:56Z</time></trkpt><trkpt lat="42.671450141592025" lon="12.92762100762369"><ele>1221.0</ele><time>2026-04-12T10:40:57Z</time></trkpt><trkpt lat="42.67149741221226" lon="12.927714992015938"><ele>1220.3333333333333</ele><time>2026-04-12T10:40:58Z</time></trkpt><trkpt lat="42.67154303108798" lon="12.927790482943417"><ele>1219.6666666666665</ele><time>2026-04-12T10:40:59Z</time></trkpt><trkpt lat="42.671626248946836" lon="12.92785197205876"><ele>1219.0</ele><time>2026-04-12T10:41:00Z</time></trkpt><trkpt lat="42.671705072756176" lon="12.92790270049074"><ele>1216.4</ele><time>2026-04-12T10:41:01Z</time></trkpt><trkpt lat="42.671778499854454" lon="12.927956527035155"><ele>1213.8000000000002</ele><time>2026-04-12T10:41:02Z</time></trkpt><trkpt lat="42.671841510346624" lon="12.928017708564655"><ele>1211.1999999999998</ele><time>2026-04-12T10:41:03Z</time></trkpt><trkpt lat="42.67193146517375" lon="12.928123642773773"><ele>1208.6</ele><time>2026-04-12T10:41:05Z</time></trkpt><trkpt lat="42.67198924323625" lon="12.928195210374431"><ele>1206.0</ele><time>2026-04-12T10:41:06Z</time></trkpt><trkpt lat="42.67209873891345" lon="12.928261047098117"><ele>1203.5</ele><time>2026-04-12T10:41:08Z</time></trkpt><trkpt lat="42.672227794394004" lon="12.928298003231616"><ele>1201.0</ele><time>2026-04-12T10:41:10Z</time></trkpt><trkpt lat="42.672291756177536" lon="12.928270578444842"><ele>1198.5</ele><time>2026-04-12T10:41:11Z</time></trkpt><trkpt lat="42.67236792115146" lon="12.928273358021606"><ele>1196.0</ele><time>2026-04-12T10:41:12Z</time></trkpt><trkpt lat="42.67242935419253" lon="12.92821421354011"><ele>1193.5</ele><time>2026-04-12T10:41:13Z</time></trkpt><trkpt lat="42.672493719496735" lon="12.928147033562333"><ele>1191.0</ele><time>2026-04-12T10:41:14Z</time></trkpt><trkpt lat="42.67256351236821" lon="12.92808798230184"><ele>1191.0</ele><time>2026-04-12T10:41:15Z</time></trkpt><trkpt lat="42.672621223598405" lon="12.928027585184905"><ele>1191.0</ele><time>2026-04-12T10:41:16Z</time></trkpt><trkpt lat="42.67268779855953" lon="12.928011938811501"><ele>1191.0</ele><time>2026-04-12T10:41:17Z</time></trkpt><trkpt lat="42.67275373108364" lon="12.9280009300556"><ele>1191.0</ele><time>2026-04-12T10:41:18Z</time></trkpt><trkpt lat="42.672830890998874" lon="12.92789581486418"><ele>1191.0</ele><time>2026-04-12T10:41:20Z</time></trkpt><trkpt lat="42.672872673696205" lon="12.927774377133481"><ele>1191.0</ele><time>2026-04-12T10:41:22Z</time></trkpt><trkpt lat="42.672862905095" lon="12.92763526681235"><ele>1191.6666666666667</ele><time>2026-04-12T10:41:24Z</time></trkpt><trkpt lat="42.67282982381062" lon="12.92755297040332"><ele>1192.3333333333333</ele><time>2026-04-12T10:41:25Z</time></trkpt><trkpt lat="42.672823388021165" lon="12.927463340608018"><ele>1193.0</ele><time>2026-04-12T10:41:26.001Z</time></trkpt><trkpt lat="42.67286873499293" lon="12.927362629677807"><ele>1193.6666666666665</ele><time>2026-04-12T10:41:28.001Z</time></trkpt><trkpt lat="42.67298920743423" lon="12.927311901097033"><ele>1194.3333333333333</ele><time>2026-04-12T10:41:30.001Z</time></trkpt><trkpt lat="42.67306174094748" lon="12.927288339037396"><ele>1195.0</ele><time>2026-04-12T10:41:31.001Z</time></trkpt><trkpt lat="42.67316429351296" lon="12.927308969189282"><ele>1195.0</ele><time>2026-04-12T10:41:33.001Z</time></trkpt><trkpt lat="42.67325104843553" lon="12.927392026538406"><ele>1195.0</ele><time>2026-04-12T10:41:35.001Z</time></trkpt><trkpt lat="42.6732960850727" lon="12.927510782469383"><ele>1195.0</ele><time>2026-04-12T10:41:37.001Z</time></trkpt><trkpt lat="42.67333743412436" lon="12.927618612803847"><ele>1195.0</ele><time>2026-04-12T10:41:38.001Z</time></trkpt><trkpt lat="42.67336977885875" lon="12.927721694098093"><ele>1195.0</ele><time>2026-04-12T10:41:38.999Z</time></trkpt><trkpt lat="42.67339331370192" lon="12.927817723014952"><ele>1192.6666666666665</ele><time>2026-04-12T10:41:39.999Z</time></trkpt><trkpt lat="42.67342121720295" lon="12.927904890641395"><ele>1190.3333333333333</ele><time>2026-04-12T10:41:40.999Z</time></trkpt><trkpt lat="42.673450284805924" lon="12.92799874531482"><ele>1188.0</ele><time>2026-04-12T10:41:41.999Z</time></trkpt><trkpt lat="42.67347356584569" lon="12.928089069479663"><ele>1185.6666666666667</ele><time>2026-04-12T10:41:42.999Z</time></trkpt><trkpt lat="42.67349234621918" lon="12.928174959562346"><ele>1183.3333333333335</ele><time>2026-04-12T10:41:43.999Z</time></trkpt><trkpt lat="42.67353317771225" lon="12.928334809150284"><ele>1181.0</ele><time>2026-04-12T10:41:45.999Z</time></trkpt><trkpt lat="42.6735510922371" lon="12.928426052924785"><ele>1179.4285714285716</ele><time>2026-04-12T10:41:46.999Z</time></trkpt><trkpt lat="42.67356537108068" lon="12.928511283473643"><ele>1177.857142857143</ele><time>2026-04-12T10:41:47.999Z</time></trkpt><trkpt lat="42.673577703290874" lon="12.928598755695482"><ele>1176.2857142857142</ele><time>2026-04-12T10:41:48.999Z</time></trkpt><trkpt lat="42.673593772183" lon="12.928683337214862"><ele>1174.7142857142858</ele><time>2026-04-12T10:41:51.999Z</time></trkpt><trkpt lat="42.673617802527815" lon="12.928796834120554"><ele>1173.142857142857</ele><time>2026-04-12T10:42:04Z</time></trkpt><trkpt lat="42.673632854477944" lon="12.928898683580513"><ele>1171.5714285714287</ele><time>2026-04-12T10:42:07Z</time></trkpt><trkpt lat="42.67364399437876" lon="12.928991701269801"><ele>1170.0</ele><time>2026-04-12T10:42:12Z</time></trkpt><trkpt lat="42.673658221055746" lon="12.92908551434504"><ele>1174.0</ele><time>2026-04-12T10:42:17Z</time></trkpt><trkpt lat="42.67365639659751" lon="12.929184675189866"><ele>1178.0</ele><time>2026-04-12T10:42:37Z</time></trkpt><trkpt lat="42.67366327990624" lon="12.92928062977804"><ele>1182.0</ele><time>2026-04-12T10:44:57Z</time></trkpt><trkpt lat="42.67368238467186" lon="12.929412012640038"><ele>1186.0</ele><time>2026-04-12T10:45:00Z</time></trkpt><trkpt lat="42.67371522103854" lon="12.929596678063463"><ele>1190.0</ele><time>2026-04-12T10:45:02Z</time></trkpt><trkpt lat="42.67373015776209" lon="12.92968174982653"><ele>1194.0</ele><time>2026-04-12T10:45:03Z</time></trkpt><trkpt lat="42.67374090678342" lon="12.929839721311103"><ele>1194.0</ele><time>2026-04-12T10:45:05Z</time></trkpt><trkpt lat="42.6737543297338" lon="12.929974182612876"><ele>1194.0</ele><time>2026-04-12T10:45:07Z</time></trkpt><trkpt lat="42.67376688763911" lon="12.93008041255512"><ele>1194.0</ele><time>2026-04-12T10:45:09Z</time></trkpt><trkpt lat="42.67377894936958" lon="12.930201216042871"><ele>1194.0</ele><time>2026-04-12T10:45:11.001Z</time></trkpt><trkpt lat="42.673797084988074" lon="12.93032579634078"><ele>1194.0</ele><time>2026-04-12T10:45:13.001Z</time></trkpt><trkpt lat="42.6738137360383" lon="12.930456332708944"><ele>1191.5</ele><time>2026-04-12T10:45:15.001Z</time></trkpt><trkpt lat="42.67383714198029" lon="12.930581556923991"><ele>1189.0</ele><time>2026-04-12T10:45:17.001Z</time></trkpt><trkpt lat="42.67386202948403" lon="12.930698285534664"><ele>1186.5</ele><time>2026-04-12T10:45:19.001Z</time></trkpt><trkpt lat="42.67388794712623" lon="12.930815940174043"><ele>1184.0</ele><time>2026-04-12T10:45:21.001Z</time></trkpt><trkpt lat="42.67392077197612" lon="12.930917831685035"><ele>1181.5</ele><time>2026-04-12T10:45:23.001Z</time></trkpt><trkpt lat="42.67394125691019" lon="12.931028285925924"><ele>1179.0</ele><time>2026-04-12T10:45:25.001Z</time></trkpt><trkpt lat="42.67396599782718" lon="12.931147417629875"><ele>1175.2</ele><time>2026-04-12T10:45:27.001Z</time></trkpt><trkpt lat="42.67400926342796" lon="12.931273219945734"><ele>1171.4</ele><time>2026-04-12T10:45:29.001Z</time></trkpt><trkpt lat="42.67405957122235" lon="12.931408946956635"><ele>1167.6</ele><time>2026-04-12T10:45:31.001Z</time></trkpt><trkpt lat="42.674098400119895" lon="12.931552517543693"><ele>1163.8</ele><time>2026-04-12T10:45:33.001Z</time></trkpt><trkpt lat="42.67415702837033" lon="12.931680154632657"><ele>1160.0</ele><time>2026-04-12T10:45:35.001Z</time></trkpt><trkpt lat="42.67420723490852" lon="12.931816041453242"><ele>1156.4</ele><time>2026-04-12T10:45:37.001Z</time></trkpt><trkpt lat="42.6742638546456" lon="12.931952712992716"><ele>1152.8</ele><time>2026-04-12T10:45:39.001Z</time></trkpt><trkpt lat="42.67431769659108" lon="12.932040234076615"><ele>1149.2</ele><time>2026-04-12T10:45:40.001Z</time></trkpt><trkpt lat="42.67441091659934" lon="12.932104570470802"><ele>1145.6</ele><time>2026-04-12T10:45:41.001Z</time></trkpt><trkpt lat="42.674534753488935" lon="12.932078620103754"><ele>1142.0</ele><time>2026-04-12T10:45:42.001Z</time></trkpt><trkpt lat="42.6746591099857" lon="12.931983836691824"><ele>1138.6666666666667</ele><time>2026-04-12T10:45:43.001Z</time></trkpt><trkpt lat="42.67477234939834" lon="12.931829578157004"><ele>1135.3333333333333</ele><time>2026-04-12T10:45:44.001Z</time></trkpt><trkpt lat="42.67491523336023" lon="12.931728372271072"><ele>1132.0</ele><time>2026-04-12T10:45:45.001Z</time></trkpt><trkpt lat="42.67507306318029" lon="12.93168741939046"><ele>1134.0</ele><time>2026-04-12T10:45:46.001Z</time></trkpt><trkpt lat="42.6752372291308" lon="12.931654758663269"><ele>1136.0</ele><time>2026-04-12T10:45:47.001Z</time></trkpt><trkpt lat="42.6753859545849" lon="12.931606438691196"><ele>1138.0</ele><time>2026-04-12T10:45:48.001Z</time></trkpt><trkpt lat="42.67552041271239" lon="12.931545645660089"><ele>1138.0</ele><time>2026-04-12T10:45:49.001Z</time></trkpt><trkpt lat="42.675632061990385" lon="12.931439580404689"><ele>1138.0</ele><time>2026-04-12T10:45:50.001Z</time></trkpt><trkpt lat="42.675743402025944" lon="12.931342373776861"><ele>1138.0</ele><time>2026-04-12T10:45:50.997Z</time></trkpt><trkpt lat="42.675853727570534" lon="12.931256627618401"><ele>1138.0</ele><time>2026-04-12T10:45:51.997Z</time></trkpt><trkpt lat="42.675978302047" lon="12.9311967091591"><ele>1138.0</ele><time>2026-04-12T10:45:52.997Z</time></trkpt><trkpt lat="42.676092633716465" lon="12.931157594344784"><ele>1138.0</ele><time>2026-04-12T10:45:53.997Z</time></trkpt><trkpt lat="42.67620756708253" lon="12.931196251315354"><ele>1138.0</ele><time>2026-04-12T10:45:54.997Z</time></trkpt><trkpt lat="42.676306214028145" lon="12.931287661453737"><ele>1138.0</ele><time>2026-04-12T10:45:55.997Z</time></trkpt><trkpt lat="42.67637627208339" lon="12.931431736339693"><ele>1140.5</ele><time>2026-04-12T10:45:56.997Z</time></trkpt><trkpt lat="42.67645816982893" lon="12.931569610781914"><ele>1143.0</ele><time>2026-04-12T10:45:57.997Z</time></trkpt><trkpt lat="42.67651468156666" lon="12.931730087551687"><ele>1145.5</ele><time>2026-04-12T10:45:58.997Z</time></trkpt><trkpt lat="42.67658565774496" lon="12.93188192225727"><ele>1148.0</ele><time>2026-04-12T10:45:59.997Z</time></trkpt><trkpt lat="42.67669358935092" lon="12.932014909933047"><ele>1145.75</ele><time>2026-04-12T10:46:00.997Z</time></trkpt><trkpt lat="42.676831337202906" lon="12.932112652323509"><ele>1143.5</ele><time>2026-04-12T10:46:01.997Z</time></trkpt><trkpt lat="42.676968483654555" lon="12.932180413827592"><ele>1141.25</ele><time>2026-04-12T10:46:02.997Z</time></trkpt><trkpt lat="42.67709110077536" lon="12.932275795431618"><ele>1139.0</ele><time>2026-04-12T10:46:03.997Z</time></trkpt><trkpt lat="42.67721596180866" lon="12.932361193317957"><ele>1139.0</ele><time>2026-04-12T10:46:04.997Z</time></trkpt><trkpt lat="42.67734421442906" lon="12.932431104849705"><ele>1139.0</ele><time>2026-04-12T10:46:05.997Z</time></trkpt><trkpt lat="42.67746275658202" lon="12.932526301367108"><ele>1139.0</ele><time>2026-04-12T10:46:06.997Z</time></trkpt><trkpt lat="42.677574221383566" lon="12.932605402716568"><ele>1139.0</ele><time>2026-04-12T10:46:07.998Z</time></trkpt><trkpt lat="42.67767684405309" lon="12.93268396468599"><ele>1138.0</ele><time>2026-04-12T10:46:08.998Z</time></trkpt><trkpt lat="42.6777756960134" lon="12.932765006488793"><ele>1137.0</ele><time>2026-04-12T10:46:09.998Z</time></trkpt><trkpt lat="42.67785945482113" lon="12.93285545594764"><ele>1136.0</ele><time>2026-04-12T10:46:10.998Z</time></trkpt><trkpt lat="42.677942018534786" lon="12.93295013532434"><ele>1135.0</ele><time>2026-04-12T10:46:11.998Z</time></trkpt><trkpt lat="42.678028760148436" lon="12.933057787771089"><ele>1134.0</ele><time>2026-04-12T10:46:12.998Z</time></trkpt><trkpt lat="42.67812066220089" lon="12.933177862262047"><ele>1134.0</ele><time>2026-04-12T10:46:13.998Z</time></trkpt><trkpt lat="42.67821392616841" lon="12.933300796318951"><ele>1134.0</ele><time>2026-04-12T10:46:14.998Z</time></trkpt><trkpt lat="42.67831436863453" lon="12.933421327776655"><ele>1134.0</ele><time>2026-04-12T10:46:15.998Z</time></trkpt><trkpt lat="42.67841630761585" lon="12.933544911037545"><ele>1134.0</ele><time>2026-04-12T10:46:16.998Z</time></trkpt><trkpt lat="42.678525619938206" lon="12.933679146072615"><ele>1133.0</ele><time>2026-04-12T10:46:17.998Z</time></trkpt><trkpt lat="42.67863282553216" lon="12.933812734738982"><ele>1132.0</ele><time>2026-04-12T10:46:18.998Z</time></trkpt><trkpt lat="42.67874288279647" lon="12.933940718410803"><ele>1131.0</ele><time>2026-04-12T10:46:19.998Z</time></trkpt><trkpt lat="42.67883251024025" lon="12.93406145550111"><ele>1130.0</ele><time>2026-04-12T10:46:20.998Z</time></trkpt><trkpt lat="42.67891791969699" lon="12.934184701875147"><ele>1125.25</ele><time>2026-04-12T10:46:21.998Z</time></trkpt><trkpt lat="42.679007404292335" lon="12.934292225349685"><ele>1120.5</ele><time>2026-04-12T10:46:22.998Z</time></trkpt><trkpt lat="42.67908216654557" lon="12.934422770076123"><ele>1115.75</ele><time>2026-04-12T10:46:23.998Z</time></trkpt><trkpt lat="42.67916701342081" lon="12.93453729296788"><ele>1111.0</ele><time>2026-04-12T10:46:24.999Z</time></trkpt><trkpt lat="42.67924364074624" lon="12.934672379929307"><ele>1111.0</ele><time>2026-04-12T10:46:25.999Z</time></trkpt><trkpt lat="42.67933835997526" lon="12.93481679910787"><ele>1111.0</ele><time>2026-04-12T10:46:26.999Z</time></trkpt><trkpt lat="42.679447913525166" lon="12.934947247794584"><ele>1111.0</ele><time>2026-04-12T10:46:27.999Z</time></trkpt><trkpt lat="42.67957324131169" lon="12.935061113099401"><ele>1111.0</ele><time>2026-04-12T10:46:28.999Z</time></trkpt><trkpt lat="42.67970343380111" lon="12.935158108488354"><ele>1108.0</ele><time>2026-04-12T10:46:29.999Z</time></trkpt><trkpt lat="42.67984198534078" lon="12.935242756936766"><ele>1105.0</ele><time>2026-04-12T10:46:30.999Z</time></trkpt><trkpt lat="42.679980337266386" lon="12.93532614002841"><ele>1102.0</ele><time>2026-04-12T10:46:31.999Z</time></trkpt><trkpt lat="42.680122119146965" lon="12.935409438293219"><ele>1102.0</ele><time>2026-04-12T10:46:32.999Z</time></trkpt><trkpt lat="42.68026345091174" lon="12.935500531741528"><ele>1102.0</ele><time>2026-04-12T10:46:33.999Z</time></trkpt><trkpt lat="42.680395347965906" lon="12.935580686123304"><ele>1102.0</ele><time>2026-04-12T10:46:34.999Z</time></trkpt><trkpt lat="42.68051502291461" lon="12.93566680006832"><ele>1102.0</ele><time>2026-04-12T10:46:35.999Z</time></trkpt><trkpt lat="42.6806308444578" lon="12.935746706135156"><ele>1105.3333333333333</ele><time>2026-04-12T10:46:36.999Z</time></trkpt><trkpt lat="42.680758254570506" lon="12.93583575661641"><ele>1108.6666666666667</ele><time>2026-04-12T10:46:37.999Z</time></trkpt><trkpt lat="42.680901948838894" lon="12.93593946749599"><ele>1112.0</ele><time>2026-04-12T10:46:38.999Z</time></trkpt><trkpt lat="42.681038347288144" lon="12.936035965523397"><ele>1107.0</ele><time>2026-04-12T10:46:39.999Z</time></trkpt><trkpt lat="42.68117245003191" lon="12.936140062912264"><ele>1102.0</ele><time>2026-04-12T10:46:40.999Z</time></trkpt><trkpt lat="42.681306891071586" lon="12.936250292092884"><ele>1097.0</ele><time>2026-04-12T10:46:41.999Z</time></trkpt><trkpt lat="42.68143836195124" lon="12.936359855371723"><ele>1097.0</ele><time>2026-04-12T10:46:42.999Z</time></trkpt><trkpt lat="42.68156655727216" lon="12.936467227754619"><ele>1097.0</ele><time>2026-04-12T10:46:43.999Z</time></trkpt><trkpt lat="42.68170072712252" lon="12.936567371967703"><ele>1097.0</ele><time>2026-04-12T10:46:44.999Z</time></trkpt><trkpt lat="42.68183623950776" lon="12.936641542546317"><ele>1097.0</ele><time>2026-04-12T10:46:45.999Z</time></trkpt><trkpt lat="42.68197116935794" lon="12.936675587984602"><ele>1097.0</ele><time>2026-04-12T10:46:46.999Z</time></trkpt><trkpt lat="42.682111597682955" lon="12.936654059535849"><ele>1097.0</ele><time>2026-04-12T10:46:47.999Z</time></trkpt><trkpt lat="42.68224756463037" lon="12.936588100118929"><ele>1097.0</ele><time>2026-04-12T10:46:48.999Z</time></trkpt><trkpt lat="42.68239748444259" lon="12.936503934658704"><ele>1097.0</ele><time>2026-04-12T10:46:49.999Z</time></trkpt><trkpt lat="42.68256426387466" lon="12.936479052221602"><ele>1097.0</ele><time>2026-04-12T10:46:50.999Z</time></trkpt><trkpt lat="42.68276342249309" lon="12.93645105225715"><ele>1097.0</ele><time>2026-04-12T10:46:51.999Z</time></trkpt><trkpt lat="42.68298646209407" lon="12.936435477910337"><ele>1096.0</ele><time>2026-04-12T10:46:52.999Z</time></trkpt><trkpt lat="42.68318506191476" lon="12.936428578869558"><ele>1095.0</ele><time>2026-04-12T10:46:53.999Z</time></trkpt><trkpt lat="42.68336746445531" lon="12.936473107303494"><ele>1094.0</ele><time>2026-04-12T10:46:54.999Z</time></trkpt><trkpt lat="42.68353388181555" lon="12.936581060524158"><ele>1094.0</ele><time>2026-04-12T10:46:55.999Z</time></trkpt><trkpt lat="42.68367599421352" lon="12.936715702930618"><ele>1094.0</ele><time>2026-04-12T10:46:56.999Z</time></trkpt><trkpt lat="42.68381593093933" lon="12.936852574725357"><ele>1094.0</ele><time>2026-04-12T10:46:57.999Z</time></trkpt><trkpt lat="42.683938291800914" lon="12.937015458555674"><ele>1088.0</ele><time>2026-04-12T10:46:58.999Z</time></trkpt><trkpt lat="42.684075193134724" lon="12.937132544879994"><ele>1082.0</ele><time>2026-04-12T10:46:59.999Z</time></trkpt><trkpt lat="42.68421051134936" lon="12.937198881334288"><ele>1076.0</ele><time>2026-04-12T10:47:00.999Z</time></trkpt><trkpt lat="42.684351043308425" lon="12.937218187578724"><ele>1070.0</ele><time>2026-04-12T10:47:01.999Z</time></trkpt><trkpt lat="42.68448582814111" lon="12.93718747829419"><ele>1069.2</ele><time>2026-04-12T10:47:02.999Z</time></trkpt><trkpt lat="42.6846082156779" lon="12.937186825296685"><ele>1068.4</ele><time>2026-04-12T10:47:03.999Z</time></trkpt><trkpt lat="42.68470450195933" lon="12.937197433510786"><ele>1067.6</ele><time>2026-04-12T10:47:05Z</time></trkpt><trkpt lat="42.6847627300042" lon="12.937273072255795"><ele>1066.8</ele><time>2026-04-12T10:47:06Z</time></trkpt><trkpt lat="42.68479342733926" lon="12.937381186194933"><ele>1066.0</ele><time>2026-04-12T10:47:07Z</time></trkpt><trkpt lat="42.68476510494942" lon="12.93751728911118"><ele>1065.8</ele><time>2026-04-12T10:47:08Z</time></trkpt><trkpt lat="42.68466252460007" lon="12.93759873495965"><ele>1065.6</ele><time>2026-04-12T10:47:09Z</time></trkpt><trkpt lat="42.684554723090976" lon="12.937630027024262"><ele>1065.4</ele><time>2026-04-12T10:47:10Z</time></trkpt><trkpt lat="42.68445897835064" lon="12.937637457322596"><ele>1065.2</ele><time>2026-04-12T10:47:11Z</time></trkpt><trkpt lat="42.684366408479264" lon="12.9376462300603"><ele>1065.0</ele><time>2026-04-12T10:47:12Z</time></trkpt><trkpt lat="42.68427436316037" lon="12.937634630649834"><ele>1064.2</ele><time>2026-04-12T10:47:13Z</time></trkpt><trkpt lat="42.684172044057064" lon="12.937612837180431"><ele>1063.4</ele><time>2026-04-12T10:47:14Z</time></trkpt><trkpt lat="42.68406269035576" lon="12.937600901629484"><ele>1062.6</ele><time>2026-04-12T10:47:15Z</time></trkpt><trkpt lat="42.6839525134413" lon="12.937556070433645"><ele>1061.8</ele><time>2026-04-12T10:47:16Z</time></trkpt><trkpt lat="42.68383785915914" lon="12.93751226784338"><ele>1061.0</ele><time>2026-04-12T10:47:17Z</time></trkpt><trkpt lat="42.683727748992034" lon="12.93744194582139"><ele>1063.25</ele><time>2026-04-12T10:47:18Z</time></trkpt><trkpt lat="42.68360628666758" lon="12.937414010191814"><ele>1065.5</ele><time>2026-04-12T10:47:19Z</time></trkpt><trkpt lat="42.68348528184909" lon="12.937351580288606"><ele>1067.75</ele><time>2026-04-12T10:47:20Z</time></trkpt><trkpt lat="42.68335615210961" lon="12.937294602964545"><ele>1070.0</ele><time>2026-04-12T10:47:21Z</time></trkpt><trkpt lat="42.68322848364264" lon="12.937251996909641"><ele>1070.0</ele><time>2026-04-12T10:47:22Z</time></trkpt><trkpt lat="42.683100223468124" lon="12.93723884986274"><ele>1070.0</ele><time>2026-04-12T10:47:23Z</time></trkpt><trkpt lat="42.682970918005736" lon="12.937274638232621"><ele>1070.0</ele><time>2026-04-12T10:47:24Z</time></trkpt><trkpt lat="42.68284405265969" lon="12.937366642372025"><ele>1070.0</ele><time>2026-04-12T10:47:25Z</time></trkpt><trkpt lat="42.68271841831464" lon="12.937491881906405"><ele>1064.3333333333335</ele><time>2026-04-12T10:47:26Z</time></trkpt><trkpt lat="42.68258814033746" lon="12.937629086903621"><ele>1058.6666666666667</ele><time>2026-04-12T10:47:27Z</time></trkpt><trkpt lat="42.68247037451636" lon="12.937765195757674"><ele>1053.0</ele><time>2026-04-12T10:47:28Z</time></trkpt><trkpt lat="42.6823567607971" lon="12.937878611736016"><ele>1053.0</ele><time>2026-04-12T10:47:29Z</time></trkpt><trkpt lat="42.682275594245425" lon="12.938012670991437"><ele>1053.0</ele><time>2026-04-12T10:47:30Z</time></trkpt><trkpt lat="42.68221058203891" lon="12.938144978023846"><ele>1053.0</ele><time>2026-04-12T10:47:31Z</time></trkpt><trkpt lat="42.68218657228001" lon="12.938297003683923"><ele>1053.0</ele><time>2026-04-12T10:47:32Z</time></trkpt><trkpt lat="42.682183046960105" lon="12.938422593832625"><ele>1052.3333333333333</ele><time>2026-04-12T10:47:33Z</time></trkpt><trkpt lat="42.68219595427489" lon="12.938533718342834"><ele>1051.6666666666667</ele><time>2026-04-12T10:47:34Z</time></trkpt><trkpt lat="42.68221017223689" lon="12.938624845448713"><ele>1051.0</ele><time>2026-04-12T10:47:35Z</time></trkpt><trkpt lat="42.6822542919428" lon="12.938740132353882"><ele>1050.3333333333335</ele><time>2026-04-12T10:47:37Z</time></trkpt><trkpt lat="42.6823718790773" lon="12.938687693365628"><ele>1049.6666666666667</ele><time>2026-04-12T10:47:39Z</time></trkpt><trkpt lat="42.68243054096719" lon="12.938630176334508"><ele>1049.0</ele><time>2026-04-12T10:47:40Z</time></trkpt><trkpt lat="42.68251330476466" lon="12.9385519243223"><ele>1049.0</ele><time>2026-04-12T10:47:41Z</time></trkpt><trkpt lat="42.68262903818609" lon="12.9384754259968"><ele>1049.0</ele><time>2026-04-12T10:47:42Z</time></trkpt><trkpt lat="42.68276463517306" lon="12.938398398249307"><ele>1049.0</ele><time>2026-04-12T10:47:43Z</time></trkpt><trkpt lat="42.68291507367991" lon="12.938315858162465"><ele>1049.0</ele><time>2026-04-12T10:47:44Z</time></trkpt><trkpt lat="42.68309775083352" lon="12.938263011149498"><ele>1052.0</ele><time>2026-04-12T10:47:45Z</time></trkpt><trkpt lat="42.68330007703586" lon="12.938232740359297"><ele>1055.0</ele><time>2026-04-12T10:47:46Z</time></trkpt><trkpt lat="42.68346056533812" lon="12.938190351794143"><ele>1058.0</ele><time>2026-04-12T10:47:47Z</time></trkpt><trkpt lat="42.68359675511975" lon="12.938163330101261"><ele>1058.6</ele><time>2026-04-12T10:47:48Z</time></trkpt><trkpt lat="42.68371317788788" lon="12.938121307261376"><ele>1059.1999999999998</ele><time>2026-04-12T10:47:49Z</time></trkpt><trkpt lat="42.68382557894889" lon="12.938088084271339"><ele>1059.8</ele><time>2026-04-12T10:47:50Z</time></trkpt><trkpt lat="42.6839295896774" lon="12.938070241097616"><ele>1060.3999999999999</ele><time>2026-04-12T10:47:51Z</time></trkpt><trkpt lat="42.68403732356428" lon="12.938091352758738"><ele>1061.0</ele><time>2026-04-12T10:47:52Z</time></trkpt><trkpt lat="42.684148133995265" lon="12.938101946465295"><ele>1061.0</ele><time>2026-04-12T10:47:53Z</time></trkpt><trkpt lat="42.68425603459919" lon="12.938099773979669"><ele>1061.0</ele><time>2026-04-12T10:47:54Z</time></trkpt><trkpt lat="42.68434811412349" lon="12.938133708561933"><ele>1061.0</ele><time>2026-04-12T10:47:55Z</time></trkpt><trkpt lat="42.68444545009576" lon="12.938144759449354"><ele>1061.0</ele><time>2026-04-12T10:47:56Z</time></trkpt><trkpt lat="42.684538457963505" lon="12.938162317778403"><ele>1061.0</ele><time>2026-04-12T10:47:56.995Z</time></trkpt><trkpt lat="42.68463676340637" lon="12.938186999152952"><ele>1061.8</ele><time>2026-04-12T10:47:57.995Z</time></trkpt><trkpt lat="42.68473526430299" lon="12.938160176653803"><ele>1062.6</ele><time>2026-04-12T10:47:58.995Z</time></trkpt><trkpt lat="42.68483193013452" lon="12.9381125373886"><ele>1063.4</ele><time>2026-04-12T10:47:59.995Z</time></trkpt><trkpt lat="42.684927426004265" lon="12.93804861441271"><ele>1064.2</ele><time>2026-04-12T10:48:00.995Z</time></trkpt><trkpt lat="42.68502505509932" lon="12.93797200600967"><ele>1065.0</ele><time>2026-04-12T10:48:01.995Z</time></trkpt><trkpt lat="42.68511802066329" lon="12.93788176189081"><ele>1065.0</ele><time>2026-04-12T10:48:02.995Z</time></trkpt><trkpt lat="42.685215951766764" lon="12.937804143154828"><ele>1065.0</ele><time>2026-04-12T10:48:03.995Z</time></trkpt><trkpt lat="42.685305894500985" lon="12.93771641328878"><ele>1065.0</ele><time>2026-04-12T10:48:04.995Z</time></trkpt><trkpt lat="42.685373448284835" lon="12.937602608656956"><ele>1065.0</ele><time>2026-04-12T10:48:05.996Z</time></trkpt><trkpt lat="42.685422413016255" lon="12.937471298049559"><ele>1065.0</ele><time>2026-04-12T10:48:06.996Z</time></trkpt><trkpt lat="42.68546889721775" lon="12.93733326441262"><ele>1062.5</ele><time>2026-04-12T10:48:07.996Z</time></trkpt><trkpt lat="42.68552596432468" lon="12.937198038510832"><ele>1060.0</ele><time>2026-04-12T10:48:08.996Z</time></trkpt><trkpt lat="42.685600426941576" lon="12.937054376386072"><ele>1057.5</ele><time>2026-04-12T10:48:09.996Z</time></trkpt><trkpt lat="42.68571876815555" lon="12.936958654150553"><ele>1055.0</ele><time>2026-04-12T10:48:10.996Z</time></trkpt><trkpt lat="42.68584226858737" lon="12.936893173951047"><ele>1055.0</ele><time>2026-04-12T10:48:11.996Z</time></trkpt><trkpt lat="42.685954930158765" lon="12.936830171715783"><ele>1055.0</ele><time>2026-04-12T10:48:12.996Z</time></trkpt><trkpt lat="42.68604921857328" lon="12.936804028458182"><ele>1055.0</ele><time>2026-04-12T10:48:13.997Z</time></trkpt><trkpt lat="42.68612228918437" lon="12.93675455722032"><ele>1055.0</ele><time>2026-04-12T10:48:15.997Z</time></trkpt><trkpt lat="42.68620581270987" lon="12.936714538537036"><ele>1055.0</ele><time>2026-04-12T10:48:19.997Z</time></trkpt><trkpt lat="42.686268072612044" lon="12.936652348867934"><ele>1051.25</ele><time>2026-04-12T10:48:21.997Z</time></trkpt><trkpt lat="42.68648310569306" lon="12.936839128971124"><ele>1047.5</ele><time>2026-04-12T10:48:23.998Z</time></trkpt><trkpt lat="42.68657682750844" lon="12.936889566384867"><ele>1043.75</ele><time>2026-04-12T10:48:24.998Z</time></trkpt><trkpt lat="42.68666101059036" lon="12.936925372013556"><ele>1040.0</ele><time>2026-04-12T10:48:25.998Z</time></trkpt><trkpt lat="42.68677581453837" lon="12.936973894389416"><ele>1040.0</ele><time>2026-04-12T10:48:26.998Z</time></trkpt><trkpt lat="42.686868776813995" lon="12.937019669423059"><ele>1040.0</ele><time>2026-04-12T10:48:27.998Z</time></trkpt><trkpt lat="42.686984922452964" lon="12.937055222821906"><ele>1040.0</ele><time>2026-04-12T10:48:28.998Z</time></trkpt><trkpt lat="42.687105077070925" lon="12.93709683448742"><ele>1040.0</ele><time>2026-04-12T10:48:29.998Z</time></trkpt><trkpt lat="42.687229777697155" lon="12.937133842215871"><ele>1040.0</ele><time>2026-04-12T10:48:30.998Z</time></trkpt><trkpt lat="42.68732230399759" lon="12.937170622464201"><ele>1040.0</ele><time>2026-04-12T10:48:31.998Z</time></trkpt><trkpt lat="42.68738562545255" lon="12.937212679565118"><ele>1040.0</ele><time>2026-04-12T10:48:32.998Z</time></trkpt><trkpt lat="42.68745224903305" lon="12.937268580043167"><ele>1040.0</ele><time>2026-04-12T10:48:33.998Z</time></trkpt><trkpt lat="42.687526360402245" lon="12.93733972910808"><ele>1040.0</ele><time>2026-04-12T10:48:34.998Z</time></trkpt><trkpt lat="42.68759249457779" lon="12.937400053937578"><ele>1040.0</ele><time>2026-04-12T10:48:35.998Z</time></trkpt><trkpt lat="42.687694039280196" lon="12.937458985065597"><ele>1040.8333333333335</ele><time>2026-04-12T10:48:37.998Z</time></trkpt><trkpt lat="42.68778063583153" lon="12.937521561565084"><ele>1041.6666666666667</ele><time>2026-04-12T10:48:39.999Z</time></trkpt><trkpt lat="42.687881874441906" lon="12.937639119375229"><ele>1042.5</ele><time>2026-04-12T10:48:41.999Z</time></trkpt><trkpt lat="42.687929798753096" lon="12.93770956044141"><ele>1043.3333333333333</ele><time>2026-04-12T10:48:42.999Z</time></trkpt><trkpt lat="42.68797475696814" lon="12.937774730669704"><ele>1044.1666666666665</ele><time>2026-04-12T10:48:43.999Z</time></trkpt><trkpt lat="42.68803145940206" lon="12.937843136450757"><ele>1045.0</ele><time>2026-04-12T10:48:44.999Z</time></trkpt><trkpt lat="42.68809454489235" lon="12.937886798432144"><ele>1047.2</ele><time>2026-04-12T10:48:45.999Z</time></trkpt><trkpt lat="42.68822865133013" lon="12.937847202817617"><ele>1049.4</ele><time>2026-04-12T10:48:47.999Z</time></trkpt><trkpt lat="42.6883266192942" lon="12.937813182458552"><ele>1051.6</ele><time>2026-04-12T10:48:48.999Z</time></trkpt><trkpt lat="42.68842696869172" lon="12.937805668774786"><ele>1053.8</ele><time>2026-04-12T10:48:49.999Z</time></trkpt><trkpt lat="42.688519665955496" lon="12.937793406652396"><ele>1056.0</ele><time>2026-04-12T10:48:50.999Z</time></trkpt><trkpt lat="42.68859866247459" lon="12.937778654437883"><ele>1058.6</ele><time>2026-04-12T10:48:51.999Z</time></trkpt><trkpt lat="42.688706616550576" lon="12.937756976260564"><ele>1061.1999999999998</ele><time>2026-04-12T10:48:52.999Z</time></trkpt><trkpt lat="42.688786414566195" lon="12.937724345607803"><ele>1063.8000000000002</ele><time>2026-04-12T10:48:53.999Z</time></trkpt><trkpt lat="42.6888694377417" lon="12.93768808377085"><ele>1066.4</ele><time>2026-04-12T10:48:54.999Z</time></trkpt><trkpt lat="42.68895258178919" lon="12.937622231692519"><ele>1069.0</ele><time>2026-04-12T10:48:55.999Z</time></trkpt><trkpt lat="42.68903893026159" lon="12.937570460881165"><ele>1066.2</ele><time>2026-04-12T10:48:56.999Z</time></trkpt><trkpt lat="42.68913730957003" lon="12.937530179917063"><ele>1063.4</ele><time>2026-04-12T10:48:57.999Z</time></trkpt><trkpt lat="42.689238023149045" lon="12.937496690729372"><ele>1060.6</ele><time>2026-04-12T10:48:58.999Z</time></trkpt><trkpt lat="42.68934637258829" lon="12.937460693485713"><ele>1057.8</ele><time>2026-04-12T10:48:59.999Z</time></trkpt><trkpt lat="42.68947388529357" lon="12.937436013072867"><ele>1055.0</ele><time>2026-04-12T10:49:00.999Z</time></trkpt><trkpt lat="42.68961203422812" lon="12.937414021909149"><ele>1055.0</ele><time>2026-04-12T10:49:01.999Z</time></trkpt><trkpt lat="42.689733647273734" lon="12.937398861745855"><ele>1055.0</ele><time>2026-04-12T10:49:02.999Z</time></trkpt><trkpt lat="42.689846133065565" lon="12.93737101987415"><ele>1055.0</ele><time>2026-04-12T10:49:03.999Z</time></trkpt><trkpt lat="42.689967890745386" lon="12.937343904566024"><ele>1055.0</ele><time>2026-04-12T10:49:04.999Z</time></trkpt><trkpt lat="42.69007609008957" lon="12.937325379051295"><ele>1055.0</ele><time>2026-04-12T10:49:05.999Z</time></trkpt><trkpt lat="42.69017996673753" lon="12.937315581315817"><ele>1055.0</ele><time>2026-04-12T10:49:07Z</time></trkpt><trkpt lat="42.69027739966874" lon="12.937283500819493"><ele>1055.0</ele><time>2026-04-12T10:49:08Z</time></trkpt><trkpt lat="42.69036857807396" lon="12.937264213706134"><ele>1055.0</ele><time>2026-04-12T10:49:09Z</time></trkpt><trkpt lat="42.69046624719574" lon="12.9372491219854"><ele>1055.0</ele><time>2026-04-12T10:49:10Z</time></trkpt><trkpt lat="42.6905547530548" lon="12.937228739784679"><ele>1055.8</ele><time>2026-04-12T10:49:11Z</time></trkpt><trkpt lat="42.69064850437192" lon="12.937177605209277"><ele>1056.6</ele><time>2026-04-12T10:49:12Z</time></trkpt><trkpt lat="42.690738581861815" lon="12.937116687912495"><ele>1057.4</ele><time>2026-04-12T10:49:13Z</time></trkpt><trkpt lat="42.69081756973083" lon="12.937069373372779"><ele>1058.2</ele><time>2026-04-12T10:49:14Z</time></trkpt><trkpt lat="42.69089883509832" lon="12.937025071895118"><ele>1059.0</ele><time>2026-04-12T10:49:15Z</time></trkpt><trkpt lat="42.6909863184661" lon="12.936992842571735"><ele>1059.0</ele><time>2026-04-12T10:49:16Z</time></trkpt><trkpt lat="42.691083755622934" lon="12.93697349423343"><ele>1059.0</ele><time>2026-04-12T10:49:17Z</time></trkpt><trkpt lat="42.69117891187047" lon="12.936974423602168"><ele>1059.0</ele><time>2026-04-12T10:49:18Z</time></trkpt><trkpt lat="42.69126533850067" lon="12.936985398191984"><ele>1059.0</ele><time>2026-04-12T10:49:19Z</time></trkpt><trkpt lat="42.69135089050815" lon="12.937022054938453"><ele>1059.0</ele><time>2026-04-12T10:49:20Z</time></trkpt><trkpt lat="42.691446576775704" lon="12.937054700665245"><ele>1058.1666666666667</ele><time>2026-04-12T10:49:21Z</time></trkpt><trkpt lat="42.69154505872676" lon="12.937076893079325"><ele>1057.3333333333333</ele><time>2026-04-12T10:49:22Z</time></trkpt><trkpt lat="42.69162882647014" lon="12.937107007385947"><ele>1056.5</ele><time>2026-04-12T10:49:23Z</time></trkpt><trkpt lat="42.69171721233619" lon="12.937150715803606"><ele>1055.6666666666665</ele><time>2026-04-12T10:49:24Z</time></trkpt><trkpt lat="42.69177674075699" lon="12.9371916160707"><ele>1054.8333333333333</ele><time>2026-04-12T10:49:25Z</time></trkpt><trkpt lat="42.69185116415815" lon="12.937228819083755"><ele>1054.0</ele><time>2026-04-12T10:49:26Z</time></trkpt><trkpt lat="42.69192857477008" lon="12.937265243096746"><ele>1053.8</ele><time>2026-04-12T10:49:27Z</time></trkpt><trkpt lat="42.69199094749726" lon="12.9372960311288"><ele>1053.6000000000001</ele><time>2026-04-12T10:49:28Z</time></trkpt><trkpt lat="42.692105882585615" lon="12.937330276147812"><ele>1053.4</ele><time>2026-04-12T10:49:30Z</time></trkpt><trkpt lat="42.69221167490653" lon="12.937414961539117"><ele>1053.2</ele><time>2026-04-12T10:49:32Z</time></trkpt><trkpt lat="42.692262006230514" lon="12.937565680399011"><ele>1053.0</ele><time>2026-04-12T10:49:34Z</time></trkpt><trkpt lat="42.692268646447566" lon="12.937661679767153"><ele>1053.0</ele><time>2026-04-12T10:49:35Z</time></trkpt><trkpt lat="42.692272317104276" lon="12.937770222652004"><ele>1053.0</ele><time>2026-04-12T10:49:36Z</time></trkpt><trkpt lat="42.69228239604291" lon="12.937879178968682"><ele>1053.0</ele><time>2026-04-12T10:49:37Z</time></trkpt><trkpt lat="42.69228596171732" lon="12.938002632364151"><ele>1053.0</ele><time>2026-04-12T10:49:38Z</time></trkpt><trkpt lat="42.69229102677635" lon="12.938121062340757"><ele>1053.0</ele><time>2026-04-12T10:49:39Z</time></trkpt><trkpt lat="42.69229306095556" lon="12.93824017380178"><ele>1053.0</ele><time>2026-04-12T10:49:40.001Z</time></trkpt><trkpt lat="42.69231764594257" lon="12.93838519712207"><ele>1055.1666666666667</ele><time>2026-04-12T10:49:42.001Z</time></trkpt><trkpt lat="42.69237482296466" lon="12.938458305136445"><ele>1057.3333333333333</ele><time>2026-04-12T10:49:43.001Z</time></trkpt><trkpt lat="42.69246013694523" lon="12.93852936875216"><ele>1059.5</ele><time>2026-04-12T10:49:44.001Z</time></trkpt><trkpt lat="42.69251583009634" lon="12.938601129683025"><ele>1061.6666666666665</ele><time>2026-04-12T10:49:45.001Z</time></trkpt><trkpt lat="42.69256501133557" lon="12.938673645812724"><ele>1063.8333333333333</ele><time>2026-04-12T10:49:46.001Z</time></trkpt><trkpt lat="42.69261788768583" lon="12.938760274174802"><ele>1066.0</ele><time>2026-04-12T10:49:47.001Z</time></trkpt><trkpt lat="42.692673081307625" lon="12.938841437267884"><ele>1066.0</ele><time>2026-04-12T10:49:48.001Z</time></trkpt><trkpt lat="42.69273743863564" lon="12.93889773373615"><ele>1066.0</ele><time>2026-04-12T10:49:49.001Z</time></trkpt><trkpt lat="42.69280590069564" lon="12.938951780179817"><ele>1066.0</ele><time>2026-04-12T10:49:50.001Z</time></trkpt><trkpt lat="42.692887478013134" lon="12.939026341626922"><ele>1066.0</ele><time>2026-04-12T10:49:51.001Z</time></trkpt><trkpt lat="42.69297978764065" lon="12.939115854361757"><ele>1066.0</ele><time>2026-04-12T10:49:52.001Z</time></trkpt><trkpt lat="42.69304781406507" lon="12.939192871789535"><ele>1068.6</ele><time>2026-04-12T10:49:53.001Z</time></trkpt><trkpt lat="42.69311695365541" lon="12.939275863615142"><ele>1071.1999999999998</ele><time>2026-04-12T10:49:54.001Z</time></trkpt><trkpt lat="42.69323249028742" lon="12.939371784201686"><ele>1073.8000000000002</ele><time>2026-04-12T10:49:56.001Z</time></trkpt><trkpt lat="42.69330878761885" lon="12.939401385749633"><ele>1076.4</ele><time>2026-04-12T10:49:57.001Z</time></trkpt><trkpt lat="42.6933979068993" lon="12.939427828358813"><ele>1079.0</ele><time>2026-04-12T10:49:58.001Z</time></trkpt><trkpt lat="42.69347921569045" lon="12.939470503870915"><ele>1079.0</ele><time>2026-04-12T10:49:59.001Z</time></trkpt><trkpt lat="42.69355900394991" lon="12.93951989691537"><ele>1079.0</ele><time>2026-04-12T10:50:00.001Z</time></trkpt><trkpt lat="42.693622769660145" lon="12.939600580453497"><ele>1079.0</ele><time>2026-04-12T10:50:01.001Z</time></trkpt><trkpt lat="42.693687662761725" lon="12.939698495762707"><ele>1079.0</ele><time>2026-04-12T10:50:02.001Z</time></trkpt><trkpt lat="42.69375791266373" lon="12.939797084693517"><ele>1079.0</ele><time>2026-04-12T10:50:02.996Z</time></trkpt><trkpt lat="42.69383120792876" lon="12.939884129249723"><ele>1079.0</ele><time>2026-04-12T10:50:03.996Z</time></trkpt><trkpt lat="42.69388770427326" lon="12.939998798711992"><ele>1079.0</ele><time>2026-04-12T10:50:04.996Z</time></trkpt><trkpt lat="42.69394663712405" lon="12.940135772576191"><ele>1079.0</ele><time>2026-04-12T10:50:05.996Z</time></trkpt><trkpt lat="42.6940257424157" lon="12.940247249878382"><ele>1079.0</ele><time>2026-04-12T10:50:06.996Z</time></trkpt><trkpt lat="42.69409891606528" lon="12.940328451019678"><ele>1079.0</ele><time>2026-04-12T10:50:07.996Z</time></trkpt><trkpt lat="42.69416081621465" lon="12.940396324376351"><ele>1079.6666666666667</ele><time>2026-04-12T10:50:08.996Z</time></trkpt><trkpt lat="42.6942156794192" lon="12.94047769958444"><ele>1080.3333333333335</ele><time>2026-04-12T10:50:09.996Z</time></trkpt><trkpt lat="42.69425070616194" lon="12.940576086284787"><ele>1081.0</ele><time>2026-04-12T10:50:10.996Z</time></trkpt><trkpt lat="42.694266405728804" lon="12.940681080352414"><ele>1081.6666666666667</ele><time>2026-04-12T10:50:11.996Z</time></trkpt><trkpt lat="42.69426454379812" lon="12.940784026557074"><ele>1082.3333333333333</ele><time>2026-04-12T10:50:12.996Z</time></trkpt><trkpt lat="42.694263285880346" lon="12.940898931799273"><ele>1083.0</ele><time>2026-04-12T10:50:13.997Z</time></trkpt><trkpt lat="42.69425732672034" lon="12.94100606256997"><ele>1081.4</ele><time>2026-04-12T10:50:14.997Z</time></trkpt><trkpt lat="42.69425225152174" lon="12.941116966791856"><ele>1079.8</ele><time>2026-04-12T10:50:15.997Z</time></trkpt><trkpt lat="42.6942564725088" lon="12.941217490015"><ele>1078.2</ele><time>2026-04-12T10:50:16.997Z</time></trkpt><trkpt lat="42.694238326011984" lon="12.941392560776768"><ele>1076.6</ele><time>2026-04-12T10:50:18.997Z</time></trkpt><trkpt lat="42.694186225946765" lon="12.941568038829583"><ele>1075.0</ele><time>2026-04-12T10:50:20.997Z</time></trkpt><trkpt lat="42.6941556068074" lon="12.94165452589404"><ele>1072.6</ele><time>2026-04-12T10:50:21.998Z</time></trkpt><trkpt lat="42.69408598722133" lon="12.941796746068205"><ele>1070.2</ele><time>2026-04-12T10:50:23.998Z</time></trkpt><trkpt lat="42.694051087110374" lon="12.941875912835762"><ele>1067.8</ele><time>2026-04-12T10:50:24.998Z</time></trkpt><trkpt lat="42.69397598546172" lon="12.942019012923733"><ele>1065.4</ele><time>2026-04-12T10:50:26.998Z</time></trkpt><trkpt lat="42.69391958575848" lon="12.942117693837687"><ele>1063.0</ele><time>2026-04-12T10:50:27.998Z</time></trkpt><trkpt lat="42.69386076084187" lon="12.942228200810474"><ele>1063.0</ele><time>2026-04-12T10:50:28.998Z</time></trkpt><trkpt lat="42.69377668347875" lon="12.942392363769983"><ele>1063.0</ele><time>2026-04-12T10:50:30.998Z</time></trkpt><trkpt lat="42.69372187266238" lon="12.942493155255551"><ele>1063.0</ele><time>2026-04-12T10:50:31.998Z</time></trkpt><trkpt lat="42.693681397211705" lon="12.942582722348996"><ele>1063.0</ele><time>2026-04-12T10:50:32.998Z</time></trkpt><trkpt lat="42.69364375306972" lon="12.94268317967012"><ele>1063.0</ele><time>2026-04-12T10:50:33.999Z</time></trkpt><trkpt lat="42.693613765908715" lon="12.942787560143666"><ele>1062.8333333333333</ele><time>2026-04-12T10:50:34.999Z</time></trkpt><trkpt lat="42.69357736430492" lon="12.9428861173033"><ele>1062.6666666666665</ele><time>2026-04-12T10:50:35.999Z</time></trkpt><trkpt lat="42.69354063647329" lon="12.94298781517777"><ele>1062.5</ele><time>2026-04-12T10:50:36.999Z</time></trkpt><trkpt lat="42.6935078215094" lon="12.943075488826151"><ele>1062.3333333333333</ele><time>2026-04-12T10:50:37.999Z</time></trkpt><trkpt lat="42.69348151126936" lon="12.943184314933006"><ele>1062.1666666666667</ele><time>2026-04-12T10:50:38.999Z</time></trkpt><trkpt lat="42.6934532486295" lon="12.943320851880221"><ele>1062.0</ele><time>2026-04-12T10:50:39.999Z</time></trkpt><trkpt lat="42.693444107978515" lon="12.94341944746491"><ele>1062.0</ele><time>2026-04-12T10:50:40.999Z</time></trkpt><trkpt lat="42.693418965711324" lon="12.943530166010019"><ele>1062.0</ele><time>2026-04-12T10:50:41.999Z</time></trkpt><trkpt lat="42.693391285735174" lon="12.94364500429229"><ele>1062.0</ele><time>2026-04-12T10:50:42.999Z</time></trkpt><trkpt lat="42.693378277967916" lon="12.9437695079718"><ele>1062.0</ele><time>2026-04-12T10:50:43.999Z</time></trkpt><trkpt lat="42.69338923141945" lon="12.9438755817896"><ele>1062.0</ele><time>2026-04-12T10:50:44.999Z</time></trkpt><trkpt lat="42.69340782488313" lon="12.943978500003004"><ele>1062.0</ele><time>2026-04-12T10:50:45.999Z</time></trkpt><trkpt lat="42.69345361354654" lon="12.944095992900134"><ele>1062.0</ele><time>2026-04-12T10:50:46.999Z</time></trkpt><trkpt lat="42.69351777736613" lon="12.944185568429583"><ele>1062.0</ele><time>2026-04-12T10:50:47.999Z</time></trkpt><trkpt lat="42.693592667782326" lon="12.94424984502202"><ele>1062.0</ele><time>2026-04-12T10:50:48.999Z</time></trkpt><trkpt lat="42.69369823711437" lon="12.944299329836655"><ele>1062.0</ele><time>2026-04-12T10:50:49.999Z</time></trkpt><trkpt lat="42.69379146462787" lon="12.944316321741045"><ele>1062.0</ele><time>2026-04-12T10:50:50.999Z</time></trkpt><trkpt lat="42.69388021620356" lon="12.94434740912961"><ele>1062.8333333333333</ele><time>2026-04-12T10:50:51.999Z</time></trkpt><trkpt lat="42.693967585710325" lon="12.94436878188541"><ele>1063.6666666666667</ele><time>2026-04-12T10:50:53Z</time></trkpt><trkpt lat="42.69404114358875" lon="12.94440720140396"><ele>1064.5</ele><time>2026-04-12T10:50:54Z</time></trkpt><trkpt lat="42.694131100604" lon="12.944452546469755"><ele>1065.3333333333335</ele><time>2026-04-12T10:50:55Z</time></trkpt><trkpt lat="42.69422041795376" lon="12.94451286522405"><ele>1066.1666666666667</ele><time>2026-04-12T10:50:56Z</time></trkpt><trkpt lat="42.69428639480747" lon="12.944573932196787"><ele>1067.0</ele><time>2026-04-12T10:50:57Z</time></trkpt><trkpt lat="42.69433703979199" lon="12.944635140641445"><ele>1067.0</ele><time>2026-04-12T10:50:58Z</time></trkpt><trkpt lat="42.694393150054026" lon="12.944714451621747"><ele>1067.0</ele><time>2026-04-12T10:50:59Z</time></trkpt><trkpt lat="42.6944307231397" lon="12.944788162103189"><ele>1067.0</ele><time>2026-04-12T10:51:00Z</time></trkpt><trkpt lat="42.69444416176917" lon="12.94494233049974"><ele>1067.0</ele><time>2026-04-12T10:51:02Z</time></trkpt><trkpt lat="42.69441461951515" lon="12.945029941639866"><ele>1067.0</ele><time>2026-04-12T10:51:03Z</time></trkpt><trkpt lat="42.69436401319576" lon="12.94510867458751"><ele>1067.0</ele><time>2026-04-12T10:51:04Z</time></trkpt><trkpt lat="42.69432185680539" lon="12.945182874580965"><ele>1067.0</ele><time>2026-04-12T10:51:05Z</time></trkpt><trkpt lat="42.69430058742375" lon="12.945282476012238"><ele>1067.0</ele><time>2026-04-12T10:51:06Z</time></trkpt><trkpt lat="42.69430036977841" lon="12.945386277473483"><ele>1067.0</ele><time>2026-04-12T10:51:07Z</time></trkpt><trkpt lat="42.694295124277296" lon="12.945490234762444"><ele>1067.0</ele><time>2026-04-12T10:51:08Z</time></trkpt><trkpt lat="42.69428854833768" lon="12.94558032145894"><ele>1067.0</ele><time>2026-04-12T10:51:09Z</time></trkpt><trkpt lat="42.69427984194907" lon="12.945732904973895"><ele>1067.0</ele><time>2026-04-12T10:51:11Z</time></trkpt><trkpt lat="42.69423868453673" lon="12.945885882715237"><ele>1065.8333333333335</ele><time>2026-04-12T10:51:13Z</time></trkpt><trkpt lat="42.69421391926561" lon="12.945965881917552"><ele>1064.6666666666667</ele><time>2026-04-12T10:51:14Z</time></trkpt><trkpt lat="42.69418695681277" lon="12.946057664100875"><ele>1063.5</ele><time>2026-04-12T10:51:15Z</time></trkpt><trkpt lat="42.69415801105613" lon="12.946158187414566"><ele>1062.3333333333333</ele><time>2026-04-12T10:51:16Z</time></trkpt><trkpt lat="42.69412428761988" lon="12.946282779451744"><ele>1061.1666666666665</ele><time>2026-04-12T10:51:17Z</time></trkpt><trkpt lat="42.69408935705042" lon="12.9464087205561"><ele>1060.0</ele><time>2026-04-12T10:51:18Z</time></trkpt><trkpt lat="42.694052950344066" lon="12.946555428902823"><ele>1060.0</ele><time>2026-04-12T10:51:19Z</time></trkpt><trkpt lat="42.69401244982748" lon="12.946687337729"><ele>1060.0</ele><time>2026-04-12T10:51:20Z</time></trkpt><trkpt lat="42.693977604759624" lon="12.946820544582415"><ele>1060.0</ele><time>2026-04-12T10:51:21Z</time></trkpt><trkpt lat="42.693944843843816" lon="12.946940904113383"><ele>1060.0</ele><time>2026-04-12T10:51:22.001Z</time></trkpt><trkpt lat="42.69391902354964" lon="12.94704420503241"><ele>1060.0</ele><time>2026-04-12T10:51:23.001Z</time></trkpt><trkpt lat="42.69389489746378" lon="12.94714444032046"><ele>1058.8333333333333</ele><time>2026-04-12T10:51:24.001Z</time></trkpt><trkpt lat="42.69386241257028" lon="12.947266370248531"><ele>1057.6666666666665</ele><time>2026-04-12T10:51:25.001Z</time></trkpt><trkpt lat="42.69382163388003" lon="12.947390190560416"><ele>1056.5</ele><time>2026-04-12T10:51:26.001Z</time></trkpt><trkpt lat="42.69378621118374" lon="12.947501500589754"><ele>1055.3333333333333</ele><time>2026-04-12T10:51:27.001Z</time></trkpt><trkpt lat="42.693754689698075" lon="12.947606248532304"><ele>1054.1666666666667</ele><time>2026-04-12T10:51:28.001Z</time></trkpt><trkpt lat="42.6937267915952" lon="12.947704098852762"><ele>1053.0</ele><time>2026-04-12T10:51:29.001Z</time></trkpt><trkpt lat="42.69368504182429" lon="12.947832357247584"><ele>1053.0</ele><time>2026-04-12T10:51:31.001Z</time></trkpt><trkpt lat="42.69368971211035" lon="12.94796901098179"><ele>1053.0</ele><time>2026-04-12T10:51:33.001Z</time></trkpt><trkpt lat="42.69376487185104" lon="12.948087715697447"><ele>1053.0</ele><time>2026-04-12T10:51:35.001Z</time></trkpt><trkpt lat="42.693809140396404" lon="12.948180108231403"><ele>1053.0</ele><time>2026-04-12T10:51:38.001Z</time></trkpt><trkpt lat="42.69383039832394" lon="12.948310975786846"><ele>1053.0</ele><time>2026-04-12T10:51:41.001Z</time></trkpt><trkpt lat="42.693821290480884" lon="12.94841053405512"><ele>1055.1666666666667</ele><time>2026-04-12T10:51:42.001Z</time></trkpt><trkpt lat="42.69379241415689" lon="12.948540431133958"><ele>1057.3333333333333</ele><time>2026-04-12T10:51:43.001Z</time></trkpt><trkpt lat="42.693752808304126" lon="12.948627608678786"><ele>1059.5</ele><time>2026-04-12T10:51:45.001Z</time></trkpt><trkpt lat="42.69367867245764" lon="12.948685527061732"><ele>1061.6666666666665</ele><time>2026-04-12T10:51:48.001Z</time></trkpt><trkpt lat="42.6936157512356" lon="12.948650934477454"><ele>1063.8333333333333</ele><time>2026-04-12T10:51:50.001Z</time></trkpt><trkpt lat="42.69360115286692" lon="12.948553114055326"><ele>1066.0</ele><time>2026-04-12T10:51:52.001Z</time></trkpt><trkpt lat="42.69362130279377" lon="12.948455552927932"><ele>1066.0</ele><time>2026-04-12T10:51:54.002Z</time></trkpt><trkpt lat="42.69367190837677" lon="12.948382487994825"><ele>1066.0</ele><time>2026-04-12T10:51:56.002Z</time></trkpt><trkpt lat="42.69371710201607" lon="12.948302658345208"><ele>1066.0</ele><time>2026-04-12T10:51:58.002Z</time></trkpt><trkpt lat="42.69375882384003" lon="12.948219416021017"><ele>1066.0</ele><time>2026-04-12T10:52:00.002Z</time></trkpt><trkpt lat="42.693829922579575" lon="12.948205292002633"><ele>1066.0</ele><time>2026-04-12T10:52:44Z</time></trkpt><trkpt lat="42.693817669659914" lon="12.948290730841975"><ele>1066.0</ele><time>2026-04-12T10:52:48Z</time></trkpt><trkpt lat="42.693767804781075" lon="12.94823829878175"><ele>1066.0</ele><time>2026-04-12T10:52:50.001Z</time></trkpt><trkpt lat="42.693784558553794" lon="12.948121110693103"><ele>1065.5</ele><time>2026-04-12T10:53:13.001Z</time></trkpt><trkpt lat="42.69375046648142" lon="12.948030755239275"><ele>1065.0</ele><time>2026-04-12T10:53:14.001Z</time></trkpt><trkpt lat="42.693700136121684" lon="12.947965984968782"><ele>1064.5</ele><time>2026-04-12T10:53:15.002Z</time></trkpt><trkpt lat="42.69362650646015" lon="12.947958099048956"><ele>1064.0</ele><time>2026-04-12T10:53:17.002Z</time></trkpt><trkpt lat="42.693528111936494" lon="12.947994904660636"><ele>1063.5</ele><time>2026-04-12T10:53:19.002Z</time></trkpt><trkpt lat="42.69342807795983" lon="12.948036388020158"><ele>1063.0</ele><time>2026-04-12T10:53:21.002Z</time></trkpt><trkpt lat="42.69331483768678" lon="12.948074882372444"><ele>1063.0</ele><time>2026-04-12T10:53:23.002Z</time></trkpt><trkpt lat="42.69325552179874" lon="12.948108107365574"><ele>1063.0</ele><time>2026-04-12T10:53:24.002Z</time></trkpt><trkpt lat="42.69317792186283" lon="12.948151563120192"><ele>1063.0</ele><time>2026-04-12T10:53:25.002Z</time></trkpt><trkpt lat="42.69311103637944" lon="12.948186355902642"><ele>1063.0</ele><time>2026-04-12T10:53:26.002Z</time></trkpt><trkpt lat="42.693046021314665" lon="12.948209718190874"><ele>1063.0</ele><time>2026-04-12T10:53:27.002Z</time></trkpt><trkpt lat="42.692917378054936" lon="12.948189951972797"><ele>1063.0</ele><time>2026-04-12T10:53:29.002Z</time></trkpt><trkpt lat="42.69283375036539" lon="12.948199016466862"><ele>1063.0</ele><time>2026-04-12T10:53:30.002Z</time></trkpt><trkpt lat="42.69275904639415" lon="12.948220157625274"><ele>1063.0</ele><time>2026-04-12T10:53:31.002Z</time></trkpt><trkpt lat="42.69262208670453" lon="12.948226902755096"><ele>1063.0</ele><time>2026-04-12T10:53:33.002Z</time></trkpt><trkpt lat="42.692518686706" lon="12.948265573913774"><ele>1063.0</ele><time>2026-04-12T10:53:35.002Z</time></trkpt><trkpt lat="42.69245095511755" lon="12.948373372130803"><ele>1063.0</ele><time>2026-04-12T10:53:37.002Z</time></trkpt><trkpt lat="42.69240251401914" lon="12.948489184765759"><ele>1065.1666666666665</ele><time>2026-04-12T10:53:39.002Z</time></trkpt><trkpt lat="42.692362648109125" lon="12.94856117735408"><ele>1067.3333333333333</ele><time>2026-04-12T10:53:40.002Z</time></trkpt><trkpt lat="42.692300934824615" lon="12.948673282305386"><ele>1069.5</ele><time>2026-04-12T10:53:42.002Z</time></trkpt><trkpt lat="42.6922126659764" lon="12.948774620815477"><ele>1071.6666666666667</ele><time>2026-04-12T10:53:44.002Z</time></trkpt><trkpt lat="42.692152326814394" lon="12.948826431445228"><ele>1073.8333333333335</ele><time>2026-04-12T10:53:45.002Z</time></trkpt><trkpt lat="42.69208851652733" lon="12.948850519991506"><ele>1076.0</ele><time>2026-04-12T10:53:46.002Z</time></trkpt><trkpt lat="42.691983481364666" lon="12.948921028356807"><ele>1076.0</ele><time>2026-04-12T10:53:48.003Z</time></trkpt><trkpt lat="42.69193241538121" lon="12.948974067014806"><ele>1076.0</ele><time>2026-04-12T10:53:49.003Z</time></trkpt><trkpt lat="42.69187655756816" lon="12.949032154606442"><ele>1076.0</ele><time>2026-04-12T10:53:50.003Z</time></trkpt><trkpt lat="42.691801295757315" lon="12.949135968256146"><ele>1076.0</ele><time>2026-04-12T10:53:52.003Z</time></trkpt><trkpt lat="42.691731060880144" lon="12.949239450685948"><ele>1076.0</ele><time>2026-04-12T10:53:54.003Z</time></trkpt><trkpt lat="42.691672532802826" lon="12.949302374271916"><ele>1076.0</ele><time>2026-04-12T10:53:56.003Z</time></trkpt><trkpt lat="42.691601901546534" lon="12.949455877382647"><ele>1077.6</ele><time>2026-04-12T10:53:58.003Z</time></trkpt><trkpt lat="42.69156819695952" lon="12.949532657217585"><ele>1079.1999999999998</ele><time>2026-04-12T10:53:59.003Z</time></trkpt><trkpt lat="42.691491915371294" lon="12.94963375669509"><ele>1080.8000000000002</ele><time>2026-04-12T10:54:01.003Z</time></trkpt><trkpt lat="42.69140950601913" lon="12.949743004371348"><ele>1082.4</ele><time>2026-04-12T10:54:03.003Z</time></trkpt><trkpt lat="42.69132811370841" lon="12.949858009190875"><ele>1084.0</ele><time>2026-04-12T10:54:05.003Z</time></trkpt><trkpt lat="42.691261405261166" lon="12.94991071593759"><ele>1084.0</ele><time>2026-04-12T10:54:07.003Z</time></trkpt><trkpt lat="42.691198095765714" lon="12.949954893570267"><ele>1084.0</ele><time>2026-04-12T10:54:09.003Z</time></trkpt><trkpt lat="42.691120844786596" lon="12.949992640378944"><ele>1084.0</ele><time>2026-04-12T10:54:12.003Z</time></trkpt><trkpt lat="42.691037311391895" lon="12.950047913057265"><ele>1084.0</ele><time>2026-04-12T10:54:30.999Z</time></trkpt><trkpt lat="42.69096956066582" lon="12.95011739471421"><ele>1084.0</ele><time>2026-04-12T10:54:40Z</time></trkpt><trkpt lat="42.69091292792365" lon="12.950167911736157"><ele>1084.0</ele><time>2026-04-12T10:54:42Z</time></trkpt><trkpt lat="42.6908366517891" lon="12.950214368651478"><ele>1084.6666666666665</ele><time>2026-04-12T10:54:44Z</time></trkpt><trkpt lat="42.6907278444541" lon="12.950272663316328"><ele>1085.3333333333333</ele><time>2026-04-12T10:54:46Z</time></trkpt><trkpt lat="42.690667488753746" lon="12.950306354044072"><ele>1086.0</ele><time>2026-04-12T10:54:47Z</time></trkpt><trkpt lat="42.69056013841636" lon="12.950374588705529"><ele>1086.6666666666667</ele><time>2026-04-12T10:54:49Z</time></trkpt><trkpt lat="42.69048412725284" lon="12.950377616671647"><ele>1087.3333333333335</ele><time>2026-04-12T10:54:51Z</time></trkpt><trkpt lat="42.69042596175392" lon="12.950435268636358"><ele>1088.0</ele><time>2026-04-12T10:54:54.001Z</time></trkpt><trkpt lat="42.690376224511034" lon="12.950356113571129"><ele>1088.0</ele><time>2026-04-12T10:55:23.002Z</time></trkpt><trkpt lat="42.69026362714686" lon="12.950307888513844"><ele>1088.0</ele><time>2026-04-12T10:55:26.002Z</time></trkpt><trkpt lat="42.69019966119283" lon="12.950301140590765"><ele>1088.0</ele><time>2026-04-12T10:55:27.002Z</time></trkpt><trkpt lat="42.690132895252866" lon="12.95030061638482"><ele>1088.0</ele><time>2026-04-12T10:55:28.002Z</time></trkpt><trkpt lat="42.690041769793616" lon="12.95034018992236"><ele>1088.0</ele><time>2026-04-12T10:55:30.002Z</time></trkpt><trkpt lat="42.68997257002896" lon="12.950414810292797"><ele>1088.0</ele><time>2026-04-12T10:55:32.002Z</time></trkpt><trkpt lat="42.689900314398905" lon="12.950367881121782"><ele>1087.3333333333335</ele><time>2026-04-12T10:55:35.002Z</time></trkpt><trkpt lat="42.68995169712458" lon="12.950308856035775"><ele>1086.6666666666667</ele><time>2026-04-12T10:55:38.002Z</time></trkpt><trkpt lat="42.69001878059096" lon="12.950375036006228"><ele>1086.0</ele><time>2026-04-12T10:55:40.002Z</time></trkpt><trkpt lat="42.6900650765928" lon="12.950498827657015"><ele>1085.3333333333333</ele><time>2026-04-12T10:55:42.002Z</time></trkpt><trkpt lat="42.69009955745308" lon="12.950626838377257"><ele>1084.6666666666665</ele><time>2026-04-12T10:55:44.002Z</time></trkpt><trkpt lat="42.690121257150096" lon="12.950749440012885"><ele>1084.0</ele><time>2026-04-12T10:55:46.002Z</time></trkpt><trkpt lat="42.690136510765555" lon="12.950850254399622"><ele>1084.4</ele><time>2026-04-12T10:55:48.002Z</time></trkpt><trkpt lat="42.69017136986417" lon="12.950965377914297"><ele>1084.8000000000002</ele><time>2026-04-12T10:57:02.001Z</time></trkpt><trkpt lat="42.69020430064786" lon="12.951044151189068"><ele>1085.1999999999998</ele><time>2026-04-12T10:57:03.001Z</time></trkpt><trkpt lat="42.69025413593898" lon="12.951189478123727"><ele>1085.6</ele><time>2026-04-12T10:57:05.001Z</time></trkpt><trkpt lat="42.69033535798087" lon="12.951284397350692"><ele>1086.0</ele><time>2026-04-12T10:57:07.001Z</time></trkpt><trkpt lat="42.69032860685431" lon="12.951417459903316"><ele>1088.75</ele><time>2026-04-12T10:57:10.001Z</time></trkpt><trkpt lat="42.69032593409245" lon="12.951566245030932"><ele>1091.5</ele><time>2026-04-12T10:57:12.001Z</time></trkpt><trkpt lat="42.69033395345518" lon="12.951700598329587"><ele>1094.25</ele><time>2026-04-12T10:57:14.001Z</time></trkpt><trkpt lat="42.690421927487726" lon="12.951815318058637"><ele>1097.0</ele><time>2026-04-12T10:57:16.001Z</time></trkpt><trkpt lat="42.69039493781456" lon="12.95197556244002"><ele>1098.8333333333335</ele><time>2026-04-12T10:57:18.001Z</time></trkpt><trkpt lat="42.69037224552627" lon="12.95206393092544"><ele>1100.6666666666667</ele><time>2026-04-12T10:57:19.001Z</time></trkpt><trkpt lat="42.69041280210805" lon="12.952174360631643"><ele>1102.5</ele><time>2026-04-12T10:57:21.001Z</time></trkpt><trkpt lat="42.69045240710902" lon="12.952274320410538"><ele>1104.3333333333333</ele><time>2026-04-12T10:57:22.001Z</time></trkpt><trkpt lat="42.69048642081322" lon="12.952352832979248"><ele>1106.1666666666665</ele><time>2026-04-12T10:57:23.001Z</time></trkpt><trkpt lat="42.690493968500554" lon="12.952461670071566"><ele>1108.0</ele><time>2026-04-12T10:57:25.001Z</time></trkpt><trkpt lat="42.69045962077047" lon="12.952589743658864"><ele>1109.8</ele><time>2026-04-12T10:57:27.001Z</time></trkpt><trkpt lat="42.69048854992629" lon="12.952720329501684"><ele>1111.6</ele><time>2026-04-12T10:57:28.001Z</time></trkpt><trkpt lat="42.690519039018724" lon="12.952847420544577"><ele>1113.4</ele><time>2026-04-12T10:57:29.002Z</time></trkpt><trkpt lat="42.69055785544073" lon="12.95294949441998"><ele>1115.2</ele><time>2026-04-12T10:57:30.002Z</time></trkpt><trkpt lat="42.69059668158712" lon="12.953046483885853"><ele>1117.0</ele><time>2026-04-12T10:57:31.002Z</time></trkpt><trkpt lat="42.69065572408717" lon="12.953136210019723"><ele>1117.0</ele><time>2026-04-12T10:57:32.002Z</time></trkpt><trkpt lat="42.6907301789745" lon="12.953231211172834"><ele>1117.0</ele><time>2026-04-12T10:57:33.002Z</time></trkpt><trkpt lat="42.69080903667633" lon="12.95335031604342"><ele>1117.0</ele><time>2026-04-12T10:57:34.002Z</time></trkpt><trkpt lat="42.690877872009715" lon="12.95341508169507"><ele>1117.0</ele><time>2026-04-12T10:57:35.002Z</time></trkpt><trkpt lat="42.69097562028668" lon="12.953514017931392"><ele>1117.0</ele><time>2026-04-12T10:57:37.002Z</time></trkpt><trkpt lat="42.690995331695554" lon="12.953597886730497"><ele>1117.4285714285716</ele><time>2026-04-12T10:57:38.002Z</time></trkpt><trkpt lat="42.691016224530905" lon="12.95369490923783"><ele>1117.857142857143</ele><time>2026-04-12T10:57:39.002Z</time></trkpt><trkpt lat="42.691031302315146" lon="12.953792424816909"><ele>1118.2857142857142</ele><time>2026-04-12T10:57:40.002Z</time></trkpt><trkpt lat="42.69106238050398" lon="12.953881665459841"><ele>1118.7142857142858</ele><time>2026-04-12T10:57:41.002Z</time></trkpt><trkpt lat="42.691111773079925" lon="12.953963407087173"><ele>1119.142857142857</ele><time>2026-04-12T10:57:42.002Z</time></trkpt><trkpt lat="42.69116099817801" lon="12.954026054913735"><ele>1119.5714285714287</ele><time>2026-04-12T10:57:43.002Z</time></trkpt><trkpt lat="42.69121274982364" lon="12.954085663837047"><ele>1120.0</ele><time>2026-04-12T10:57:44.002Z</time></trkpt><trkpt lat="42.69125382650558" lon="12.954152175500315"><ele>1120.0</ele><time>2026-04-12T10:57:45.002Z</time></trkpt><trkpt lat="42.69132376064877" lon="12.954273414624486"><ele>1120.0</ele><time>2026-04-12T10:57:47.002Z</time></trkpt><trkpt lat="42.69138685992806" lon="12.954319555753393"><ele>1120.0</ele><time>2026-04-12T10:57:50.002Z</time></trkpt><trkpt lat="42.6914897876081" lon="12.954391569991724"><ele>1120.0</ele><time>2026-04-12T10:58:43Z</time></trkpt><trkpt lat="42.69156844531084" lon="12.954427882778564"><ele>1120.0</ele><time>2026-04-12T10:58:44Z</time></trkpt><trkpt lat="42.69168265375563" lon="12.954456934694276"><ele>1120.0</ele><time>2026-04-12T10:58:45Z</time></trkpt><trkpt lat="42.691825025819625" lon="12.954466035041026"><ele>1120.0</ele><time>2026-04-12T10:58:46Z</time></trkpt><trkpt lat="42.69199961256125" lon="12.95444963018514"><ele>1120.0</ele><time>2026-04-12T10:58:47Z</time></trkpt><trkpt lat="42.69219002003619" lon="12.954434716723416"><ele>1117.6666666666665</ele><time>2026-04-12T10:58:48Z</time></trkpt><trkpt lat="42.69209218862377" lon="12.954371077555221"><ele>1115.3333333333333</ele><time>2026-04-12T10:58:49Z</time></trkpt><trkpt lat="42.69224989502939" lon="12.954319364784324"><ele>1113.0</ele><time>2026-04-12T10:58:50Z</time></trkpt><trkpt lat="42.692423382942245" lon="12.954254565765474"><ele>1113.0</ele><time>2026-04-12T10:58:51Z</time></trkpt><trkpt lat="42.69259548467101" lon="12.954209188138401"><ele>1113.0</ele><time>2026-04-12T10:58:52Z</time></trkpt><trkpt lat="42.692787703874735" lon="12.954154526527658"><ele>1113.0</ele><time>2026-04-12T10:58:53Z</time></trkpt><trkpt lat="42.6929944850211" lon="12.954113349901053"><ele>1115.6666666666667</ele><time>2026-04-12T10:58:54Z</time></trkpt><trkpt lat="42.693197106981415" lon="12.954065554502519"><ele>1118.3333333333335</ele><time>2026-04-12T10:58:55Z</time></trkpt><trkpt lat="42.693403460252846" lon="12.954023653539338"><ele>1121.0</ele><time>2026-04-12T10:58:56Z</time></trkpt><trkpt lat="42.69359868105916" lon="12.953979815990987"><ele>1123.0</ele><time>2026-04-12T10:58:57.001Z</time></trkpt><trkpt lat="42.69375919920799" lon="12.953943942424718"><ele>1125.0</ele><time>2026-04-12T10:58:58.001Z</time></trkpt><trkpt lat="42.69389664162183" lon="12.953924595031044"><ele>1127.0</ele><time>2026-04-12T10:58:59.001Z</time></trkpt><trkpt lat="42.69400940704872" lon="12.953907533868506"><ele>1129.0</ele><time>2026-04-12T10:59:00.001Z</time></trkpt><trkpt lat="42.694096547064284" lon="12.953892767226554"><ele>1129.0</ele><time>2026-04-12T10:59:01.001Z</time></trkpt><trkpt lat="42.694177729992596" lon="12.953891542083433"><ele>1129.0</ele><time>2026-04-12T10:59:02.001Z</time></trkpt><trkpt lat="42.694282769567096" lon="12.953911633235574"><ele>1129.0</ele><time>2026-04-12T10:59:03.001Z</time></trkpt><trkpt lat="42.6943984811092" lon="12.953946398110196"><ele>1129.0</ele><time>2026-04-12T10:59:04.001Z</time></trkpt><trkpt lat="42.69451556812052" lon="12.953970172774234"><ele>1129.0</ele><time>2026-04-12T10:59:05.001Z</time></trkpt><trkpt lat="42.69462374079258" lon="12.953975693054206"><ele>1130.4</ele><time>2026-04-12T10:59:06.001Z</time></trkpt><trkpt lat="42.69472564585347" lon="12.953974034410905"><ele>1131.8000000000002</ele><time>2026-04-12T10:59:07.001Z</time></trkpt><trkpt lat="42.69483046396788" lon="12.953999881000394"><ele>1133.1999999999998</ele><time>2026-04-12T10:59:08.001Z</time></trkpt><trkpt lat="42.69493628668204" lon="12.954048533818561"><ele>1134.6</ele><time>2026-04-12T10:59:09.001Z</time></trkpt><trkpt lat="42.69503643418297" lon="12.954081453916071"><ele>1136.0</ele><time>2026-04-12T10:59:10.001Z</time></trkpt><trkpt lat="42.69512480404703" lon="12.954054034210051"><ele>1136.0</ele><time>2026-04-12T10:59:11.001Z</time></trkpt><trkpt lat="42.69522467245215" lon="12.953990950748377"><ele>1136.0</ele><time>2026-04-12T10:59:12.001Z</time></trkpt><trkpt lat="42.69533443689966" lon="12.953937324512797"><ele>1136.0</ele><time>2026-04-12T10:59:13.001Z</time></trkpt><trkpt lat="42.69545771462211" lon="12.953911589724601"><ele>1136.0</ele><time>2026-04-12T10:59:14.001Z</time></trkpt><trkpt lat="42.69556326089947" lon="12.953892227370318"><ele>1135.3333333333335</ele><time>2026-04-12T10:59:15.001Z</time></trkpt><trkpt lat="42.69564187904545" lon="12.953875987651612"><ele>1134.6666666666667</ele><time>2026-04-12T10:59:16.001Z</time></trkpt><trkpt lat="42.695710084759945" lon="12.953885488728613"><ele>1134.0</ele><time>2026-04-12T10:59:17.001Z</time></trkpt><trkpt lat="42.69579798623744" lon="12.95396199965271"><ele>1133.3333333333333</ele><time>2026-04-12T10:59:19.001Z</time></trkpt><trkpt lat="42.695867373046205" lon="12.954013064342599"><ele>1132.6666666666665</ele><time>2026-04-12T10:59:20.001Z</time></trkpt><trkpt lat="42.69594461091587" lon="12.954045800236155"><ele>1132.0</ele><time>2026-04-12T10:59:21.001Z</time></trkpt><trkpt lat="42.69602477562007" lon="12.954022394290421"><ele>1134.0</ele><time>2026-04-12T10:59:22.001Z</time></trkpt><trkpt lat="42.69611752192374" lon="12.95396508635378"><ele>1136.0</ele><time>2026-04-12T10:59:23.001Z</time></trkpt><trkpt lat="42.696216402537004" lon="12.953917650141456"><ele>1138.0</ele><time>2026-04-12T10:59:24.001Z</time></trkpt><trkpt lat="42.69633795261251" lon="12.953887164150553"><ele>1140.0</ele><time>2026-04-12T10:59:25.001Z</time></trkpt><trkpt lat="42.69648038198414" lon="12.953864844414888"><ele>1140.0</ele><time>2026-04-12T10:59:26.001Z</time></trkpt><trkpt lat="42.69662509233448" lon="12.953815148874039"><ele>1140.0</ele><time>2026-04-12T10:59:27.002Z</time></trkpt><trkpt lat="42.69675684898765" lon="12.953749549391551"><ele>1140.0</ele><time>2026-04-12T10:59:28.002Z</time></trkpt><trkpt lat="42.696859803213265" lon="12.953676550488874"><ele>1140.0</ele><time>2026-04-12T10:59:29.002Z</time></trkpt><trkpt lat="42.69694267610556" lon="12.953660029839657"><ele>1140.5</ele><time>2026-04-12T10:59:30.002Z</time></trkpt><trkpt lat="42.69703008504094" lon="12.953649576876728"><ele>1141.0</ele><time>2026-04-12T10:59:31.002Z</time></trkpt><trkpt lat="42.69713341254977" lon="12.953636968341717"><ele>1141.5</ele><time>2026-04-12T10:59:32.002Z</time></trkpt><trkpt lat="42.69726065021739" lon="12.953633735048626"><ele>1142.0</ele><time>2026-04-12T10:59:33.002Z</time></trkpt><trkpt lat="42.69739407462094" lon="12.953644440646936"><ele>1142.0</ele><time>2026-04-12T10:59:34.002Z</time></trkpt><trkpt lat="42.69751609558952" lon="12.953668368080711"><ele>1142.0</ele><time>2026-04-12T10:59:35.002Z</time></trkpt><trkpt lat="42.697651500444294" lon="12.95369683347737"><ele>1142.0</ele><time>2026-04-12T10:59:36.002Z</time></trkpt><trkpt lat="42.69778684801996" lon="12.953727634910262"><ele>1142.0</ele><time>2026-04-12T10:59:37.002Z</time></trkpt><trkpt lat="42.69792237506042" lon="12.953755028070415"><ele>1141.0</ele><time>2026-04-12T10:59:38.002Z</time></trkpt><trkpt lat="42.69805427070169" lon="12.953757528308849"><ele>1140.0</ele><time>2026-04-12T10:59:39.002Z</time></trkpt><trkpt lat="42.698179780972254" lon="12.95374128251432"><ele>1139.0</ele><time>2026-04-12T10:59:40.002Z</time></trkpt><trkpt lat="42.69829763241625" lon="12.953747970324352"><ele>1138.0</ele><time>2026-04-12T10:59:41.002Z</time></trkpt><trkpt lat="42.698418977204284" lon="12.953776027482485"><ele>1138.0</ele><time>2026-04-12T10:59:42.002Z</time></trkpt><trkpt lat="42.69853357154523" lon="12.953776450556386"><ele>1138.0</ele><time>2026-04-12T10:59:43.002Z</time></trkpt><trkpt lat="42.69864482385131" lon="12.953754654142319"><ele>1138.0</ele><time>2026-04-12T10:59:44.002Z</time></trkpt><trkpt lat="42.698745995004" lon="12.953727191158123"><ele>1138.0</ele><time>2026-04-12T10:59:45.002Z</time></trkpt><trkpt lat="42.69883642507883" lon="12.953688668925693"><ele>1138.0</ele><time>2026-04-12T10:59:46.002Z</time></trkpt><trkpt lat="42.6989171510944" lon="12.953616520723491"><ele>1137.5</ele><time>2026-04-12T10:59:47.002Z</time></trkpt><trkpt lat="42.69898406331595" lon="12.953513824219012"><ele>1137.0</ele><time>2026-04-12T10:59:48.002Z</time></trkpt><trkpt lat="42.6990673629771" lon="12.953401172493964"><ele>1136.5</ele><time>2026-04-12T10:59:49.002Z</time></trkpt><trkpt lat="42.69914142949476" lon="12.953271698685043"><ele>1136.0</ele><time>2026-04-12T10:59:50.002Z</time></trkpt><trkpt lat="42.69922583516524" lon="12.953165923004333"><ele>1136.0</ele><time>2026-04-12T10:59:51.002Z</time></trkpt><trkpt lat="42.69929006103731" lon="12.953056125504103"><ele>1136.0</ele><time>2026-04-12T10:59:52.002Z</time></trkpt><trkpt lat="42.6993356136139" lon="12.952982160121682"><ele>1136.0</ele><time>2026-04-12T10:59:53.002Z</time></trkpt><trkpt lat="42.69940224700827" lon="12.95291113238275"><ele>1136.0</ele><time>2026-04-12T10:59:55.002Z</time></trkpt><trkpt lat="42.699475711403856" lon="12.952833852030677"><ele>1136.0</ele><time>2026-04-12T10:59:57.002Z</time></trkpt><trkpt lat="42.69952932877574" lon="12.95275665303603"><ele>1136.0</ele><time>2026-04-12T10:59:58.002Z</time></trkpt><trkpt lat="42.699589407258436" lon="12.952642085561306"><ele>1137.0</ele><time>2026-04-12T10:59:59.002Z</time></trkpt><trkpt lat="42.69963896402631" lon="12.952504649075541"><ele>1138.0</ele><time>2026-04-12T11:00:00.003Z</time></trkpt><trkpt lat="42.69969419167207" lon="12.95238325104537"><ele>1139.0</ele><time>2026-04-12T11:00:01.003Z</time></trkpt><trkpt lat="42.699757802520374" lon="12.95228388532366"><ele>1140.0</ele><time>2026-04-12T11:00:02.003Z</time></trkpt><trkpt lat="42.699820604647314" lon="12.952190957812912"><ele>1141.0</ele><time>2026-04-12T11:00:03.003Z</time></trkpt><trkpt lat="42.69989109339067" lon="12.952089795873297"><ele>1141.0</ele><time>2026-04-12T11:00:04.003Z</time></trkpt><trkpt lat="42.69996381823272" lon="12.951984897653954"><ele>1141.0</ele><time>2026-04-12T11:00:05.003Z</time></trkpt><trkpt lat="42.70002316838366" lon="12.95187973777688"><ele>1141.0</ele><time>2026-04-12T11:00:06.003Z</time></trkpt><trkpt lat="42.700059289973304" lon="12.951790243989143"><ele>1141.0</ele><time>2026-04-12T11:00:07.003Z</time></trkpt><trkpt lat="42.70009372419811" lon="12.951697618836326"><ele>1141.0</ele><time>2026-04-12T11:00:08.003Z</time></trkpt><trkpt lat="42.7001635104786" lon="12.951612471428668"><ele>1141.0</ele><time>2026-04-12T11:00:09.003Z</time></trkpt><trkpt lat="42.70026080652682" lon="12.951551924367486"><ele>1138.75</ele><time>2026-04-12T11:00:10.003Z</time></trkpt><trkpt lat="42.700366790650605" lon="12.951462649024974"><ele>1136.5</ele><time>2026-04-12T11:00:11.003Z</time></trkpt><trkpt lat="42.70046814581924" lon="12.951339371868944"><ele>1134.25</ele><time>2026-04-12T11:00:12.003Z</time></trkpt><trkpt lat="42.700566064022446" lon="12.951183428053694"><ele>1132.0</ele><time>2026-04-12T11:00:13.003Z</time></trkpt><trkpt lat="42.70065978917115" lon="12.951019287121769"><ele>1132.0</ele><time>2026-04-12T11:00:14.003Z</time></trkpt><trkpt lat="42.7007518807584" lon="12.950882721340635"><ele>1132.0</ele><time>2026-04-12T11:00:15.003Z</time></trkpt><trkpt lat="42.7008357174146" lon="12.950763781247195"><ele>1132.0</ele><time>2026-04-12T11:00:16.003Z</time></trkpt><trkpt lat="42.70089982109042" lon="12.95065605879926"><ele>1132.0</ele><time>2026-04-12T11:00:17.003Z</time></trkpt><trkpt lat="42.700951472284565" lon="12.950562222088317"><ele>1132.0</ele><time>2026-04-12T11:00:18.003Z</time></trkpt><trkpt lat="42.700994757451355" lon="12.950435859697471"><ele>1130.5</ele><time>2026-04-12T11:00:20.003Z</time></trkpt><trkpt lat="42.700982226618635" lon="12.950312175173536"><ele>1129.0</ele><time>2026-04-12T11:00:24.003Z</time></trkpt><trkpt lat="42.70096418924284" lon="12.95019502416707"><ele>1127.5</ele><time>2026-04-12T11:00:26.003Z</time></trkpt><trkpt lat="42.70095962923849" lon="12.950042313395489"><ele>1126.0</ele><time>2026-04-12T11:00:28.003Z</time></trkpt><trkpt lat="42.700952530988836" lon="12.949953472450684"><ele>1124.5</ele><time>2026-04-12T11:00:29.003Z</time></trkpt><trkpt lat="42.70093107856752" lon="12.949872397598575"><ele>1123.0</ele><time>2026-04-12T11:00:30.003Z</time></trkpt><trkpt lat="42.70095079223281" lon="12.949771945851829"><ele>1120.75</ele><time>2026-04-12T11:00:31.003Z</time></trkpt><trkpt lat="42.70098803590344" lon="12.949517779512428"><ele>1118.5</ele><time>2026-04-12T11:00:33.001Z</time></trkpt><trkpt lat="42.70098704084653" lon="12.949390568855131"><ele>1116.25</ele><time>2026-04-12T11:00:34.001Z</time></trkpt><trkpt lat="42.7009558746473" lon="12.949266840573545"><ele>1114.0</ele><time>2026-04-12T11:00:35.001Z</time></trkpt><trkpt lat="42.700908800825836" lon="12.9491688712106"><ele>1112.3333333333333</ele><time>2026-04-12T11:00:36.001Z</time></trkpt><trkpt lat="42.70086080276603" lon="12.949091065738394"><ele>1110.6666666666665</ele><time>2026-04-12T11:00:37.001Z</time></trkpt><trkpt lat="42.70082986503277" lon="12.948992862274919"><ele>1109.0</ele><time>2026-04-12T11:00:38.001Z</time></trkpt><trkpt lat="42.700838171040154" lon="12.948890817139675"><ele>1107.3333333333333</ele><time>2026-04-12T11:00:39.001Z</time></trkpt><trkpt lat="42.70085046358863" lon="12.94875637440029"><ele>1105.6666666666667</ele><time>2026-04-12T11:00:40.001Z</time></trkpt><trkpt lat="42.70089819764099" lon="12.948664469806607"><ele>1104.0</ele><time>2026-04-12T11:00:42.001Z</time></trkpt><trkpt lat="42.70100802789057" lon="12.948563799168115"><ele>1103.3333333333333</ele><time>2026-04-12T11:00:44.001Z</time></trkpt><trkpt lat="42.70108712855361" lon="12.94849501001684"><ele>1102.6666666666667</ele><time>2026-04-12T11:00:45.001Z</time></trkpt><trkpt lat="42.701166959458966" lon="12.948417662578256"><ele>1102.0</ele><time>2026-04-12T11:00:46.001Z</time></trkpt><trkpt lat="42.701212696353956" lon="12.948339955555895"><ele>1101.3333333333335</ele><time>2026-04-12T11:00:47.001Z</time></trkpt><trkpt lat="42.701251503698124" lon="12.948266229402776"><ele>1100.6666666666667</ele><time>2026-04-12T11:00:48.001Z</time></trkpt><trkpt lat="42.701275873921716" lon="12.94814571560724"><ele>1100.0</ele><time>2026-04-12T11:00:50.001Z</time></trkpt><trkpt lat="42.7012706903854" lon="12.948055055086378"><ele>1099.8333333333335</ele><time>2026-04-12T11:00:51.001Z</time></trkpt><trkpt lat="42.70130072360765" lon="12.947926419434527"><ele>1099.6666666666667</ele><time>2026-04-12T11:00:53.001Z</time></trkpt><trkpt lat="42.701334086085694" lon="12.947848166354243"><ele>1099.5</ele><time>2026-04-12T11:00:55.001Z</time></trkpt><trkpt lat="42.701379637120795" lon="12.947755498700992"><ele>1099.3333333333333</ele><time>2026-04-12T11:01:07.001Z</time></trkpt><trkpt lat="42.70142912839057" lon="12.947672444681274"><ele>1099.1666666666665</ele><time>2026-04-12T11:01:08.001Z</time></trkpt><trkpt lat="42.70148325407362" lon="12.947598332202304"><ele>1099.0</ele><time>2026-04-12T11:01:09.001Z</time></trkpt><trkpt lat="42.70156101610024" lon="12.947467174611274"><ele>1099.5</ele><time>2026-04-12T11:01:10.001Z</time></trkpt><trkpt lat="42.70163938780721" lon="12.947354884268865"><ele>1100.0</ele><time>2026-04-12T11:01:11.001Z</time></trkpt><trkpt lat="42.701763237499726" lon="12.947266903442639"><ele>1100.5</ele><time>2026-04-12T11:01:12.001Z</time></trkpt><trkpt lat="42.70188701341873" lon="12.947169266929038"><ele>1101.0</ele><time>2026-04-12T11:01:13.001Z</time></trkpt><trkpt lat="42.70199070862654" lon="12.947090225298734"><ele>1100.0</ele><time>2026-04-12T11:01:14.001Z</time></trkpt><trkpt lat="42.70207616270773" lon="12.947007545598991"><ele>1099.0</ele><time>2026-04-12T11:01:15.001Z</time></trkpt><trkpt lat="42.7021631737847" lon="12.9469226196646"><ele>1098.0</ele><time>2026-04-12T11:01:16.001Z</time></trkpt><trkpt lat="42.70225755789171" lon="12.946877264081646"><ele>1097.0</ele><time>2026-04-12T11:01:17.001Z</time></trkpt><trkpt lat="42.70236633648536" lon="12.946847265505237"><ele>1096.0</ele><time>2026-04-12T11:01:18.001Z</time></trkpt><trkpt lat="42.702468418620896" lon="12.946832380471148"><ele>1096.0</ele><time>2026-04-12T11:01:19.001Z</time></trkpt><trkpt lat="42.70255135056655" lon="12.946813019668358"><ele>1096.0</ele><time>2026-04-12T11:01:20.001Z</time></trkpt><trkpt lat="42.70266545677736" lon="12.946803815672945"><ele>1096.0</ele><time>2026-04-12T11:01:22.001Z</time></trkpt><trkpt lat="42.702737386559555" lon="12.946671866579008"><ele>1096.0</ele><time>2026-04-12T11:01:24.001Z</time></trkpt><trkpt lat="42.70274048807909" lon="12.946540782630077"><ele>1096.0</ele><time>2026-04-12T11:01:26.001Z</time></trkpt><trkpt lat="42.70272780402936" lon="12.946426613085453"><ele>1095.6666666666665</ele><time>2026-04-12T11:01:28.001Z</time></trkpt><trkpt lat="42.70273080063751" lon="12.946324312651884"><ele>1095.3333333333333</ele><time>2026-04-12T11:01:30.001Z</time></trkpt><trkpt lat="42.70267658542098" lon="12.946203496227277"><ele>1095.0</ele><time>2026-04-12T11:01:33.001Z</time></trkpt><trkpt lat="42.70258236845031" lon="12.94613679150632"><ele>1094.6666666666667</ele><time>2026-04-12T11:01:35.001Z</time></trkpt><trkpt lat="42.702511014024594" lon="12.946124899182916"><ele>1094.3333333333335</ele><time>2026-04-12T11:01:36.001Z</time></trkpt><trkpt lat="42.70242597654183" lon="12.946123044069779"><ele>1094.0</ele><time>2026-04-12T11:01:37.001Z</time></trkpt><trkpt lat="42.7023212562796" lon="12.94612105273017"><ele>1094.0</ele><time>2026-04-12T11:01:38.001Z</time></trkpt><trkpt lat="42.70220032091156" lon="12.946127039761212"><ele>1094.0</ele><time>2026-04-12T11:01:39.001Z</time></trkpt><trkpt lat="42.7020879556021" lon="12.946126341357147"><ele>1094.0</ele><time>2026-04-12T11:01:40.001Z</time></trkpt><trkpt lat="42.701967777606434" lon="12.946126073984454"><ele>1094.0</ele><time>2026-04-12T11:01:41.001Z</time></trkpt><trkpt lat="42.70186372665342" lon="12.94612018244246"><ele>1094.4</ele><time>2026-04-12T11:01:42.001Z</time></trkpt><trkpt lat="42.70174849244622" lon="12.946127907132034"><ele>1094.8000000000002</ele><time>2026-04-12T11:01:43.001Z</time></trkpt><trkpt lat="42.7016529199409" lon="12.946126449143774"><ele>1095.1999999999998</ele><time>2026-04-12T11:01:44.001Z</time></trkpt><trkpt lat="42.70156579406878" lon="12.946116176554412"><ele>1095.6</ele><time>2026-04-12T11:01:45.001Z</time></trkpt><trkpt lat="42.70147743367233" lon="12.946100103681422"><ele>1096.0</ele><time>2026-04-12T11:01:46.001Z</time></trkpt><trkpt lat="42.70138803980897" lon="12.94609059163621"><ele>1096.0</ele><time>2026-04-12T11:01:47.001Z</time></trkpt><trkpt lat="42.70130228097026" lon="12.946096879741091"><ele>1096.0</ele><time>2026-04-12T11:01:48.001Z</time></trkpt><trkpt lat="42.70122260046488" lon="12.946111713138935"><ele>1096.0</ele><time>2026-04-12T11:01:49.001Z</time></trkpt><trkpt lat="42.70115164145427" lon="12.946143185775785"><ele>1096.0</ele><time>2026-04-12T11:01:50.001Z</time></trkpt><trkpt lat="42.70108113116878" lon="12.946184165433968"><ele>1096.0</ele><time>2026-04-12T11:01:51.001Z</time></trkpt><trkpt lat="42.70100513991716" lon="12.946229294778947"><ele>1096.0</ele><time>2026-04-12T11:01:52.001Z</time></trkpt><trkpt lat="42.70094249230295" lon="12.946284478344117"><ele>1096.2</ele><time>2026-04-12T11:01:53.001Z</time></trkpt><trkpt lat="42.700861603436614" lon="12.946357283977724"><ele>1096.3999999999999</ele><time>2026-04-12T11:01:54.001Z</time></trkpt><trkpt lat="42.70077693623973" lon="12.94645237053332"><ele>1096.6</ele><time>2026-04-12T11:01:55.001Z</time></trkpt><trkpt lat="42.700696917899734" lon="12.946556007467743"><ele>1096.8</ele><time>2026-04-12T11:01:56.001Z</time></trkpt><trkpt lat="42.70060741466264" lon="12.946680011739796"><ele>1097.0</ele><time>2026-04-12T11:01:57.001Z</time></trkpt><trkpt lat="42.700505913496386" lon="12.946822745849751"><ele>1097.0</ele><time>2026-04-12T11:01:58.001Z</time></trkpt><trkpt lat="42.700412637236944" lon="12.946941222328663"><ele>1097.0</ele><time>2026-04-12T11:01:59.001Z</time></trkpt><trkpt lat="42.700341492480646" lon="12.947026176056344"><ele>1097.0</ele><time>2026-04-12T11:02:00.001Z</time></trkpt><trkpt lat="42.700238149559745" lon="12.947092463267806"><ele>1097.0</ele><time>2026-04-12T11:02:01.001Z</time></trkpt><trkpt lat="42.70013739049295" lon="12.947169329855878"><ele>1094.5</ele><time>2026-04-12T11:02:02.002Z</time></trkpt><trkpt lat="42.70002535338261" lon="12.947267295908004"><ele>1092.0</ele><time>2026-04-12T11:02:03.002Z</time></trkpt><trkpt lat="42.699934873371575" lon="12.94735746468053"><ele>1089.5</ele><time>2026-04-12T11:02:04.002Z</time></trkpt><trkpt lat="42.69983978160352" lon="12.947468775082775"><ele>1087.0</ele><time>2026-04-12T11:02:05.002Z</time></trkpt><trkpt lat="42.69974552309857" lon="12.947612466771293"><ele>1087.0</ele><time>2026-04-12T11:02:06.002Z</time></trkpt><trkpt lat="42.699677125985836" lon="12.947733373058947"><ele>1087.0</ele><time>2026-04-12T11:02:07.002Z</time></trkpt><trkpt lat="42.69960297066895" lon="12.947853046369929"><ele>1087.0</ele><time>2026-04-12T11:02:08.002Z</time></trkpt><trkpt lat="42.699517944242174" lon="12.947962979963254"><ele>1087.0</ele><time>2026-04-12T11:02:09.002Z</time></trkpt><trkpt lat="42.699410624585525" lon="12.94806281942591"><ele>1084.25</ele><time>2026-04-12T11:02:10.002Z</time></trkpt><trkpt lat="42.69929040873168" lon="12.948156278817413"><ele>1081.5</ele><time>2026-04-12T11:02:11.002Z</time></trkpt><trkpt lat="42.699162380815075" lon="12.9482569166054"><ele>1078.75</ele><time>2026-04-12T11:02:12.002Z</time></trkpt><trkpt lat="42.699031227675995" lon="12.948347230600712"><ele>1076.0</ele><time>2026-04-12T11:02:13.002Z</time></trkpt><trkpt lat="42.69891221671812" lon="12.948416374106314"><ele>1076.0</ele><time>2026-04-12T11:02:14.002Z</time></trkpt><trkpt lat="42.698777088572285" lon="12.948495463125331"><ele>1076.0</ele><time>2026-04-12T11:02:15.002Z</time></trkpt><trkpt lat="42.69864574039636" lon="12.948553786023378"><ele>1076.0</ele><time>2026-04-12T11:02:16.002Z</time></trkpt><trkpt lat="42.69849699981682" lon="12.948633250044699"><ele>1076.0</ele><time>2026-04-12T11:02:17.002Z</time></trkpt><trkpt lat="42.69832547472343" lon="12.948731248281373"><ele>1071.6666666666667</ele><time>2026-04-12T11:02:18.002Z</time></trkpt><trkpt lat="42.69816817264553" lon="12.948819446144558"><ele>1067.3333333333333</ele><time>2026-04-12T11:02:19.002Z</time></trkpt><trkpt lat="42.698023243875404" lon="12.948892230884137"><ele>1063.0</ele><time>2026-04-12T11:02:20.002Z</time></trkpt><trkpt lat="42.69788602364021" lon="12.948936986321877"><ele>1062.0</ele><time>2026-04-12T11:02:21.002Z</time></trkpt><trkpt lat="42.69773619138855" lon="12.948956787303272"><ele>1061.0</ele><time>2026-04-12T11:02:22.002Z</time></trkpt><trkpt lat="42.697591407920754" lon="12.948958521380497"><ele>1060.0</ele><time>2026-04-12T11:02:23.002Z</time></trkpt><trkpt lat="42.697475194227856" lon="12.948981591486971"><ele>1059.0</ele><time>2026-04-12T11:02:24.002Z</time></trkpt><trkpt lat="42.6973762985586" lon="12.948995039950947"><ele>1059.0</ele><time>2026-04-12T11:02:25.002Z</time></trkpt><trkpt lat="42.69725220460925" lon="12.948987724378611"><ele>1059.0</ele><time>2026-04-12T11:02:26.002Z</time></trkpt><trkpt lat="42.6971125662549" lon="12.94896061474174"><ele>1059.0</ele><time>2026-04-12T11:02:27.002Z</time></trkpt><trkpt lat="42.696982366522604" lon="12.948952829246526"><ele>1059.0</ele><time>2026-04-12T11:02:28.002Z</time></trkpt><trkpt lat="42.69686939226004" lon="12.948955940060275"><ele>1057.8</ele><time>2026-04-12T11:02:29.002Z</time></trkpt><trkpt lat="42.69674597792042" lon="12.948951524989672"><ele>1056.6000000000001</ele><time>2026-04-12T11:02:30.002Z</time></trkpt><trkpt lat="42.69664701930156" lon="12.948934589289632"><ele>1055.4</ele><time>2026-04-12T11:02:31.002Z</time></trkpt><trkpt lat="42.696531402952594" lon="12.948891288910632"><ele>1054.2</ele><time>2026-04-12T11:02:32.002Z</time></trkpt><trkpt lat="42.696429811624164" lon="12.948865420868543"><ele>1053.0</ele><time>2026-04-12T11:02:33.002Z</time></trkpt><trkpt lat="42.69633434944056" lon="12.948841323890322"><ele>1053.0</ele><time>2026-04-12T11:02:34.002Z</time></trkpt><trkpt lat="42.6962741649254" lon="12.948805800525317"><ele>1053.0</ele><time>2026-04-12T11:02:35.002Z</time></trkpt><trkpt lat="42.696231298204715" lon="12.94873575893639"><ele>1053.0</ele><time>2026-04-12T11:02:36.002Z</time></trkpt><trkpt lat="42.69620636754381" lon="12.948609731154047"><ele>1053.0</ele><time>2026-04-12T11:02:37.002Z</time></trkpt><trkpt lat="42.69621621856718" lon="12.948445240083947"><ele>1053.0</ele><time>2026-04-12T11:02:38.002Z</time></trkpt><trkpt lat="42.69622258931793" lon="12.948305982037263"><ele>1052.4</ele><time>2026-04-12T11:02:39.001Z</time></trkpt><trkpt lat="42.69619513379044" lon="12.948189638539825"><ele>1051.8</ele><time>2026-04-12T11:02:40.001Z</time></trkpt><trkpt lat="42.69613186392134" lon="12.94811400878133"><ele>1051.2</ele><time>2026-04-12T11:02:41.001Z</time></trkpt><trkpt lat="42.69604288547209" lon="12.948071952363462"><ele>1050.6</ele><time>2026-04-12T11:02:42.001Z</time></trkpt><trkpt lat="42.69592833003601" lon="12.948018558770952"><ele>1050.0</ele><time>2026-04-12T11:02:43.001Z</time></trkpt><trkpt lat="42.69578623305647" lon="12.947948585884289"><ele>1050.0</ele><time>2026-04-12T11:02:44.001Z</time></trkpt><trkpt lat="42.695635355252385" lon="12.947865754105452"><ele>1050.0</ele><time>2026-04-12T11:02:45Z</time></trkpt><trkpt lat="42.695477715498285" lon="12.947796061935263"><ele>1050.0</ele><time>2026-04-12T11:02:46Z</time></trkpt><trkpt lat="42.695325758034066" lon="12.947729583118111"><ele>1050.75</ele><time>2026-04-12T11:02:47Z</time></trkpt><trkpt lat="42.695189995865576" lon="12.947699850117369"><ele>1051.5</ele><time>2026-04-12T11:02:48Z</time></trkpt><trkpt lat="42.69507760010522" lon="12.947701427963512"><ele>1052.25</ele><time>2026-04-12T11:02:49Z</time></trkpt><trkpt lat="42.69497775017819" lon="12.947737328598016"><ele>1053.0</ele><time>2026-04-12T11:02:50Z</time></trkpt><trkpt lat="42.69486597609893" lon="12.947805297074913"><ele>1053.0</ele><time>2026-04-12T11:02:51Z</time></trkpt><trkpt lat="42.69474468177228" lon="12.947888082631435"><ele>1053.0</ele><time>2026-04-12T11:02:52Z</time></trkpt><trkpt lat="42.69460031148662" lon="12.94796638266922"><ele>1053.0</ele><time>2026-04-12T11:02:53Z</time></trkpt><trkpt lat="42.69446262716132" lon="12.94803436956144"><ele>1053.0</ele><time>2026-04-12T11:02:54Z</time></trkpt><trkpt lat="42.694347816340766" lon="12.94808638739744"><ele>1053.0</ele><time>2026-04-12T11:02:55Z</time></trkpt><trkpt lat="42.6942435542282" lon="12.948149953402291"><ele>1053.0</ele><time>2026-04-12T11:02:56Z</time></trkpt><trkpt lat="42.694149722468964" lon="12.94820469975531"><ele>1053.0</ele><time>2026-04-12T11:02:57Z</time></trkpt><trkpt lat="42.69407827648662" lon="12.948239691676608"><ele>1053.0</ele><time>2026-04-12T11:02:58Z</time></trkpt><trkpt lat="42.69402076839555" lon="12.948278697577424"><ele>1053.0</ele><time>2026-04-12T11:02:59Z</time></trkpt><trkpt lat="42.69395129994786" lon="12.948281767166058"><ele>1053.0</ele><time>2026-04-12T11:03:01Z</time></trkpt><trkpt lat="42.69388729422763" lon="12.9482282780773"><ele>1053.0</ele><time>2026-04-12T11:03:04Z</time></trkpt><trkpt lat="42.69382047119053" lon="12.948145361891743"><ele>1053.0</ele><time>2026-04-12T11:03:07Z</time></trkpt><trkpt lat="42.6937745296784" lon="12.948223969048156"><ele>1053.0</ele><time>2026-04-12T11:03:11.001Z</time></trkpt><trkpt lat="42.69384403131372" lon="12.94825852494214"><ele>1053.0</ele><time>2026-04-12T11:03:14.001Z</time></trkpt><trkpt lat="42.69393914116072" lon="12.948240633271125"><ele>1053.0</ele><time>2026-04-12T11:16:53Z</time></trkpt><trkpt lat="42.69403088973219" lon="12.948263100876893"><ele>1053.0</ele><time>2026-04-12T11:16:55Z</time></trkpt><trkpt lat="42.694101341769596" lon="12.948239538036873"><ele>1053.0</ele><time>2026-04-12T11:16:56Z</time></trkpt><trkpt lat="42.69416616858634" lon="12.948207393085594"><ele>1053.0</ele><time>2026-04-12T11:16:57Z</time></trkpt><trkpt lat="42.69424166222445" lon="12.948134530726305"><ele>1053.0</ele><time>2026-04-12T11:16:59Z</time></trkpt><trkpt lat="42.694354770154156" lon="12.94807012364605"><ele>1053.0</ele><time>2026-04-12T11:17:01Z</time></trkpt><trkpt lat="42.694414742349835" lon="12.948037949173205"><ele>1053.0</ele><time>2026-04-12T11:17:02Z</time></trkpt><trkpt lat="42.694524471093324" lon="12.947990382776055"><ele>1053.0</ele><time>2026-04-12T11:17:04Z</time></trkpt><trkpt lat="42.694619775959815" lon="12.947954154806826"><ele>1053.0</ele><time>2026-04-12T11:17:06Z</time></trkpt><trkpt lat="42.694733509612284" lon="12.947888006430837"><ele>1053.0</ele><time>2026-04-12T11:17:08Z</time></trkpt><trkpt lat="42.69480425759401" lon="12.947849344447508"><ele>1053.0</ele><time>2026-04-12T11:17:09Z</time></trkpt><trkpt lat="42.694867355941405" lon="12.947809596679544"><ele>1053.0</ele><time>2026-04-12T11:17:10Z</time></trkpt><trkpt lat="42.694933403146486" lon="12.9477732776343"><ele>1053.0</ele><time>2026-04-12T11:17:11Z</time></trkpt><trkpt lat="42.695057507064796" lon="12.94772004964913"><ele>1053.0</ele><time>2026-04-12T11:17:13Z</time></trkpt><trkpt lat="42.695183032815876" lon="12.947700898760724"><ele>1053.0</ele><time>2026-04-12T11:17:15Z</time></trkpt><trkpt lat="42.695257101211546" lon="12.94772415622894"><ele>1053.0</ele><time>2026-04-12T11:17:16Z</time></trkpt><trkpt lat="42.69533433150448" lon="12.947748570283437"><ele>1053.0</ele><time>2026-04-12T11:17:17Z</time></trkpt><trkpt lat="42.69542570407624" lon="12.947774900413945"><ele>1053.0</ele><time>2026-04-12T11:17:18Z</time></trkpt><trkpt lat="42.69550524982199" lon="12.94780931878529"><ele>1052.5</ele><time>2026-04-12T11:17:19Z</time></trkpt><trkpt lat="42.69557033636769" lon="12.947848479787034"><ele>1052.0</ele><time>2026-04-12T11:17:20Z</time></trkpt><trkpt lat="42.6956325699603" lon="12.94788106380116"><ele>1051.5</ele><time>2026-04-12T11:17:20.999Z</time></trkpt><trkpt lat="42.695705183918136" lon="12.947909911430514"><ele>1051.0</ele><time>2026-04-12T11:17:21.999Z</time></trkpt><trkpt lat="42.695786027798995" lon="12.947956001622135"><ele>1050.5</ele><time>2026-04-12T11:17:22.999Z</time></trkpt><trkpt lat="42.695863606038955" lon="12.948002207661235"><ele>1050.0</ele><time>2026-04-12T11:17:23.999Z</time></trkpt><trkpt lat="42.69592480780313" lon="12.94804388222147"><ele>1050.0</ele><time>2026-04-12T11:17:24.999Z</time></trkpt><trkpt lat="42.69603593095117" lon="12.948099464005635"><ele>1050.0</ele><time>2026-04-12T11:17:26.999Z</time></trkpt><trkpt lat="42.696148325683964" lon="12.948184150972537"><ele>1050.0</ele><time>2026-04-12T11:17:28.999Z</time></trkpt><trkpt lat="42.69619188604413" lon="12.948258143188752"><ele>1050.0</ele><time>2026-04-12T11:17:29.999Z</time></trkpt><trkpt lat="42.6962167463779" lon="12.948343365423982"><ele>1050.0</ele><time>2026-04-12T11:17:30.999Z</time></trkpt><trkpt lat="42.69621907482728" lon="12.948452487376214"><ele>1050.5</ele><time>2026-04-12T11:17:31.999Z</time></trkpt><trkpt lat="42.69622203155088" lon="12.948594045458405"><ele>1051.0</ele><time>2026-04-12T11:17:32.999Z</time></trkpt><trkpt lat="42.696223047268845" lon="12.948708271883726"><ele>1051.5</ele><time>2026-04-12T11:17:33.999Z</time></trkpt><trkpt lat="42.696258417044234" lon="12.948799238858701"><ele>1052.0</ele><time>2026-04-12T11:17:34.999Z</time></trkpt><trkpt lat="42.696324601379764" lon="12.948862640740138"><ele>1052.5</ele><time>2026-04-12T11:17:35.999Z</time></trkpt><trkpt lat="42.696404251902194" lon="12.948898660560143"><ele>1053.0</ele><time>2026-04-12T11:17:36.999Z</time></trkpt><trkpt lat="42.69652309509898" lon="12.948896539810072"><ele>1053.0</ele><time>2026-04-12T11:17:37.999Z</time></trkpt><trkpt lat="42.69663777414517" lon="12.94891120111223"><ele>1053.0</ele><time>2026-04-12T11:17:38.999Z</time></trkpt><trkpt lat="42.69676619784131" lon="12.948953027243693"><ele>1053.0</ele><time>2026-04-12T11:17:39.999Z</time></trkpt><trkpt lat="42.69687862946833" lon="12.948972928396719"><ele>1053.0</ele><time>2026-04-12T11:17:41Z</time></trkpt><trkpt lat="42.69698625219287" lon="12.948971262979507"><ele>1054.2</ele><time>2026-04-12T11:17:42Z</time></trkpt><trkpt lat="42.697095555899544" lon="12.948968827176014"><ele>1055.4</ele><time>2026-04-12T11:17:43Z</time></trkpt><trkpt lat="42.69721201616658" lon="12.948963350177895"><ele>1056.6000000000001</ele><time>2026-04-12T11:17:44Z</time></trkpt><trkpt lat="42.69732137634746" lon="12.948973900678283"><ele>1057.8</ele><time>2026-04-12T11:17:45Z</time></trkpt><trkpt lat="42.69741072625506" lon="12.948988879972433"><ele>1059.0</ele><time>2026-04-12T11:17:46Z</time></trkpt><trkpt lat="42.69749733150269" lon="12.948992046016928"><ele>1059.0</ele><time>2026-04-12T11:17:47Z</time></trkpt><trkpt lat="42.69759993326385" lon="12.948965777782112"><ele>1059.0</ele><time>2026-04-12T11:17:48Z</time></trkpt><trkpt lat="42.69771572184964" lon="12.948946158657185"><ele>1059.0</ele><time>2026-04-12T11:17:49Z</time></trkpt><trkpt lat="42.69783538796719" lon="12.948924018154171"><ele>1059.0</ele><time>2026-04-12T11:17:50Z</time></trkpt><trkpt lat="42.69795254585341" lon="12.948908024082888"><ele>1060.0</ele><time>2026-04-12T11:17:51Z</time></trkpt><trkpt lat="42.69806281145527" lon="12.948866267363638"><ele>1061.0</ele><time>2026-04-12T11:17:52Z</time></trkpt><trkpt lat="42.698187308492784" lon="12.948811675636982"><ele>1062.0</ele><time>2026-04-12T11:17:53Z</time></trkpt><trkpt lat="42.698322888444444" lon="12.948722537206653"><ele>1063.0</ele><time>2026-04-12T11:17:54Z</time></trkpt><trkpt lat="42.698463529673205" lon="12.948625811254871"><ele>1067.3333333333333</ele><time>2026-04-12T11:17:55Z</time></trkpt><trkpt lat="42.69862291036823" lon="12.948528908344676"><ele>1071.6666666666667</ele><time>2026-04-12T11:17:56Z</time></trkpt><trkpt lat="42.69879088825407" lon="12.948450384591796"><ele>1076.0</ele><time>2026-04-12T11:17:57Z</time></trkpt><trkpt lat="42.69894395741142" lon="12.948382216585918"><ele>1078.75</ele><time>2026-04-12T11:17:58Z</time></trkpt><trkpt lat="42.6990705258704" lon="12.948309216106823"><ele>1081.5</ele><time>2026-04-12T11:17:59Z</time></trkpt><trkpt lat="42.699192262194295" lon="12.948219254370871"><ele>1084.25</ele><time>2026-04-12T11:18:00Z</time></trkpt><trkpt lat="42.69931402190299" lon="12.948112415297226"><ele>1087.0</ele><time>2026-04-12T11:18:01Z</time></trkpt><trkpt lat="42.69944134291382" lon="12.947999126895999"><ele>1087.0</ele><time>2026-04-12T11:18:02Z</time></trkpt><trkpt lat="42.699559872766194" lon="12.947886452959324"><ele>1087.0</ele><time>2026-04-12T11:18:03Z</time></trkpt><trkpt lat="42.699661417723846" lon="12.947755593168441"><ele>1087.0</ele><time>2026-04-12T11:18:04Z</time></trkpt><trkpt lat="42.69974368192808" lon="12.947602867573968"><ele>1087.0</ele><time>2026-04-12T11:18:05Z</time></trkpt><trkpt lat="42.69983841797926" lon="12.947448897443772"><ele>1089.5</ele><time>2026-04-12T11:18:06Z</time></trkpt><trkpt lat="42.69994874058454" lon="12.94731295481408"><ele>1092.0</ele><time>2026-04-12T11:18:07Z</time></trkpt><trkpt lat="42.70005854737535" lon="12.947203195766448"><ele>1094.5</ele><time>2026-04-12T11:18:08Z</time></trkpt><trkpt lat="42.700169648410515" lon="12.947113364782386"><ele>1097.0</ele><time>2026-04-12T11:18:09Z</time></trkpt><trkpt lat="42.70028857830982" lon="12.947021348781421"><ele>1097.0</ele><time>2026-04-12T11:18:10Z</time></trkpt><trkpt lat="42.70041103855987" lon="12.946916317414237"><ele>1097.0</ele><time>2026-04-12T11:18:11Z</time></trkpt><trkpt lat="42.70050346738748" lon="12.946809478460974"><ele>1097.0</ele><time>2026-04-12T11:18:12Z</time></trkpt><trkpt lat="42.70059058340358" lon="12.946688706031923"><ele>1097.0</ele><time>2026-04-12T11:18:13Z</time></trkpt><trkpt lat="42.700670614976325" lon="12.946571567866265"><ele>1093.5</ele><time>2026-04-12T11:18:14Z</time></trkpt><trkpt lat="42.70076182225729" lon="12.946456517865707"><ele>1090.0</ele><time>2026-04-12T11:18:15Z</time></trkpt><trkpt lat="42.7008623582175" lon="12.946332494034614"><ele>1086.5</ele><time>2026-04-12T11:18:16Z</time></trkpt><trkpt lat="42.70095997142179" lon="12.946244030026682"><ele>1083.0</ele><time>2026-04-12T11:18:17Z</time></trkpt><trkpt lat="42.70107503614166" lon="12.946163532670685"><ele>1086.25</ele><time>2026-04-12T11:18:18Z</time></trkpt><trkpt lat="42.701205551526975" lon="12.946110251932415"><ele>1089.5</ele><time>2026-04-12T11:18:19Z</time></trkpt><trkpt lat="42.70133828761888" lon="12.946069144341182"><ele>1092.75</ele><time>2026-04-12T11:18:20Z</time></trkpt><trkpt lat="42.70146510071195" lon="12.946061183735331"><ele>1096.0</ele><time>2026-04-12T11:18:21Z</time></trkpt><trkpt lat="42.701590167159836" lon="12.9460848144778"><ele>1096.0</ele><time>2026-04-12T11:18:22Z</time></trkpt><trkpt lat="42.70171711429318" lon="12.946112254624547"><ele>1096.0</ele><time>2026-04-12T11:18:23Z</time></trkpt><trkpt lat="42.7018330714253" lon="12.946121550865344"><ele>1096.0</ele><time>2026-04-12T11:18:24Z</time></trkpt><trkpt lat="42.701958928947036" lon="12.946117061801875"><ele>1096.0</ele><time>2026-04-12T11:18:25Z</time></trkpt><trkpt lat="42.70208834902935" lon="12.946113559702512"><ele>1095.5</ele><time>2026-04-12T11:18:26Z</time></trkpt><trkpt lat="42.70221470823108" lon="12.94610971748448"><ele>1095.0</ele><time>2026-04-12T11:18:27Z</time></trkpt><trkpt lat="42.70233969624714" lon="12.946114172033337"><ele>1094.5</ele><time>2026-04-12T11:18:28Z</time></trkpt><trkpt lat="42.702462187398865" lon="12.946121256500836"><ele>1094.0</ele><time>2026-04-12T11:18:29Z</time></trkpt><trkpt lat="42.702583000644225" lon="12.946135091060656"><ele>1094.0</ele><time>2026-04-12T11:18:30Z</time></trkpt><trkpt lat="42.70270012746085" lon="12.946160196908027"><ele>1094.0</ele><time>2026-04-12T11:18:31Z</time></trkpt><trkpt lat="42.70281692286587" lon="12.946193733958417"><ele>1094.0</ele><time>2026-04-12T11:18:32Z</time></trkpt><trkpt lat="42.70291264798686" lon="12.946213296538183"><ele>1094.0</ele><time>2026-04-12T11:18:33Z</time></trkpt><trkpt lat="42.70299413332283" lon="12.946246562026133"><ele>1094.0</ele><time>2026-04-12T11:18:34Z</time></trkpt><trkpt lat="42.703057861636665" lon="12.946307161560144"><ele>1092.0</ele><time>2026-04-12T11:18:35Z</time></trkpt><trkpt lat="42.70308950867355" lon="12.94638631627142"><ele>1090.0</ele><time>2026-04-12T11:18:36Z</time></trkpt><trkpt lat="42.70312246805045" lon="12.94650249219417"><ele>1088.0</ele><time>2026-04-12T11:18:38Z</time></trkpt><trkpt lat="42.70318969007079" lon="12.946512558276021"><ele>1086.0</ele><time>2026-04-12T11:18:42Z</time></trkpt><trkpt lat="42.70328194389405" lon="12.946484720907899"><ele>1084.0</ele><time>2026-04-12T11:20:22Z</time></trkpt><trkpt lat="42.70340320089399" lon="12.94649428505229"><ele>1082.0</ele><time>2026-04-12T11:20:24Z</time></trkpt><trkpt lat="42.703475469048534" lon="12.946496827306968"><ele>1082.0</ele><time>2026-04-12T11:20:25Z</time></trkpt><trkpt lat="42.70355427413588" lon="12.946503607319581"><ele>1082.0</ele><time>2026-04-12T11:20:26Z</time></trkpt><trkpt lat="42.70363641301905" lon="12.946510585108056"><ele>1082.0</ele><time>2026-04-12T11:20:27Z</time></trkpt><trkpt lat="42.70371098979402" lon="12.946543422571759"><ele>1082.0</ele><time>2026-04-12T11:20:28Z</time></trkpt><trkpt lat="42.703797707695344" lon="12.946599203068207"><ele>1082.0</ele><time>2026-04-12T11:20:30Z</time></trkpt><trkpt lat="42.703882851903906" lon="12.946677940045841"><ele>1082.0</ele><time>2026-04-12T11:26:26Z</time></trkpt><trkpt lat="42.70393923035614" lon="12.946724437871037"><ele>1081.0</ele><time>2026-04-12T11:26:27Z</time></trkpt><trkpt lat="42.70402118183896" lon="12.946808705779622"><ele>1080.0</ele><time>2026-04-12T11:26:29Z</time></trkpt><trkpt lat="42.70410983660132" lon="12.946949569973187"><ele>1079.0</ele><time>2026-04-12T11:26:31Z</time></trkpt><trkpt lat="42.70415841133533" lon="12.947051978789437"><ele>1078.0</ele><time>2026-04-12T11:26:32Z</time></trkpt><trkpt lat="42.704193126136204" lon="12.947157072316259"><ele>1077.0</ele><time>2026-04-12T11:26:33Z</time></trkpt><trkpt lat="42.70424492099292" lon="12.947251447735766"><ele>1077.0</ele><time>2026-04-12T11:26:34Z</time></trkpt><trkpt lat="42.70430670660869" lon="12.947323562849663"><ele>1077.0</ele><time>2026-04-12T11:26:35Z</time></trkpt><trkpt lat="42.70436558701124" lon="12.947389590045873"><ele>1077.0</ele><time>2026-04-12T11:26:36Z</time></trkpt><trkpt lat="42.70441448747885" lon="12.947491802573241"><ele>1077.0</ele><time>2026-04-12T11:26:37Z</time></trkpt><trkpt lat="42.70446150021942" lon="12.947569808233865"><ele>1077.0</ele><time>2026-04-12T11:26:38Z</time></trkpt><trkpt lat="42.704522658326034" lon="12.947650786441436"><ele>1077.0</ele><time>2026-04-12T11:26:39Z</time></trkpt><trkpt lat="42.704573153367875" lon="12.94771637910169"><ele>1077.0</ele><time>2026-04-12T11:26:40Z</time></trkpt><trkpt lat="42.70461907435184" lon="12.947791291052882"><ele>1077.0</ele><time>2026-04-12T11:26:41Z</time></trkpt><trkpt lat="42.70465436164501" lon="12.947865490861851"><ele>1077.0</ele><time>2026-04-12T11:26:42Z</time></trkpt><trkpt lat="42.70468785246977" lon="12.947972650620052"><ele>1077.0</ele><time>2026-04-12T11:26:43Z</time></trkpt><trkpt lat="42.70472004855754" lon="12.948078753488085"><ele>1077.0</ele><time>2026-04-12T11:26:44Z</time></trkpt><trkpt lat="42.704737635803795" lon="12.948185337041506"><ele>1077.0</ele><time>2026-04-12T11:26:45Z</time></trkpt><trkpt lat="42.704756974420725" lon="12.948281453779225"><ele>1077.0</ele><time>2026-04-12T11:26:46Z</time></trkpt><trkpt lat="42.70478806361906" lon="12.948370835339881"><ele>1077.0</ele><time>2026-04-12T11:26:47Z</time></trkpt><trkpt lat="42.70482923882559" lon="12.948452572069614"><ele>1077.0</ele><time>2026-04-12T11:26:48Z</time></trkpt><trkpt lat="42.70488649190099" lon="12.948517878265074"><ele>1077.0</ele><time>2026-04-12T11:26:49Z</time></trkpt><trkpt lat="42.70494290448302" lon="12.948590584066993"><ele>1077.0</ele><time>2026-04-12T11:26:50Z</time></trkpt><trkpt lat="42.704992546351335" lon="12.948682936227808"><ele>1077.0</ele><time>2026-04-12T11:26:51Z</time></trkpt><trkpt lat="42.70503407411201" lon="12.948783698888027"><ele>1075.6666666666667</ele><time>2026-04-12T11:26:52.001Z</time></trkpt><trkpt lat="42.705076244277755" lon="12.948861712218344"><ele>1074.3333333333333</ele><time>2026-04-12T11:26:53.001Z</time></trkpt><trkpt lat="42.705131742311956" lon="12.948941917651206"><ele>1073.0</ele><time>2026-04-12T11:26:54.001Z</time></trkpt><trkpt lat="42.70516658298281" lon="12.949030092814741"><ele>1071.6666666666665</ele><time>2026-04-12T11:26:55.001Z</time></trkpt><trkpt lat="42.70516924441178" lon="12.949132843887737"><ele>1070.3333333333333</ele><time>2026-04-12T11:26:56.001Z</time></trkpt><trkpt lat="42.70514761018628" lon="12.94923240812203"><ele>1069.0</ele><time>2026-04-12T11:26:57.001Z</time></trkpt><trkpt lat="42.70510486435089" lon="12.949372773593009"><ele>1067.4</ele><time>2026-04-12T11:26:58.001Z</time></trkpt><trkpt lat="42.70507728896545" lon="12.949512302567648"><ele>1065.8000000000002</ele><time>2026-04-12T11:26:59.001Z</time></trkpt><trkpt lat="42.705067500551415" lon="12.949648982585781"><ele>1064.1999999999998</ele><time>2026-04-12T11:27:00.001Z</time></trkpt><trkpt lat="42.70508855868296" lon="12.949786996388967"><ele>1062.6</ele><time>2026-04-12T11:27:01.001Z</time></trkpt><trkpt lat="42.705126002622315" lon="12.94988365358693"><ele>1061.0</ele><time>2026-04-12T11:27:02.001Z</time></trkpt><trkpt lat="42.705144358593714" lon="12.950046874676886"><ele>1060.0</ele><time>2026-04-12T11:27:04.001Z</time></trkpt><trkpt lat="42.70525348038297" lon="12.950414041510795"><ele>1059.0</ele><time>2026-04-12T11:27:06.001Z</time></trkpt><trkpt lat="42.70530226417009" lon="12.950545261867816"><ele>1058.0</ele><time>2026-04-12T11:27:07.001Z</time></trkpt><trkpt lat="42.70537253846413" lon="12.950682698287263"><ele>1058.0</ele><time>2026-04-12T11:27:08.001Z</time></trkpt><trkpt lat="42.70543104935894" lon="12.950821464712515"><ele>1058.0</ele><time>2026-04-12T11:27:09.001Z</time></trkpt><trkpt lat="42.70547674186519" lon="12.950979979550597"><ele>1058.0</ele><time>2026-04-12T11:27:10.001Z</time></trkpt><trkpt lat="42.70554335122055" lon="12.95112056752672"><ele>1058.0</ele><time>2026-04-12T11:27:11.001Z</time></trkpt><trkpt lat="42.705612637210386" lon="12.951254954133294"><ele>1057.8</ele><time>2026-04-12T11:27:12.001Z</time></trkpt><trkpt lat="42.70570072085649" lon="12.95131407650458"><ele>1057.6</ele><time>2026-04-12T11:27:13.001Z</time></trkpt><trkpt lat="42.705784023389626" lon="12.951386293927209"><ele>1057.4</ele><time>2026-04-12T11:27:14.001Z</time></trkpt><trkpt lat="42.70589105696144" lon="12.951422750074174"><ele>1057.2</ele><time>2026-04-12T11:27:15.001Z</time></trkpt><trkpt lat="42.705991427088115" lon="12.951516464706243"><ele>1057.0</ele><time>2026-04-12T11:27:16.001Z</time></trkpt><trkpt lat="42.70609822838897" lon="12.951632026813527"><ele>1057.25</ele><time>2026-04-12T11:27:17.001Z</time></trkpt><trkpt lat="42.706206997851815" lon="12.951761943893988"><ele>1057.5</ele><time>2026-04-12T11:27:18.001Z</time></trkpt><trkpt lat="42.706317753865385" lon="12.951879244077649"><ele>1057.75</ele><time>2026-04-12T11:27:19.001Z</time></trkpt><trkpt lat="42.706432249472996" lon="12.951982796929459"><ele>1058.0</ele><time>2026-04-12T11:27:20.001Z</time></trkpt><trkpt lat="42.706538825217564" lon="12.95207675535624"><ele>1058.0</ele><time>2026-04-12T11:27:21.001Z</time></trkpt><trkpt lat="42.706643080803794" lon="12.952151082977974"><ele>1058.0</ele><time>2026-04-12T11:27:22.001Z</time></trkpt><trkpt lat="42.70673399873937" lon="12.952218903245912"><ele>1058.0</ele><time>2026-04-12T11:27:23.001Z</time></trkpt><trkpt lat="42.706810636014225" lon="12.952273633520178"><ele>1058.0</ele><time>2026-04-12T11:27:24.001Z</time></trkpt><trkpt lat="42.70686915556007" lon="12.95231813927385"><ele>1058.0</ele><time>2026-04-12T11:27:25.001Z</time></trkpt><trkpt lat="42.70695303082288" lon="12.952381401248953"><ele>1058.2</ele><time>2026-04-12T11:27:26.001Z</time></trkpt><trkpt lat="42.70703517739653" lon="12.952439339644457"><ele>1058.4</ele><time>2026-04-12T11:27:27.001Z</time></trkpt><trkpt lat="42.70712947462234" lon="12.952483821202947"><ele>1058.6000000000001</ele><time>2026-04-12T11:27:28.001Z</time></trkpt><trkpt lat="42.70722928162508" lon="12.95252505698469"><ele>1058.8</ele><time>2026-04-12T11:27:29.001Z</time></trkpt><trkpt lat="42.70733153395426" lon="12.95257293499116"><ele>1059.0</ele><time>2026-04-12T11:27:30.001Z</time></trkpt><trkpt lat="42.70743780144407" lon="12.952616732043516"><ele>1057.5</ele><time>2026-04-12T11:27:31.001Z</time></trkpt><trkpt lat="42.70755401425784" lon="12.952645292524478"><ele>1056.0</ele><time>2026-04-12T11:27:32.001Z</time></trkpt><trkpt lat="42.70766706924816" lon="12.95263835417944"><ele>1054.5</ele><time>2026-04-12T11:27:33.001Z</time></trkpt><trkpt lat="42.70778548893319" lon="12.952630245703999"><ele>1053.0</ele><time>2026-04-12T11:27:34.001Z</time></trkpt><trkpt lat="42.707938822681434" lon="12.952647984196943"><ele>1051.5</ele><time>2026-04-12T11:27:35.001Z</time></trkpt><trkpt lat="42.70806909976856" lon="12.952653289649978"><ele>1050.0</ele><time>2026-04-12T11:27:36.001Z</time></trkpt><trkpt lat="42.708202063001316" lon="12.952674747968333"><ele>1048.5</ele><time>2026-04-12T11:27:37.001Z</time></trkpt><trkpt lat="42.70833183453604" lon="12.952694638966703"><ele>1047.0</ele><time>2026-04-12T11:27:38.001Z</time></trkpt><trkpt lat="42.708464833007135" lon="12.952735120605638"><ele>1045.5</ele><time>2026-04-12T11:27:39.001Z</time></trkpt><trkpt lat="42.70859201680858" lon="12.952773745708548"><ele>1044.0</ele><time>2026-04-12T11:27:40.001Z</time></trkpt><trkpt lat="42.708722019344215" lon="12.952790461879653"><ele>1042.5</ele><time>2026-04-12T11:27:41.001Z</time></trkpt><trkpt lat="42.7088549961816" lon="12.952825648932667"><ele>1041.0</ele><time>2026-04-12T11:27:42.001Z</time></trkpt><trkpt lat="42.70893563779262" lon="12.952860064448204"><ele>1041.0</ele><time>2026-04-12T11:27:43.001Z</time></trkpt><trkpt lat="42.70900989807504" lon="12.952883961278589"><ele>1041.0</ele><time>2026-04-12T11:27:44.001Z</time></trkpt><trkpt lat="42.70908126967889" lon="12.952914399676702"><ele>1041.0</ele><time>2026-04-12T11:27:45.001Z</time></trkpt><trkpt lat="42.709208698478896" lon="12.952881430125954"><ele>1041.0</ele><time>2026-04-12T11:27:46.001Z</time></trkpt><trkpt lat="42.70938876569415" lon="12.952845727315829"><ele>1039.25</ele><time>2026-04-12T11:27:47.001Z</time></trkpt><trkpt lat="42.709561438904196" lon="12.952814597190171"><ele>1037.5</ele><time>2026-04-12T11:27:48.001Z</time></trkpt><trkpt lat="42.70970748611295" lon="12.952879675842775"><ele>1035.75</ele><time>2026-04-12T11:27:49.001Z</time></trkpt><trkpt lat="42.70977192799169" lon="12.952873571811592"><ele>1034.0</ele><time>2026-04-12T11:27:51.999Z</time></trkpt><trkpt lat="42.70991921821831" lon="12.952853583979648"><ele>1034.0</ele><time>2026-04-12T11:27:52.999Z</time></trkpt><trkpt lat="42.70999966410488" lon="12.952860976448223"><ele>1034.0</ele><time>2026-04-12T11:27:53.999Z</time></trkpt><trkpt lat="42.71004254691367" lon="12.952982940650925"><ele>1034.0</ele><time>2026-04-12T11:27:54.999Z</time></trkpt><trkpt lat="42.7101035356929" lon="12.953029794060592"><ele>1034.0</ele><time>2026-04-12T11:27:55.999Z</time></trkpt><trkpt lat="42.71012173049404" lon="12.95318322520632"><ele>1034.0</ele><time>2026-04-12T11:27:56.999Z</time></trkpt><trkpt lat="42.71024425576254" lon="12.953256924291637"><ele>1031.75</ele><time>2026-04-12T11:27:58.999Z</time></trkpt><trkpt lat="42.7103527550036" lon="12.953268802003919"><ele>1029.5</ele><time>2026-04-12T11:27:59.999Z</time></trkpt><trkpt lat="42.71044461926885" lon="12.953235492224012"><ele>1027.25</ele><time>2026-04-12T11:28:01.999Z</time></trkpt><trkpt lat="42.71051581383427" lon="12.953216628797936"><ele>1025.0</ele><time>2026-04-12T11:28:07.999Z</time></trkpt><trkpt lat="42.71069273257936" lon="12.953193161011498"><ele>1025.0</ele><time>2026-04-12T11:28:42Z</time></trkpt><trkpt lat="42.71078496260055" lon="12.953157747709291"><ele>1025.0</ele><time>2026-04-12T11:28:43Z</time></trkpt><trkpt lat="42.71088610269073" lon="12.953111990166834"><ele>1025.0</ele><time>2026-04-12T11:28:44Z</time></trkpt><trkpt lat="42.71097727712867" lon="12.953064641117061"><ele>1025.0</ele><time>2026-04-12T11:28:45Z</time></trkpt><trkpt lat="42.71117776391354" lon="12.953002568608506"><ele>1022.25</ele><time>2026-04-12T11:28:47Z</time></trkpt><trkpt lat="42.71124893633091" lon="12.9529586653095"><ele>1019.5</ele><time>2026-04-12T11:28:48Z</time></trkpt><trkpt lat="42.71132400595774" lon="12.952912357967222"><ele>1016.75</ele><time>2026-04-12T11:28:49Z</time></trkpt><trkpt lat="42.71143177262387" lon="12.952836726397448"><ele>1014.0</ele><time>2026-04-12T11:28:51Z</time></trkpt><trkpt lat="42.71162252734945" lon="12.952693233608294"><ele>1013.0</ele><time>2026-04-12T11:28:52Z</time></trkpt><trkpt lat="42.7117591369778" lon="12.952517454326832"><ele>1012.0</ele><time>2026-04-12T11:28:53Z</time></trkpt><trkpt lat="42.71183588173936" lon="12.952386452572767"><ele>1011.0</ele><time>2026-04-12T11:28:54Z</time></trkpt><trkpt lat="42.71186501453654" lon="12.952304540912339"><ele>1010.0</ele><time>2026-04-12T11:28:55Z</time></trkpt><trkpt lat="42.71191795557311" lon="12.952205275928138"><ele>1011.0</ele><time>2026-04-12T11:28:56Z</time></trkpt><trkpt lat="42.71194630562117" lon="12.952124275071258"><ele>1012.0</ele><time>2026-04-12T11:28:57Z</time></trkpt><trkpt lat="42.712019465508675" lon="12.952107377001933"><ele>1013.0</ele><time>2026-04-12T11:28:58Z</time></trkpt><trkpt lat="42.71218179300256" lon="12.951498400038574"><ele>1013.0000000000001</ele><time>2026-04-12T11:29:10Z</time></trkpt><trkpt lat="42.712181846028365" lon="12.951381748713027"><ele>1013.0</ele><time>2026-04-12T11:29:12Z</time></trkpt><trkpt lat="42.71217063538751" lon="12.95129190545575"><ele>1013.0</ele><time>2026-04-12T11:29:15Z</time></trkpt><trkpt lat="42.71209809311601" lon="12.951294573943214"><ele>1013.0</ele><time>2026-04-12T11:29:56.001Z</time></trkpt><trkpt lat="42.71209385318579" lon="12.951137461377044"><ele>1013.0000000000001</ele><time>2026-04-12T11:29:58.999Z</time></trkpt><trkpt lat="42.71211126002053" lon="12.951036805158488"><ele>1013.0</ele><time>2026-04-12T11:29:59.999Z</time></trkpt><trkpt lat="42.712115314732756" lon="12.950928739010813"><ele>1013.2857142857143</ele><time>2026-04-12T11:30:00.999Z</time></trkpt><trkpt lat="42.71212114941748" lon="12.950811142466616"><ele>1013.5714285714287</ele><time>2026-04-12T11:30:01.999Z</time></trkpt><trkpt lat="42.71213825800908" lon="12.95071499234124"><ele>1013.8571428571429</ele><time>2026-04-12T11:30:02.999Z</time></trkpt><trkpt lat="42.71216717216407" lon="12.950631188502738"><ele>1014.1428571428571</ele><time>2026-04-12T11:30:03.999Z</time></trkpt><trkpt lat="42.71221748926531" lon="12.950556426776693"><ele>1014.4285714285714</ele><time>2026-04-12T11:30:04.999Z</time></trkpt><trkpt lat="42.71226165922141" lon="12.950481920737452"><ele>1014.7142857142858</ele><time>2026-04-12T11:30:05.999Z</time></trkpt><trkpt lat="42.71227658259158" lon="12.950390094626927"><ele>1015.0</ele><time>2026-04-12T11:30:06.999Z</time></trkpt><trkpt lat="42.712259824183654" lon="12.950295529064832"><ele>1014.9999999999999</ele><time>2026-04-12T11:30:07.999Z</time></trkpt><trkpt lat="42.71224281086484" lon="12.950210470802368"><ele>1015.0</ele><time>2026-04-12T11:30:08.999Z</time></trkpt><trkpt lat="42.712244767699595" lon="12.950109590725091"><ele>1015.0</ele><time>2026-04-12T11:30:09.999Z</time></trkpt><trkpt lat="42.71225868166756" lon="12.949997307917933"><ele>1015.0</ele><time>2026-04-12T11:30:10.999Z</time></trkpt><trkpt lat="42.712283847992374" lon="12.949889617282643"><ele>1014.9999999999999</ele><time>2026-04-12T11:30:11.999Z</time></trkpt><trkpt lat="42.712317273697664" lon="12.949743829021854"><ele>1015.0</ele><time>2026-04-12T11:30:12.999Z</time></trkpt><trkpt lat="42.71235722335029" lon="12.949629409947967"><ele>1014.0</ele><time>2026-04-12T11:30:13.999Z</time></trkpt><trkpt lat="42.71239720733879" lon="12.949513887793428"><ele>1013.0</ele><time>2026-04-12T11:30:14.999Z</time></trkpt><trkpt lat="42.71245354917558" lon="12.949425897790784"><ele>1012.0</ele><time>2026-04-12T11:30:15.999Z</time></trkpt><trkpt lat="42.71251249836521" lon="12.949287139439603"><ele>1011.0</ele><time>2026-04-12T11:30:16.999Z</time></trkpt><trkpt lat="42.712590983037465" lon="12.949170571256337"><ele>1010.0</ele><time>2026-04-12T11:30:17.999Z</time></trkpt><trkpt lat="42.712659178416196" lon="12.949065064831949"><ele>1010.4</ele><time>2026-04-12T11:30:18.999Z</time></trkpt><trkpt lat="42.71272336646547" lon="12.948962617289084"><ele>1010.8</ele><time>2026-04-12T11:30:19.999Z</time></trkpt><trkpt lat="42.71280206643903" lon="12.948840605391796"><ele>1011.2</ele><time>2026-04-12T11:30:20.999Z</time></trkpt><trkpt lat="42.712870937457765" lon="12.948715250545238"><ele>1011.6</ele><time>2026-04-12T11:30:21.999Z</time></trkpt><trkpt lat="42.712932171708715" lon="12.948605138338678"><ele>1012.0</ele><time>2026-04-12T11:30:22.999Z</time></trkpt><trkpt lat="42.71299057595837" lon="12.94850438609889"><ele>1011.9999999999999</ele><time>2026-04-12T11:30:23.999Z</time></trkpt><trkpt lat="42.71304723028831" lon="12.948409599697344"><ele>1012.0</ele><time>2026-04-12T11:30:25Z</time></trkpt><trkpt lat="42.713095789485614" lon="12.948313881668543"><ele>1012.0</ele><time>2026-04-12T11:30:26Z</time></trkpt><trkpt lat="42.71313716329026" lon="12.948215276260031"><ele>1012.0</ele><time>2026-04-12T11:30:27Z</time></trkpt><trkpt lat="42.713186000250076" lon="12.948116582328877"><ele>1011.9999999999999</ele><time>2026-04-12T11:30:28Z</time></trkpt><trkpt lat="42.713229395717" lon="12.948022657678292"><ele>1012.0</ele><time>2026-04-12T11:30:29Z</time></trkpt><trkpt lat="42.7132730608826" lon="12.947924248223009"><ele>1009.8333333333333</ele><time>2026-04-12T11:30:30Z</time></trkpt><trkpt lat="42.71333324335609" lon="12.94780028272742"><ele>1007.6666666666666</ele><time>2026-04-12T11:30:31Z</time></trkpt><trkpt lat="42.71339157028382" lon="12.947698205365176"><ele>1005.5</ele><time>2026-04-12T11:30:32Z</time></trkpt><trkpt lat="42.71345370642292" lon="12.947625030927984"><ele>1003.3333333333333</ele><time>2026-04-12T11:30:33Z</time></trkpt><trkpt lat="42.7134911649446" lon="12.947551696767823"><ele>1001.1666666666666</ele><time>2026-04-12T11:30:34Z</time></trkpt><trkpt lat="42.713534561217664" lon="12.947465208227472"><ele>999.0</ele><time>2026-04-12T11:30:35Z</time></trkpt><trkpt lat="42.71359081680247" lon="12.94740232930545"><ele>997.6</ele><time>2026-04-12T11:30:36Z</time></trkpt><trkpt lat="42.713659448271805" lon="12.94733997588905"><ele>996.2</ele><time>2026-04-12T11:30:37Z</time></trkpt><trkpt lat="42.713743337398924" lon="12.947242317211865"><ele>994.8000000000001</ele><time>2026-04-12T11:30:39Z</time></trkpt><trkpt lat="42.71384292573868" lon="12.947129374616882"><ele>993.4000000000001</ele><time>2026-04-12T11:30:41Z</time></trkpt><trkpt lat="42.71391102088718" lon="12.947025378373453"><ele>992.0</ele><time>2026-04-12T11:30:43Z</time></trkpt><trkpt lat="42.71395529384665" lon="12.946962250233549"><ele>992.0000000000001</ele><time>2026-04-12T11:30:44Z</time></trkpt><trkpt lat="42.714007594184" lon="12.946895138515815"><ele>992.0</ele><time>2026-04-12T11:30:45Z</time></trkpt><trkpt lat="42.71407697439513" lon="12.94683752614267"><ele>992.0</ele><time>2026-04-12T11:30:46Z</time></trkpt><trkpt lat="42.714152892412386" lon="12.946812217361483"><ele>992.0</ele><time>2026-04-12T11:30:47Z</time></trkpt><trkpt lat="42.71422420075947" lon="12.94680790780383"><ele>992.0000000000001</ele><time>2026-04-12T11:30:48Z</time></trkpt><trkpt lat="42.7143541965033" lon="12.946850019343444"><ele>992.0</ele><time>2026-04-12T11:30:50Z</time></trkpt><trkpt lat="42.71442839728811" lon="12.94690120977807"><ele>990.1666666666667</ele><time>2026-04-12T11:30:51Z</time></trkpt><trkpt lat="42.71449084454991" lon="12.946964873910279"><ele>988.3333333333334</ele><time>2026-04-12T11:30:52Z</time></trkpt><trkpt lat="42.714580781026015" lon="12.94701962488894"><ele>986.5</ele><time>2026-04-12T11:30:53Z</time></trkpt><trkpt lat="42.714656723571856" lon="12.94705709159892"><ele>984.6666666666667</ele><time>2026-04-12T11:30:54Z</time></trkpt><trkpt lat="42.714713172300236" lon="12.947102578815453"><ele>982.8333333333334</ele><time>2026-04-12T11:30:55Z</time></trkpt><trkpt lat="42.71477867471725" lon="12.947145850657298"><ele>981.0</ele><time>2026-04-12T11:30:56Z</time></trkpt><trkpt lat="42.71483761883632" lon="12.947206415407155"><ele>981.0</ele><time>2026-04-12T11:30:57Z</time></trkpt><trkpt lat="42.714896309737675" lon="12.94725615150396"><ele>980.9999999999999</ele><time>2026-04-12T11:30:58Z</time></trkpt><trkpt lat="42.71498403453517" lon="12.947300496462582"><ele>980.9999999999999</ele><time>2026-04-12T11:30:59Z</time></trkpt><trkpt lat="42.71508860962707" lon="12.947281624628253"><ele>981.0</ele><time>2026-04-12T11:31:00Z</time></trkpt><trkpt lat="42.71517823081391" lon="12.947212403127374"><ele>981.0</ele><time>2026-04-12T11:31:02Z</time></trkpt><trkpt lat="42.71523812602078" lon="12.94706061026806"><ele>983.1999999999999</ele><time>2026-04-12T11:31:04Z</time></trkpt><trkpt lat="42.71528485531599" lon="12.946955660560768"><ele>985.3999999999999</ele><time>2026-04-12T11:31:05Z</time></trkpt><trkpt lat="42.71535832221468" lon="12.946811058021732"><ele>987.6</ele><time>2026-04-12T11:31:07Z</time></trkpt><trkpt lat="42.715408102441664" lon="12.946749726187019"><ele>989.8</ele><time>2026-04-12T11:31:08Z</time></trkpt><trkpt lat="42.715471490717924" lon="12.9466627381086"><ele>992.0</ele><time>2026-04-12T11:31:09Z</time></trkpt><trkpt lat="42.715523791103706" lon="12.946582002069057"><ele>987.0000000000001</ele><time>2026-04-12T11:31:10Z</time></trkpt><trkpt lat="42.71557174061053" lon="12.946521666449962"><ele>982.0</ele><time>2026-04-12T11:31:11Z</time></trkpt><trkpt lat="42.71562157706588" lon="12.946460120343898"><ele>977.0</ele><time>2026-04-12T11:31:12Z</time></trkpt><trkpt lat="42.71567875558829" lon="12.946402418456712"><ele>972.0</ele><time>2026-04-12T11:31:13Z</time></trkpt><trkpt lat="42.71575002903684" lon="12.946342596381383"><ele>967.0000000000001</ele><time>2026-04-12T11:31:14Z</time></trkpt><trkpt lat="42.71581012802308" lon="12.94629222958352"><ele>962.0</ele><time>2026-04-12T11:31:15Z</time></trkpt><trkpt lat="42.71593844285307" lon="12.94620559624266"><ele>962.0000000000001</ele><time>2026-04-12T11:31:17Z</time></trkpt><trkpt lat="42.716013896092036" lon="12.946180331503996"><ele>962.0</ele><time>2026-04-12T11:31:18Z</time></trkpt><trkpt lat="42.71608320125991" lon="12.946160304128503"><ele>962.0</ele><time>2026-04-12T11:31:19Z</time></trkpt><trkpt lat="42.71614880347054" lon="12.946128654807367"><ele>962.0</ele><time>2026-04-12T11:31:20Z</time></trkpt><trkpt lat="42.71627010119843" lon="12.946115236001845"><ele>962.0000000000001</ele><time>2026-04-12T11:31:22.001Z</time></trkpt><trkpt lat="42.716345583629206" lon="12.946087549264586"><ele>962.0</ele><time>2026-04-12T11:31:23.001Z</time></trkpt><trkpt lat="42.716467415210914" lon="12.946068900300027"><ele>961.8333333333334</ele><time>2026-04-12T11:31:25.001Z</time></trkpt><trkpt lat="42.71655046326685" lon="12.946078522703596"><ele>961.6666666666667</ele><time>2026-04-12T11:31:26.001Z</time></trkpt><trkpt lat="42.71663497468832" lon="12.946077980404683"><ele>961.5</ele><time>2026-04-12T11:31:27.001Z</time></trkpt><trkpt lat="42.7167167154395" lon="12.946081934346944"><ele>961.3333333333333</ele><time>2026-04-12T11:31:28.001Z</time></trkpt><trkpt lat="42.716787457046486" lon="12.946088286130385"><ele>961.1666666666666</ele><time>2026-04-12T11:31:29.001Z</time></trkpt><trkpt lat="42.716859136880224" lon="12.946087650307634"><ele>961.0</ele><time>2026-04-12T11:31:30.001Z</time></trkpt><trkpt lat="42.71693879919515" lon="12.946088008178734"><ele>960.9999999999999</ele><time>2026-04-12T11:31:31.001Z</time></trkpt><trkpt lat="42.71701126240584" lon="12.94606247012552"><ele>961.0</ele><time>2026-04-12T11:31:32.001Z</time></trkpt><trkpt lat="42.71708226686508" lon="12.946052477644033"><ele>961.0</ele><time>2026-04-12T11:31:33.001Z</time></trkpt><trkpt lat="42.7171749681889" lon="12.946073770343963"><ele>961.0</ele><time>2026-04-12T11:31:34.001Z</time></trkpt><trkpt lat="42.717273641237355" lon="12.946070396092283"><ele>960.9999999999999</ele><time>2026-04-12T11:31:35.001Z</time></trkpt><trkpt lat="42.71736770339616" lon="12.946047503306627"><ele>961.0</ele><time>2026-04-12T11:31:36.001Z</time></trkpt><trkpt lat="42.717498452638736" lon="12.946055334614481"><ele>961.0</ele><time>2026-04-12T11:31:38.001Z</time></trkpt><trkpt lat="42.71757834604186" lon="12.946078568607739"><ele>960.9999999999999</ele><time>2026-04-12T11:31:39.001Z</time></trkpt><trkpt lat="42.71765473293274" lon="12.946089139130311"><ele>960.9999999999999</ele><time>2026-04-12T11:31:40.001Z</time></trkpt><trkpt lat="42.717783995451946" lon="12.946115543791382"><ele>961.0</ele><time>2026-04-12T11:31:42.001Z</time></trkpt><trkpt lat="42.71785474195592" lon="12.946129853574108"><ele>961.0</ele><time>2026-04-12T11:31:43.001Z</time></trkpt><trkpt lat="42.71797031155249" lon="12.946147790530281"><ele>958.0</ele><time>2026-04-12T11:31:45.001Z</time></trkpt><trkpt lat="42.718087148643" lon="12.946126293906662"><ele>954.9999999999999</ele><time>2026-04-12T11:31:47.001Z</time></trkpt><trkpt lat="42.71814766392902" lon="12.946164631903898"><ele>951.9999999999999</ele><time>2026-04-12T11:31:48.001Z</time></trkpt><trkpt lat="42.71826033121099" lon="12.946206709357057"><ele>949.0</ele><time>2026-04-12T11:31:50.001Z</time></trkpt><trkpt lat="42.718367069155654" lon="12.94622996325045"><ele>946.0</ele><time>2026-04-12T11:31:52.001Z</time></trkpt><trkpt lat="42.71842990435613" lon="12.946247061899907"><ele>945.9999999999999</ele><time>2026-04-12T11:31:53.001Z</time></trkpt><trkpt lat="42.71849847362351" lon="12.946308965927546"><ele>946.0</ele><time>2026-04-12T11:31:54.001Z</time></trkpt><trkpt lat="42.71856254701382" lon="12.946356656440598"><ele>946.0</ele><time>2026-04-12T11:31:55.001Z</time></trkpt><trkpt lat="42.718625239685295" lon="12.94637021659488"><ele>946.0</ele><time>2026-04-12T11:31:56.001Z</time></trkpt><trkpt lat="42.7186907680265" lon="12.946362201367574"><ele>945.9999999999999</ele><time>2026-04-12T11:31:57.001Z</time></trkpt><trkpt lat="42.718846604368956" lon="12.946310965505015"><ele>946.0</ele><time>2026-04-12T11:31:59.001Z</time></trkpt><trkpt lat="42.71894023436609" lon="12.946279897000112"><ele>941.4</ele><time>2026-04-12T11:32:00.001Z</time></trkpt><trkpt lat="42.71902779746334" lon="12.94628599502158"><ele>936.8</ele><time>2026-04-12T11:32:01.001Z</time></trkpt><trkpt lat="42.71917052471484" lon="12.94632322190949"><ele>932.1999999999999</ele><time>2026-04-12T11:32:02.999Z</time></trkpt><trkpt lat="42.719246072576226" lon="12.94633196939293"><ele>927.5999999999999</ele><time>2026-04-12T11:32:03.999Z</time></trkpt><trkpt lat="42.719333691017184" lon="12.94633191338784"><ele>923.0</ele><time>2026-04-12T11:32:04.999Z</time></trkpt><trkpt lat="42.71945159759865" lon="12.946353097935269"><ele>919.2</ele><time>2026-04-12T11:32:06.999Z</time></trkpt><trkpt lat="42.719531946379554" lon="12.946365981435044"><ele>915.4</ele><time>2026-04-12T11:32:07.999Z</time></trkpt><trkpt lat="42.719662459333684" lon="12.946411400140137"><ele>911.6000000000001</ele><time>2026-04-12T11:32:09.999Z</time></trkpt><trkpt lat="42.71975792482876" lon="12.946464875073678"><ele>907.8000000000001</ele><time>2026-04-12T11:32:11.999Z</time></trkpt><trkpt lat="42.719872555305706" lon="12.946501250725944"><ele>904.0</ele><time>2026-04-12T11:32:13.999Z</time></trkpt><trkpt lat="42.71996244178351" lon="12.946524485632978"><ele>903.9999999999999</ele><time>2026-04-12T11:32:14.999Z</time></trkpt><trkpt lat="42.72002793123812" lon="12.946570843093845"><ele>904.0</ele><time>2026-04-12T11:32:15.999Z</time></trkpt><trkpt lat="42.720137569751095" lon="12.946585150417237"><ele>904.0</ele><time>2026-04-12T11:32:17.999Z</time></trkpt><trkpt lat="42.72020527535245" lon="12.946614026155"><ele>904.0</ele><time>2026-04-12T11:32:18.999Z</time></trkpt><trkpt lat="42.72026002180976" lon="12.946664005253586"><ele>903.9999999999999</ele><time>2026-04-12T11:32:19.999Z</time></trkpt><trkpt lat="42.72035985598944" lon="12.946685329177235"><ele>904.0</ele><time>2026-04-12T11:32:21.999Z</time></trkpt><trkpt lat="42.72045615478544" lon="12.946733149859753"><ele>908.0</ele><time>2026-04-12T11:32:23.999Z</time></trkpt><trkpt lat="42.72053138621717" lon="12.946725719432504"><ele>912.0000000000001</ele><time>2026-04-12T11:32:24.999Z</time></trkpt><trkpt lat="42.72063707457175" lon="12.94676114530557"><ele>916.0000000000001</ele><time>2026-04-12T11:32:26.999Z</time></trkpt><trkpt lat="42.72071995370022" lon="12.946786496532111"><ele>920.0</ele><time>2026-04-12T11:32:27.999Z</time></trkpt><trkpt lat="42.72082682181897" lon="12.946853787916563"><ele>924.0</ele><time>2026-04-12T11:32:30Z</time></trkpt><trkpt lat="42.7208969277827" lon="12.94688400060347"><ele>924.0</ele><time>2026-04-12T11:32:31Z</time></trkpt><trkpt lat="42.72096107221408" lon="12.94690819861199"><ele>924.0000000000001</ele><time>2026-04-12T11:32:32Z</time></trkpt><trkpt lat="42.72106811213886" lon="12.946923977741667"><ele>924.0000000000001</ele><time>2026-04-12T11:32:34Z</time></trkpt><trkpt lat="42.72118036084962" lon="12.9469489764769"><ele>924.0</ele><time>2026-04-12T11:32:36Z</time></trkpt><trkpt lat="42.72130106472164" lon="12.947000114615244"><ele>924.0</ele><time>2026-04-12T11:32:38Z</time></trkpt><trkpt lat="42.721408545491755" lon="12.94709190112487"><ele>918.3333333333334</ele><time>2026-04-12T11:32:40Z</time></trkpt><trkpt lat="42.72146468329418" lon="12.947168093629731"><ele>912.6666666666667</ele><time>2026-04-12T11:32:41Z</time></trkpt><trkpt lat="42.721532090468955" lon="12.94719145914032"><ele>907.0</ele><time>2026-04-12T11:32:42Z</time></trkpt><trkpt lat="42.72160757538037" lon="12.9472181553092"><ele>901.3333333333334</ele><time>2026-04-12T11:32:43Z</time></trkpt><trkpt lat="42.721706109675644" lon="12.947224287843206"><ele>895.6666666666667</ele><time>2026-04-12T11:32:44Z</time></trkpt><trkpt lat="42.72180815530158" lon="12.947230687944616"><ele>890.0</ele><time>2026-04-12T11:32:45Z</time></trkpt><trkpt lat="42.721887484598234" lon="12.94725580076772"><ele>887.0</ele><time>2026-04-12T11:32:46Z</time></trkpt><trkpt lat="42.72199831074253" lon="12.947287799577047"><ele>884.0</ele><time>2026-04-12T11:32:47Z</time></trkpt><trkpt lat="42.722092868914906" lon="12.947310380299259"><ele>881.0</ele><time>2026-04-12T11:32:48Z</time></trkpt><trkpt lat="42.72217893651539" lon="12.947339903838206"><ele>878.0</ele><time>2026-04-12T11:32:49Z</time></trkpt><trkpt lat="42.72227518728985" lon="12.947344964179548"><ele>875.0</ele><time>2026-04-12T11:32:50Z</time></trkpt><trkpt lat="42.72237638696897" lon="12.947357032437992"><ele>875.0000000000001</ele><time>2026-04-12T11:32:51Z</time></trkpt><trkpt lat="42.72246618745572" lon="12.947374615999042"><ele>875.0</ele><time>2026-04-12T11:32:52Z</time></trkpt><trkpt lat="42.72254877953715" lon="12.947405225574272"><ele>875.0</ele><time>2026-04-12T11:32:53Z</time></trkpt><trkpt lat="42.722626593885174" lon="12.947420141496966"><ele>875.0</ele><time>2026-04-12T11:32:54Z</time></trkpt><trkpt lat="42.7227182385956" lon="12.947416864986492"><ele>875.0000000000001</ele><time>2026-04-12T11:32:55Z</time></trkpt><trkpt lat="42.72280279477045" lon="12.947418819658466"><ele>875.0</ele><time>2026-04-12T11:32:56Z</time></trkpt><trkpt lat="42.72288644642933" lon="12.947413810265504"><ele>871.8</ele><time>2026-04-12T11:32:57Z</time></trkpt><trkpt lat="42.72295061581555" lon="12.947417551465707"><ele>868.6</ele><time>2026-04-12T11:32:58Z</time></trkpt><trkpt lat="42.72306224001041" lon="12.947407234563691"><ele>865.4000000000001</ele><time>2026-04-12T11:32:59Z</time></trkpt><trkpt lat="42.72315520365054" lon="12.947401148041983"><ele>862.2</ele><time>2026-04-12T11:33:00Z</time></trkpt><trkpt lat="42.723244788398375" lon="12.947400710689475"><ele>859.0</ele><time>2026-04-12T11:33:01Z</time></trkpt><trkpt lat="42.7233405528666" lon="12.947406803413601"><ele>859.0</ele><time>2026-04-12T11:33:02Z</time></trkpt><trkpt lat="42.72342137954392" lon="12.947415436464361"><ele>859.0000000000001</ele><time>2026-04-12T11:33:03Z</time></trkpt><trkpt lat="42.723518700282746" lon="12.947359881087543"><ele>859.0000000000001</ele><time>2026-04-12T11:33:04Z</time></trkpt><trkpt lat="42.72361621200219" lon="12.947379729900463"><ele>859.0</ele><time>2026-04-12T11:33:05Z</time></trkpt><trkpt lat="42.72370030209175" lon="12.947354829098838"><ele>859.0</ele><time>2026-04-12T11:33:06Z</time></trkpt><trkpt lat="42.723784967301334" lon="12.947325373389589"><ele>856.6666666666666</ele><time>2026-04-12T11:33:07Z</time></trkpt><trkpt lat="42.723861962878" lon="12.94726161469557"><ele>854.3333333333333</ele><time>2026-04-12T11:33:08Z</time></trkpt><trkpt lat="42.72393964337831" lon="12.947224478771894"><ele>852.0</ele><time>2026-04-12T11:33:09Z</time></trkpt><trkpt lat="42.724006731837534" lon="12.947195178359987"><ele>849.6666666666667</ele><time>2026-04-12T11:33:10Z</time></trkpt><trkpt lat="42.724098566951604" lon="12.94715649426222"><ele>847.3333333333334</ele><time>2026-04-12T11:33:11Z</time></trkpt><trkpt lat="42.72416526326545" lon="12.947087392538092"><ele>845.0</ele><time>2026-04-12T11:33:12Z</time></trkpt><trkpt lat="42.72423903319333" lon="12.947017290239826"><ele>845.0000000000001</ele><time>2026-04-12T11:33:13Z</time></trkpt><trkpt lat="42.72430671693788" lon="12.946968531794656"><ele>845.0</ele><time>2026-04-12T11:33:14Z</time></trkpt><trkpt lat="42.7243741187921" lon="12.94693319862206"><ele>845.0</ele><time>2026-04-12T11:33:15Z</time></trkpt><trkpt lat="42.72445860894216" lon="12.946920535285473"><ele>845.0</ele><time>2026-04-12T11:33:16.001Z</time></trkpt><trkpt lat="42.72452530853854" lon="12.946926326116392"><ele>845.0000000000001</ele><time>2026-04-12T11:33:17.001Z</time></trkpt><trkpt lat="42.72460913702612" lon="12.946914106311691"><ele>845.0</ele><time>2026-04-12T11:33:18.001Z</time></trkpt><trkpt lat="42.724684111562446" lon="12.946907769437821"><ele>844.0000000000001</ele><time>2026-04-12T11:33:19.001Z</time></trkpt><trkpt lat="42.724752651684" lon="12.946859823028515"><ele>843.0</ele><time>2026-04-12T11:33:20.001Z</time></trkpt><trkpt lat="42.72482645486388" lon="12.946824614547324"><ele>842.0</ele><time>2026-04-12T11:33:21.001Z</time></trkpt><trkpt lat="42.72490398820068" lon="12.94678404770187"><ele>841.0</ele><time>2026-04-12T11:33:22.001Z</time></trkpt><trkpt lat="42.724971992230834" lon="12.946768413394318"><ele>840.0000000000001</ele><time>2026-04-12T11:33:23.001Z</time></trkpt><trkpt lat="42.725085879399366" lon="12.94676400821654"><ele>839.0</ele><time>2026-04-12T11:33:25.001Z</time></trkpt><trkpt lat="42.72518087677985" lon="12.946657531108901"><ele>833.4000000000001</ele><time>2026-04-12T11:33:27.001Z</time></trkpt><trkpt lat="42.72527881573347" lon="12.946538473367648"><ele>827.8</ele><time>2026-04-12T11:33:29.001Z</time></trkpt><trkpt lat="42.72533229837087" lon="12.946491843837721"><ele>822.2</ele><time>2026-04-12T11:33:30.001Z</time></trkpt><trkpt lat="42.725451061525085" lon="12.946434054777182"><ele>816.5999999999999</ele><time>2026-04-12T11:33:32.001Z</time></trkpt><trkpt lat="42.725540569847915" lon="12.946419314768223"><ele>811.0</ele><time>2026-04-12T11:33:33.001Z</time></trkpt><trkpt lat="42.72561220004011" lon="12.946385291264765"><ele>811.0</ele><time>2026-04-12T11:33:34.001Z</time></trkpt><trkpt lat="42.72567831520414" lon="12.946346767812237"><ele>811.0</ele><time>2026-04-12T11:33:35.001Z</time></trkpt><trkpt lat="42.725746906654656" lon="12.946305334195236"><ele>811.0</ele><time>2026-04-12T11:33:36.001Z</time></trkpt><trkpt lat="42.725808071277854" lon="12.946278365044213"><ele>811.0</ele><time>2026-04-12T11:33:37.001Z</time></trkpt><trkpt lat="42.72587887154945" lon="12.946237026665765"><ele>811.0</ele><time>2026-04-12T11:33:38.001Z</time></trkpt><trkpt lat="42.72594545793891" lon="12.946202182228154"><ele>811.0</ele><time>2026-04-12T11:33:39.001Z</time></trkpt><trkpt lat="42.7260229866602" lon="12.94616852842097"><ele>811.0</ele><time>2026-04-12T11:33:40.001Z</time></trkpt><trkpt lat="42.72609773429339" lon="12.946108232234186"><ele>810.8333333333333</ele><time>2026-04-12T11:33:41.001Z</time></trkpt><trkpt lat="42.726156822567326" lon="12.946050506534307"><ele>810.6666666666666</ele><time>2026-04-12T11:33:42.001Z</time></trkpt><trkpt lat="42.726216684253565" lon="12.945974736294"><ele>810.5</ele><time>2026-04-12T11:33:43.001Z</time></trkpt><trkpt lat="42.726259862355725" lon="12.945905838719064"><ele>810.3333333333333</ele><time>2026-04-12T11:33:44.001Z</time></trkpt><trkpt lat="42.72628243595996" lon="12.945820153426345"><ele>810.1666666666666</ele><time>2026-04-12T11:33:45.001Z</time></trkpt><trkpt lat="42.72633463883677" lon="12.94567777415579"><ele>810.0</ele><time>2026-04-12T11:33:47.001Z</time></trkpt><trkpt lat="42.72638885127397" lon="12.945589544454135"><ele>805.4</ele><time>2026-04-12T11:33:49.001Z</time></trkpt><trkpt lat="42.72643784570882" lon="12.94550436925105"><ele>800.8</ele><time>2026-04-12T11:33:51.001Z</time></trkpt><trkpt lat="42.72648818976682" lon="12.945374405085147"><ele>796.2</ele><time>2026-04-12T11:33:53.001Z</time></trkpt><trkpt lat="42.726550145388856" lon="12.945246151917896"><ele>791.6</ele><time>2026-04-12T11:33:55.001Z</time></trkpt><trkpt lat="42.72659244951557" lon="12.9451675973077"><ele>787.0</ele><time>2026-04-12T11:33:56.001Z</time></trkpt><trkpt lat="42.72663391693554" lon="12.945077827961756"><ele>784.4999999999999</ele><time>2026-04-12T11:33:57.001Z</time></trkpt><trkpt lat="42.726680161184404" lon="12.944996418184019"><ele>782.0</ele><time>2026-04-12T11:33:58.001Z</time></trkpt><trkpt lat="42.726743166313504" lon="12.944838899032924"><ele>779.5</ele><time>2026-04-12T11:34:00.001Z</time></trkpt><trkpt lat="42.72677658372286" lon="12.944751500795581"><ele>777.0</ele><time>2026-04-12T11:34:01.001Z</time></trkpt><trkpt lat="42.72680796246693" lon="12.9446615160464"><ele>774.4999999999999</ele><time>2026-04-12T11:34:02.001Z</time></trkpt><trkpt lat="42.72682559844838" lon="12.944572512461109"><ele>772.0</ele><time>2026-04-12T11:34:03.001Z</time></trkpt><trkpt lat="42.726855375111995" lon="12.944487083084141"><ele>772.3333333333333</ele><time>2026-04-12T11:34:04.001Z</time></trkpt><trkpt lat="42.726902974560595" lon="12.944403413333987"><ele>772.6666666666666</ele><time>2026-04-12T11:34:05.001Z</time></trkpt><trkpt lat="42.726988366838626" lon="12.94427969032804"><ele>773.0</ele><time>2026-04-12T11:34:07.001Z</time></trkpt><trkpt lat="42.72703859776878" lon="12.944199442609072"><ele>773.3333333333333</ele><time>2026-04-12T11:34:08.001Z</time></trkpt><trkpt lat="42.72709802262863" lon="12.944135031448472"><ele>773.6666666666666</ele><time>2026-04-12T11:34:08.999Z</time></trkpt><trkpt lat="42.727164460553794" lon="12.944083254921953"><ele>774.0</ele><time>2026-04-12T11:34:09.999Z</time></trkpt><trkpt lat="42.727230919010395" lon="12.944017228975712"><ele>771.7142857142858</ele><time>2026-04-12T11:34:10.999Z</time></trkpt><trkpt lat="42.7272766396129" lon="12.94395177065557"><ele>769.4285714285714</ele><time>2026-04-12T11:34:11.999Z</time></trkpt><trkpt lat="42.727331329768504" lon="12.943884756248213"><ele>767.1428571428571</ele><time>2026-04-12T11:34:12.999Z</time></trkpt><trkpt lat="42.727386658996814" lon="12.943807106822064"><ele>764.8571428571429</ele><time>2026-04-12T11:34:13.999Z</time></trkpt><trkpt lat="42.727438924738216" lon="12.94373049809211"><ele>762.5714285714286</ele><time>2026-04-12T11:34:14.999Z</time></trkpt><trkpt lat="42.72748739018084" lon="12.943647026560045"><ele>760.2857142857143</ele><time>2026-04-12T11:34:15.999Z</time></trkpt><trkpt lat="42.72753928842541" lon="12.943578687873673"><ele>758.0</ele><time>2026-04-12T11:34:16.999Z</time></trkpt><trkpt lat="42.72760884891656" lon="12.943453328191822"><ele>754.5999999999999</ele><time>2026-04-12T11:34:18.999Z</time></trkpt><trkpt lat="42.72765828014984" lon="12.943348534536412"><ele>751.1999999999999</ele><time>2026-04-12T11:34:20.999Z</time></trkpt><trkpt lat="42.72769064231436" lon="12.94321991140517"><ele>747.8</ele><time>2026-04-12T11:34:22.999Z</time></trkpt><trkpt lat="42.72768400042492" lon="12.943087240339423"><ele>744.4</ele><time>2026-04-12T11:34:24.999Z</time></trkpt><trkpt lat="42.727660085192475" lon="12.943002327878299"><ele>741.0</ele><time>2026-04-12T11:34:25.999Z</time></trkpt><trkpt lat="42.7276453696415" lon="12.942826531148132"><ele>741.0</ele><time>2026-04-12T11:34:28Z</time></trkpt><trkpt lat="42.72764977328902" lon="12.942739860861181"><ele>741.0</ele><time>2026-04-12T11:34:29Z</time></trkpt><trkpt lat="42.72767160857558" lon="12.942584499099414"><ele>741.0</ele><time>2026-04-12T11:34:31Z</time></trkpt><trkpt lat="42.72768524612304" lon="12.942494762594631"><ele>741.0</ele><time>2026-04-12T11:34:32Z</time></trkpt><trkpt lat="42.727746218227914" lon="12.942350956059181"><ele>741.0</ele><time>2026-04-12T11:34:34Z</time></trkpt><trkpt lat="42.72779776600428" lon="12.942292709382144"><ele>741.0</ele><time>2026-04-12T11:34:35Z</time></trkpt><trkpt lat="42.727893960547966" lon="12.94222814032004"><ele>736.1999999999999</ele><time>2026-04-12T11:34:37Z</time></trkpt><trkpt lat="42.728026234532884" lon="12.942153623555708"><ele>731.4</ele><time>2026-04-12T11:34:39Z</time></trkpt><trkpt lat="42.7281107579437" lon="12.942138183845504"><ele>726.6</ele><time>2026-04-12T11:34:40Z</time></trkpt><trkpt lat="42.72819654814917" lon="12.942116062343763"><ele>721.8</ele><time>2026-04-12T11:34:41Z</time></trkpt><trkpt lat="42.72828592526965" lon="12.94209182100331"><ele>717.0</ele><time>2026-04-12T11:34:42Z</time></trkpt><trkpt lat="42.728385363662" lon="12.942064290570734"><ele>717.0</ele><time>2026-04-12T11:34:43Z</time></trkpt><trkpt lat="42.72845650666514" lon="12.94204972211559"><ele>717.0</ele><time>2026-04-12T11:34:44Z</time></trkpt><trkpt lat="42.728528886733166" lon="12.94203718162292"><ele>717.0</ele><time>2026-04-12T11:34:45Z</time></trkpt><trkpt lat="42.728600358114896" lon="12.942038675572977"><ele>717.0</ele><time>2026-04-12T11:34:46Z</time></trkpt><trkpt lat="42.728682072499204" lon="12.942013758848962"><ele>717.0</ele><time>2026-04-12T11:34:47Z</time></trkpt><trkpt lat="42.728756546957655" lon="12.942017935517345"><ele>717.0</ele><time>2026-04-12T11:34:48Z</time></trkpt><trkpt lat="42.7288249124299" lon="12.9420153072325"><ele>717.0</ele><time>2026-04-12T11:34:49Z</time></trkpt><trkpt lat="42.72889086735103" lon="12.942057357647222"><ele>715.6666666666666</ele><time>2026-04-12T11:34:50Z</time></trkpt><trkpt lat="42.72897319855813" lon="12.94207641044627"><ele>714.3333333333334</ele><time>2026-04-12T11:34:51Z</time></trkpt><trkpt lat="42.72905167922737" lon="12.94207293197333"><ele>713.0</ele><time>2026-04-12T11:34:52Z</time></trkpt><trkpt lat="42.72912872706167" lon="12.94203503608283"><ele>711.6666666666667</ele><time>2026-04-12T11:34:53Z</time></trkpt><trkpt lat="42.72918435439648" lon="12.941966119496298"><ele>710.3333333333334</ele><time>2026-04-12T11:34:54Z</time></trkpt><trkpt lat="42.729280832218514" lon="12.941951164693993"><ele>709.0</ele><time>2026-04-12T11:34:55Z</time></trkpt><trkpt lat="42.72933931252562" lon="12.941873040628153"><ele>707.8333333333334</ele><time>2026-04-12T11:34:57Z</time></trkpt><trkpt lat="42.729416573372205" lon="12.941787578866805"><ele>706.6666666666667</ele><time>2026-04-12T11:34:59Z</time></trkpt><trkpt lat="42.72947070655234" lon="12.941740629484153"><ele>705.5</ele><time>2026-04-12T11:35:00Z</time></trkpt><trkpt lat="42.729540733347925" lon="12.941653439365721"><ele>704.3333333333334</ele><time>2026-04-12T11:35:02Z</time></trkpt><trkpt lat="42.72960730954637" lon="12.941655753532524"><ele>703.1666666666666</ele><time>2026-04-12T11:35:03Z</time></trkpt><trkpt lat="42.729670618090836" lon="12.94166897804323"><ele>702.0</ele><time>2026-04-12T11:35:04Z</time></trkpt><trkpt lat="42.729778800813854" lon="12.94168043588208"><ele>702.0</ele><time>2026-04-12T11:35:06Z</time></trkpt><trkpt lat="42.72986658337379" lon="12.941664146309646"><ele>702.0</ele><time>2026-04-12T11:35:08.001Z</time></trkpt><trkpt lat="42.72996723568968" lon="12.94168110138683"><ele>702.0</ele><time>2026-04-12T11:35:12.001Z</time></trkpt><trkpt lat="42.73003680665079" lon="12.94176164767964"><ele>702.0</ele><time>2026-04-12T11:35:15.001Z</time></trkpt><trkpt lat="42.73013737543128" lon="12.94177158091769"><ele>702.0</ele><time>2026-04-12T11:35:18.001Z</time></trkpt><trkpt lat="42.73017818667473" lon="12.941850315980535"><ele>702.0</ele><time>2026-04-12T11:35:21.001Z</time></trkpt><trkpt lat="42.7301391562441" lon="12.941735745570181"><ele>702.0</ele><time>2026-04-12T11:35:31.001Z</time></trkpt><trkpt lat="42.73011241250192" lon="12.941654185924596"><ele>702.0</ele><time>2026-04-12T11:38:18.002Z</time></trkpt><trkpt lat="42.730048227575566" lon="12.941568898531587"><ele>702.0</ele><time>2026-04-12T11:38:22.001Z</time></trkpt><trkpt lat="42.730009824193544" lon="12.94148342133681"><ele>702.0</ele><time>2026-04-12T11:38:24.001Z</time></trkpt><trkpt lat="42.72996368285931" lon="12.941384140795604"><ele>702.0</ele><time>2026-04-12T11:38:26.001Z</time></trkpt><trkpt lat="42.72992896716815" lon="12.941309802999573"><ele>698.2</ele><time>2026-04-12T11:38:27.001Z</time></trkpt><trkpt lat="42.729884739334715" lon="12.941228568087618"><ele>694.4000000000001</ele><time>2026-04-12T11:38:28.001Z</time></trkpt><trkpt lat="42.72986676373806" lon="12.941135846130402"><ele>690.5999999999999</ele><time>2026-04-12T11:38:29.001Z</time></trkpt><trkpt lat="42.72979367799191" lon="12.941009362500587"><ele>686.8</ele><time>2026-04-12T11:38:31.001Z</time></trkpt><trkpt lat="42.72971436937219" lon="12.940901591492667"><ele>683.0</ele><time>2026-04-12T11:38:33.001Z</time></trkpt><trkpt lat="42.7296189304822" lon="12.940798081848571"><ele>681.5999999999999</ele><time>2026-04-12T11:38:35.001Z</time></trkpt><trkpt lat="42.72956048079053" lon="12.940748610584171"><ele>680.1999999999999</ele><time>2026-04-12T11:38:36.001Z</time></trkpt><trkpt lat="42.72949358915147" lon="12.94070449318535"><ele>678.8</ele><time>2026-04-12T11:38:37.001Z</time></trkpt><trkpt lat="42.729379656612224" lon="12.940636597944435"><ele>677.4</ele><time>2026-04-12T11:38:39.001Z</time></trkpt><trkpt lat="42.72924938137371" lon="12.94055972231214"><ele>676.0</ele><time>2026-04-12T11:38:41.001Z</time></trkpt><trkpt lat="42.7291658369015" lon="12.940495193148958"><ele>676.0</ele><time>2026-04-12T11:38:42.001Z</time></trkpt><trkpt lat="42.72908580214245" lon="12.940412693141663"><ele>676.0</ele><time>2026-04-12T11:38:43.001Z</time></trkpt><trkpt lat="42.728989621557815" lon="12.940286934112164"><ele>676.0</ele><time>2026-04-12T11:38:44.001Z</time></trkpt><trkpt lat="42.7289189369712" lon="12.940192866874384"><ele>676.0</ele><time>2026-04-12T11:38:45.001Z</time></trkpt><trkpt lat="42.72883430667874" lon="12.940083956121805"><ele>676.0</ele><time>2026-04-12T11:38:46.001Z</time></trkpt><trkpt lat="42.72873586588048" lon="12.939988317754395"><ele>675.25</ele><time>2026-04-12T11:38:47.001Z</time></trkpt><trkpt lat="42.728639848365695" lon="12.939864240518636"><ele>674.5</ele><time>2026-04-12T11:38:48.001Z</time></trkpt><trkpt lat="42.7285459328109" lon="12.939750519195202"><ele>673.75</ele><time>2026-04-12T11:38:49.001Z</time></trkpt><trkpt lat="42.72845653098622" lon="12.939612503284343"><ele>673.0</ele><time>2026-04-12T11:38:50.001Z</time></trkpt><trkpt lat="42.72833099203015" lon="12.939486785152823"><ele>673.0</ele><time>2026-04-12T11:38:51.001Z</time></trkpt><trkpt lat="42.72823058345103" lon="12.939335101431947"><ele>673.0</ele><time>2026-04-12T11:38:52.001Z</time></trkpt><trkpt lat="42.72813154132159" lon="12.939216877381618"><ele>673.0</ele><time>2026-04-12T11:38:53.001Z</time></trkpt><trkpt lat="42.72802601288949" lon="12.93910795627021"><ele>673.0</ele><time>2026-04-12T11:38:54.001Z</time></trkpt><trkpt lat="42.72791251068461" lon="12.938959364778263"><ele>675.6666666666667</ele><time>2026-04-12T11:38:55.001Z</time></trkpt><trkpt lat="42.72776353104005" lon="12.938807231842278"><ele>678.3333333333334</ele><time>2026-04-12T11:38:56.001Z</time></trkpt><trkpt lat="42.72760612045651" lon="12.938618190118282"><ele>681.0</ele><time>2026-04-12T11:38:57.001Z</time></trkpt><trkpt lat="42.727420528975365" lon="12.938407633383319"><ele>686.0</ele><time>2026-04-12T11:38:58.001Z</time></trkpt><trkpt lat="42.72725352560072" lon="12.938211552819809"><ele>691.0</ele><time>2026-04-12T11:38:59.001Z</time></trkpt><trkpt lat="42.727115589898844" lon="12.93805648993411"><ele>696.0</ele><time>2026-04-12T11:39:00.001Z</time></trkpt><trkpt lat="42.72699580052821" lon="12.937922138117742"><ele>697.75</ele><time>2026-04-12T11:39:01.001Z</time></trkpt><trkpt lat="42.72688736925313" lon="12.937808678477165"><ele>699.5</ele><time>2026-04-12T11:39:02.001Z</time></trkpt><trkpt lat="42.72677853792684" lon="12.937703892714378"><ele>701.25</ele><time>2026-04-12T11:39:03.001Z</time></trkpt><trkpt lat="42.726669627393605" lon="12.937608708371586"><ele>703.0</ele><time>2026-04-12T11:39:04.001Z</time></trkpt><trkpt lat="42.72656481652378" lon="12.937516237236165"><ele>703.0</ele><time>2026-04-12T11:39:05.001Z</time></trkpt><trkpt lat="42.72645859864516" lon="12.93743187331325"><ele>703.0</ele><time>2026-04-12T11:39:06.001Z</time></trkpt><trkpt lat="42.72633966480994" lon="12.93735258225235"><ele>703.0</ele><time>2026-04-12T11:39:07.001Z</time></trkpt><trkpt lat="42.72620041853363" lon="12.93727771014266"><ele>703.0</ele><time>2026-04-12T11:39:08.001Z</time></trkpt><trkpt lat="42.72605529245656" lon="12.937206079597852"><ele>701.6666666666667</ele><time>2026-04-12T11:39:09.001Z</time></trkpt><trkpt lat="42.725906444894214" lon="12.937134644606733"><ele>700.3333333333334</ele><time>2026-04-12T11:39:10.001Z</time></trkpt><trkpt lat="42.72574780049878" lon="12.9370598187872"><ele>699.0</ele><time>2026-04-12T11:39:11.001Z</time></trkpt><trkpt lat="42.725577323661746" lon="12.936996857595693"><ele>699.0</ele><time>2026-04-12T11:39:12.001Z</time></trkpt><trkpt lat="42.72539720768748" lon="12.936918102076449"><ele>699.0</ele><time>2026-04-12T11:39:13.001Z</time></trkpt><trkpt lat="42.72524760072305" lon="12.936798974680748"><ele>699.0</ele><time>2026-04-12T11:39:14.001Z</time></trkpt><trkpt lat="42.72514099486241" lon="12.936663718233593"><ele>704.0</ele><time>2026-04-12T11:39:15.001Z</time></trkpt><trkpt lat="42.72502538733888" lon="12.936493137727442"><ele>709.0</ele><time>2026-04-12T11:39:16.001Z</time></trkpt><trkpt lat="42.72487926519227" lon="12.936298596475764"><ele>714.0</ele><time>2026-04-12T11:39:17.001Z</time></trkpt><trkpt lat="42.724718916800015" lon="12.936099404810978"><ele>714.0</ele><time>2026-04-12T11:39:18.001Z</time></trkpt><trkpt lat="42.72452219098373" lon="12.935890288182426"><ele>714.0</ele><time>2026-04-12T11:39:19.001Z</time></trkpt><trkpt lat="42.7243300805209" lon="12.935686890216312"><ele>717.5</ele><time>2026-04-12T11:39:20.001Z</time></trkpt><trkpt lat="42.72416338254174" lon="12.93545753186964"><ele>721.0</ele><time>2026-04-12T11:39:21.001Z</time></trkpt><trkpt lat="42.72399639438554" lon="12.935238846769986"><ele>728.6666666666667</ele><time>2026-04-12T11:39:22.001Z</time></trkpt><trkpt lat="42.72384485327093" lon="12.935014536029136"><ele>736.3333333333334</ele><time>2026-04-12T11:39:23.001Z</time></trkpt><trkpt lat="42.72372501965526" lon="12.93475831187089"><ele>744.0</ele><time>2026-04-12T11:39:24.001Z</time></trkpt><trkpt lat="42.723627568863755" lon="12.93447711000367"><ele>740.0</ele><time>2026-04-12T11:39:25.001Z</time></trkpt><trkpt lat="42.723537579132866" lon="12.9341712211424"><ele>736.0</ele><time>2026-04-12T11:39:26.001Z</time></trkpt><trkpt lat="42.72342635377897" lon="12.933883344555014"><ele>736.0</ele><time>2026-04-12T11:39:27.001Z</time></trkpt><trkpt lat="42.72330554408987" lon="12.933634642190038"><ele>736.0</ele><time>2026-04-12T11:39:28.001Z</time></trkpt><trkpt lat="42.72314682340119" lon="12.933393152893634"><ele>748.0</ele><time>2026-04-12T11:39:29.001Z</time></trkpt><trkpt lat="42.72298191280351" lon="12.933139832141226"><ele>760.0</ele><time>2026-04-12T11:39:30.001Z</time></trkpt><trkpt lat="42.72282403519954" lon="12.932872109658486"><ele>757.5</ele><time>2026-04-12T11:39:31.001Z</time></trkpt><trkpt lat="42.72265465065272" lon="12.932625222089962"><ele>755.0</ele><time>2026-04-12T11:39:32.001Z</time></trkpt><trkpt lat="42.72250066888757" lon="12.93242107708676"><ele>755.0</ele><time>2026-04-12T11:39:33.001Z</time></trkpt><trkpt lat="42.72235499691243" lon="12.932231143628472"><ele>755.0</ele><time>2026-04-12T11:39:34.001Z</time></trkpt><trkpt lat="42.722238700142555" lon="12.932040004672833"><ele>755.0</ele><time>2026-04-12T11:39:35.002Z</time></trkpt><trkpt lat="42.7221861868783" lon="12.93183021570301"><ele>761.6666666666666</ele><time>2026-04-12T11:39:36.002Z</time></trkpt><trkpt lat="42.722156752777785" lon="12.931631381613453"><ele>768.3333333333333</ele><time>2026-04-12T11:39:37.002Z</time></trkpt><trkpt lat="42.72215599633309" lon="12.931416561035084"><ele>775.0</ele><time>2026-04-12T11:39:38.002Z</time></trkpt><trkpt lat="42.722205785697106" lon="12.93121384366011"><ele>775.0</ele><time>2026-04-12T11:39:39.002Z</time></trkpt><trkpt lat="42.7222734285302" lon="12.93097951992115"><ele>775.0</ele><time>2026-04-12T11:39:40.002Z</time></trkpt><trkpt lat="42.722328005791596" lon="12.930740488115843"><ele>775.0</ele><time>2026-04-12T11:39:41.002Z</time></trkpt><trkpt lat="42.722405385464626" lon="12.930512550946332"><ele>776.0</ele><time>2026-04-12T11:39:42.002Z</time></trkpt><trkpt lat="42.722474690520556" lon="12.930297895316532"><ele>777.0</ele><time>2026-04-12T11:39:43.002Z</time></trkpt><trkpt lat="42.72252893694638" lon="12.93008411828708"><ele>778.0</ele><time>2026-04-12T11:39:44.002Z</time></trkpt><trkpt lat="42.722563988643614" lon="12.929880993004218"><ele>778.0</ele><time>2026-04-12T11:39:45.002Z</time></trkpt><trkpt lat="42.72257809560849" lon="12.929686491656222"><ele>778.0</ele><time>2026-04-12T11:39:46.002Z</time></trkpt><trkpt lat="42.72258849646396" lon="12.929494751786073"><ele>778.0</ele><time>2026-04-12T11:39:47.002Z</time></trkpt><trkpt lat="42.72263924093401" lon="12.92934181138754"><ele>778.0</ele><time>2026-04-12T11:39:48.002Z</time></trkpt><trkpt lat="42.72271563616601" lon="12.929246764541316"><ele>782.0</ele><time>2026-04-12T11:39:49.002Z</time></trkpt><trkpt lat="42.72280958373205" lon="12.929203062385433"><ele>786.0</ele><time>2026-04-12T11:39:50.002Z</time></trkpt><trkpt lat="42.722906355713924" lon="12.929262637477454"><ele>790.0</ele><time>2026-04-12T11:39:51.002Z</time></trkpt><trkpt lat="42.72299084939076" lon="12.92932903471613"><ele>794.0</ele><time>2026-04-12T11:39:52.002Z</time></trkpt><trkpt lat="42.723023066660545" lon="12.929493631113777"><ele>798.0</ele><time>2026-04-12T11:39:53.002Z</time></trkpt><trkpt lat="42.722961471113" lon="12.929656873619301"><ele>798.5999999999999</ele><time>2026-04-12T11:39:54.002Z</time></trkpt><trkpt lat="42.72290817501523" lon="12.92982244316993"><ele>799.1999999999999</ele><time>2026-04-12T11:39:55.002Z</time></trkpt><trkpt lat="42.7228328238422" lon="12.929962031886847"><ele>799.8</ele><time>2026-04-12T11:39:56.002Z</time></trkpt><trkpt lat="42.72278002280067" lon="12.930064616059875"><ele>800.4</ele><time>2026-04-12T11:39:57.002Z</time></trkpt><trkpt lat="42.72273640660885" lon="12.930175513365148"><ele>801.0</ele><time>2026-04-12T11:39:58.002Z</time></trkpt><trkpt lat="42.72270609868187" lon="12.930289582461628"><ele>803.1666666666666</ele><time>2026-04-12T11:39:59.002Z</time></trkpt><trkpt lat="42.72270781115076" lon="12.930397896602315"><ele>805.3333333333333</ele><time>2026-04-12T11:40:00.002Z</time></trkpt><trkpt lat="42.72275972346309" lon="12.93048372364265"><ele>807.5</ele><time>2026-04-12T11:40:01.002Z</time></trkpt><trkpt lat="42.72284791868858" lon="12.9305203791781"><ele>809.6666666666666</ele><time>2026-04-12T11:40:02.002Z</time></trkpt><trkpt lat="42.72293616564469" lon="12.930491299291361"><ele>811.8333333333333</ele><time>2026-04-12T11:40:03.002Z</time></trkpt><trkpt lat="42.72300640584511" lon="12.930406745130881"><ele>814.0</ele><time>2026-04-12T11:40:04.002Z</time></trkpt><trkpt lat="42.72305371771108" lon="12.930301970730934"><ele>814.0</ele><time>2026-04-12T11:40:05.002Z</time></trkpt><trkpt lat="42.72310184623245" lon="12.93018989693518"><ele>814.0</ele><time>2026-04-12T11:40:06.002Z</time></trkpt><trkpt lat="42.72315850978475" lon="12.93008359434515"><ele>814.0</ele><time>2026-04-12T11:40:07.002Z</time></trkpt><trkpt lat="42.72322169527364" lon="12.929979791616567"><ele>814.0</ele><time>2026-04-12T11:40:08.002Z</time></trkpt><trkpt lat="42.723295007059164" lon="12.929876213839979"><ele>814.0</ele><time>2026-04-12T11:40:09.002Z</time></trkpt><trkpt lat="42.723380624853654" lon="12.929770740545644"><ele>810.75</ele><time>2026-04-12T11:40:10.002Z</time></trkpt><trkpt lat="42.72347146804601" lon="12.929662856952543"><ele>807.5</ele><time>2026-04-12T11:40:11.002Z</time></trkpt><trkpt lat="42.72356141770326" lon="12.929552391617754"><ele>804.25</ele><time>2026-04-12T11:40:12.002Z</time></trkpt><trkpt lat="42.72364440084918" lon="12.929430507408764"><ele>801.0</ele><time>2026-04-12T11:40:13.002Z</time></trkpt><trkpt lat="42.72371036870244" lon="12.929291697709512"><ele>805.75</ele><time>2026-04-12T11:40:14.002Z</time></trkpt><trkpt lat="42.72374544811138" lon="12.929127883021415"><ele>810.5</ele><time>2026-04-12T11:40:15.002Z</time></trkpt><trkpt lat="42.723748219034874" lon="12.928948509774694"><ele>815.25</ele><time>2026-04-12T11:40:16.002Z</time></trkpt><trkpt lat="42.72371117558632" lon="12.928768390045471"><ele>820.0</ele><time>2026-04-12T11:40:17.002Z</time></trkpt><trkpt lat="42.72363909623918" lon="12.92859757468668"><ele>817.0</ele><time>2026-04-12T11:40:18.002Z</time></trkpt><trkpt lat="42.72353775279831" lon="12.92843412983368"><ele>814.0</ele><time>2026-04-12T11:40:19.002Z</time></trkpt><trkpt lat="42.72342256748097" lon="12.928276475491765"><ele>811.0</ele><time>2026-04-12T11:40:20.002Z</time></trkpt><trkpt lat="42.72330665445146" lon="12.928103745891834"><ele>811.0</ele><time>2026-04-12T11:40:21.002Z</time></trkpt><trkpt lat="42.723197195539115" lon="12.927915155304271"><ele>811.0</ele><time>2026-04-12T11:40:22.002Z</time></trkpt><trkpt lat="42.72309715130207" lon="12.927721131314414"><ele>811.0</ele><time>2026-04-12T11:40:23.002Z</time></trkpt><trkpt lat="42.723005717205716" lon="12.927528274267155"><ele>818.6666666666666</ele><time>2026-04-12T11:40:24.002Z</time></trkpt><trkpt lat="42.722916673078196" lon="12.927334425407448"><ele>826.3333333333333</ele><time>2026-04-12T11:40:25.002Z</time></trkpt><trkpt lat="42.722827422244855" lon="12.927143601923886"><ele>834.0</ele><time>2026-04-12T11:40:26.002Z</time></trkpt><trkpt lat="42.72273812489323" lon="12.926960627766903"><ele>831.6666666666667</ele><time>2026-04-12T11:40:27Z</time></trkpt><trkpt lat="42.72264674878479" lon="12.926772274228904"><ele>829.3333333333334</ele><time>2026-04-12T11:40:28Z</time></trkpt><trkpt lat="42.72255741549219" lon="12.926596362552974"><ele>827.0</ele><time>2026-04-12T11:40:29Z</time></trkpt><trkpt lat="42.72246593945929" lon="12.926442989343863"><ele>827.0</ele><time>2026-04-12T11:40:30Z</time></trkpt><trkpt lat="42.722373448979376" lon="12.92631810840695"><ele>827.0</ele><time>2026-04-12T11:40:31Z</time></trkpt><trkpt lat="42.722282657126975" lon="12.926215463971403"><ele>827.0</ele><time>2026-04-12T11:40:32Z</time></trkpt><trkpt lat="42.72220804472599" lon="12.926130715614411"><ele>827.0</ele><time>2026-04-12T11:40:33Z</time></trkpt><trkpt lat="42.722149432712094" lon="12.926086772886261"><ele>827.0</ele><time>2026-04-12T11:40:34Z</time></trkpt><trkpt lat="42.72208934042353" lon="12.926037845253234"><ele>827.0000000000001</ele><time>2026-04-12T11:40:36Z</time></trkpt><trkpt lat="42.722025788248445" lon="12.925966353990646"><ele>827.0</ele><time>2026-04-12T11:40:39Z</time></trkpt><trkpt lat="42.72210503722917" lon="12.925912285594341"><ele>827.0</ele><time>2026-04-12T11:40:45Z</time></trkpt><trkpt lat="42.72215659692908" lon="12.925991291455665"><ele>827.0</ele><time>2026-04-12T11:40:48Z</time></trkpt><trkpt lat="42.72224109511099" lon="12.926044725297857"><ele>827.0000000000001</ele><time>2026-04-12T11:41:44.001Z</time></trkpt><trkpt lat="42.7223356922295" lon="12.926092064729188"><ele>827.0</ele><time>2026-04-12T11:41:46.001Z</time></trkpt><trkpt lat="42.722395181235775" lon="12.926141999243807"><ele>827.0000000000001</ele><time>2026-04-12T11:41:47.001Z</time></trkpt><trkpt lat="42.72245176140756" lon="12.92620002432159"><ele>827.0</ele><time>2026-04-12T11:41:48.001Z</time></trkpt><trkpt lat="42.72251115047692" lon="12.926254426408015"><ele>827.0</ele><time>2026-04-12T11:41:49.001Z</time></trkpt><trkpt lat="42.722570743947266" lon="12.92631982664455"><ele>827.0</ele><time>2026-04-12T11:41:50.001Z</time></trkpt><trkpt lat="42.72264457528219" lon="12.92641512354577"><ele>827.0000000000001</ele><time>2026-04-12T11:41:51.001Z</time></trkpt><trkpt lat="42.72274186234858" lon="12.92652345684725"><ele>827.0</ele><time>2026-04-12T11:41:52.001Z</time></trkpt><trkpt lat="42.72285843597506" lon="12.926686795059533"><ele>829.3333333333334</ele><time>2026-04-12T11:41:53.001Z</time></trkpt><trkpt lat="42.72301365900156" lon="12.9268531389668"><ele>831.6666666666667</ele><time>2026-04-12T11:41:54.001Z</time></trkpt><trkpt lat="42.723187131569595" lon="12.926986999658704"><ele>834.0</ele><time>2026-04-12T11:41:55.001Z</time></trkpt><trkpt lat="42.723341916819635" lon="12.927086845462938"><ele>834.0</ele><time>2026-04-12T11:41:56.001Z</time></trkpt><trkpt lat="42.72351757682284" lon="12.927123012464165"><ele>834.0</ele><time>2026-04-12T11:41:57.001Z</time></trkpt><trkpt lat="42.72367376158759" lon="12.927183884872042"><ele>834.0</ele><time>2026-04-12T11:41:58.001Z</time></trkpt><trkpt lat="42.72380661416792" lon="12.927291218335737"><ele>834.3333333333333</ele><time>2026-04-12T11:41:59.001Z</time></trkpt><trkpt lat="42.72390403789324" lon="12.927457811968491"><ele>834.6666666666666</ele><time>2026-04-12T11:42:00.001Z</time></trkpt><trkpt lat="42.72398815732832" lon="12.92762683395966"><ele>835.0</ele><time>2026-04-12T11:42:01.002Z</time></trkpt><trkpt lat="42.7240985108558" lon="12.927762477354339"><ele>835.0</ele><time>2026-04-12T11:42:02.002Z</time></trkpt><trkpt lat="42.72424009763182" lon="12.927842680848377"><ele>835.0</ele><time>2026-04-12T11:42:03.002Z</time></trkpt><trkpt lat="42.72441353059512" lon="12.927866944196856"><ele>835.0</ele><time>2026-04-12T11:42:04.002Z</time></trkpt><trkpt lat="42.72459351199911" lon="12.927877932486929"><ele>847.3333333333333</ele><time>2026-04-12T11:42:05.002Z</time></trkpt><trkpt lat="42.72474946083499" lon="12.92789085772457"><ele>859.6666666666667</ele><time>2026-04-12T11:42:06.002Z</time></trkpt><trkpt lat="42.72488943501452" lon="12.927940508285523"><ele>872.0</ele><time>2026-04-12T11:42:07.002Z</time></trkpt><trkpt lat="42.725022405135924" lon="12.928031709890732"><ele>872.0</ele><time>2026-04-12T11:42:08.002Z</time></trkpt><trkpt lat="42.725133784936986" lon="12.928210045691927"><ele>872.0</ele><time>2026-04-12T11:42:09.002Z</time></trkpt><trkpt lat="42.725221087603366" lon="12.928408040329774"><ele>872.0</ele><time>2026-04-12T11:42:10.002Z</time></trkpt><trkpt lat="42.72529867523551" lon="12.92863171986449"><ele>874.6666666666667</ele><time>2026-04-12T11:42:11.002Z</time></trkpt><trkpt lat="42.725366045033326" lon="12.928871839334922"><ele>877.3333333333333</ele><time>2026-04-12T11:42:12.002Z</time></trkpt><trkpt lat="42.72540637898393" lon="12.929098938720957"><ele>880.0</ele><time>2026-04-12T11:42:13.002Z</time></trkpt><trkpt lat="42.7254506653766" lon="12.929279461364056"><ele>880.0</ele><time>2026-04-12T11:42:14.002Z</time></trkpt><trkpt lat="42.725538948485024" lon="12.929430316237719"><ele>880.0</ele><time>2026-04-12T11:42:15.002Z</time></trkpt><trkpt lat="42.72567628049349" lon="12.929552913070697"><ele>880.0</ele><time>2026-04-12T11:42:16.002Z</time></trkpt><trkpt lat="42.72584427456845" lon="12.929666988118713"><ele>880.0</ele><time>2026-04-12T11:42:17.002Z</time></trkpt><trkpt lat="42.72603628845473" lon="12.929792974775426"><ele>880.0</ele><time>2026-04-12T11:42:18.002Z</time></trkpt><trkpt lat="42.72622337140236" lon="12.929928870863863"><ele>880.0</ele><time>2026-04-12T11:42:19.002Z</time></trkpt><trkpt lat="42.72638678232938" lon="12.930076589602827"><ele>884.3333333333333</ele><time>2026-04-12T11:42:20.002Z</time></trkpt><trkpt lat="42.726530126304084" lon="12.930198905800728"><ele>888.6666666666667</ele><time>2026-04-12T11:42:21.002Z</time></trkpt><trkpt lat="42.72667482207627" lon="12.93029708577562"><ele>893.0</ele><time>2026-04-12T11:42:22.002Z</time></trkpt><trkpt lat="42.72683116759225" lon="12.930354188765245"><ele>895.6666666666667</ele><time>2026-04-12T11:42:23.002Z</time></trkpt><trkpt lat="42.727015545236185" lon="12.93036390189622"><ele>898.3333333333333</ele><time>2026-04-12T11:42:24.002Z</time></trkpt><trkpt lat="42.727175848109184" lon="12.930344852735573"><ele>901.0</ele><time>2026-04-12T11:42:25.002Z</time></trkpt><trkpt lat="42.72733252729293" lon="12.930325917222284"><ele>901.0</ele><time>2026-04-12T11:42:26.002Z</time></trkpt><trkpt lat="42.7274730728603" lon="12.930322011464447"><ele>900.9999999999999</ele><time>2026-04-12T11:42:27.002Z</time></trkpt><trkpt lat="42.72758919516659" lon="12.930329137629062"><ele>900.9999999999999</ele><time>2026-04-12T11:42:28.002Z</time></trkpt><trkpt lat="42.727684157057936" lon="12.930341309359157"><ele>901.0</ele><time>2026-04-12T11:42:29.002Z</time></trkpt><trkpt lat="42.727752928345296" lon="12.930338959838288"><ele>901.0</ele><time>2026-04-12T11:42:30.002Z</time></trkpt><trkpt lat="42.727813165449376" lon="12.93036551954804"><ele>899.1666666666666</ele><time>2026-04-12T11:42:32.002Z</time></trkpt><trkpt lat="42.72785265669987" lon="12.930288505640592"><ele>897.3333333333333</ele><time>2026-04-12T11:42:33Z</time></trkpt><trkpt lat="42.727894857510464" lon="12.930202905560801"><ele>895.5</ele><time>2026-04-12T11:42:36Z</time></trkpt><trkpt lat="42.72793536069439" lon="12.930128873329897"><ele>893.6666666666667</ele><time>2026-04-12T11:42:39Z</time></trkpt><trkpt lat="42.72801047699989" lon="12.93004968204918"><ele>891.8333333333334</ele><time>2026-04-12T11:42:42Z</time></trkpt><trkpt lat="42.728059297595316" lon="12.929981361006778"><ele>890.0</ele><time>2026-04-12T11:42:43Z</time></trkpt><trkpt lat="42.728113604007" lon="12.929907109961537"><ele>889.4</ele><time>2026-04-12T11:42:44Z</time></trkpt><trkpt lat="42.7281788540262" lon="12.929821572682911"><ele>888.8</ele><time>2026-04-12T11:42:45Z</time></trkpt><trkpt lat="42.72824741694863" lon="12.92974605906525"><ele>888.2</ele><time>2026-04-12T11:42:46Z</time></trkpt><trkpt lat="42.728327152434886" lon="12.929666929958273"><ele>887.6</ele><time>2026-04-12T11:42:47Z</time></trkpt><trkpt lat="42.728422594326865" lon="12.929599256932589"><ele>887.0</ele><time>2026-04-12T11:42:48Z</time></trkpt><trkpt lat="42.72852660388724" lon="12.929576763634463"><ele>885.75</ele><time>2026-04-12T11:42:49Z</time></trkpt><trkpt lat="42.72864340882903" lon="12.929564957013742"><ele>884.5</ele><time>2026-04-12T11:42:50Z</time></trkpt><trkpt lat="42.728760562476594" lon="12.929563573662318"><ele>883.25</ele><time>2026-04-12T11:42:51Z</time></trkpt><trkpt lat="42.72888769627965" lon="12.929567805931063"><ele>882.0</ele><time>2026-04-12T11:42:52Z</time></trkpt><trkpt lat="42.729013876912" lon="12.929571760638144"><ele>882.0</ele><time>2026-04-12T11:42:53Z</time></trkpt><trkpt lat="42.729137529219514" lon="12.929574270617213"><ele>882.0</ele><time>2026-04-12T11:42:54Z</time></trkpt><trkpt lat="42.729261070834326" lon="12.92957608599855"><ele>882.0</ele><time>2026-04-12T11:42:55Z</time></trkpt><trkpt lat="42.729384935780836" lon="12.929552429658736"><ele>882.0</ele><time>2026-04-12T11:42:56Z</time></trkpt><trkpt lat="42.72951002194305" lon="12.92954492820331"><ele>881.25</ele><time>2026-04-12T11:42:57Z</time></trkpt><trkpt lat="42.729634172452755" lon="12.929503734730412"><ele>880.5</ele><time>2026-04-12T11:42:58Z</time></trkpt><trkpt lat="42.729750322845995" lon="12.929427293949281"><ele>879.75</ele><time>2026-04-12T11:42:59Z</time></trkpt><trkpt lat="42.72986227490929" lon="12.929325912403696"><ele>879.0</ele><time>2026-04-12T11:43:00Z</time></trkpt><trkpt lat="42.729980875507" lon="12.929219789811038"><ele>883.0</ele><time>2026-04-12T11:43:01Z</time></trkpt><trkpt lat="42.7301061962401" lon="12.929131578549356"><ele>887.0</ele><time>2026-04-12T11:43:02Z</time></trkpt><trkpt lat="42.730228004512966" lon="12.92908775558068"><ele>891.0</ele><time>2026-04-12T11:43:03Z</time></trkpt><trkpt lat="42.7303575169444" lon="12.929124030403951"><ele>895.0</ele><time>2026-04-12T11:43:04Z</time></trkpt><trkpt lat="42.730509098430865" lon="12.929172968681042"><ele>889.3333333333333</ele><time>2026-04-12T11:43:05Z</time></trkpt><trkpt lat="42.73067520863015" lon="12.92927063307328"><ele>883.6666666666667</ele><time>2026-04-12T11:43:06Z</time></trkpt><trkpt lat="42.73086538664855" lon="12.929373965290306"><ele>878.0</ele><time>2026-04-12T11:43:07Z</time></trkpt><trkpt lat="42.7310344992251" lon="12.92944522732705"><ele>876.25</ele><time>2026-04-12T11:43:08Z</time></trkpt><trkpt lat="42.7311700442316" lon="12.9294665978693"><ele>874.5</ele><time>2026-04-12T11:43:09Z</time></trkpt><trkpt lat="42.731283403242394" lon="12.929436482393445"><ele>872.75</ele><time>2026-04-12T11:43:10.001Z</time></trkpt><trkpt lat="42.73140455032782" lon="12.929344010937934"><ele>871.0</ele><time>2026-04-12T11:43:11.001Z</time></trkpt><trkpt lat="42.73153314084441" lon="12.929193649428736"><ele>869.5</ele><time>2026-04-12T11:43:12.001Z</time></trkpt><trkpt lat="42.73164511189969" lon="12.929015763559235"><ele>868.0</ele><time>2026-04-12T11:43:13.001Z</time></trkpt><trkpt lat="42.73173828076967" lon="12.928874294331"><ele>866.5</ele><time>2026-04-12T11:43:14.001Z</time></trkpt><trkpt lat="42.731829546154266" lon="12.928766130157713"><ele>865.0</ele><time>2026-04-12T11:43:15.001Z</time></trkpt><trkpt lat="42.73192095350882" lon="12.928664708901326"><ele>865.0</ele><time>2026-04-12T11:43:16.001Z</time></trkpt><trkpt lat="42.73200520099241" lon="12.92857669191477"><ele>865.0</ele><time>2026-04-12T11:43:17.001Z</time></trkpt><trkpt lat="42.73207834251987" lon="12.928480216931415"><ele>865.0</ele><time>2026-04-12T11:43:18.001Z</time></trkpt><trkpt lat="42.73213188044897" lon="12.928357819935538"><ele>865.0</ele><time>2026-04-12T11:43:19.001Z</time></trkpt><trkpt lat="42.732176331577136" lon="12.928207744245439"><ele>865.0</ele><time>2026-04-12T11:43:20.001Z</time></trkpt><trkpt lat="42.73220572172322" lon="12.928052746258272"><ele>868.4</ele><time>2026-04-12T11:43:21.001Z</time></trkpt><trkpt lat="42.73223881029224" lon="12.927924271703036"><ele>871.8</ele><time>2026-04-12T11:43:22.001Z</time></trkpt><trkpt lat="42.73230634449631" lon="12.927811640795346"><ele>875.2</ele><time>2026-04-12T11:43:23.001Z</time></trkpt><trkpt lat="42.73235344619905" lon="12.927700032804985"><ele>878.6</ele><time>2026-04-12T11:43:24.001Z</time></trkpt><trkpt lat="42.732431139453034" lon="12.927607777305317"><ele>882.0</ele><time>2026-04-12T11:43:25.001Z</time></trkpt><trkpt lat="42.7325247413688" lon="12.927538677160074"><ele>883.75</ele><time>2026-04-12T11:43:26.001Z</time></trkpt><trkpt lat="42.7326327363849" lon="12.927493213278249"><ele>885.5</ele><time>2026-04-12T11:43:27.001Z</time></trkpt><trkpt lat="42.73274105130947" lon="12.92748910719207"><ele>887.25</ele><time>2026-04-12T11:43:28.001Z</time></trkpt><trkpt lat="42.732850985023084" lon="12.927519816710815"><ele>889.0</ele><time>2026-04-12T11:43:29.001Z</time></trkpt><trkpt lat="42.73292723133788" lon="12.927652131690813"><ele>889.0</ele><time>2026-04-12T11:43:30.001Z</time></trkpt><trkpt lat="42.73297039403681" lon="12.927766787738024"><ele>889.0</ele><time>2026-04-12T11:43:31.001Z</time></trkpt><trkpt lat="42.733043384579915" lon="12.927934973013544"><ele>889.0</ele><time>2026-04-12T11:43:32.001Z</time></trkpt><trkpt lat="42.733143423101595" lon="12.928020271654301"><ele>889.0</ele><time>2026-04-12T11:43:33.001Z</time></trkpt><trkpt lat="42.73328201307249" lon="12.928082905206091"><ele>889.0</ele><time>2026-04-12T11:43:34.001Z</time></trkpt><trkpt lat="42.73343946386402" lon="12.928166654621203"><ele>889.0</ele><time>2026-04-12T11:43:35.001Z</time></trkpt><trkpt lat="42.73360208598401" lon="12.92829230737467"><ele>889.0</ele><time>2026-04-12T11:43:36.001Z</time></trkpt><trkpt lat="42.73371878332231" lon="12.928455293349757"><ele>888.6666666666666</ele><time>2026-04-12T11:43:37.001Z</time></trkpt><trkpt lat="42.73378860009594" lon="12.928692393324217"><ele>888.3333333333333</ele><time>2026-04-12T11:43:38.001Z</time></trkpt><trkpt lat="42.733795379251866" lon="12.928911037010492"><ele>888.0</ele><time>2026-04-12T11:43:39.001Z</time></trkpt><trkpt lat="42.7338097894548" lon="12.929089822315419"><ele>884.8</ele><time>2026-04-12T11:43:40.001Z</time></trkpt><trkpt lat="42.73381280199854" lon="12.929235331292777"><ele>881.5999999999999</ele><time>2026-04-12T11:43:41.001Z</time></trkpt><trkpt lat="42.73386104498844" lon="12.929366594711437"><ele>878.4000000000001</ele><time>2026-04-12T11:43:42.001Z</time></trkpt><trkpt lat="42.73395366256449" lon="12.929462769025236"><ele>875.2</ele><time>2026-04-12T11:43:43.001Z</time></trkpt><trkpt lat="42.73406269097833" lon="12.929488587311386"><ele>872.0</ele><time>2026-04-12T11:43:44.001Z</time></trkpt><trkpt lat="42.734158642277436" lon="12.929479177600323"><ele>872.0</ele><time>2026-04-12T11:43:45.001Z</time></trkpt><trkpt lat="42.73424319189085" lon="12.929398293880396"><ele>872.0</ele><time>2026-04-12T11:43:46.001Z</time></trkpt><trkpt lat="42.73429402865442" lon="12.9292519849899"><ele>872.0</ele><time>2026-04-12T11:43:47.001Z</time></trkpt><trkpt lat="42.73434499705421" lon="12.929050539182763"><ele>872.0</ele><time>2026-04-12T11:43:48.001Z</time></trkpt><trkpt lat="42.73442133523801" lon="12.928817873062895"><ele>874.0</ele><time>2026-04-12T11:43:49.001Z</time></trkpt><trkpt lat="42.73452163463077" lon="12.928585243867605"><ele>876.0</ele><time>2026-04-12T11:43:50.001Z</time></trkpt><trkpt lat="42.734617148626356" lon="12.92842051137058"><ele>878.0</ele><time>2026-04-12T11:43:51.001Z</time></trkpt><trkpt lat="42.734716045102715" lon="12.92828316561903"><ele>880.75</ele><time>2026-04-12T11:43:52.001Z</time></trkpt><trkpt lat="42.73483082863041" lon="12.928216901264898"><ele>883.5</ele><time>2026-04-12T11:43:53.001Z</time></trkpt><trkpt lat="42.73495616178614" lon="12.92822173442869"><ele>886.25</ele><time>2026-04-12T11:43:54.001Z</time></trkpt><trkpt lat="42.735098005625716" lon="12.92828853121108"><ele>889.0</ele><time>2026-04-12T11:43:55.001Z</time></trkpt><trkpt lat="42.735229916500465" lon="12.928396661891995"><ele>889.0</ele><time>2026-04-12T11:43:56.001Z</time></trkpt><trkpt lat="42.73533531138622" lon="12.92851522357713"><ele>889.0000000000001</ele><time>2026-04-12T11:43:57.001Z</time></trkpt><trkpt lat="42.735434750536434" lon="12.928594186104002"><ele>889.0000000000001</ele><time>2026-04-12T11:43:58.001Z</time></trkpt><trkpt lat="42.735527678645674" lon="12.92865701195929"><ele>889.0</ele><time>2026-04-12T11:43:59.001Z</time></trkpt><trkpt lat="42.73560708780311" lon="12.928722447421281"><ele>889.0</ele><time>2026-04-12T11:44:00.001Z</time></trkpt><trkpt lat="42.735681479347164" lon="12.928779129596224"><ele>888.9999999999999</ele><time>2026-04-12T11:44:01.001Z</time></trkpt><trkpt lat="42.73575189460928" lon="12.92882928522817"><ele>889.0</ele><time>2026-04-12T11:44:02.001Z</time></trkpt><trkpt lat="42.73582209614548" lon="12.928871276351124"><ele>889.0</ele><time>2026-04-12T11:44:03.001Z</time></trkpt><trkpt lat="42.73593125090256" lon="12.928888532729921"><ele>889.0</ele><time>2026-04-12T11:44:05.001Z</time></trkpt><trkpt lat="42.736001066667114" lon="12.928858186972812"><ele>888.9999999999999</ele><time>2026-04-12T11:44:11.002Z</time></trkpt><trkpt lat="42.73602913964519" lon="12.928746899460773"><ele>889.0</ele><time>2026-04-12T11:45:15Z</time></trkpt><trkpt lat="42.73606130594863" lon="12.928579369134171"><ele>887.8000000000001</ele><time>2026-04-12T11:45:17Z</time></trkpt><trkpt lat="42.73608370811658" lon="12.928472499654314"><ele>886.6000000000001</ele><time>2026-04-12T11:45:18Z</time></trkpt><trkpt lat="42.73611140075513" lon="12.928335942575194"><ele>885.4</ele><time>2026-04-12T11:45:19Z</time></trkpt><trkpt lat="42.736167858062046" lon="12.928200046428438"><ele>884.2</ele><time>2026-04-12T11:45:20Z</time></trkpt><trkpt lat="42.736219349192716" lon="12.928062932712098"><ele>883.0</ele><time>2026-04-12T11:45:21Z</time></trkpt><trkpt lat="42.73626584461088" lon="12.927911980309378"><ele>883.25</ele><time>2026-04-12T11:45:22Z</time></trkpt><trkpt lat="42.73630213501711" lon="12.92776225593597"><ele>883.5</ele><time>2026-04-12T11:45:23Z</time></trkpt><trkpt lat="42.73633032647142" lon="12.927607463758148"><ele>883.75</ele><time>2026-04-12T11:45:24Z</time></trkpt><trkpt lat="42.73634720526356" lon="12.927444865201872"><ele>884.0</ele><time>2026-04-12T11:45:25Z</time></trkpt><trkpt lat="42.73637652172359" lon="12.92727239064915"><ele>884.0</ele><time>2026-04-12T11:45:26Z</time></trkpt><trkpt lat="42.73638452146599" lon="12.927073438591083"><ele>884.0</ele><time>2026-04-12T11:45:27Z</time></trkpt><trkpt lat="42.73639188624206" lon="12.926930029423046"><ele>884.0</ele><time>2026-04-12T11:45:28Z</time></trkpt><trkpt lat="42.7364074590758" lon="12.926748485240473"><ele>884.0</ele><time>2026-04-12T11:45:29Z</time></trkpt><trkpt lat="42.73642446646511" lon="12.926579380687725"><ele>887.0</ele><time>2026-04-12T11:45:30Z</time></trkpt><trkpt lat="42.736451191040445" lon="12.92639289510972"><ele>890.0</ele><time>2026-04-12T11:45:31Z</time></trkpt><trkpt lat="42.7364840222594" lon="12.926158808192824"><ele>893.0</ele><time>2026-04-12T11:45:32Z</time></trkpt><trkpt lat="42.73653110852555" lon="12.925967848032535"><ele>894.5999999999999</ele><time>2026-04-12T11:45:33Z</time></trkpt><trkpt lat="42.736594659542234" lon="12.925814824454239"><ele>896.1999999999999</ele><time>2026-04-12T11:45:34Z</time></trkpt><trkpt lat="42.73664230950062" lon="12.925686506615886"><ele>897.8</ele><time>2026-04-12T11:45:35.001Z</time></trkpt><trkpt lat="42.736662492796476" lon="12.925560133422657"><ele>899.4</ele><time>2026-04-12T11:45:36.001Z</time></trkpt><trkpt lat="42.73663045984451" lon="12.925430481983724"><ele>901.0</ele><time>2026-04-12T11:45:37.001Z</time></trkpt><trkpt lat="42.73657906847597" lon="12.925302690570037"><ele>901.0</ele><time>2026-04-12T11:45:38.001Z</time></trkpt><trkpt lat="42.7365051602184" lon="12.925164909411233"><ele>901.0</ele><time>2026-04-12T11:45:39.001Z</time></trkpt><trkpt lat="42.73643086566063" lon="12.925065351663413"><ele>901.0</ele><time>2026-04-12T11:45:40.001Z</time></trkpt><trkpt lat="42.73635890783843" lon="12.924942563849298"><ele>901.0</ele><time>2026-04-12T11:45:41.001Z</time></trkpt><trkpt lat="42.736284890673716" lon="12.924830217757693"><ele>898.25</ele><time>2026-04-12T11:45:42.001Z</time></trkpt><trkpt lat="42.73619797215571" lon="12.924695043712786"><ele>895.5</ele><time>2026-04-12T11:45:43.001Z</time></trkpt><trkpt lat="42.73608615593494" lon="12.924624926633564"><ele>892.75</ele><time>2026-04-12T11:45:44.001Z</time></trkpt><trkpt lat="42.735997988563255" lon="12.924521879081153"><ele>890.0</ele><time>2026-04-12T11:45:45.001Z</time></trkpt><trkpt lat="42.73591266096688" lon="12.924417722215006"><ele>897.25</ele><time>2026-04-12T11:45:46.001Z</time></trkpt><trkpt lat="42.73583431880454" lon="12.924281000374581"><ele>904.5</ele><time>2026-04-12T11:45:47.001Z</time></trkpt><trkpt lat="42.73579730112117" lon="12.92411398505657"><ele>911.75</ele><time>2026-04-12T11:45:48.001Z</time></trkpt><trkpt lat="42.73580589865068" lon="12.923938393433"><ele>919.0</ele><time>2026-04-12T11:45:49.001Z</time></trkpt><trkpt lat="42.735804483633544" lon="12.923811389534219"><ele>919.0</ele><time>2026-04-12T11:45:50.001Z</time></trkpt><trkpt lat="42.735782800656715" lon="12.92366633241551"><ele>919.0</ele><time>2026-04-12T11:45:51.001Z</time></trkpt><trkpt lat="42.73568530445544" lon="12.923561289415668"><ele>919.0</ele><time>2026-04-12T11:45:52.001Z</time></trkpt><trkpt lat="42.73557389789321" lon="12.923414962316869"><ele>919.0</ele><time>2026-04-12T11:45:53.001Z</time></trkpt><trkpt lat="42.73543728930068" lon="12.923251878839679"><ele>928.6666666666666</ele><time>2026-04-12T11:45:54.001Z</time></trkpt><trkpt lat="42.73529162048336" lon="12.923104320050864"><ele>938.3333333333333</ele><time>2026-04-12T11:45:55.001Z</time></trkpt><trkpt lat="42.73517441912431" lon="12.92294066856418"><ele>948.0</ele><time>2026-04-12T11:45:56.001Z</time></trkpt><trkpt lat="42.73508683146404" lon="12.922767727436833"><ele>948.0</ele><time>2026-04-12T11:45:57.001Z</time></trkpt><trkpt lat="42.734993908230614" lon="12.922616655073066"><ele>948.0</ele><time>2026-04-12T11:45:58.001Z</time></trkpt><trkpt lat="42.73490271061984" lon="12.922468388226283"><ele>948.0</ele><time>2026-04-12T11:45:59.001Z</time></trkpt><trkpt lat="42.7348023845911" lon="12.922326071866046"><ele>948.0</ele><time>2026-04-12T11:46:00.001Z</time></trkpt><trkpt lat="42.73469528007733" lon="12.92218441232542"><ele>945.0</ele><time>2026-04-12T11:46:01.001Z</time></trkpt><trkpt lat="42.73459061148974" lon="12.922049841730146"><ele>942.0</ele><time>2026-04-12T11:46:02.001Z</time></trkpt><trkpt lat="42.73449384620306" lon="12.921898183187793"><ele>939.0</ele><time>2026-04-12T11:46:03.001Z</time></trkpt><trkpt lat="42.73438433598958" lon="12.921764590401278"><ele>936.0</ele><time>2026-04-12T11:46:04.001Z</time></trkpt><trkpt lat="42.73429118376034" lon="12.921646199095056"><ele>936.0</ele><time>2026-04-12T11:46:05.001Z</time></trkpt><trkpt lat="42.73420865360439" lon="12.921486491800183"><ele>936.0</ele><time>2026-04-12T11:46:06.001Z</time></trkpt><trkpt lat="42.7341427450132" lon="12.921288713665072"><ele>936.0</ele><time>2026-04-12T11:46:07.001Z</time></trkpt><trkpt lat="42.73408071571366" lon="12.921097633576649"><ele>936.0</ele><time>2026-04-12T11:46:08.001Z</time></trkpt><trkpt lat="42.73403919977057" lon="12.920927347431672"><ele>936.0</ele><time>2026-04-12T11:46:09.001Z</time></trkpt><trkpt lat="42.734026089387505" lon="12.9207608011385"><ele>936.0</ele><time>2026-04-12T11:46:10.001Z</time></trkpt><trkpt lat="42.73409251869289" lon="12.920573630637074"><ele>936.0</ele><time>2026-04-12T11:46:11.001Z</time></trkpt><trkpt lat="42.734099082881364" lon="12.92036696985425"><ele>930.6666666666667</ele><time>2026-04-12T11:46:12.001Z</time></trkpt><trkpt lat="42.73411564065652" lon="12.920149437314047"><ele>925.3333333333334</ele><time>2026-04-12T11:46:13.001Z</time></trkpt><trkpt lat="42.73408533948749" lon="12.919958789411327"><ele>920.0</ele><time>2026-04-12T11:46:14.001Z</time></trkpt><trkpt lat="42.73402625593066" lon="12.919760980672066"><ele>915.0</ele><time>2026-04-12T11:46:15.001Z</time></trkpt><trkpt lat="42.73399511837036" lon="12.919547678681836"><ele>910.0</ele><time>2026-04-12T11:46:16.001Z</time></trkpt><trkpt lat="42.73395395530056" lon="12.919332508439146"><ele>905.0</ele><time>2026-04-12T11:46:17.001Z</time></trkpt><trkpt lat="42.733898143495715" lon="12.919108574161983"><ele>904.0</ele><time>2026-04-12T11:46:18.001Z</time></trkpt><trkpt lat="42.73383405207508" lon="12.91889199801273"><ele>903.0</ele><time>2026-04-12T11:46:19.001Z</time></trkpt><trkpt lat="42.73375361016532" lon="12.918673585623317"><ele>902.0</ele><time>2026-04-12T11:46:20.001Z</time></trkpt><trkpt lat="42.733657184092614" lon="12.91847284086937"><ele>903.5</ele><time>2026-04-12T11:46:21.001Z</time></trkpt><trkpt lat="42.733561210376884" lon="12.91829419443445"><ele>905.0</ele><time>2026-04-12T11:46:22.001Z</time></trkpt><trkpt lat="42.733475026234316" lon="12.918132354586358"><ele>906.5</ele><time>2026-04-12T11:46:23.001Z</time></trkpt><trkpt lat="42.73340450243284" lon="12.91798930382861"><ele>908.0</ele><time>2026-04-12T11:46:24.001Z</time></trkpt><trkpt lat="42.73335300108584" lon="12.917844683485113"><ele>914.0</ele><time>2026-04-12T11:46:25.001Z</time></trkpt><trkpt lat="42.73332700895907" lon="12.917699713744234"><ele>920.0</ele><time>2026-04-12T11:46:26.001Z</time></trkpt><trkpt lat="42.73330894066985" lon="12.91755862501404"><ele>926.0</ele><time>2026-04-12T11:46:27.002Z</time></trkpt><trkpt lat="42.733296749339495" lon="12.917397007837458"><ele>932.0</ele><time>2026-04-12T11:46:28.002Z</time></trkpt><trkpt lat="42.73326715709958" lon="12.917230950768378"><ele>932.0</ele><time>2026-04-12T11:46:29.002Z</time></trkpt><trkpt lat="42.733245401349414" lon="12.91707477311892"><ele>932.0</ele><time>2026-04-12T11:46:30.002Z</time></trkpt><trkpt lat="42.7332357246628" lon="12.916948543396014"><ele>932.0</ele><time>2026-04-12T11:46:31.002Z</time></trkpt><trkpt lat="42.73327132482399" lon="12.916751144650474"><ele>932.0</ele><time>2026-04-12T11:46:33.002Z</time></trkpt><trkpt lat="42.73336049108563" lon="12.916644944048262"><ele>932.4000000000001</ele><time>2026-04-12T11:46:35.002Z</time></trkpt><trkpt lat="42.73346115547305" lon="12.916649419435334"><ele>932.8000000000001</ele><time>2026-04-12T11:46:36.002Z</time></trkpt><trkpt lat="42.73354955775224" lon="12.916688517239459"><ele>933.2</ele><time>2026-04-12T11:46:37.002Z</time></trkpt><trkpt lat="42.733607509281924" lon="12.916787471499577"><ele>933.6</ele><time>2026-04-12T11:46:38.002Z</time></trkpt><trkpt lat="42.73367609902483" lon="12.916857326349296"><ele>934.0</ele><time>2026-04-12T11:46:39.002Z</time></trkpt><trkpt lat="42.73371840383139" lon="12.916984898656949"><ele>934.0</ele><time>2026-04-12T11:46:40.002Z</time></trkpt><trkpt lat="42.733802197597015" lon="12.917064470677191"><ele>934.0</ele><time>2026-04-12T11:46:41.002Z</time></trkpt><trkpt lat="42.73388756550965" lon="12.917164710802423"><ele>934.0</ele><time>2026-04-12T11:46:42.002Z</time></trkpt><trkpt lat="42.73398421744351" lon="12.917277727559572"><ele>934.0</ele><time>2026-04-12T11:46:43.002Z</time></trkpt><trkpt lat="42.73407552890426" lon="12.917473520148114"><ele>937.5</ele><time>2026-04-12T11:46:44.002Z</time></trkpt><trkpt lat="42.7341895356837" lon="12.917610587080635"><ele>941.0</ele><time>2026-04-12T11:46:45Z</time></trkpt><trkpt lat="42.73431514533156" lon="12.917704507315518"><ele>944.5</ele><time>2026-04-12T11:46:46Z</time></trkpt><trkpt lat="42.73441267597967" lon="12.917790890121008"><ele>948.0</ele><time>2026-04-12T11:46:47Z</time></trkpt><trkpt lat="42.734508977249945" lon="12.917825186381105"><ele>948.0</ele><time>2026-04-12T11:46:48Z</time></trkpt><trkpt lat="42.73461120043663" lon="12.917836403958361"><ele>948.0</ele><time>2026-04-12T11:46:49Z</time></trkpt><trkpt lat="42.73471167014626" lon="12.91790022186734"><ele>948.0</ele><time>2026-04-12T11:46:50Z</time></trkpt><trkpt lat="42.734742027013105" lon="12.91807169476172"><ele>948.0</ele><time>2026-04-12T11:46:51Z</time></trkpt><trkpt lat="42.734819001060174" lon="12.91819697219156"><ele>948.0</ele><time>2026-04-12T11:46:52Z</time></trkpt><trkpt lat="42.734928437977295" lon="12.918297152846517"><ele>948.0</ele><time>2026-04-12T11:46:53Z</time></trkpt><trkpt lat="42.735020125206624" lon="12.918453501429221"><ele>948.0</ele><time>2026-04-12T11:46:54Z</time></trkpt><trkpt lat="42.735134553406034" lon="12.918603758052006"><ele>948.0</ele><time>2026-04-12T11:46:55Z</time></trkpt><trkpt lat="42.73523641083613" lon="12.918756179716684"><ele>952.5</ele><time>2026-04-12T11:46:56Z</time></trkpt><trkpt lat="42.735339686046004" lon="12.918870138519068"><ele>957.0</ele><time>2026-04-12T11:46:57Z</time></trkpt><trkpt lat="42.73544427750183" lon="12.918976684884235"><ele>961.5</ele><time>2026-04-12T11:46:58Z</time></trkpt><trkpt lat="42.73554859826225" lon="12.919094178301872"><ele>966.0</ele><time>2026-04-12T11:46:59Z</time></trkpt><trkpt lat="42.73563779554489" lon="12.91921552773074"><ele>955.75</ele><time>2026-04-12T11:47:00Z</time></trkpt><trkpt lat="42.73572412617368" lon="12.919339358817865"><ele>945.5</ele><time>2026-04-12T11:47:01Z</time></trkpt><trkpt lat="42.73581114335735" lon="12.91945446573491"><ele>935.25</ele><time>2026-04-12T11:47:02Z</time></trkpt><trkpt lat="42.73590680874044" lon="12.919547078826355"><ele>925.0</ele><time>2026-04-12T11:47:03Z</time></trkpt><trkpt lat="42.73601618289114" lon="12.91959907218142"><ele>932.5</ele><time>2026-04-12T11:47:04Z</time></trkpt><trkpt lat="42.73612413864908" lon="12.919630985829482"><ele>940.0</ele><time>2026-04-12T11:47:05Z</time></trkpt><trkpt lat="42.736235352378145" lon="12.919659248172241"><ele>947.5</ele><time>2026-04-12T11:47:06Z</time></trkpt><trkpt lat="42.736353842066784" lon="12.919688567743075"><ele>955.0</ele><time>2026-04-12T11:47:07Z</time></trkpt><trkpt lat="42.73646957002555" lon="12.919715052142186"><ele>955.0</ele><time>2026-04-12T11:47:08Z</time></trkpt><trkpt lat="42.736579979738245" lon="12.919740479426054"><ele>955.0</ele><time>2026-04-12T11:47:09Z</time></trkpt><trkpt lat="42.73668861832731" lon="12.919759438202371"><ele>955.0</ele><time>2026-04-12T11:47:10Z</time></trkpt><trkpt lat="42.73679301671733" lon="12.9197631389865"><ele>955.0</ele><time>2026-04-12T11:47:11Z</time></trkpt><trkpt lat="42.73690156323231" lon="12.91976829410661"><ele>955.0</ele><time>2026-04-12T11:47:12Z</time></trkpt><trkpt lat="42.7370081769521" lon="12.919743385265907"><ele>955.75</ele><time>2026-04-12T11:47:13Z</time></trkpt><trkpt lat="42.73712138603685" lon="12.91969777004872"><ele>956.5</ele><time>2026-04-12T11:47:14Z</time></trkpt><trkpt lat="42.737231978276306" lon="12.919635207959033"><ele>957.25</ele><time>2026-04-12T11:47:15Z</time></trkpt><trkpt lat="42.737337224375615" lon="12.919606992916652"><ele>958.0</ele><time>2026-04-12T11:47:16Z</time></trkpt><trkpt lat="42.73744828463578" lon="12.919577364876407"><ele>958.0</ele><time>2026-04-12T11:47:17Z</time></trkpt><trkpt lat="42.737558252884924" lon="12.919569950162302"><ele>958.0</ele><time>2026-04-12T11:47:18Z</time></trkpt><trkpt lat="42.737668860267775" lon="12.919545384563575"><ele>958.0</ele><time>2026-04-12T11:47:19Z</time></trkpt><trkpt lat="42.73778298745856" lon="12.919498674023995"><ele>958.0</ele><time>2026-04-12T11:47:20Z</time></trkpt><trkpt lat="42.73791991228211" lon="12.919469085631127"><ele>961.0</ele><time>2026-04-12T11:47:21Z</time></trkpt><trkpt lat="42.73802470526771" lon="12.919385733108069"><ele>964.0</ele><time>2026-04-12T11:47:22Z</time></trkpt><trkpt lat="42.73811977480061" lon="12.919312763276183"><ele>967.0</ele><time>2026-04-12T11:47:23Z</time></trkpt><trkpt lat="42.738212486066" lon="12.919274258178174"><ele>970.0</ele><time>2026-04-12T11:47:24Z</time></trkpt><trkpt lat="42.738303518992254" lon="12.919298785770607"><ele>973.0</ele><time>2026-04-12T11:47:25Z</time></trkpt><trkpt lat="42.73838819798712" lon="12.919393877632984"><ele>973.0</ele><time>2026-04-12T11:47:26Z</time></trkpt><trkpt lat="42.73844835007295" lon="12.919544106299933"><ele>973.0</ele><time>2026-04-12T11:47:27Z</time></trkpt><trkpt lat="42.73849789960369" lon="12.919722350140628"><ele>973.0</ele><time>2026-04-12T11:47:28Z</time></trkpt><trkpt lat="42.73856343597775" lon="12.919894726569922"><ele>973.0</ele><time>2026-04-12T11:47:29.001Z</time></trkpt><trkpt lat="42.7386626135705" lon="12.92003228311604"><ele>971.6666666666666</ele><time>2026-04-12T11:47:30.001Z</time></trkpt><trkpt lat="42.7387950787091" lon="12.920136221109834"><ele>970.3333333333333</ele><time>2026-04-12T11:47:31.001Z</time></trkpt><trkpt lat="42.73893944070161" lon="12.920209220697298"><ele>969.0</ele><time>2026-04-12T11:47:32.001Z</time></trkpt><trkpt lat="42.73909585151258" lon="12.92026579971934"><ele>969.0</ele><time>2026-04-12T11:47:33.001Z</time></trkpt><trkpt lat="42.73926453061149" lon="12.92030654307698"><ele>969.0</ele><time>2026-04-12T11:47:34.001Z</time></trkpt><trkpt lat="42.739458647218264" lon="12.920352725850803"><ele>969.0</ele><time>2026-04-12T11:47:35.001Z</time></trkpt><trkpt lat="42.73964277250585" lon="12.920451032285634"><ele>977.6666666666667</ele><time>2026-04-12T11:47:36.001Z</time></trkpt><trkpt lat="42.739808375490604" lon="12.920519747904544"><ele>986.3333333333334</ele><time>2026-04-12T11:47:37.001Z</time></trkpt><trkpt lat="42.73995661427017" lon="12.920632549133984"><ele>995.0</ele><time>2026-04-12T11:47:38.001Z</time></trkpt><trkpt lat="42.740104381876904" lon="12.92075127738913"><ele>993.3333333333334</ele><time>2026-04-12T11:47:39.001Z</time></trkpt><trkpt lat="42.7402466719995" lon="12.920868529617412"><ele>991.6666666666667</ele><time>2026-04-12T11:47:40.001Z</time></trkpt><trkpt lat="42.74034755637846" lon="12.920983375561002"><ele>990.0</ele><time>2026-04-12T11:47:41.001Z</time></trkpt><trkpt lat="42.740500306114654" lon="12.921102089090159"><ele>990.0</ele><time>2026-04-12T11:47:42.001Z</time></trkpt><trkpt lat="42.74061620982213" lon="12.921189888941447"><ele>990.0</ele><time>2026-04-12T11:47:43.001Z</time></trkpt><trkpt lat="42.740730035282176" lon="12.921272107021544"><ele>990.0</ele><time>2026-04-12T11:47:44.001Z</time></trkpt><trkpt lat="42.74084935623005" lon="12.921335600677532"><ele>990.0</ele><time>2026-04-12T11:47:45.001Z</time></trkpt><trkpt lat="42.74095858109814" lon="12.921401635223623"><ele>989.75</ele><time>2026-04-12T11:47:46.001Z</time></trkpt><trkpt lat="42.7410714070568" lon="12.921466445768987"><ele>989.5</ele><time>2026-04-12T11:47:47.001Z</time></trkpt><trkpt lat="42.74119436649135" lon="12.921529255388585"><ele>989.25</ele><time>2026-04-12T11:47:48.001Z</time></trkpt><trkpt lat="42.74130043946775" lon="12.921615808895023"><ele>989.0</ele><time>2026-04-12T11:47:49.001Z</time></trkpt><trkpt lat="42.74138757184003" lon="12.921741700312039"><ele>989.0</ele><time>2026-04-12T11:47:50.001Z</time></trkpt><trkpt lat="42.74147229064964" lon="12.921863808836292"><ele>989.0000000000001</ele><time>2026-04-12T11:47:51.001Z</time></trkpt><trkpt lat="42.74156702380637" lon="12.921938615382762"><ele>989.0000000000001</ele><time>2026-04-12T11:47:52.001Z</time></trkpt><trkpt lat="42.741654092999" lon="12.921982869473712"><ele>989.0</ele><time>2026-04-12T11:47:53.001Z</time></trkpt><trkpt lat="42.74174472586302" lon="12.921965789136422"><ele>989.0</ele><time>2026-04-12T11:47:54.001Z</time></trkpt><trkpt lat="42.741788270035876" lon="12.921809538473731"><ele>994.5</ele><time>2026-04-12T11:47:55.001Z</time></trkpt><trkpt lat="42.741826904290924" lon="12.921684810697526"><ele>1000.0</ele><time>2026-04-12T11:47:56.001Z</time></trkpt><trkpt lat="42.74183071179463" lon="12.921532489300786"><ele>1005.5</ele><time>2026-04-12T11:47:57.001Z</time></trkpt><trkpt lat="42.74178293780281" lon="12.921372830839076"><ele>1011.0</ele><time>2026-04-12T11:47:58.001Z</time></trkpt><trkpt lat="42.741720251039894" lon="12.921240478336163"><ele>1011.0</ele><time>2026-04-12T11:47:59.001Z</time></trkpt><trkpt lat="42.74166330325004" lon="12.921101058854633"><ele>1011.0</ele><time>2026-04-12T11:48:00.001Z</time></trkpt><trkpt lat="42.74161602457917" lon="12.920957481923304"><ele>1011.0</ele><time>2026-04-12T11:48:01.001Z</time></trkpt><trkpt lat="42.741550353409515" lon="12.920821884772343"><ele>1011.0</ele><time>2026-04-12T11:48:02.001Z</time></trkpt><trkpt lat="42.7414646546248" lon="12.92068857756997"><ele>1011.5</ele><time>2026-04-12T11:48:03.001Z</time></trkpt><trkpt lat="42.741395883031686" lon="12.920536980137923"><ele>1012.0</ele><time>2026-04-12T11:48:04.001Z</time></trkpt><trkpt lat="42.74131045353299" lon="12.92039280544461"><ele>1012.5</ele><time>2026-04-12T11:48:05.001Z</time></trkpt><trkpt lat="42.74121444784376" lon="12.920259303741027"><ele>1013.0</ele><time>2026-04-12T11:48:06.001Z</time></trkpt><trkpt lat="42.741138017979424" lon="12.920106054024128"><ele>1010.75</ele><time>2026-04-12T11:48:07.001Z</time></trkpt><trkpt lat="42.74105079108653" lon="12.919960518982466"><ele>1008.5</ele><time>2026-04-12T11:48:08.001Z</time></trkpt><trkpt lat="42.74097472869298" lon="12.91980344618295"><ele>1006.25</ele><time>2026-04-12T11:48:09.001Z</time></trkpt><trkpt lat="42.740911934423124" lon="12.91963297545966"><ele>1004.0</ele><time>2026-04-12T11:48:10.001Z</time></trkpt><trkpt lat="42.74085826542478" lon="12.919451987254664"><ele>1013.3333333333334</ele><time>2026-04-12T11:48:11.001Z</time></trkpt><trkpt lat="42.74078687930252" lon="12.919259819513611"><ele>1022.6666666666667</ele><time>2026-04-12T11:48:12.001Z</time></trkpt><trkpt lat="42.74073027212281" lon="12.919030326941147"><ele>1032.0</ele><time>2026-04-12T11:48:13.001Z</time></trkpt><trkpt lat="42.74068213146527" lon="12.918831693674488"><ele>1032.0</ele><time>2026-04-12T11:48:14.001Z</time></trkpt><trkpt lat="42.74063551822722" lon="12.918621064271749"><ele>1032.0</ele><time>2026-04-12T11:48:15.001Z</time></trkpt><trkpt lat="42.74059004529142" lon="12.91841558752604"><ele>1032.0</ele><time>2026-04-12T11:48:16.001Z</time></trkpt><trkpt lat="42.740542871806696" lon="12.91822056395537"><ele>1032.5</ele><time>2026-04-12T11:48:17.001Z</time></trkpt><trkpt lat="42.740487453352806" lon="12.918036208976416"><ele>1033.0</ele><time>2026-04-12T11:48:18.001Z</time></trkpt><trkpt lat="42.74042533166656" lon="12.917861540629596"><ele>1033.5</ele><time>2026-04-12T11:48:19.002Z</time></trkpt><trkpt lat="42.7403831944802" lon="12.91768570539521"><ele>1034.0</ele><time>2026-04-12T11:48:20.002Z</time></trkpt><trkpt lat="42.74034007248259" lon="12.917508638266797"><ele>1037.25</ele><time>2026-04-12T11:48:21.002Z</time></trkpt><trkpt lat="42.740301768539766" lon="12.91732481782019"><ele>1040.5</ele><time>2026-04-12T11:48:22.002Z</time></trkpt><trkpt lat="42.74028206621097" lon="12.917125977698939"><ele>1043.75</ele><time>2026-04-12T11:48:23.002Z</time></trkpt><trkpt lat="42.740272047101975" lon="12.916945779187513"><ele>1047.0</ele><time>2026-04-12T11:48:24.002Z</time></trkpt><trkpt lat="42.74030064357437" lon="12.916756313781754"><ele>1047.0</ele><time>2026-04-12T11:48:25.002Z</time></trkpt><trkpt lat="42.740336105109755" lon="12.916615892538285"><ele>1047.0</ele><time>2026-04-12T11:48:26.002Z</time></trkpt><trkpt lat="42.740409420978374" lon="12.916523302901652"><ele>1047.0</ele><time>2026-04-12T11:48:27.002Z</time></trkpt><trkpt lat="42.7405122164988" lon="12.916505786005366"><ele>1047.0</ele><time>2026-04-12T11:48:28.002Z</time></trkpt><trkpt lat="42.74059207280335" lon="12.916623964999859"><ele>1047.0</ele><time>2026-04-12T11:48:29.002Z</time></trkpt><trkpt lat="42.74063718990433" lon="12.916742067520374"><ele>1047.0</ele><time>2026-04-12T11:48:30.002Z</time></trkpt><trkpt lat="42.740699351517875" lon="12.916893019160751"><ele>1047.0</ele><time>2026-04-12T11:48:31.002Z</time></trkpt><trkpt lat="42.74078752350898" lon="12.91705981540303"><ele>1047.0</ele><time>2026-04-12T11:48:32.002Z</time></trkpt><trkpt lat="42.74087728012844" lon="12.917242030698354"><ele>1047.0</ele><time>2026-04-12T11:48:33.002Z</time></trkpt><trkpt lat="42.74098262090184" lon="12.917403847510215"><ele>1046.3333333333333</ele><time>2026-04-12T11:48:34.002Z</time></trkpt><trkpt lat="42.741099253708036" lon="12.917555565753899"><ele>1045.6666666666665</ele><time>2026-04-12T11:48:35.002Z</time></trkpt><trkpt lat="42.74122242210331" lon="12.91771403718025"><ele>1045.0</ele><time>2026-04-12T11:48:36.002Z</time></trkpt><trkpt lat="42.74134368716009" lon="12.917869841103757"><ele>1045.0</ele><time>2026-04-12T11:48:37.002Z</time></trkpt><trkpt lat="42.74147618883578" lon="12.918040733444277"><ele>1045.0</ele><time>2026-04-12T11:48:38.002Z</time></trkpt><trkpt lat="42.741599297223665" lon="12.91818875902578"><ele>1045.0</ele><time>2026-04-12T11:48:39.002Z</time></trkpt><trkpt lat="42.741719913665" lon="12.918305378806158"><ele>1045.0</ele><time>2026-04-12T11:48:40.002Z</time></trkpt><trkpt lat="42.74183292709698" lon="12.918392849865501"><ele>1045.0</ele><time>2026-04-12T11:48:41.002Z</time></trkpt><trkpt lat="42.741933452071194" lon="12.918475441256364"><ele>1045.0</ele><time>2026-04-12T11:48:42.002Z</time></trkpt><trkpt lat="42.7420292532433" lon="12.918525416750496"><ele>1045.0</ele><time>2026-04-12T11:48:43.002Z</time></trkpt><trkpt lat="42.74213452934773" lon="12.918529266108159"><ele>1047.25</ele><time>2026-04-12T11:48:44.002Z</time></trkpt><trkpt lat="42.742250930768044" lon="12.918485826843758"><ele>1049.5</ele><time>2026-04-12T11:48:45.002Z</time></trkpt><trkpt lat="42.7423637715643" lon="12.918389249927946"><ele>1051.75</ele><time>2026-04-12T11:48:46.002Z</time></trkpt><trkpt lat="42.74246290394515" lon="12.918256964073567"><ele>1054.0</ele><time>2026-04-12T11:48:47.002Z</time></trkpt><trkpt lat="42.742556110381145" lon="12.918106625235907"><ele>1054.0</ele><time>2026-04-12T11:48:48.002Z</time></trkpt><trkpt lat="42.74265574696645" lon="12.917960973616808"><ele>1054.0</ele><time>2026-04-12T11:48:49.002Z</time></trkpt><trkpt lat="42.742772576572605" lon="12.917860686142529"><ele>1054.0</ele><time>2026-04-12T11:48:50.002Z</time></trkpt><trkpt lat="42.74291257766657" lon="12.917800027972854"><ele>1054.0</ele><time>2026-04-12T11:48:51Z</time></trkpt><trkpt lat="42.743041867894036" lon="12.917742297266182"><ele>1055.4</ele><time>2026-04-12T11:48:51.999Z</time></trkpt><trkpt lat="42.7431551392109" lon="12.91770910313338"><ele>1056.8000000000002</ele><time>2026-04-12T11:48:53Z</time></trkpt><trkpt lat="42.74325133384912" lon="12.917713888985382"><ele>1058.1999999999998</ele><time>2026-04-12T11:48:54Z</time></trkpt><trkpt lat="42.74332182602772" lon="12.917758895881486"><ele>1059.6</ele><time>2026-04-12T11:48:54.999Z</time></trkpt><trkpt lat="42.74336440960354" lon="12.917903263819884"><ele>1061.0</ele><time>2026-04-12T11:48:57Z</time></trkpt><trkpt lat="42.74338178064451" lon="12.918008871289796"><ele>1061.0</ele><time>2026-04-12T11:48:58Z</time></trkpt><trkpt lat="42.74336215803337" lon="12.91815892982908"><ele>1061.0</ele><time>2026-04-12T11:48:59Z</time></trkpt><trkpt lat="42.743370357163705" lon="12.918326877674811"><ele>1061.0</ele><time>2026-04-12T11:49:00Z</time></trkpt><trkpt lat="42.74340321433267" lon="12.918494213754755"><ele>1061.0</ele><time>2026-04-12T11:49:01Z</time></trkpt><trkpt lat="42.74342160255491" lon="12.918681967499863"><ele>1057.75</ele><time>2026-04-12T11:49:02Z</time></trkpt><trkpt lat="42.74347147028425" lon="12.918855173582802"><ele>1054.5</ele><time>2026-04-12T11:49:03Z</time></trkpt><trkpt lat="42.74350831776515" lon="12.919033050727968"><ele>1051.25</ele><time>2026-04-12T11:49:04Z</time></trkpt><trkpt lat="42.74356098025031" lon="12.91918807715602"><ele>1048.0</ele><time>2026-04-12T11:49:05Z</time></trkpt><trkpt lat="42.743628605529544" lon="12.919298519501467"><ele>1046.6</ele><time>2026-04-12T11:49:06Z</time></trkpt><trkpt lat="42.74371857234637" lon="12.919379810834519"><ele>1045.1999999999998</ele><time>2026-04-12T11:49:07Z</time></trkpt><trkpt lat="42.743809531363205" lon="12.919465084891025"><ele>1043.8</ele><time>2026-04-12T11:49:08Z</time></trkpt><trkpt lat="42.7439186849617" lon="12.919507113342968"><ele>1042.3999999999999</ele><time>2026-04-12T11:49:09Z</time></trkpt><trkpt lat="42.74403054939083" lon="12.919513096546195"><ele>1041.0</ele><time>2026-04-12T11:49:10Z</time></trkpt><trkpt lat="42.74413938788581" lon="12.919535128112681"><ele>1041.0</ele><time>2026-04-12T11:49:11Z</time></trkpt><trkpt lat="42.74425522444591" lon="12.919537622794014"><ele>1041.0</ele><time>2026-04-12T11:49:12Z</time></trkpt><trkpt lat="42.744381686749456" lon="12.919525691670373"><ele>1041.0</ele><time>2026-04-12T11:49:13Z</time></trkpt><trkpt lat="42.74451152894167" lon="12.919547468810277"><ele>1041.0</ele><time>2026-04-12T11:49:14Z</time></trkpt><trkpt lat="42.74464039296648" lon="12.919553077193907"><ele>1048.0</ele><time>2026-04-12T11:49:15Z</time></trkpt><trkpt lat="42.74476833950374" lon="12.919572826683256"><ele>1055.0</ele><time>2026-04-12T11:49:16Z</time></trkpt><trkpt lat="42.74490119445436" lon="12.919633401368218"><ele>1062.0</ele><time>2026-04-12T11:49:17Z</time></trkpt><trkpt lat="42.74502781729099" lon="12.919708309857711"><ele>1069.0</ele><time>2026-04-12T11:49:18Z</time></trkpt><trkpt lat="42.74514519556386" lon="12.919796634800813"><ele>1069.0</ele><time>2026-04-12T11:49:19Z</time></trkpt><trkpt lat="42.74525551821315" lon="12.919894242974484"><ele>1069.0</ele><time>2026-04-12T11:49:20Z</time></trkpt><trkpt lat="42.74535894697728" lon="12.919986075974771"><ele>1069.0</ele><time>2026-04-12T11:49:21Z</time></trkpt><trkpt lat="42.74545987536708" lon="12.92007162672847"><ele>1069.0</ele><time>2026-04-12T11:49:22Z</time></trkpt><trkpt lat="42.74556505659184" lon="12.920159341045546"><ele>1069.0</ele><time>2026-04-12T11:49:23Z</time></trkpt><trkpt lat="42.74567226525903" lon="12.920252355594897"><ele>1069.0</ele><time>2026-04-12T11:49:24Z</time></trkpt><trkpt lat="42.74577467065394" lon="12.920343718207803"><ele>1069.0</ele><time>2026-04-12T11:49:25Z</time></trkpt><trkpt lat="42.745877859318185" lon="12.920435604448866"><ele>1069.0</ele><time>2026-04-12T11:49:26Z</time></trkpt><trkpt lat="42.74597271378635" lon="12.920518865572246"><ele>1073.0</ele><time>2026-04-12T11:49:27Z</time></trkpt><trkpt lat="42.746061760117406" lon="12.920597332412047"><ele>1077.0</ele><time>2026-04-12T11:49:28Z</time></trkpt><trkpt lat="42.74614537747703" lon="12.92067482143538"><ele>1081.0</ele><time>2026-04-12T11:49:29Z</time></trkpt><trkpt lat="42.74622209397505" lon="12.920743709126311"><ele>1085.0</ele><time>2026-04-12T11:49:30Z</time></trkpt><trkpt lat="42.74629551602652" lon="12.920806335767518"><ele>1089.0</ele><time>2026-04-12T11:49:31Z</time></trkpt><trkpt lat="42.74637279343375" lon="12.920866661880797"><ele>1086.8</ele><time>2026-04-12T11:49:32Z</time></trkpt><trkpt lat="42.74643279608622" lon="12.92095164691101"><ele>1084.6000000000001</ele><time>2026-04-12T11:49:33Z</time></trkpt><trkpt lat="42.74650320921032" lon="12.921018107782904"><ele>1082.4</ele><time>2026-04-12T11:49:34Z</time></trkpt><trkpt lat="42.746570242189655" lon="12.921068568568872"><ele>1080.2</ele><time>2026-04-12T11:49:35Z</time></trkpt><trkpt lat="42.74668038061376" lon="12.921104325366272"><ele>1078.0</ele><time>2026-04-12T11:49:37Z</time></trkpt><trkpt lat="42.74676251850032" lon="12.92100745054471"><ele>1078.0</ele><time>2026-04-12T11:49:39.001Z</time></trkpt><trkpt lat="42.74675912502888" lon="12.920908306461252"><ele>1078.0</ele><time>2026-04-12T11:49:40.001Z</time></trkpt><trkpt lat="42.74668159274321" lon="12.920830377666432"><ele>1078.0</ele><time>2026-04-12T11:49:41.001Z</time></trkpt><trkpt lat="42.74662556183703" lon="12.920772364868565"><ele>1078.0</ele><time>2026-04-12T11:49:42.001Z</time></trkpt><trkpt lat="42.746570083140924" lon="12.920703156421359"><ele>1078.0</ele><time>2026-04-12T11:49:43.001Z</time></trkpt><trkpt lat="42.74650933294244" lon="12.920640477738159"><ele>1078.0</ele><time>2026-04-12T11:49:44.001Z</time></trkpt><trkpt lat="42.746441378480846" lon="12.920588384789836"><ele>1080.2</ele><time>2026-04-12T11:49:45.001Z</time></trkpt><trkpt lat="42.74637781347438" lon="12.92052066531781"><ele>1082.4</ele><time>2026-04-12T11:49:46.001Z</time></trkpt><trkpt lat="42.7463152984521" lon="12.920433960477352"><ele>1084.6000000000001</ele><time>2026-04-12T11:49:47.001Z</time></trkpt><trkpt lat="42.74624986540431" lon="12.920342613891112"><ele>1086.8</ele><time>2026-04-12T11:49:48.001Z</time></trkpt><trkpt lat="42.746180285255264" lon="12.920257130039259"><ele>1089.0</ele><time>2026-04-12T11:49:49.001Z</time></trkpt><trkpt lat="42.746115938096374" lon="12.920162531427582"><ele>1090.6000000000001</ele><time>2026-04-12T11:49:50.001Z</time></trkpt><trkpt lat="42.7460474864771" lon="12.920064936178981"><ele>1092.2</ele><time>2026-04-12T11:49:51.001Z</time></trkpt><trkpt lat="42.74598059561118" lon="12.919964917077596"><ele>1093.8000000000002</ele><time>2026-04-12T11:49:52.001Z</time></trkpt><trkpt lat="42.74591785140923" lon="12.919872197323668"><ele>1095.4</ele><time>2026-04-12T11:49:53.001Z</time></trkpt><trkpt lat="42.74585659096475" lon="12.919770089495625"><ele>1097.0</ele><time>2026-04-12T11:49:54.001Z</time></trkpt><trkpt lat="42.74578601576646" lon="12.91968116119861"><ele>1097.0</ele><time>2026-04-12T11:49:55.001Z</time></trkpt><trkpt lat="42.745713316391424" lon="12.919579608722005"><ele>1097.0</ele><time>2026-04-12T11:49:56.001Z</time></trkpt><trkpt lat="42.745633894835436" lon="12.919478884200279"><ele>1097.0</ele><time>2026-04-12T11:49:57.001Z</time></trkpt><trkpt lat="42.74556442886208" lon="12.919369191120495"><ele>1097.0</ele><time>2026-04-12T11:49:58.001Z</time></trkpt><trkpt lat="42.74548796471441" lon="12.919277769921218"><ele>1097.0</ele><time>2026-04-12T11:49:59.001Z</time></trkpt><trkpt lat="42.74541228780781" lon="12.919197924011067"><ele>1098.3333333333335</ele><time>2026-04-12T11:50:00.001Z</time></trkpt><trkpt lat="42.745335964721086" lon="12.919130901377098"><ele>1099.6666666666667</ele><time>2026-04-12T11:50:01.001Z</time></trkpt><trkpt lat="42.74523975055225" lon="12.919083406317847"><ele>1101.0</ele><time>2026-04-12T11:50:02.001Z</time></trkpt><trkpt lat="42.74516341930344" lon="12.919008090813959"><ele>1102.3333333333333</ele><time>2026-04-12T11:50:03.001Z</time></trkpt><trkpt lat="42.74508426148605" lon="12.918952031927924"><ele>1103.6666666666665</ele><time>2026-04-12T11:50:04.001Z</time></trkpt><trkpt lat="42.74502493780686" lon="12.918909686014642"><ele>1105.0</ele><time>2026-04-12T11:50:05.001Z</time></trkpt><trkpt lat="42.744919481234234" lon="12.918840500910674"><ele>1105.0</ele><time>2026-04-12T11:50:07.001Z</time></trkpt><trkpt lat="42.7448597153915" lon="12.918783229341429"><ele>1105.0</ele><time>2026-04-12T11:50:08.001Z</time></trkpt><trkpt lat="42.744799528297236" lon="12.918709130452067"><ele>1105.0</ele><time>2026-04-12T11:50:09.001Z</time></trkpt><trkpt lat="42.74475893513233" lon="12.918604667294359"><ele>1105.0</ele><time>2026-04-12T11:50:10.001Z</time></trkpt><trkpt lat="42.74472945319563" lon="12.91849388872558"><ele>1105.0</ele><time>2026-04-12T11:50:11.001Z</time></trkpt><trkpt lat="42.74471331859675" lon="12.918377620922067"><ele>1105.0</ele><time>2026-04-12T11:50:12.001Z</time></trkpt><trkpt lat="42.74469405037359" lon="12.91822318910231"><ele>1106.8</ele><time>2026-04-12T11:50:13.001Z</time></trkpt><trkpt lat="42.744678052057736" lon="12.918056592873318"><ele>1108.6</ele><time>2026-04-12T11:50:14.001Z</time></trkpt><trkpt lat="42.744667209111284" lon="12.91790236569969"><ele>1110.4</ele><time>2026-04-12T11:50:15.001Z</time></trkpt><trkpt lat="42.74465923224431" lon="12.917763643533863"><ele>1112.2</ele><time>2026-04-12T11:50:16.001Z</time></trkpt><trkpt lat="42.74465293904527" lon="12.917640333307865"><ele>1114.0</ele><time>2026-04-12T11:50:17.001Z</time></trkpt><trkpt lat="42.7446467999826" lon="12.917520043272262"><ele>1114.0</ele><time>2026-04-12T11:50:18.001Z</time></trkpt><trkpt lat="42.74462421545989" lon="12.917397183844537"><ele>1114.0</ele><time>2026-04-12T11:50:19.001Z</time></trkpt><trkpt lat="42.74462424556033" lon="12.917259302306295"><ele>1114.0</ele><time>2026-04-12T11:50:20.001Z</time></trkpt><trkpt lat="42.7446216695235" lon="12.91711141053008"><ele>1114.0</ele><time>2026-04-12T11:50:21.001Z</time></trkpt><trkpt lat="42.7446180522544" lon="12.9169689216896"><ele>1114.0</ele><time>2026-04-12T11:50:22.001Z</time></trkpt><trkpt lat="42.744625127961065" lon="12.916818481746"><ele>1114.2</ele><time>2026-04-12T11:50:23.001Z</time></trkpt><trkpt lat="42.74461342852133" lon="12.91667787567241"><ele>1114.4</ele><time>2026-04-12T11:50:24.002Z</time></trkpt><trkpt lat="42.744611665770094" lon="12.916530549373542"><ele>1114.6</ele><time>2026-04-12T11:50:25.002Z</time></trkpt><trkpt lat="42.744612180000175" lon="12.916384119093337"><ele>1114.8</ele><time>2026-04-12T11:50:26.002Z</time></trkpt><trkpt lat="42.74461502522569" lon="12.916234076462661"><ele>1115.0</ele><time>2026-04-12T11:50:27.002Z</time></trkpt><trkpt lat="42.74463030308684" lon="12.916088872851125"><ele>1115.0</ele><time>2026-04-12T11:50:28.002Z</time></trkpt><trkpt lat="42.74465629101913" lon="12.915938836664898"><ele>1115.0</ele><time>2026-04-12T11:50:29.002Z</time></trkpt><trkpt lat="42.74469282789057" lon="12.915802927501279"><ele>1115.0</ele><time>2026-04-12T11:50:30.002Z</time></trkpt><trkpt lat="42.74474677843628" lon="12.915698942607612"><ele>1115.0</ele><time>2026-04-12T11:50:31.002Z</time></trkpt><trkpt lat="42.74478200345044" lon="12.915600202573966"><ele>1115.0</ele><time>2026-04-12T11:50:32.002Z</time></trkpt><trkpt lat="42.744805487022546" lon="12.915485049145584"><ele>1115.0</ele><time>2026-04-12T11:50:33.002Z</time></trkpt><trkpt lat="42.74484647181455" lon="12.915378127176627"><ele>1115.0</ele><time>2026-04-12T11:50:34.002Z</time></trkpt><trkpt lat="42.74487427687038" lon="12.915264852674076"><ele>1115.0</ele><time>2026-04-12T11:50:35.002Z</time></trkpt><trkpt lat="42.74491008133556" lon="12.915156501886157"><ele>1115.0</ele><time>2026-04-12T11:50:36.002Z</time></trkpt><trkpt lat="42.74494227646448" lon="12.91505473582774"><ele>1115.0</ele><time>2026-04-12T11:50:37.002Z</time></trkpt><trkpt lat="42.74496231928432" lon="12.914961154799263"><ele>1115.0</ele><time>2026-04-12T11:50:38.002Z</time></trkpt><trkpt lat="42.74496607704618" lon="12.914859810204062"><ele>1113.8333333333335</ele><time>2026-04-12T11:50:39.002Z</time></trkpt><trkpt lat="42.74497615059767" lon="12.914764395833622"><ele>1112.6666666666667</ele><time>2026-04-12T11:50:40.002Z</time></trkpt><trkpt lat="42.744957161780896" lon="12.914651428649004"><ele>1111.5</ele><time>2026-04-12T11:50:41.002Z</time></trkpt><trkpt lat="42.74495830664241" lon="12.914550380069606"><ele>1110.3333333333333</ele><time>2026-04-12T11:50:42.002Z</time></trkpt><trkpt lat="42.74495172708076" lon="12.914450460012336"><ele>1109.1666666666665</ele><time>2026-04-12T11:50:43.002Z</time></trkpt><trkpt lat="42.74498833230309" lon="12.914353232290628"><ele>1108.0</ele><time>2026-04-12T11:50:44.002Z</time></trkpt><trkpt lat="42.745042690398336" lon="12.914265052724335"><ele>1107.6</ele><time>2026-04-12T11:50:45.002Z</time></trkpt><trkpt lat="42.745101612478294" lon="12.914182665303784"><ele>1107.1999999999998</ele><time>2026-04-12T11:50:46.002Z</time></trkpt><trkpt lat="42.74517673943051" lon="12.914076539599506"><ele>1106.8</ele><time>2026-04-12T11:50:47.002Z</time></trkpt><trkpt lat="42.74525196422825" lon="12.913978810523956"><ele>1106.3999999999999</ele><time>2026-04-12T11:50:48.002Z</time></trkpt><trkpt lat="42.745322998761694" lon="12.913874202356027"><ele>1106.0</ele><time>2026-04-12T11:50:49.002Z</time></trkpt><trkpt lat="42.74537422709921" lon="12.913776216657636"><ele>1106.0</ele><time>2026-04-12T11:50:50.002Z</time></trkpt><trkpt lat="42.74541308720704" lon="12.913668462497638"><ele>1106.0</ele><time>2026-04-12T11:50:51.002Z</time></trkpt><trkpt lat="42.745432053924546" lon="12.913566842751955"><ele>1106.0</ele><time>2026-04-12T11:50:52.002Z</time></trkpt><trkpt lat="42.74544448975496" lon="12.913439343991103"><ele>1106.0</ele><time>2026-04-12T11:50:53.002Z</time></trkpt><trkpt lat="42.74546302559151" lon="12.913295220278505"><ele>1106.0</ele><time>2026-04-12T11:50:54.002Z</time></trkpt><trkpt lat="42.745463852876924" lon="12.913157128643679"><ele>1107.8</ele><time>2026-04-12T11:50:55.002Z</time></trkpt><trkpt lat="42.74546707652691" lon="12.913003683097758"><ele>1109.6</ele><time>2026-04-12T11:50:56.002Z</time></trkpt><trkpt lat="42.74547320954023" lon="12.912847541464442"><ele>1111.4</ele><time>2026-04-12T11:50:57Z</time></trkpt><trkpt lat="42.74549252227111" lon="12.912705997563483"><ele>1113.2</ele><time>2026-04-12T11:50:58Z</time></trkpt><trkpt lat="42.74551364220962" lon="12.912567739509685"><ele>1115.0</ele><time>2026-04-12T11:50:59Z</time></trkpt><trkpt lat="42.74554832643957" lon="12.912430111049519"><ele>1116.2</ele><time>2026-04-12T11:51:00Z</time></trkpt><trkpt lat="42.74555834191032" lon="12.91229952347073"><ele>1117.4</ele><time>2026-04-12T11:51:01Z</time></trkpt><trkpt lat="42.745581611695975" lon="12.912172549057496"><ele>1118.6</ele><time>2026-04-12T11:51:02Z</time></trkpt><trkpt lat="42.745620783902794" lon="12.912065983010448"><ele>1119.8</ele><time>2026-04-12T11:51:03Z</time></trkpt><trkpt lat="42.74565926604525" lon="12.91194450310662"><ele>1121.0</ele><time>2026-04-12T11:51:04Z</time></trkpt><trkpt lat="42.74570293145255" lon="12.911830389453181"><ele>1123.3999999999999</ele><time>2026-04-12T11:51:05Z</time></trkpt><trkpt lat="42.745750890005965" lon="12.91170010393018"><ele>1125.8</ele><time>2026-04-12T11:51:06Z</time></trkpt><trkpt lat="42.74581408419471" lon="12.91159663802272"><ele>1128.1999999999998</ele><time>2026-04-12T11:51:07Z</time></trkpt><trkpt lat="42.74588675334571" lon="12.911499728089938"><ele>1130.6</ele><time>2026-04-12T11:51:08Z</time></trkpt><trkpt lat="42.74594834908281" lon="12.911402418416536"><ele>1133.0</ele><time>2026-04-12T11:51:09Z</time></trkpt><trkpt lat="42.745988521411086" lon="12.911303994534649"><ele>1133.0</ele><time>2026-04-12T11:51:10Z</time></trkpt><trkpt lat="42.746031945289566" lon="12.911209742039814"><ele>1133.0</ele><time>2026-04-12T11:51:11Z</time></trkpt><trkpt lat="42.74604798618186" lon="12.91107884777459"><ele>1133.0</ele><time>2026-04-12T11:51:12Z</time></trkpt><trkpt lat="42.74604055075334" lon="12.910934966795185"><ele>1133.0</ele><time>2026-04-12T11:51:13Z</time></trkpt><trkpt lat="42.746039607981416" lon="12.910795814808322"><ele>1133.0</ele><time>2026-04-12T11:51:14Z</time></trkpt><trkpt lat="42.746028152681696" lon="12.91066179897652"><ele>1135.0</ele><time>2026-04-12T11:51:15Z</time></trkpt><trkpt lat="42.746029042353506" lon="12.910551317056882"><ele>1137.0</ele><time>2026-04-12T11:51:16Z</time></trkpt><trkpt lat="42.746036163977415" lon="12.910379318529055"><ele>1139.0</ele><time>2026-04-12T11:51:18Z</time></trkpt><trkpt lat="42.7460436487496" lon="12.91028551200274"><ele>1141.0</ele><time>2026-04-12T11:51:19Z</time></trkpt><trkpt lat="42.74611655944178" lon="12.910238167342003"><ele>1143.0</ele><time>2026-04-12T11:51:20Z</time></trkpt><trkpt lat="42.74618575256374" lon="12.910258520506714"><ele>1145.0</ele><time>2026-04-12T11:51:22Z</time></trkpt><trkpt lat="42.746236795890894" lon="12.910364907970282"><ele>1146.6</ele><time>2026-04-12T11:51:23Z</time></trkpt><trkpt lat="42.746303833839846" lon="12.91045663317446"><ele>1148.2</ele><time>2026-04-12T11:51:24Z</time></trkpt><trkpt lat="42.74631334682491" lon="12.910550152607161"><ele>1149.8</ele><time>2026-04-12T11:51:25Z</time></trkpt><trkpt lat="42.74637211413636" lon="12.910694620596905"><ele>1151.4</ele><time>2026-04-12T11:51:27Z</time></trkpt><trkpt lat="42.746433432959755" lon="12.910723438874982"><ele>1153.0</ele><time>2026-04-12T11:51:28Z</time></trkpt><trkpt lat="42.7465209130323" lon="12.91062680200428"><ele>1153.0</ele><time>2026-04-12T11:51:31Z</time></trkpt><trkpt lat="42.74652047134349" lon="12.910540085905478"><ele>1153.0</ele><time>2026-04-12T11:51:32Z</time></trkpt><trkpt lat="42.746488146774276" lon="12.910443274605408"><ele>1153.0</ele><time>2026-04-12T11:51:33Z</time></trkpt><trkpt lat="42.746468304140585" lon="12.9103493138827"><ele>1153.0</ele><time>2026-04-12T11:51:34Z</time></trkpt><trkpt lat="42.746441926478845" lon="12.910217592906216"><ele>1153.0</ele><time>2026-04-12T11:51:35.001Z</time></trkpt><trkpt lat="42.74642086010881" lon="12.910066886644477"><ele>1153.0</ele><time>2026-04-12T11:51:36.001Z</time></trkpt><trkpt lat="42.7464062243368" lon="12.909944966995607"><ele>1154.8</ele><time>2026-04-12T11:51:37.001Z</time></trkpt><trkpt lat="42.746394318553456" lon="12.909835768660232"><ele>1156.6</ele><time>2026-04-12T11:51:38.001Z</time></trkpt><trkpt lat="42.74638037952532" lon="12.909698867737283"><ele>1158.4</ele><time>2026-04-12T11:51:39.001Z</time></trkpt><trkpt lat="42.74636868909728" lon="12.90957433925233"><ele>1160.2</ele><time>2026-04-12T11:51:40.001Z</time></trkpt><trkpt lat="42.746356471044045" lon="12.909444190431644"><ele>1162.0</ele><time>2026-04-12T11:51:41.001Z</time></trkpt><trkpt lat="42.74634541541705" lon="12.909323805989027"><ele>1163.3333333333333</ele><time>2026-04-12T11:51:42.001Z</time></trkpt><trkpt lat="42.74633383757596" lon="12.909195888685492"><ele>1164.6666666666665</ele><time>2026-04-12T11:51:43.001Z</time></trkpt><trkpt lat="42.7463253717173" lon="12.909092260750912"><ele>1166.0</ele><time>2026-04-12T11:51:44.001Z</time></trkpt><trkpt lat="42.7463185734501" lon="12.90899989960646"><ele>1167.3333333333333</ele><time>2026-04-12T11:51:45.001Z</time></trkpt><trkpt lat="42.746311221796034" lon="12.908900020392558"><ele>1168.6666666666667</ele><time>2026-04-12T11:51:46.001Z</time></trkpt><trkpt lat="42.746302503231774" lon="12.908781570933215"><ele>1170.0</ele><time>2026-04-12T11:51:47.001Z</time></trkpt><trkpt lat="42.74629337062072" lon="12.908657496246002"><ele>1170.0</ele><time>2026-04-12T11:51:48.001Z</time></trkpt><trkpt lat="42.746269954386925" lon="12.90852888595481"><ele>1170.0</ele><time>2026-04-12T11:51:49.001Z</time></trkpt><trkpt lat="42.7462657751039" lon="12.908385583166082"><ele>1170.0</ele><time>2026-04-12T11:51:50.001Z</time></trkpt><trkpt lat="42.74625762009839" lon="12.908238042395967"><ele>1170.0</ele><time>2026-04-12T11:51:51.001Z</time></trkpt><trkpt lat="42.746245169337406" lon="12.908087538316831"><ele>1170.0</ele><time>2026-04-12T11:51:52.001Z</time></trkpt><trkpt lat="42.746221570620214" lon="12.907931683337571"><ele>1170.25</ele><time>2026-04-12T11:51:53.001Z</time></trkpt><trkpt lat="42.746191907301075" lon="12.907773279708957"><ele>1170.5</ele><time>2026-04-12T11:51:54.001Z</time></trkpt><trkpt lat="42.74615477497278" lon="12.907608357323737"><ele>1170.75</ele><time>2026-04-12T11:51:55.001Z</time></trkpt><trkpt lat="42.74610786751019" lon="12.907456530902016"><ele>1171.0</ele><time>2026-04-12T11:51:56.001Z</time></trkpt><trkpt lat="42.74606590761512" lon="12.907320030214219"><ele>1169.0</ele><time>2026-04-12T11:51:57.001Z</time></trkpt><trkpt lat="42.74604174930784" lon="12.90720439180082"><ele>1167.0</ele><time>2026-04-12T11:51:58.001Z</time></trkpt><trkpt lat="42.746027301156424" lon="12.907099130364351"><ele>1165.0</ele><time>2026-04-12T11:51:59.001Z</time></trkpt><trkpt lat="42.74602039191512" lon="12.906957305646324"><ele>1163.0</ele><time>2026-04-12T11:52:00.001Z</time></trkpt><trkpt lat="42.74599378354088" lon="12.906810695458079"><ele>1161.0</ele><time>2026-04-12T11:52:01.001Z</time></trkpt><trkpt lat="42.74598543094744" lon="12.906638641270579"><ele>1161.0</ele><time>2026-04-12T11:52:02.001Z</time></trkpt><trkpt lat="42.745981156514155" lon="12.906498902810528"><ele>1161.0</ele><time>2026-04-12T11:52:03.001Z</time></trkpt><trkpt lat="42.74597137428669" lon="12.906362442898846"><ele>1161.0</ele><time>2026-04-12T11:52:04.001Z</time></trkpt><trkpt lat="42.745967889781255" lon="12.906261629637893"><ele>1161.0</ele><time>2026-04-12T11:52:05.001Z</time></trkpt><trkpt lat="42.74595362085183" lon="12.906160985648844"><ele>1161.0</ele><time>2026-04-12T11:52:06.001Z</time></trkpt><trkpt lat="42.74592361723064" lon="12.906026322320422"><ele>1162.75</ele><time>2026-04-12T11:52:07.001Z</time></trkpt><trkpt lat="42.745836002984774" lon="12.90588509057479"><ele>1164.5</ele><time>2026-04-12T11:52:09.001Z</time></trkpt><trkpt lat="42.74575540815365" lon="12.90575839704566"><ele>1166.25</ele><time>2026-04-12T11:52:10.001Z</time></trkpt><trkpt lat="42.74567314336095" lon="12.905611951354073"><ele>1168.0</ele><time>2026-04-12T11:52:11.001Z</time></trkpt><trkpt lat="42.74560463358777" lon="12.905465277421326"><ele>1168.0</ele><time>2026-04-12T11:52:12.001Z</time></trkpt><trkpt lat="42.74553187839254" lon="12.905326550803945"><ele>1168.0</ele><time>2026-04-12T11:52:13.001Z</time></trkpt><trkpt lat="42.745467027076955" lon="12.905202744012815"><ele>1168.0</ele><time>2026-04-12T11:52:14.001Z</time></trkpt><trkpt lat="42.745411053718385" lon="12.905091883053455"><ele>1168.0</ele><time>2026-04-12T11:52:15.001Z</time></trkpt><trkpt lat="42.74535526573544" lon="12.904970532581512"><ele>1168.0</ele><time>2026-04-12T11:52:16.001Z</time></trkpt><trkpt lat="42.74529132291364" lon="12.904850223205916"><ele>1168.0</ele><time>2026-04-12T11:52:17.001Z</time></trkpt><trkpt lat="42.745234115675096" lon="12.904737880975102"><ele>1168.0</ele><time>2026-04-12T11:52:18.001Z</time></trkpt><trkpt lat="42.745186021158204" lon="12.904628833865587"><ele>1168.0</ele><time>2026-04-12T11:52:19.001Z</time></trkpt><trkpt lat="42.74513500978809" lon="12.90451781337032"><ele>1168.0</ele><time>2026-04-12T11:52:20.001Z</time></trkpt><trkpt lat="42.74508328819967" lon="12.90440312510657"><ele>1168.0</ele><time>2026-04-12T11:52:21.002Z</time></trkpt><trkpt lat="42.7450342601018" lon="12.90429226398548"><ele>1168.2</ele><time>2026-04-12T11:52:22.002Z</time></trkpt><trkpt lat="42.74497823175519" lon="12.904184173514167"><ele>1168.4</ele><time>2026-04-12T11:52:23.002Z</time></trkpt><trkpt lat="42.744919917198835" lon="12.904069812649604"><ele>1168.6000000000001</ele><time>2026-04-12T11:52:24.002Z</time></trkpt><trkpt lat="42.744863708633204" lon="12.90396328537179"><ele>1168.8</ele><time>2026-04-12T11:52:25.002Z</time></trkpt><trkpt lat="42.744809079601986" lon="12.903867495394605"><ele>1169.0</ele><time>2026-04-12T11:52:26.002Z</time></trkpt><trkpt lat="42.744749526941455" lon="12.903775150594065"><ele>1169.0</ele><time>2026-04-12T11:52:27.002Z</time></trkpt><trkpt lat="42.74469806821737" lon="12.903701389093076"><ele>1169.0</ele><time>2026-04-12T11:52:28.002Z</time></trkpt><trkpt lat="42.744617509662554" lon="12.903605514137707"><ele>1169.0</ele><time>2026-04-12T11:52:29.002Z</time></trkpt><trkpt lat="42.744550348596185" lon="12.903507740178995"><ele>1169.0</ele><time>2026-04-12T11:52:30.002Z</time></trkpt><trkpt lat="42.744507373224835" lon="12.903421516128734"><ele>1169.0</ele><time>2026-04-12T11:52:31.002Z</time></trkpt><trkpt lat="42.74443375075752" lon="12.903247143178655"><ele>1167.6000000000001</ele><time>2026-04-12T11:52:32.002Z</time></trkpt><trkpt lat="42.74438484974613" lon="12.903103372350095"><ele>1166.2</ele><time>2026-04-12T11:52:33.002Z</time></trkpt><trkpt lat="42.744350719315456" lon="12.902961925710436"><ele>1164.8000000000002</ele><time>2026-04-12T11:52:34.002Z</time></trkpt><trkpt lat="42.74432379503805" lon="12.902824047514878"><ele>1163.4</ele><time>2026-04-12T11:52:35.002Z</time></trkpt><trkpt lat="42.74430547849625" lon="12.902688122627898"><ele>1162.0</ele><time>2026-04-12T11:52:36.002Z</time></trkpt><trkpt lat="42.74428606660549" lon="12.902557372672607"><ele>1165.2</ele><time>2026-04-12T11:52:37.002Z</time></trkpt><trkpt lat="42.74427256704483" lon="12.902416550637517"><ele>1168.4</ele><time>2026-04-12T11:52:38.002Z</time></trkpt><trkpt lat="42.74427496346647" lon="12.902272624826109"><ele>1171.6</ele><time>2026-04-12T11:52:39.002Z</time></trkpt><trkpt lat="42.74426879876904" lon="12.902142304836476"><ele>1174.8</ele><time>2026-04-12T11:52:40.002Z</time></trkpt><trkpt lat="42.744282005204155" lon="12.902017119669924"><ele>1178.0</ele><time>2026-04-12T11:52:41.002Z</time></trkpt><trkpt lat="42.744313960149505" lon="12.901877820880259"><ele>1178.0</ele><time>2026-04-12T11:52:42.002Z</time></trkpt><trkpt lat="42.7443275552339" lon="12.901761653386096"><ele>1178.0</ele><time>2026-04-12T11:52:43.002Z</time></trkpt><trkpt lat="42.74432670019377" lon="12.901650234413735"><ele>1178.0</ele><time>2026-04-12T11:52:44.002Z</time></trkpt><trkpt lat="42.744347740522834" lon="12.901518575805733"><ele>1178.0</ele><time>2026-04-12T11:52:45.002Z</time></trkpt><trkpt lat="42.74437350190826" lon="12.901377918186327"><ele>1178.0</ele><time>2026-04-12T11:52:46.002Z</time></trkpt><trkpt lat="42.74441427145374" lon="12.901222816739287"><ele>1175.0</ele><time>2026-04-12T11:52:47.002Z</time></trkpt><trkpt lat="42.74444462866071" lon="12.901087815789404"><ele>1172.0</ele><time>2026-04-12T11:52:48.002Z</time></trkpt><trkpt lat="42.74450156567509" lon="12.900947696029363"><ele>1169.0</ele><time>2026-04-12T11:52:49.002Z</time></trkpt><trkpt lat="42.74457263320074" lon="12.90082107068339"><ele>1166.0</ele><time>2026-04-12T11:52:50.002Z</time></trkpt><trkpt lat="42.74465674585475" lon="12.900712102461696"><ele>1166.0</ele><time>2026-04-12T11:52:51.002Z</time></trkpt><trkpt lat="42.74475789211815" lon="12.900623414384386"><ele>1166.0</ele><time>2026-04-12T11:52:52.002Z</time></trkpt><trkpt lat="42.7448848466909" lon="12.900544000463492"><ele>1166.0</ele><time>2026-04-12T11:52:53.002Z</time></trkpt><trkpt lat="42.744997004847576" lon="12.900398233434949"><ele>1166.0</ele><time>2026-04-12T11:52:54.002Z</time></trkpt><trkpt lat="42.74508530025201" lon="12.900335827320948"><ele>1166.0</ele><time>2026-04-12T11:52:55.002Z</time></trkpt><trkpt lat="42.74517458803932" lon="12.900183946535208"><ele>1166.0</ele><time>2026-04-12T11:52:56.002Z</time></trkpt><trkpt lat="42.745266023702605" lon="12.900022018886677"><ele>1166.0</ele><time>2026-04-12T11:52:57.002Z</time></trkpt><trkpt lat="42.74535664779168" lon="12.89987395096496"><ele>1166.0</ele><time>2026-04-12T11:52:58.002Z</time></trkpt><trkpt lat="42.74544819396512" lon="12.899746586916413"><ele>1165.8</ele><time>2026-04-12T11:52:59.002Z</time></trkpt><trkpt lat="42.74556588761215" lon="12.899652063503437"><ele>1165.6</ele><time>2026-04-12T11:53:00.002Z</time></trkpt><trkpt lat="42.74565738972031" lon="12.899587663519595"><ele>1165.4</ele><time>2026-04-12T11:53:01.002Z</time></trkpt><trkpt lat="42.745752531003966" lon="12.899533622529182"><ele>1165.2</ele><time>2026-04-12T11:53:02.002Z</time></trkpt><trkpt lat="42.74585173499294" lon="12.899497043822382"><ele>1165.0</ele><time>2026-04-12T11:53:03Z</time></trkpt><trkpt lat="42.7459540791381" lon="12.899451744670376"><ele>1165.8</ele><time>2026-04-12T11:53:04Z</time></trkpt><trkpt lat="42.74605327379607" lon="12.899392659904674"><ele>1166.6</ele><time>2026-04-12T11:53:05Z</time></trkpt><trkpt lat="42.746140031052036" lon="12.899318116788962"><ele>1167.4</ele><time>2026-04-12T11:53:06Z</time></trkpt><trkpt lat="42.746250573999774" lon="12.899281864878457"><ele>1168.2</ele><time>2026-04-12T11:53:07Z</time></trkpt><trkpt lat="42.74634162205356" lon="12.899205356425318"><ele>1169.0</ele><time>2026-04-12T11:53:08Z</time></trkpt><trkpt lat="42.746436678078936" lon="12.899181945686639"><ele>1169.0</ele><time>2026-04-12T11:53:09Z</time></trkpt><trkpt lat="42.74653932428538" lon="12.899212644928383"><ele>1169.0</ele><time>2026-04-12T11:53:10Z</time></trkpt><trkpt lat="42.746641410165715" lon="12.899241093580308"><ele>1169.0</ele><time>2026-04-12T11:53:11Z</time></trkpt><trkpt lat="42.746740366752654" lon="12.899259504465645"><ele>1169.0</ele><time>2026-04-12T11:53:12Z</time></trkpt><trkpt lat="42.74684653173761" lon="12.89925004246153"><ele>1169.0</ele><time>2026-04-12T11:53:13Z</time></trkpt><trkpt lat="42.74696285593639" lon="12.89917880177007"><ele>1167.0</ele><time>2026-04-12T11:53:14Z</time></trkpt><trkpt lat="42.74706438395881" lon="12.899088569176456"><ele>1165.0</ele><time>2026-04-12T11:53:15Z</time></trkpt><trkpt lat="42.74716130128441" lon="12.899014253821692"><ele>1163.0</ele><time>2026-04-12T11:53:16Z</time></trkpt><trkpt lat="42.74726953336391" lon="12.898969357792943"><ele>1161.0</ele><time>2026-04-12T11:53:17Z</time></trkpt><trkpt lat="42.747391019812156" lon="12.898949100550022"><ele>1161.0</ele><time>2026-04-12T11:53:18Z</time></trkpt><trkpt lat="42.74750880845901" lon="12.898941685883862"><ele>1161.0</ele><time>2026-04-12T11:53:19Z</time></trkpt><trkpt lat="42.74761522543312" lon="12.898936113287812"><ele>1161.0</ele><time>2026-04-12T11:53:20Z</time></trkpt><trkpt lat="42.7477352019171" lon="12.898929830645335"><ele>1161.0</ele><time>2026-04-12T11:53:21Z</time></trkpt><trkpt lat="42.74785010319378" lon="12.898909462090119"><ele>1161.3999999999999</ele><time>2026-04-12T11:53:22Z</time></trkpt><trkpt lat="42.747968480833556" lon="12.898919478207022"><ele>1161.8</ele><time>2026-04-12T11:53:23Z</time></trkpt><trkpt lat="42.748082510592205" lon="12.898915228403286"><ele>1162.1999999999998</ele><time>2026-04-12T11:53:24Z</time></trkpt><trkpt lat="42.74819216694218" lon="12.898911141592837"><ele>1162.6</ele><time>2026-04-12T11:53:25Z</time></trkpt><trkpt lat="42.748298532831214" lon="12.8989071774142"><ele>1163.0</ele><time>2026-04-12T11:53:26Z</time></trkpt><trkpt lat="42.748397325080845" lon="12.89890349549955"><ele>1163.0</ele><time>2026-04-12T11:53:27Z</time></trkpt><trkpt lat="42.74847872718639" lon="12.898900249811721"><ele>1163.0</ele><time>2026-04-12T11:53:28Z</time></trkpt><trkpt lat="42.74856288132633" lon="12.898896814000105"><ele>1163.0</ele><time>2026-04-12T11:53:29Z</time></trkpt><trkpt lat="42.74863998047382" lon="12.898893666225884"><ele>1163.0</ele><time>2026-04-12T11:53:30Z</time></trkpt><trkpt lat="42.748719993330205" lon="12.89889039949193"><ele>1163.0</ele><time>2026-04-12T11:53:31Z</time></trkpt><trkpt lat="42.74881625560061" lon="12.898878919168506"><ele>1163.0</ele><time>2026-04-12T11:53:32Z</time></trkpt><trkpt lat="42.74891388715294" lon="12.8988827013648"><ele>1163.0</ele><time>2026-04-12T11:53:33Z</time></trkpt><trkpt lat="42.749011491782056" lon="12.898884182387444"><ele>1163.0</ele><time>2026-04-12T11:53:34Z</time></trkpt><trkpt lat="42.74911603632403" lon="12.898864617892567"><ele>1163.0</ele><time>2026-04-12T11:53:35Z</time></trkpt><trkpt lat="42.74922428881847" lon="12.898840138326827"><ele>1163.0</ele><time>2026-04-12T11:53:36Z</time></trkpt><trkpt lat="42.7493514837887" lon="12.898822240911388"><ele>1163.0</ele><time>2026-04-12T11:53:37Z</time></trkpt><trkpt lat="42.749476843563066" lon="12.898826897172507"><ele>1162.25</ele><time>2026-04-12T11:53:38Z</time></trkpt><trkpt lat="42.74959559218896" lon="12.898884877798649"><ele>1161.5</ele><time>2026-04-12T11:53:39Z</time></trkpt><trkpt lat="42.749714095667706" lon="12.898925012902925"><ele>1160.75</ele><time>2026-04-12T11:53:40.001Z</time></trkpt><trkpt lat="42.74982996381062" lon="12.898952770378294"><ele>1160.0</ele><time>2026-04-12T11:53:41.001Z</time></trkpt><trkpt lat="42.749952558203645" lon="12.898943299276022"><ele>1160.0</ele><time>2026-04-12T11:53:42.001Z</time></trkpt><trkpt lat="42.75008633907299" lon="12.898957713678772"><ele>1160.0</ele><time>2026-04-12T11:53:43.001Z</time></trkpt><trkpt lat="42.7502118226451" lon="12.898996276233465"><ele>1160.0</ele><time>2026-04-12T11:53:44.001Z</time></trkpt><trkpt lat="42.75033495931653" lon="12.899000142385518"><ele>1160.0</ele><time>2026-04-12T11:53:45.001Z</time></trkpt><trkpt lat="42.75044751594097" lon="12.899028045375744"><ele>1159.75</ele><time>2026-04-12T11:53:46.001Z</time></trkpt><trkpt lat="42.750556383781976" lon="12.89905122803016"><ele>1159.5</ele><time>2026-04-12T11:53:47.001Z</time></trkpt><trkpt lat="42.750667319263314" lon="12.89907608547775"><ele>1159.25</ele><time>2026-04-12T11:53:48.001Z</time></trkpt><trkpt lat="42.75077750206339" lon="12.899101302012177"><ele>1159.0</ele><time>2026-04-12T11:53:49.001Z</time></trkpt><trkpt lat="42.75089706000003" lon="12.899147853916107"><ele>1159.0</ele><time>2026-04-12T11:53:50.001Z</time></trkpt><trkpt lat="42.75100257114314" lon="12.899162153957803"><ele>1159.0</ele><time>2026-04-12T11:53:51.001Z</time></trkpt><trkpt lat="42.75110797036462" lon="12.89919579999934"><ele>1159.0</ele><time>2026-04-12T11:53:52.001Z</time></trkpt><trkpt lat="42.751203015697385" lon="12.899237856033476"><ele>1159.0</ele><time>2026-04-12T11:53:53.001Z</time></trkpt><trkpt lat="42.75128977739341" lon="12.899287737403295"><ele>1159.0</ele><time>2026-04-12T11:53:54.001Z</time></trkpt><trkpt lat="42.751377796095106" lon="12.899343721067172"><ele>1157.2</ele><time>2026-04-12T11:53:55.001Z</time></trkpt><trkpt lat="42.75146082046319" lon="12.899402117244597"><ele>1155.4</ele><time>2026-04-12T11:53:56.001Z</time></trkpt><trkpt lat="42.75154496622245" lon="12.899453546437101"><ele>1153.6</ele><time>2026-04-12T11:53:57.001Z</time></trkpt><trkpt lat="42.751628053925764" lon="12.899508075108658"><ele>1151.8</ele><time>2026-04-12T11:53:58.001Z</time></trkpt><trkpt lat="42.751714986655706" lon="12.89956667863372"><ele>1150.0</ele><time>2026-04-12T11:53:59.001Z</time></trkpt><trkpt lat="42.75180820057216" lon="12.89958592393392"><ele>1150.3333333333333</ele><time>2026-04-12T11:54:00.001Z</time></trkpt><trkpt lat="42.75189170965691" lon="12.899599272199717"><ele>1150.6666666666665</ele><time>2026-04-12T11:54:01.001Z</time></trkpt><trkpt lat="42.75197870437935" lon="12.899597372223983"><ele>1151.0</ele><time>2026-04-12T11:54:02.001Z</time></trkpt><trkpt lat="42.752053640068205" lon="12.899601926050137"><ele>1151.3333333333333</ele><time>2026-04-12T11:54:03.001Z</time></trkpt><trkpt lat="42.75212354340695" lon="12.899635529024453"><ele>1151.6666666666667</ele><time>2026-04-12T11:54:04.001Z</time></trkpt><trkpt lat="42.75218939222772" lon="12.899693254499788"><ele>1152.0</ele><time>2026-04-12T11:54:05.001Z</time></trkpt><trkpt lat="42.75223716744986" lon="12.899763986048535"><ele>1152.0</ele><time>2026-04-12T11:54:06.001Z</time></trkpt><trkpt lat="42.752280081037114" lon="12.89985962199444"><ele>1152.0</ele><time>2026-04-12T11:54:07.001Z</time></trkpt><trkpt lat="42.752306111677015" lon="12.899983553937275"><ele>1152.0</ele><time>2026-04-12T11:54:08.001Z</time></trkpt><trkpt lat="42.75236202369957" lon="12.90009391297749"><ele>1152.0</ele><time>2026-04-12T11:54:09.001Z</time></trkpt><trkpt lat="42.752436850551625" lon="12.900174521706855"><ele>1152.0</ele><time>2026-04-12T11:54:10.001Z</time></trkpt><trkpt lat="42.752496642662166" lon="12.900280800134057"><ele>1151.75</ele><time>2026-04-12T11:54:11.001Z</time></trkpt><trkpt lat="42.75253813489695" lon="12.900407694884898"><ele>1151.5</ele><time>2026-04-12T11:54:12.001Z</time></trkpt><trkpt lat="42.75259798890831" lon="12.900556024022785"><ele>1151.25</ele><time>2026-04-12T11:54:13.001Z</time></trkpt><trkpt lat="42.75265575570571" lon="12.900703231181419"><ele>1151.0</ele><time>2026-04-12T11:54:14.001Z</time></trkpt><trkpt lat="42.752709373963235" lon="12.900820216666576"><ele>1150.3999999999999</ele><time>2026-04-12T11:54:15.001Z</time></trkpt><trkpt lat="42.75272481291032" lon="12.900955372905996"><ele>1149.8</ele><time>2026-04-12T11:54:16.001Z</time></trkpt><trkpt lat="42.75271729203318" lon="12.901103715507908"><ele>1149.1999999999998</ele><time>2026-04-12T11:54:17.001Z</time></trkpt><trkpt lat="42.752747874221704" lon="12.90123685454863"><ele>1148.6</ele><time>2026-04-12T11:54:18.001Z</time></trkpt><trkpt lat="42.75276192055574" lon="12.90137308499555"><ele>1148.0</ele><time>2026-04-12T11:54:19.001Z</time></trkpt><trkpt lat="42.75278752041208" lon="12.901513575566836"><ele>1148.0</ele><time>2026-04-12T11:54:20.001Z</time></trkpt><trkpt lat="42.75282326110977" lon="12.901661701599178"><ele>1148.0</ele><time>2026-04-12T11:54:21.001Z</time></trkpt><trkpt lat="42.752870530822726" lon="12.901793974682846"><ele>1148.0</ele><time>2026-04-12T11:54:22.001Z</time></trkpt><trkpt lat="42.75291416704241" lon="12.901933061730567"><ele>1148.0</ele><time>2026-04-12T11:54:23.001Z</time></trkpt><trkpt lat="42.75295984916507" lon="12.902006447228379"><ele>1148.0</ele><time>2026-04-12T11:54:24.001Z</time></trkpt><trkpt lat="42.75299686552473" lon="12.902114062433348"><ele>1148.3333333333335</ele><time>2026-04-12T11:54:25.002Z</time></trkpt><trkpt lat="42.75302441299658" lon="12.902195356633703"><ele>1148.6666666666667</ele><time>2026-04-12T11:54:26.002Z</time></trkpt><trkpt lat="42.753070251179" lon="12.902314959037083"><ele>1149.0</ele><time>2026-04-12T11:54:28.002Z</time></trkpt><trkpt lat="42.75315470767616" lon="12.902409930279529"><ele>1149.3333333333333</ele><time>2026-04-12T11:54:30.002Z</time></trkpt><trkpt lat="42.75324827894881" lon="12.902462353267845"><ele>1149.6666666666665</ele><time>2026-04-12T11:54:32.002Z</time></trkpt><trkpt lat="42.75331272292212" lon="12.902489142944392"><ele>1150.0</ele><time>2026-04-12T11:54:33.002Z</time></trkpt><trkpt lat="42.75337452809996" lon="12.9025253684354"><ele>1150.0</ele><time>2026-04-12T11:54:34.002Z</time></trkpt><trkpt lat="42.75344064965182" lon="12.902572277343088"><ele>1150.0</ele><time>2026-04-12T11:54:35.002Z</time></trkpt><trkpt lat="42.75346638947267" lon="12.902698475576937"><ele>1150.0</ele><time>2026-04-12T11:54:36.002Z</time></trkpt><trkpt lat="42.753520980748725" lon="12.90281342702956"><ele>1150.0</ele><time>2026-04-12T11:54:37.002Z</time></trkpt><trkpt lat="42.75357622366402" lon="12.90297603382652"><ele>1150.0</ele><time>2026-04-12T11:54:38.002Z</time></trkpt><trkpt lat="42.75363189284359" lon="12.903101677743368"><ele>1147.8</ele><time>2026-04-12T11:54:39.002Z</time></trkpt><trkpt lat="42.75369135128337" lon="12.90321512446087"><ele>1145.6</ele><time>2026-04-12T11:54:40.002Z</time></trkpt><trkpt lat="42.75375551423752" lon="12.903323664137424"><ele>1143.4</ele><time>2026-04-12T11:54:41.002Z</time></trkpt><trkpt lat="42.75381161535133" lon="12.903438233287305"><ele>1141.2</ele><time>2026-04-12T11:54:42.002Z</time></trkpt><trkpt lat="42.753855847937416" lon="12.903537699632896"><ele>1139.0</ele><time>2026-04-12T11:54:43.002Z</time></trkpt><trkpt lat="42.75387762831269" lon="12.903682007419102"><ele>1139.0</ele><time>2026-04-12T11:54:44.002Z</time></trkpt><trkpt lat="42.75392136661402" lon="12.903793918366683"><ele>1139.0</ele><time>2026-04-12T11:54:45.002Z</time></trkpt><trkpt lat="42.75392254198297" lon="12.903943965131964"><ele>1139.0</ele><time>2026-04-12T11:54:46.002Z</time></trkpt><trkpt lat="42.753963801273386" lon="12.90408751715037"><ele>1139.0</ele><time>2026-04-12T11:54:47.002Z</time></trkpt><trkpt lat="42.754014303303926" lon="12.904247775170326"><ele>1139.0</ele><time>2026-04-12T11:54:48.002Z</time></trkpt><trkpt lat="42.754066066149285" lon="12.904376861594747"><ele>1138.6000000000001</ele><time>2026-04-12T11:54:49.002Z</time></trkpt><trkpt lat="42.75412306306614" lon="12.904499463839995"><ele>1138.2</ele><time>2026-04-12T11:54:50.002Z</time></trkpt><trkpt lat="42.754168321287914" lon="12.904648559591502"><ele>1137.8000000000002</ele><time>2026-04-12T11:54:51.002Z</time></trkpt><trkpt lat="42.75422117456492" lon="12.904766995703158"><ele>1137.4</ele><time>2026-04-12T11:54:52.002Z</time></trkpt><trkpt lat="42.75428088487502" lon="12.904864087431909"><ele>1137.0</ele><time>2026-04-12T11:54:53.002Z</time></trkpt><trkpt lat="42.75430125947999" lon="12.904974611407155"><ele>1137.0</ele><time>2026-04-12T11:54:54.002Z</time></trkpt><trkpt lat="42.754334830421506" lon="12.905053449761564"><ele>1137.0</ele><time>2026-04-12T11:54:55.002Z</time></trkpt><trkpt lat="42.75431560585074" lon="12.905138475682035"><ele>1137.0</ele><time>2026-04-12T11:54:56.002Z</time></trkpt><trkpt lat="42.75431127675713" lon="12.90530306570796"><ele>1137.0</ele><time>2026-04-12T11:54:58.002Z</time></trkpt><trkpt lat="42.75435788174566" lon="12.90546176262237"><ele>1137.0</ele><time>2026-04-12T11:55:00.002Z</time></trkpt><trkpt lat="42.754445130294236" lon="12.905520807106978"><ele>1136.5</ele><time>2026-04-12T11:55:01.002Z</time></trkpt><trkpt lat="42.75448925675607" lon="12.90560837848588"><ele>1136.0</ele><time>2026-04-12T11:55:02.002Z</time></trkpt><trkpt lat="42.754539872066" lon="12.905707653215934"><ele>1135.5</ele><time>2026-04-12T11:55:03.002Z</time></trkpt><trkpt lat="42.75459164161655" lon="12.905798670181058"><ele>1135.0</ele><time>2026-04-12T11:55:04.002Z</time></trkpt><trkpt lat="42.754643406092775" lon="12.905902859020765"><ele>1134.5</ele><time>2026-04-12T11:55:05.002Z</time></trkpt><trkpt lat="42.75469588501444" lon="12.906013878486487"><ele>1134.0</ele><time>2026-04-12T11:55:06.002Z</time></trkpt><trkpt lat="42.75475887061756" lon="12.90610659398189"><ele>1133.8333333333333</ele><time>2026-04-12T11:55:07.002Z</time></trkpt><trkpt lat="42.75481964069842" lon="12.90619701018259"><ele>1133.6666666666667</ele><time>2026-04-12T11:55:08.002Z</time></trkpt><trkpt lat="42.7548687047694" lon="12.906291521933818"><ele>1133.5</ele><time>2026-04-12T11:55:09Z</time></trkpt><trkpt lat="42.754896879596174" lon="12.906383133430746"><ele>1133.3333333333335</ele><time>2026-04-12T11:55:10Z</time></trkpt><trkpt lat="42.754958879733294" lon="12.906478964240724"><ele>1133.1666666666667</ele><time>2026-04-12T11:55:11Z</time></trkpt><trkpt lat="42.75503758954559" lon="12.906545027186603"><ele>1133.0</ele><time>2026-04-12T11:55:12Z</time></trkpt><trkpt lat="42.755103405058314" lon="12.906595463575307"><ele>1133.0</ele><time>2026-04-12T11:55:13Z</time></trkpt><trkpt lat="42.755167781362886" lon="12.906675489134665"><ele>1133.0</ele><time>2026-04-12T11:55:15Z</time></trkpt><trkpt lat="42.75527730706638" lon="12.90659630377846"><ele>1133.0</ele><time>2026-04-12T11:55:18Z</time></trkpt><trkpt lat="42.75529914327232" lon="12.906508265345348"><ele>1133.0</ele><time>2026-04-12T11:55:20Z</time></trkpt><trkpt lat="42.75532883294081" lon="12.906355340540232"><ele>1133.0</ele><time>2026-04-12T11:55:22Z</time></trkpt><trkpt lat="42.75531704307899" lon="12.906207020816941"><ele>1131.8</ele><time>2026-04-12T11:55:24Z</time></trkpt><trkpt lat="42.75530826057679" lon="12.906042129463"><ele>1130.6</ele><time>2026-04-12T11:55:26Z</time></trkpt><trkpt lat="42.755280379925495" lon="12.90591284560512"><ele>1129.4</ele><time>2026-04-12T11:55:28Z</time></trkpt><trkpt lat="42.75530342758719" lon="12.905758841402792"><ele>1128.2</ele><time>2026-04-12T11:55:30Z</time></trkpt><trkpt lat="42.75537757836983" lon="12.90565907722809"><ele>1127.0</ele><time>2026-04-12T11:55:32Z</time></trkpt><trkpt lat="42.75543261246907" lon="12.905536714424057"><ele>1127.0</ele><time>2026-04-12T11:55:34Z</time></trkpt><trkpt lat="42.75547864009825" lon="12.905436325205827"><ele>1127.0</ele><time>2026-04-12T11:55:35Z</time></trkpt><trkpt lat="42.75553269634927" lon="12.905333563462529"><ele>1127.0</ele><time>2026-04-12T11:55:36Z</time></trkpt><trkpt lat="42.7555825412916" lon="12.905270103491798"><ele>1127.0</ele><time>2026-04-12T11:55:37Z</time></trkpt><trkpt lat="42.7556458571246" lon="12.905185654385756"><ele>1127.0</ele><time>2026-04-12T11:55:38Z</time></trkpt><trkpt lat="42.75568987173921" lon="12.905112954539705"><ele>1127.0</ele><time>2026-04-12T11:55:39Z</time></trkpt><trkpt lat="42.75574324215754" lon="12.905012598009234"><ele>1127.8333333333335</ele><time>2026-04-12T11:55:40Z</time></trkpt><trkpt lat="42.755803406132785" lon="12.90491425622336"><ele>1128.6666666666667</ele><time>2026-04-12T11:55:41Z</time></trkpt><trkpt lat="42.7558404335686" lon="12.904803857504595"><ele>1129.5</ele><time>2026-04-12T11:55:42Z</time></trkpt><trkpt lat="42.75587524755868" lon="12.904699745300755"><ele>1130.3333333333333</ele><time>2026-04-12T11:55:43Z</time></trkpt><trkpt lat="42.7559144179628" lon="12.904578167817848"><ele>1131.1666666666665</ele><time>2026-04-12T11:55:44Z</time></trkpt><trkpt lat="42.755949039888904" lon="12.904477331262331"><ele>1132.0</ele><time>2026-04-12T11:55:45Z</time></trkpt><trkpt lat="42.756003197264675" lon="12.904375401081928"><ele>1132.0</ele><time>2026-04-12T11:55:46.001Z</time></trkpt><trkpt lat="42.75606689992679" lon="12.904272136590473"><ele>1132.0</ele><time>2026-04-12T11:55:47.001Z</time></trkpt><trkpt lat="42.75611963207607" lon="12.904177785712386"><ele>1132.0</ele><time>2026-04-12T11:55:48.001Z</time></trkpt><trkpt lat="42.75616297007904" lon="12.904075435931317"><ele>1132.0</ele><time>2026-04-12T11:55:49.001Z</time></trkpt><trkpt lat="42.75618785156505" lon="12.903913606518735"><ele>1132.0</ele><time>2026-04-12T11:55:51.001Z</time></trkpt><trkpt lat="42.756198921008135" lon="12.903779918973793"><ele>1132.0</ele><time>2026-04-12T11:55:53.001Z</time></trkpt><trkpt lat="42.756252768944485" lon="12.903722491981577"><ele>1132.0</ele><time>2026-04-12T11:55:54.001Z</time></trkpt><trkpt lat="42.756372164888816" lon="12.903687083500104"><ele>1132.0</ele><time>2026-04-12T11:55:56.001Z</time></trkpt><trkpt lat="42.75645473771953" lon="12.903640900608636"><ele>1132.0</ele><time>2026-04-12T11:55:58.001Z</time></trkpt><trkpt lat="42.75652633880256" lon="12.903589293592042"><ele>1132.0</ele><time>2026-04-12T11:56:00.001Z</time></trkpt><trkpt lat="42.7566007131526" lon="12.9036081192332"><ele>1132.0</ele><time>2026-04-12T11:56:02.001Z</time></trkpt><trkpt lat="42.75668608748318" lon="12.903650434654088"><ele>1132.0</ele><time>2026-04-12T11:56:04.001Z</time></trkpt><trkpt lat="42.7567928010924" lon="12.90364067551153"><ele>1132.0</ele><time>2026-04-12T11:56:06.001Z</time></trkpt><trkpt lat="42.75685793579708" lon="12.903624900568435"><ele>1132.0</ele><time>2026-04-12T11:56:07.001Z</time></trkpt><trkpt lat="42.75697249318646" lon="12.903596379116044"><ele>1132.0</ele><time>2026-04-12T11:56:09.001Z</time></trkpt><trkpt lat="42.7570481707145" lon="12.903597279495001"><ele>1132.0</ele><time>2026-04-12T11:56:10.001Z</time></trkpt><trkpt lat="42.757162658444656" lon="12.903578742141283"><ele>1133.4</ele><time>2026-04-12T11:56:11.001Z</time></trkpt><trkpt lat="42.75724672947372" lon="12.903599622397008"><ele>1134.8000000000002</ele><time>2026-04-12T11:56:12.001Z</time></trkpt><trkpt lat="42.757340602702705" lon="12.903600444318814"><ele>1136.2</ele><time>2026-04-12T11:56:13.001Z</time></trkpt><trkpt lat="42.7574613857784" lon="12.903630311626856"><ele>1137.6000000000001</ele><time>2026-04-12T11:56:14.001Z</time></trkpt><trkpt lat="42.757559736463584" lon="12.903626718799627"><ele>1139.0</ele><time>2026-04-12T11:56:15.001Z</time></trkpt><trkpt lat="42.7576403558765" lon="12.903569929600161"><ele>1140.5</ele><time>2026-04-12T11:56:16.001Z</time></trkpt><trkpt lat="42.757757999122745" lon="12.903461232210129"><ele>1142.0</ele><time>2026-04-12T11:56:18.001Z</time></trkpt><trkpt lat="42.757854621554124" lon="12.903434090590281"><ele>1143.5</ele><time>2026-04-12T11:56:20.001Z</time></trkpt><trkpt lat="42.75796975532522" lon="12.903426239195808"><ele>1145.0</ele><time>2026-04-12T11:56:22.001Z</time></trkpt><trkpt lat="42.758107361348465" lon="12.903421736644718"><ele>1145.0</ele><time>2026-04-12T11:56:24.001Z</time></trkpt><trkpt lat="42.75817830061604" lon="12.903444073507835"><ele>1145.0</ele><time>2026-04-12T11:56:25.001Z</time></trkpt><trkpt lat="42.75828156335512" lon="12.903531071742558"><ele>1145.0</ele><time>2026-04-12T11:56:27.001Z</time></trkpt><trkpt lat="42.75833554583447" lon="12.903646459839143"><ele>1145.0</ele><time>2026-04-12T11:56:29.001Z</time></trkpt><trkpt lat="42.758416480993546" lon="12.90367197833711"><ele>1145.0</ele><time>2026-04-12T11:56:30.002Z</time></trkpt><trkpt lat="42.758507520578114" lon="12.903717198346394"><ele>1145.3333333333335</ele><time>2026-04-12T11:56:31.002Z</time></trkpt><trkpt lat="42.75859780148071" lon="12.903747286631239"><ele>1145.6666666666667</ele><time>2026-04-12T11:56:32.002Z</time></trkpt><trkpt lat="42.758657479199805" lon="12.903788138164236"><ele>1146.0</ele><time>2026-04-12T11:56:33.002Z</time></trkpt><trkpt lat="42.75876290732446" lon="12.903833214879333"><ele>1146.3333333333333</ele><time>2026-04-12T11:56:35.002Z</time></trkpt><trkpt lat="42.75883481586463" lon="12.90382764038653"><ele>1146.6666666666665</ele><time>2026-04-12T11:56:36.002Z</time></trkpt><trkpt lat="42.75891681264061" lon="12.903750725048697"><ele>1147.0</ele><time>2026-04-12T11:56:38.002Z</time></trkpt><trkpt lat="42.75900353559263" lon="12.903660792123642"><ele>1147.0</ele><time>2026-04-12T11:56:39.002Z</time></trkpt><trkpt lat="42.759085001645154" lon="12.903607963533803"><ele>1147.0</ele><time>2026-04-12T11:56:40.002Z</time></trkpt><trkpt lat="42.75915389718552" lon="12.903569471628943"><ele>1147.0</ele><time>2026-04-12T11:56:41.002Z</time></trkpt><trkpt lat="42.75921386980539" lon="12.903525480270504"><ele>1147.0</ele><time>2026-04-12T11:56:42.002Z</time></trkpt><trkpt lat="42.75927608125668" lon="12.903462701115608"><ele>1147.0</ele><time>2026-04-12T11:56:43.002Z</time></trkpt><trkpt lat="42.759321083553715" lon="12.903375427890337"><ele>1147.0</ele><time>2026-04-12T11:56:44.002Z</time></trkpt><trkpt lat="42.75936425427697" lon="12.90329614632541"><ele>1146.6666666666665</ele><time>2026-04-12T11:56:45.002Z</time></trkpt><trkpt lat="42.75941625671427" lon="12.903233726762386"><ele>1146.3333333333333</ele><time>2026-04-12T11:56:46.002Z</time></trkpt><trkpt lat="42.75947859869757" lon="12.903178203974448"><ele>1146.0</ele><time>2026-04-12T11:56:47.002Z</time></trkpt><trkpt lat="42.75953900937018" lon="12.903137153597688"><ele>1145.6666666666667</ele><time>2026-04-12T11:56:48.002Z</time></trkpt><trkpt lat="42.75961190486028" lon="12.90299069479965"><ele>1145.3333333333335</ele><time>2026-04-12T11:56:50.002Z</time></trkpt><trkpt lat="42.759634268722685" lon="12.90289035510078"><ele>1145.0</ele><time>2026-04-12T11:56:51.002Z</time></trkpt><trkpt lat="42.7596463195598" lon="12.90278081502402"><ele>1145.0</ele><time>2026-04-12T11:56:52.002Z</time></trkpt><trkpt lat="42.75967880923696" lon="12.902660483968715"><ele>1145.0</ele><time>2026-04-12T11:56:53.002Z</time></trkpt><trkpt lat="42.75971798905643" lon="12.902584438405158"><ele>1145.0</ele><time>2026-04-12T11:56:54.002Z</time></trkpt><trkpt lat="42.75977837798938" lon="12.90251461996059"><ele>1145.0</ele><time>2026-04-12T11:56:55.002Z</time></trkpt><trkpt lat="42.75983347431957" lon="12.902454806282716"><ele>1145.0</ele><time>2026-04-12T11:56:56.002Z</time></trkpt><trkpt lat="42.7598852823445" lon="12.902399677459472"><ele>1145.0</ele><time>2026-04-12T11:56:57.002Z</time></trkpt><trkpt lat="42.75995910216144" lon="12.902302949597336"><ele>1144.6666666666667</ele><time>2026-04-12T11:56:59.002Z</time></trkpt><trkpt lat="42.760012940515686" lon="12.902255951525373"><ele>1144.3333333333335</ele><time>2026-04-12T11:57:01.002Z</time></trkpt><trkpt lat="42.760115044875576" lon="12.902219619010134"><ele>1144.0</ele><time>2026-04-12T11:57:03.002Z</time></trkpt><trkpt lat="42.76019684979069" lon="12.902193993857622"><ele>1143.6666666666667</ele><time>2026-04-12T11:57:04.002Z</time></trkpt><trkpt lat="42.760275769390276" lon="12.902159303434406"><ele>1143.3333333333333</ele><time>2026-04-12T11:57:05.002Z</time></trkpt><trkpt lat="42.760349028395744" lon="12.902094131517474"><ele>1143.0</ele><time>2026-04-12T11:57:06.002Z</time></trkpt><trkpt lat="42.760417226447025" lon="12.902001455407014"><ele>1143.0</ele><time>2026-04-12T11:57:07.002Z</time></trkpt><trkpt lat="42.760479467888715" lon="12.901890443855626"><ele>1143.0</ele><time>2026-04-12T11:57:08.002Z</time></trkpt><trkpt lat="42.760564017356806" lon="12.901804161622195"><ele>1143.0</ele><time>2026-04-12T11:57:09.002Z</time></trkpt><trkpt lat="42.76064957493028" lon="12.901741676110287"><ele>1143.0</ele><time>2026-04-12T11:57:10.002Z</time></trkpt><trkpt lat="42.760733547868014" lon="12.901671356375035"><ele>1143.0</ele><time>2026-04-12T11:57:11.002Z</time></trkpt><trkpt lat="42.760809953953625" lon="12.90159788255629"><ele>1143.3333333333333</ele><time>2026-04-12T11:57:12.002Z</time></trkpt><trkpt lat="42.76085966136838" lon="12.901521577872801"><ele>1143.6666666666667</ele><time>2026-04-12T11:57:13.002Z</time></trkpt><trkpt lat="42.760911916637276" lon="12.90142222467394"><ele>1144.0</ele><time>2026-04-12T11:57:14.002Z</time></trkpt><trkpt lat="42.760959420106836" lon="12.901339742348368"><ele>1144.3333333333335</ele><time>2026-04-12T11:57:15Z</time></trkpt><trkpt lat="42.76100048068991" lon="12.901264257249435"><ele>1144.6666666666667</ele><time>2026-04-12T11:57:16Z</time></trkpt><trkpt lat="42.76103574630486" lon="12.901173887672446"><ele>1145.0</ele><time>2026-04-12T11:57:17Z</time></trkpt><trkpt lat="42.76107334143427" lon="12.901069115841251"><ele>1145.2</ele><time>2026-04-12T11:57:18Z</time></trkpt><trkpt lat="42.761158967246324" lon="12.900898636179702"><ele>1145.4</ele><time>2026-04-12T11:57:20Z</time></trkpt><trkpt lat="42.761220247083976" lon="12.90081665834306"><ele>1145.6</ele><time>2026-04-12T11:57:21Z</time></trkpt><trkpt lat="42.76129505220778" lon="12.900731068196338"><ele>1145.8</ele><time>2026-04-12T11:57:22Z</time></trkpt><trkpt lat="42.76137021456669" lon="12.900660548202074"><ele>1146.0</ele><time>2026-04-12T11:57:23Z</time></trkpt><trkpt lat="42.76143097457544" lon="12.900565266671515"><ele>1146.0</ele><time>2026-04-12T11:57:24Z</time></trkpt><trkpt lat="42.7614976029297" lon="12.900479021039665"><ele>1146.0</ele><time>2026-04-12T11:57:25Z</time></trkpt><trkpt lat="42.76156905938365" lon="12.900415986469172"><ele>1146.0</ele><time>2026-04-12T11:57:26Z</time></trkpt><trkpt lat="42.761644123029036" lon="12.900339057730061"><ele>1146.0</ele><time>2026-04-12T11:57:27Z</time></trkpt><trkpt lat="42.76171725436479" lon="12.900256042603491"><ele>1146.0</ele><time>2026-04-12T11:57:28Z</time></trkpt><trkpt lat="42.76180097780277" lon="12.900174457882455"><ele>1145.8</ele><time>2026-04-12T11:57:29Z</time></trkpt><trkpt lat="42.761878834073705" lon="12.900099846572257"><ele>1145.6</ele><time>2026-04-12T11:57:30Z</time></trkpt><trkpt lat="42.76195884664003" lon="12.90002723383762"><ele>1145.4</ele><time>2026-04-12T11:57:31Z</time></trkpt><trkpt lat="42.762029926358814" lon="12.899944537413274"><ele>1145.2</ele><time>2026-04-12T11:57:32Z</time></trkpt><trkpt lat="42.76208836034831" lon="12.899865345920434"><ele>1145.0</ele><time>2026-04-12T11:57:33Z</time></trkpt><trkpt lat="42.76215046210981" lon="12.899768597969464"><ele>1145.0</ele><time>2026-04-12T11:57:34Z</time></trkpt><trkpt lat="42.76221721420061" lon="12.899675319620806"><ele>1145.0</ele><time>2026-04-12T11:57:35Z</time></trkpt><trkpt lat="42.76229300548116" lon="12.899599425371495"><ele>1145.0</ele><time>2026-04-12T11:57:36Z</time></trkpt><trkpt lat="42.762377841610174" lon="12.899540446763048"><ele>1145.0</ele><time>2026-04-12T11:57:37Z</time></trkpt><trkpt lat="42.76245967474238" lon="12.899472307957614"><ele>1145.0</ele><time>2026-04-12T11:57:38.001Z</time></trkpt><trkpt lat="42.762536144105276" lon="12.899393221776103"><ele>1145.0</ele><time>2026-04-12T11:57:39.001Z</time></trkpt><trkpt lat="42.76261348568896" lon="12.899318040072535"><ele>1145.0</ele><time>2026-04-12T11:57:40.001Z</time></trkpt><trkpt lat="42.76270142601188" lon="12.899246993062299"><ele>1145.0</ele><time>2026-04-12T11:57:41.001Z</time></trkpt><trkpt lat="42.762792744897375" lon="12.899183333723666"><ele>1145.0</ele><time>2026-04-12T11:57:42.001Z</time></trkpt><trkpt lat="42.76288089171937" lon="12.899136385531126"><ele>1145.0</ele><time>2026-04-12T11:57:43.001Z</time></trkpt><trkpt lat="42.76296247174883" lon="12.899090523430353"><ele>1144.8333333333335</ele><time>2026-04-12T11:57:44.001Z</time></trkpt><trkpt lat="42.76304456695918" lon="12.899043374299012"><ele>1144.6666666666667</ele><time>2026-04-12T11:57:45.001Z</time></trkpt><trkpt lat="42.76311170226195" lon="12.899003478565964"><ele>1144.5</ele><time>2026-04-12T11:57:46.001Z</time></trkpt><trkpt lat="42.763181488015285" lon="12.89896718321349"><ele>1144.3333333333333</ele><time>2026-04-12T11:57:47.001Z</time></trkpt><trkpt lat="42.763250881197614" lon="12.898941644537617"><ele>1144.1666666666665</ele><time>2026-04-12T11:57:48.001Z</time></trkpt><trkpt lat="42.76336072927" lon="12.898884274180059"><ele>1144.0</ele><time>2026-04-12T11:57:50.001Z</time></trkpt><trkpt lat="42.76346550528171" lon="12.898831303099175"><ele>1142.3333333333333</ele><time>2026-04-12T11:57:52.001Z</time></trkpt><trkpt lat="42.7635332328964" lon="12.898786370933944"><ele>1140.6666666666665</ele><time>2026-04-12T11:57:53.001Z</time></trkpt><trkpt lat="42.763600290311594" lon="12.898779104406401"><ele>1139.0</ele><time>2026-04-12T11:57:54.001Z</time></trkpt><trkpt lat="42.76371087023902" lon="12.898779674204045"><ele>1137.3333333333333</ele><time>2026-04-12T11:57:56.001Z</time></trkpt><trkpt lat="42.76381428868863" lon="12.898727565672521"><ele>1135.6666666666667</ele><time>2026-04-12T11:57:58.001Z</time></trkpt><trkpt lat="42.76388139546749" lon="12.898726803231867"><ele>1134.0</ele><time>2026-04-12T11:57:59.001Z</time></trkpt><trkpt lat="42.76395882668094" lon="12.898751088445135"><ele>1134.0</ele><time>2026-04-12T11:58:01.001Z</time></trkpt><trkpt lat="42.764026639487966" lon="12.898799689777034"><ele>1134.0</ele><time>2026-04-12T11:58:04.001Z</time></trkpt><trkpt lat="42.76411067369761" lon="12.898833585147095"><ele>1134.0</ele><time>2026-04-12T11:58:06.001Z</time></trkpt><trkpt lat="42.764217909155434" lon="12.898887375248432"><ele>1134.0</ele><time>2026-04-12T11:58:08.001Z</time></trkpt><trkpt lat="42.76429194751299" lon="12.898925386831483"><ele>1134.0</ele><time>2026-04-12T11:58:10.001Z</time></trkpt><trkpt lat="42.76435920349045" lon="12.898994847626073"><ele>1134.0</ele><time>2026-04-12T11:58:12.001Z</time></trkpt><trkpt lat="42.764439958539626" lon="12.89910213764666"><ele>1133.6666666666667</ele><time>2026-04-12T11:58:14.001Z</time></trkpt><trkpt lat="42.764504353304304" lon="12.899135085897065"><ele>1133.3333333333333</ele><time>2026-04-12T11:58:15.001Z</time></trkpt><trkpt lat="42.764594197613356" lon="12.899058495212996"><ele>1133.0</ele><time>2026-04-12T11:58:16.001Z</time></trkpt><trkpt lat="42.76467010151634" lon="12.89911990993847"><ele>1132.6666666666665</ele><time>2026-04-12T11:58:18.001Z</time></trkpt><trkpt lat="42.76472813604816" lon="12.899154742976814"><ele>1132.3333333333333</ele><time>2026-04-12T11:58:21.001Z</time></trkpt><trkpt lat="42.76478869364543" lon="12.899184337689439"><ele>1132.0</ele><time>2026-04-12T11:58:24.001Z</time></trkpt><trkpt lat="42.76487983137235" lon="12.899167915551754"><ele>1132.0</ele><time>2026-04-12T11:58:27.001Z</time></trkpt><trkpt lat="42.764945414258136" lon="12.89913983629444"><ele>1132.0</ele><time>2026-04-12T11:58:29.001Z</time></trkpt><trkpt lat="42.765017600564285" lon="12.899114099992643"><ele>1132.0</ele><time>2026-04-12T11:58:33.002Z</time></trkpt><trkpt lat="42.76504256009349" lon="12.899023909963159"><ele>1132.0</ele><time>2026-04-12T12:00:15.001Z</time></trkpt><trkpt lat="42.7651434895872" lon="12.899032280548372"><ele>1132.0</ele><time>2026-04-12T12:00:17.001Z</time></trkpt><trkpt lat="42.765206124888756" lon="12.89906487628067"><ele>1132.0</ele><time>2026-04-12T12:00:18.001Z</time></trkpt><trkpt lat="42.76524906257473" lon="12.89916519930778"><ele>1130.8</ele><time>2026-04-12T12:00:22.001Z</time></trkpt><trkpt lat="42.76534563700627" lon="12.89916072325702"><ele>1129.6</ele><time>2026-04-12T12:00:36.002Z</time></trkpt><trkpt lat="42.765414291187376" lon="12.899179465548816"><ele>1128.3999999999999</ele><time>2026-04-12T12:00:39.002Z</time></trkpt><trkpt lat="42.76549931997052" lon="12.8993558576385"><ele>1127.2</ele><time>2026-04-12T12:00:42.002Z</time></trkpt><trkpt lat="42.76550351619074" lon="12.899490933281895"><ele>1126.0</ele><time>2026-04-12T12:00:44.002Z</time></trkpt><trkpt lat="42.765505642979605" lon="12.899577448933982"><ele>1125.6</ele><time>2026-04-12T12:00:45.002Z</time></trkpt><trkpt lat="42.7655032747244" lon="12.899664325551747"><ele>1125.1999999999998</ele><time>2026-04-12T12:00:46.002Z</time></trkpt><trkpt lat="42.765458984468815" lon="12.899766641884279"><ele>1124.8000000000002</ele><time>2026-04-12T12:00:48.002Z</time></trkpt><trkpt lat="42.7654523817514" lon="12.899889445685167"><ele>1124.4</ele><time>2026-04-12T12:01:06.002Z</time></trkpt><trkpt lat="42.765512996678204" lon="12.900021459921089"><ele>1124.0</ele><time>2026-04-12T12:01:08.002Z</time></trkpt><trkpt lat="42.765581525369434" lon="12.900121181060248"><ele>1123.6000000000001</ele><time>2026-04-12T12:01:10.002Z</time></trkpt><trkpt lat="42.765667234089044" lon="12.900170571463061"><ele>1123.2</ele><time>2026-04-12T12:01:12.002Z</time></trkpt><trkpt lat="42.765759979773875" lon="12.900249222036413"><ele>1122.8000000000002</ele><time>2026-04-12T12:01:14.002Z</time></trkpt><trkpt lat="42.76581418025765" lon="12.90029319851333"><ele>1122.4</ele><time>2026-04-12T12:01:15.002Z</time></trkpt><trkpt lat="42.765925746782905" lon="12.900381733178847"><ele>1122.0</ele><time>2026-04-12T12:01:17.002Z</time></trkpt><trkpt lat="42.76598227133728" lon="12.900426528015172"><ele>1122.2</ele><time>2026-04-12T12:01:18.002Z</time></trkpt><trkpt lat="42.76607529177845" lon="12.90050911091963"><ele>1122.4</ele><time>2026-04-12T12:01:20.002Z</time></trkpt><trkpt lat="42.76614591631848" lon="12.900578172101877"><ele>1122.6</ele><time>2026-04-12T12:01:22.002Z</time></trkpt><trkpt lat="42.766222850865844" lon="12.900684878774891"><ele>1122.8</ele><time>2026-04-12T12:01:24.002Z</time></trkpt><trkpt lat="42.766316047832426" lon="12.900747648792972"><ele>1123.0</ele><time>2026-04-12T12:01:26.003Z</time></trkpt><trkpt lat="42.766457737497475" lon="12.900797154718683"><ele>1123.0</ele><time>2026-04-12T12:01:28.001Z</time></trkpt><trkpt lat="42.76655301200934" lon="12.900830070433138"><ele>1123.0</ele><time>2026-04-12T12:01:30.001Z</time></trkpt><trkpt lat="42.76666560945435" lon="12.900759575530719"><ele>1123.0</ele><time>2026-04-12T12:01:32.001Z</time></trkpt><trkpt lat="42.76672672653197" lon="12.900711763463423"><ele>1123.0</ele><time>2026-04-12T12:01:33.001Z</time></trkpt><trkpt lat="42.76685728898007" lon="12.900688935824185"><ele>1123.0</ele><time>2026-04-12T12:01:35.001Z</time></trkpt><trkpt lat="42.76693017482866" lon="12.90066764684249"><ele>1123.4285714285713</ele><time>2026-04-12T12:01:36.001Z</time></trkpt><trkpt lat="42.76700790939614" lon="12.900681602642859"><ele>1123.857142857143</ele><time>2026-04-12T12:01:37.001Z</time></trkpt><trkpt lat="42.76707909101255" lon="12.900693768697394"><ele>1124.2857142857142</ele><time>2026-04-12T12:01:38.001Z</time></trkpt><trkpt lat="42.767146679317726" lon="12.900731201903083"><ele>1124.7142857142858</ele><time>2026-04-12T12:01:39.001Z</time></trkpt><trkpt lat="42.767208265594896" lon="12.900761930681577"><ele>1125.142857142857</ele><time>2026-04-12T12:01:40.001Z</time></trkpt><trkpt lat="42.76727117617689" lon="12.900789051377794"><ele>1125.5714285714284</ele><time>2026-04-12T12:01:41.001Z</time></trkpt><trkpt lat="42.767340805202046" lon="12.900824933339313"><ele>1126.0</ele><time>2026-04-12T12:01:42.001Z</time></trkpt><trkpt lat="42.7674925162453" lon="12.900833506363313"><ele>1126.0</ele><time>2026-04-12T12:01:44.001Z</time></trkpt><trkpt lat="42.76756000456039" lon="12.900827390511383"><ele>1126.0</ele><time>2026-04-12T12:01:45.001Z</time></trkpt><trkpt lat="42.7676383359792" lon="12.900842579718573"><ele>1126.0</ele><time>2026-04-12T12:01:46.001Z</time></trkpt><trkpt lat="42.7677007372437" lon="12.90081738018651"><ele>1126.0</ele><time>2026-04-12T12:01:47.001Z</time></trkpt><trkpt lat="42.76780384161313" lon="12.900695004667135"><ele>1126.0</ele><time>2026-04-12T12:01:49.001Z</time></trkpt><trkpt lat="42.76787042242252" lon="12.900689845689467"><ele>1126.0</ele><time>2026-04-12T12:01:50.001Z</time></trkpt><trkpt lat="42.767915539983576" lon="12.900768681423765"><ele>1125.8</ele><time>2026-04-12T12:01:51.001Z</time></trkpt><trkpt lat="42.76800843613508" lon="12.900766545002673"><ele>1125.6</ele><time>2026-04-12T12:01:52.001Z</time></trkpt><trkpt lat="42.76810936379275" lon="12.90077051307571"><ele>1125.4</ele><time>2026-04-12T12:01:53.001Z</time></trkpt><trkpt lat="42.76821738115057" lon="12.900755657171603"><ele>1125.2</ele><time>2026-04-12T12:01:54.001Z</time></trkpt><trkpt lat="42.76830948783354" lon="12.900760087190346"><ele>1125.0</ele><time>2026-04-12T12:01:55.001Z</time></trkpt><trkpt lat="42.768400352659995" lon="12.900792444240569"><ele>1125.0</ele><time>2026-04-12T12:01:57.001Z</time></trkpt><trkpt lat="42.76849117618899" lon="12.900884658210998"><ele>1125.0</ele><time>2026-04-12T12:01:59.001Z</time></trkpt><trkpt lat="42.76855047124508" lon="12.900919270366467"><ele>1125.0</ele><time>2026-04-12T12:02:00.001Z</time></trkpt><trkpt lat="42.768653239822605" lon="12.900974168577264"><ele>1125.0</ele><time>2026-04-12T12:02:02.001Z</time></trkpt><trkpt lat="42.76876912479256" lon="12.901016026923276"><ele>1125.0</ele><time>2026-04-12T12:02:04.001Z</time></trkpt><trkpt lat="42.768899098168895" lon="12.9010124758497"><ele>1123.142857142857</ele><time>2026-04-12T12:02:06.001Z</time></trkpt><trkpt lat="42.76896891803097" lon="12.901036756955614"><ele>1121.2857142857144</ele><time>2026-04-12T12:02:07.001Z</time></trkpt><trkpt lat="42.769043097184266" lon="12.901030909603962"><ele>1119.4285714285716</ele><time>2026-04-12T12:02:08.001Z</time></trkpt><trkpt lat="42.769108428592865" lon="12.900997132305143"><ele>1117.5714285714287</ele><time>2026-04-12T12:02:09.001Z</time></trkpt><trkpt lat="42.76917982387185" lon="12.900970740794717"><ele>1115.7142857142858</ele><time>2026-04-12T12:02:10.001Z</time></trkpt><trkpt lat="42.769247919647306" lon="12.900960423399852"><ele>1113.857142857143</ele><time>2026-04-12T12:02:11.001Z</time></trkpt><trkpt lat="42.769316400612375" lon="12.900962229247197"><ele>1112.0</ele><time>2026-04-12T12:02:12.001Z</time></trkpt><trkpt lat="42.769423693962466" lon="12.901012984782541"><ele>1109.6</ele><time>2026-04-12T12:02:14.001Z</time></trkpt><trkpt lat="42.769540394086285" lon="12.901012974039006"><ele>1107.2</ele><time>2026-04-12T12:02:16.001Z</time></trkpt><trkpt lat="42.769636173668246" lon="12.901025723708754"><ele>1104.8</ele><time>2026-04-12T12:02:18.001Z</time></trkpt><trkpt lat="42.76969922148554" lon="12.901015594139057"><ele>1102.4</ele><time>2026-04-12T12:02:19.001Z</time></trkpt><trkpt lat="42.76979740714453" lon="12.90096425441674"><ele>1100.0</ele><time>2026-04-12T12:02:21.001Z</time></trkpt><trkpt lat="42.769904614576326" lon="12.900978619001489"><ele>1100.0</ele><time>2026-04-12T12:02:23.001Z</time></trkpt><trkpt lat="42.77001390408074" lon="12.901002802470455"><ele>1100.0</ele><time>2026-04-12T12:02:25.001Z</time></trkpt><trkpt lat="42.77009281537314" lon="12.901001954641853"><ele>1100.0</ele><time>2026-04-12T12:02:26.001Z</time></trkpt><trkpt lat="42.770155250248735" lon="12.90103437059847"><ele>1100.0</ele><time>2026-04-12T12:02:27.001Z</time></trkpt><trkpt lat="42.77023327792416" lon="12.901050481915084"><ele>1100.0</ele><time>2026-04-12T12:02:28.001Z</time></trkpt><trkpt lat="42.77026952667334" lon="12.90114348706412"><ele>1100.0</ele><time>2026-04-12T12:02:29.001Z</time></trkpt><trkpt lat="42.77032141039081" lon="12.901214158244388"><ele>1098.857142857143</ele><time>2026-04-12T12:02:30.001Z</time></trkpt><trkpt lat="42.77037658506729" lon="12.901275870034652"><ele>1097.7142857142858</ele><time>2026-04-12T12:02:31.001Z</time></trkpt><trkpt lat="42.77043300072576" lon="12.901347202307214"><ele>1096.5714285714284</ele><time>2026-04-12T12:02:32.001Z</time></trkpt><trkpt lat="42.77048072007405" lon="12.901438201082113"><ele>1095.4285714285716</ele><time>2026-04-12T12:02:33.001Z</time></trkpt><trkpt lat="42.77053301150029" lon="12.901491135994995"><ele>1094.2857142857142</ele><time>2026-04-12T12:02:34.001Z</time></trkpt><trkpt lat="42.770571200821585" lon="12.901581760693348"><ele>1093.142857142857</ele><time>2026-04-12T12:02:35.001Z</time></trkpt><trkpt lat="42.77062394277643" lon="12.901639421897183"><ele>1092.0</ele><time>2026-04-12T12:02:36.001Z</time></trkpt><trkpt lat="42.77069011171368" lon="12.901697000380702"><ele>1092.0</ele><time>2026-04-12T12:02:37.001Z</time></trkpt><trkpt lat="42.770754500371055" lon="12.901766948137269"><ele>1092.0</ele><time>2026-04-12T12:02:38.001Z</time></trkpt><trkpt lat="42.77082372553588" lon="12.901850190944291"><ele>1092.0</ele><time>2026-04-12T12:02:39.001Z</time></trkpt><trkpt lat="42.770884770730675" lon="12.901908910294843"><ele>1092.0</ele><time>2026-04-12T12:02:40.001Z</time></trkpt><trkpt lat="42.770938271894096" lon="12.901966132890092"><ele>1092.0</ele><time>2026-04-12T12:02:41.001Z</time></trkpt><trkpt lat="42.77098205544551" lon="12.902051533702863"><ele>1092.0</ele><time>2026-04-12T12:02:42.001Z</time></trkpt><trkpt lat="42.770991333963" lon="12.902152428007849"><ele>1092.0</ele><time>2026-04-12T12:02:43.001Z</time></trkpt><trkpt lat="42.770975657684396" lon="12.902265377344278"><ele>1092.0</ele><time>2026-04-12T12:02:44.002Z</time></trkpt><trkpt lat="42.77095738349985" lon="12.902368661977508"><ele>1092.0</ele><time>2026-04-12T12:02:45.002Z</time></trkpt><trkpt lat="42.77095818387035" lon="12.902462963182234"><ele>1092.0</ele><time>2026-04-12T12:02:46.002Z</time></trkpt><trkpt lat="42.77096228652778" lon="12.902553321385684"><ele>1092.0</ele><time>2026-04-12T12:02:47.002Z</time></trkpt><trkpt lat="42.7709844450728" lon="12.902640754617305"><ele>1092.0</ele><time>2026-04-12T12:02:48.002Z</time></trkpt><trkpt lat="42.771030752571946" lon="12.902735930429634"><ele>1091.0</ele><time>2026-04-12T12:02:49.002Z</time></trkpt><trkpt lat="42.77107811883998" lon="12.902849071611238"><ele>1090.0</ele><time>2026-04-12T12:02:50.002Z</time></trkpt><trkpt lat="42.77112088443067" lon="12.902948777345557"><ele>1089.0</ele><time>2026-04-12T12:02:51.002Z</time></trkpt><trkpt lat="42.77116216969005" lon="12.903027517911267"><ele>1088.0</ele><time>2026-04-12T12:02:52.002Z</time></trkpt><trkpt lat="42.7712055297937" lon="12.903126509966652"><ele>1087.0</ele><time>2026-04-12T12:02:53.002Z</time></trkpt><trkpt lat="42.77123676254347" lon="12.903213376437849"><ele>1086.0</ele><time>2026-04-12T12:02:54.002Z</time></trkpt><trkpt lat="42.771264092380335" lon="12.90329193338016"><ele>1084.6</ele><time>2026-04-12T12:02:55.002Z</time></trkpt><trkpt lat="42.77128593571774" lon="12.903432872538472"><ele>1083.1999999999998</ele><time>2026-04-12T12:02:57.002Z</time></trkpt><trkpt lat="42.77128320675706" lon="12.903547782244896"><ele>1081.8000000000002</ele><time>2026-04-12T12:02:59.002Z</time></trkpt><trkpt lat="42.771258233526915" lon="12.903648784503389"><ele>1080.4</ele><time>2026-04-12T12:03:01.002Z</time></trkpt><trkpt lat="42.77123008296177" lon="12.903770989879312"><ele>1079.0</ele><time>2026-04-12T12:03:03.002Z</time></trkpt><trkpt lat="42.771250035725174" lon="12.903903668441954"><ele>1079.0</ele><time>2026-04-12T12:03:05.002Z</time></trkpt><trkpt lat="42.77128284131669" lon="12.904032820307714"><ele>1079.0</ele><time>2026-04-12T12:03:07.002Z</time></trkpt><trkpt lat="42.771320358370254" lon="12.904172755643168"><ele>1079.0</ele><time>2026-04-12T12:03:09.002Z</time></trkpt><trkpt lat="42.77138076154856" lon="12.904308629128494"><ele>1079.0</ele><time>2026-04-12T12:03:11.002Z</time></trkpt><trkpt lat="42.77144711351892" lon="12.90444134742767"><ele>1079.0</ele><time>2026-04-12T12:03:13.002Z</time></trkpt><trkpt lat="42.77152429611066" lon="12.904587046689436"><ele>1077.5</ele><time>2026-04-12T12:03:15.002Z</time></trkpt><trkpt lat="42.771553323631245" lon="12.904667259441803"><ele>1076.0</ele><time>2026-04-12T12:03:16.002Z</time></trkpt><trkpt lat="42.77159030264547" lon="12.904746060705437"><ele>1074.5</ele><time>2026-04-12T12:03:17.002Z</time></trkpt><trkpt lat="42.77161852071184" lon="12.904833683566299"><ele>1073.0</ele><time>2026-04-12T12:03:18.002Z</time></trkpt><trkpt lat="42.77165684680695" lon="12.905004235369848"><ele>1071.5</ele><time>2026-04-12T12:03:20.002Z</time></trkpt><trkpt lat="42.77168090579074" lon="12.905090637004657"><ele>1070.0</ele><time>2026-04-12T12:03:21.002Z</time></trkpt><trkpt lat="42.7717149959964" lon="12.905164445776137"><ele>1069.4</ele><time>2026-04-12T12:03:22.002Z</time></trkpt><trkpt lat="42.771754157735245" lon="12.90531146149833"><ele>1068.8</ele><time>2026-04-12T12:03:24.002Z</time></trkpt><trkpt lat="42.77181757019605" lon="12.905459916680362"><ele>1068.2</ele><time>2026-04-12T12:03:26.002Z</time></trkpt><trkpt lat="42.7718548826362" lon="12.905535759064174"><ele>1067.6</ele><time>2026-04-12T12:03:27.002Z</time></trkpt><trkpt lat="42.7718831878354" lon="12.90562793120585"><ele>1067.0</ele><time>2026-04-12T12:03:28.002Z</time></trkpt><trkpt lat="42.771902090904405" lon="12.905732099076149"><ele>1067.0</ele><time>2026-04-12T12:03:29.002Z</time></trkpt><trkpt lat="42.77195493176275" lon="12.905822799940621"><ele>1067.0</ele><time>2026-04-12T12:03:30.002Z</time></trkpt><trkpt lat="42.771981777309854" lon="12.905904275435097"><ele>1067.0</ele><time>2026-04-12T12:03:31.002Z</time></trkpt><trkpt lat="42.7720202198283" lon="12.905993883565756"><ele>1067.0</ele><time>2026-04-12T12:03:32.002Z</time></trkpt><trkpt lat="42.77205529249839" lon="12.906094971793074"><ele>1067.0</ele><time>2026-04-12T12:03:33Z</time></trkpt><trkpt lat="42.772087170420285" lon="12.906197653773518"><ele>1067.0</ele><time>2026-04-12T12:03:34Z</time></trkpt><trkpt lat="42.772134970131795" lon="12.906288315249483"><ele>1066.6666666666667</ele><time>2026-04-12T12:03:35Z</time></trkpt><trkpt lat="42.77217315967827" lon="12.906367824031356"><ele>1066.3333333333335</ele><time>2026-04-12T12:03:36Z</time></trkpt><trkpt lat="42.77223074105202" lon="12.906420773533739"><ele>1066.0</ele><time>2026-04-12T12:03:37Z</time></trkpt><trkpt lat="42.77229638212771" lon="12.906475112307522"><ele>1065.6666666666667</ele><time>2026-04-12T12:03:38Z</time></trkpt><trkpt lat="42.77237555969396" lon="12.906544358935657"><ele>1065.3333333333333</ele><time>2026-04-12T12:03:39Z</time></trkpt><trkpt lat="42.77242891021523" lon="12.906599486624913"><ele>1065.0</ele><time>2026-04-12T12:03:40Z</time></trkpt><trkpt lat="42.77245831673126" lon="12.906701363169384"><ele>1066.0</ele><time>2026-04-12T12:03:42Z</time></trkpt><trkpt lat="42.77240941916987" lon="12.906905318395442"><ele>1067.0</ele><time>2026-04-12T12:03:44Z</time></trkpt><trkpt lat="42.77236013949567" lon="12.907038032020736"><ele>1068.0</ele><time>2026-04-12T12:03:45Z</time></trkpt><trkpt lat="42.77231578268802" lon="12.907166845032574"><ele>1069.0</ele><time>2026-04-12T12:03:46Z</time></trkpt><trkpt lat="42.77228678905541" lon="12.907299958152514"><ele>1069.0</ele><time>2026-04-12T12:03:47Z</time></trkpt><trkpt lat="42.772233228728496" lon="12.907416131717873"><ele>1069.0</ele><time>2026-04-12T12:03:48Z</time></trkpt><trkpt lat="42.772196058809534" lon="12.907524456041049"><ele>1069.0</ele><time>2026-04-12T12:03:49Z</time></trkpt><trkpt lat="42.77217365286547" lon="12.907627575109174"><ele>1069.0</ele><time>2026-04-12T12:03:50Z</time></trkpt><trkpt lat="42.772136593216786" lon="12.907711004407009"><ele>1069.0</ele><time>2026-04-12T12:03:51Z</time></trkpt><trkpt lat="42.77210484531793" lon="12.90779916023051"><ele>1069.0</ele><time>2026-04-12T12:03:52Z</time></trkpt><trkpt lat="42.77209180791885" lon="12.907885424701675"><ele>1069.6000000000001</ele><time>2026-04-12T12:03:54Z</time></trkpt><trkpt lat="42.772067404620124" lon="12.907989734987394"><ele>1070.2</ele><time>2026-04-12T12:03:56Z</time></trkpt><trkpt lat="42.77203626701646" lon="12.908130744531746"><ele>1070.8000000000002</ele><time>2026-04-12T12:03:58Z</time></trkpt><trkpt lat="42.77198881400612" lon="12.908268381790306"><ele>1071.4</ele><time>2026-04-12T12:04:00Z</time></trkpt><trkpt lat="42.77191606421745" lon="12.908403014991475"><ele>1072.0</ele><time>2026-04-12T12:04:02Z</time></trkpt><trkpt lat="42.771862252215215" lon="12.908539664471476"><ele>1067.6666666666665</ele><time>2026-04-12T12:04:04Z</time></trkpt><trkpt lat="42.77182191939997" lon="12.908649377069459"><ele>1063.3333333333333</ele><time>2026-04-12T12:04:06Z</time></trkpt><trkpt lat="42.77182921982895" lon="12.908773187215859"><ele>1059.0</ele><time>2026-04-12T12:04:08Z</time></trkpt><trkpt lat="42.77188602996502" lon="12.908823013685495"><ele>1054.6666666666667</ele><time>2026-04-12T12:04:09Z</time></trkpt><trkpt lat="42.77195269487929" lon="12.90883788463098"><ele>1050.3333333333335</ele><time>2026-04-12T12:04:10Z</time></trkpt><trkpt lat="42.77206004881021" lon="12.908916376705186"><ele>1046.0</ele><time>2026-04-12T12:04:12Z</time></trkpt><trkpt lat="42.77212641567448" lon="12.90897064496832"><ele>1046.0</ele><time>2026-04-12T12:04:13Z</time></trkpt><trkpt lat="42.772210428266725" lon="12.909044397594668"><ele>1046.0</ele><time>2026-04-12T12:04:14Z</time></trkpt><trkpt lat="42.77230784547981" lon="12.90910483296083"><ele>1046.0</ele><time>2026-04-12T12:04:15Z</time></trkpt><trkpt lat="42.7723837581537" lon="12.909187049845203"><ele>1046.0</ele><time>2026-04-12T12:04:16Z</time></trkpt><trkpt lat="42.772467805690944" lon="12.909247905666648"><ele>1046.0</ele><time>2026-04-12T12:04:17Z</time></trkpt><trkpt lat="42.77253842312127" lon="12.909325110494693"><ele>1041.5</ele><time>2026-04-12T12:04:18.001Z</time></trkpt><trkpt lat="42.772620332319704" lon="12.909354038086658"><ele>1037.0</ele><time>2026-04-12T12:04:19.001Z</time></trkpt><trkpt lat="42.77268051031866" lon="12.909403505554334"><ele>1032.5</ele><time>2026-04-12T12:04:20.001Z</time></trkpt><trkpt lat="42.772721368062015" lon="12.9094740842143"><ele>1028.0</ele><time>2026-04-12T12:04:21.001Z</time></trkpt><trkpt lat="42.77276717449178" lon="12.909544882051156"><ele>1023.5000000000001</ele><time>2026-04-12T12:04:22.001Z</time></trkpt><trkpt lat="42.772873025243484" lon="12.909573887980859"><ele>1019.0</ele><time>2026-04-12T12:04:24.001Z</time></trkpt><trkpt lat="42.77294397829495" lon="12.909565037574225"><ele>1019.0000000000001</ele><time>2026-04-12T12:04:25.001Z</time></trkpt><trkpt lat="42.77301234365622" lon="12.909541971100758"><ele>1019.0</ele><time>2026-04-12T12:04:26.001Z</time></trkpt><trkpt lat="42.77307439017513" lon="12.90952064957468"><ele>1019.0</ele><time>2026-04-12T12:04:27.001Z</time></trkpt><trkpt lat="42.773196750652744" lon="12.909496199977813"><ele>1019.0</ele><time>2026-04-12T12:04:29.001Z</time></trkpt><trkpt lat="42.773287590534" lon="12.909487994349867"><ele>1019.0000000000001</ele><time>2026-04-12T12:04:30.001Z</time></trkpt><trkpt lat="42.773365539658215" lon="12.909476022818755"><ele>1019.0</ele><time>2026-04-12T12:04:31.001Z</time></trkpt><trkpt lat="42.77344286488789" lon="12.909503878156901"><ele>1019.0</ele><time>2026-04-12T12:04:32.001Z</time></trkpt><trkpt lat="42.77351983515111" lon="12.909543867469607"><ele>1019.0000000000001</ele><time>2026-04-12T12:04:33.001Z</time></trkpt><trkpt lat="42.773596965366536" lon="12.909599475750346"><ele>1019.0000000000001</ele><time>2026-04-12T12:04:34.001Z</time></trkpt><trkpt lat="42.77373692001122" lon="12.909689820375881"><ele>1019.0</ele><time>2026-04-12T12:04:36.001Z</time></trkpt><trkpt lat="42.7737994868943" lon="12.909743017729738"><ele>1019.0</ele><time>2026-04-12T12:04:37.001Z</time></trkpt><trkpt lat="42.77384507003914" lon="12.909809891763146"><ele>1022.75</ele><time>2026-04-12T12:04:38.001Z</time></trkpt><trkpt lat="42.77395255088243" lon="12.909899505564768"><ele>1026.5</ele><time>2026-04-12T12:04:40.001Z</time></trkpt><trkpt lat="42.77405109692792" lon="12.910015260021451"><ele>1030.25</ele><time>2026-04-12T12:04:42.001Z</time></trkpt><trkpt lat="42.7741372791032" lon="12.910142155153865"><ele>1034.0</ele><time>2026-04-12T12:04:44.001Z</time></trkpt><trkpt lat="42.77421938856016" lon="12.910156516115846"><ele>1029.5</ele><time>2026-04-12T12:04:45.001Z</time></trkpt><trkpt lat="42.77429618907494" lon="12.910169537862414"><ele>1025.0</ele><time>2026-04-12T12:04:46.001Z</time></trkpt><trkpt lat="42.77437026866514" lon="12.9101793349342"><ele>1020.5</ele><time>2026-04-12T12:04:47.001Z</time></trkpt><trkpt lat="42.77443703214573" lon="12.910201652499376"><ele>1016.0</ele><time>2026-04-12T12:04:48.001Z</time></trkpt><trkpt lat="42.77456424791213" lon="12.910223094076098"><ele>1011.5000000000001</ele><time>2026-04-12T12:04:50.001Z</time></trkpt><trkpt lat="42.7746381996237" lon="12.910261314648112"><ele>1007.0</ele><time>2026-04-12T12:04:51.001Z</time></trkpt><trkpt lat="42.77469512786245" lon="12.910304508698871"><ele>1007.0</ele><time>2026-04-12T12:04:52.001Z</time></trkpt><trkpt lat="42.77474508300546" lon="12.910359824141418"><ele>1007.0</ele><time>2026-04-12T12:04:53.001Z</time></trkpt><trkpt lat="42.77483571261423" lon="12.910454426566881"><ele>1007.0</ele><time>2026-04-12T12:04:55.001Z</time></trkpt><trkpt lat="42.77493571483734" lon="12.910524574798583"><ele>1007.0</ele><time>2026-04-12T12:04:57.001Z</time></trkpt><trkpt lat="42.7750523558822" lon="12.910556287456922"><ele>1007.0</ele><time>2026-04-12T12:04:59.001Z</time></trkpt><trkpt lat="42.77511903814195" lon="12.910574816577462"><ele>1007.4000000000001</ele><time>2026-04-12T12:05:00.001Z</time></trkpt><trkpt lat="42.77524635019435" lon="12.91060137418917"><ele>1007.8000000000001</ele><time>2026-04-12T12:05:02.001Z</time></trkpt><trkpt lat="42.77537561755281" lon="12.910588701272497"><ele>1008.2</ele><time>2026-04-12T12:05:04.001Z</time></trkpt><trkpt lat="42.77544208015406" lon="12.910539743789087"><ele>1008.6</ele><time>2026-04-12T12:05:05.001Z</time></trkpt><trkpt lat="42.77555588577512" lon="12.910513357818088"><ele>1009.0</ele><time>2026-04-12T12:05:07.001Z</time></trkpt><trkpt lat="42.7756638359647" lon="12.91048923951054"><ele>1009.0</ele><time>2026-04-12T12:05:09.001Z</time></trkpt><trkpt lat="42.775769410689094" lon="12.910483432559381"><ele>1009.0000000000001</ele><time>2026-04-12T12:05:11.001Z</time></trkpt><trkpt lat="42.77587713396503" lon="12.910536681600354"><ele>1009.0000000000001</ele><time>2026-04-12T12:05:13.001Z</time></trkpt><trkpt lat="42.775957790653976" lon="12.910608522305251"><ele>1009.0</ele><time>2026-04-12T12:05:15.001Z</time></trkpt><trkpt lat="42.77602226105242" lon="12.910712383446855"><ele>1009.0</ele><time>2026-04-12T12:05:17.001Z</time></trkpt><trkpt lat="42.77609476318955" lon="12.910784856178337"><ele>1008.6</ele><time>2026-04-12T12:05:19.002Z</time></trkpt><trkpt lat="42.77620102248794" lon="12.910803861096978"><ele>1008.2</ele><time>2026-04-12T12:05:21.002Z</time></trkpt><trkpt lat="42.77632874410738" lon="12.910784544527957"><ele>1007.8000000000001</ele><time>2026-04-12T12:05:23.002Z</time></trkpt><trkpt lat="42.776398198723015" lon="12.910765477887313"><ele>1007.4000000000001</ele><time>2026-04-12T12:05:24.002Z</time></trkpt><trkpt lat="42.77649718961171" lon="12.9107430095526"><ele>1007.0</ele><time>2026-04-12T12:05:26.002Z</time></trkpt><trkpt lat="42.776550614594335" lon="12.910695661156304"><ele>1007.0000000000001</ele><time>2026-04-12T12:05:27.002Z</time></trkpt><trkpt lat="42.77667379512028" lon="12.91065928457574"><ele>1007.0</ele><time>2026-04-12T12:05:29.002Z</time></trkpt><trkpt lat="42.77674010300588" lon="12.91062598019663"><ele>1007.0</ele><time>2026-04-12T12:05:30.002Z</time></trkpt><trkpt lat="42.77681003835113" lon="12.910590990348176"><ele>1007.0</ele><time>2026-04-12T12:05:31.002Z</time></trkpt><trkpt lat="42.776881765471934" lon="12.91060073670518"><ele>1007.0000000000001</ele><time>2026-04-12T12:05:32.002Z</time></trkpt><trkpt lat="42.77696344661186" lon="12.910591929135094"><ele>1007.0</ele><time>2026-04-12T12:05:33.002Z</time></trkpt><trkpt lat="42.77708523780343" lon="12.910638250828525"><ele>1007.8333333333334</ele><time>2026-04-12T12:05:35.002Z</time></trkpt><trkpt lat="42.777164924550924" lon="12.9107101865019"><ele>1008.6666666666667</ele><time>2026-04-12T12:05:37.002Z</time></trkpt><trkpt lat="42.77724986657549" lon="12.910774926234073"><ele>1009.5</ele><time>2026-04-12T12:05:38.999Z</time></trkpt><trkpt lat="42.777320210842674" lon="12.910827886248772"><ele>1010.3333333333333</ele><time>2026-04-12T12:05:40.999Z</time></trkpt><trkpt lat="42.77738284804932" lon="12.910894176641527"><ele>1011.1666666666666</ele><time>2026-04-12T12:05:42.999Z</time></trkpt><trkpt lat="42.777467819562254" lon="12.910943843757044"><ele>1012.0</ele><time>2026-04-12T12:05:44.999Z</time></trkpt><trkpt lat="42.777533657125744" lon="12.910950911117359"><ele>1010.9999999999999</ele><time>2026-04-12T12:05:45.999Z</time></trkpt><trkpt lat="42.77761177199294" lon="12.910962917433665"><ele>1010.0</ele><time>2026-04-12T12:05:46.999Z</time></trkpt><trkpt lat="42.7776944648473" lon="12.9109435145328"><ele>1009.0</ele><time>2026-04-12T12:05:47.999Z</time></trkpt><trkpt lat="42.77777314673722" lon="12.910920732150178"><ele>1008.0</ele><time>2026-04-12T12:05:48.999Z</time></trkpt><trkpt lat="42.77785071894932" lon="12.910883524635395"><ele>1006.9999999999999</ele><time>2026-04-12T12:05:49.999Z</time></trkpt><trkpt lat="42.77793262140425" lon="12.910859821768343"><ele>1006.0</ele><time>2026-04-12T12:05:50.999Z</time></trkpt><trkpt lat="42.77801333815073" lon="12.910848774549311"><ele>1006.0</ele><time>2026-04-12T12:05:51.999Z</time></trkpt><trkpt lat="42.778099711407386" lon="12.910852991560672"><ele>1005.9999999999999</ele><time>2026-04-12T12:05:53Z</time></trkpt><trkpt lat="42.778168052136536" lon="12.910822731159447"><ele>1005.9999999999999</ele><time>2026-04-12T12:05:54Z</time></trkpt><trkpt lat="42.77824480616559" lon="12.910815357778212"><ele>1006.0</ele><time>2026-04-12T12:05:55Z</time></trkpt><trkpt lat="42.778341794851244" lon="12.910809044991517"><ele>1006.0</ele><time>2026-04-12T12:05:56Z</time></trkpt><trkpt lat="42.77846287405966" lon="12.910815953144578"><ele>1001.8333333333333</ele><time>2026-04-12T12:05:58Z</time></trkpt><trkpt lat="42.77853699495316" lon="12.910799544806663"><ele>997.6666666666666</ele><time>2026-04-12T12:05:59Z</time></trkpt><trkpt lat="42.77867809636218" lon="12.910732002614699"><ele>993.5</ele><time>2026-04-12T12:06:01Z</time></trkpt><trkpt lat="42.778744978225156" lon="12.910679387650607"><ele>989.3333333333333</ele><time>2026-04-12T12:06:02Z</time></trkpt><trkpt lat="42.778810008871545" lon="12.910625899338358"><ele>985.1666666666666</ele><time>2026-04-12T12:06:03Z</time></trkpt><trkpt lat="42.77886731156115" lon="12.910586392334515"><ele>981.0</ele><time>2026-04-12T12:06:04Z</time></trkpt><trkpt lat="42.77893295701034" lon="12.910540782740645"><ele>981.0</ele><time>2026-04-12T12:06:05Z</time></trkpt><trkpt lat="42.77900164304419" lon="12.910505806549741"><ele>980.9999999999999</ele><time>2026-04-12T12:06:06Z</time></trkpt><trkpt lat="42.779074167743225" lon="12.910473511100678"><ele>980.9999999999999</ele><time>2026-04-12T12:06:07Z</time></trkpt><trkpt lat="42.77914979200121" lon="12.910472243419898"><ele>981.0</ele><time>2026-04-12T12:06:08Z</time></trkpt><trkpt lat="42.77924723201647" lon="12.910478766315364"><ele>981.0</ele><time>2026-04-12T12:06:09Z</time></trkpt><trkpt lat="42.779377240810014" lon="12.910492628479636"><ele>985.1999999999999</ele><time>2026-04-12T12:06:11Z</time></trkpt><trkpt lat="42.77950346464521" lon="12.910527793282279"><ele>989.3999999999999</ele><time>2026-04-12T12:06:13Z</time></trkpt><trkpt lat="42.7796004658141" lon="12.910557338573145"><ele>993.6</ele><time>2026-04-12T12:06:16Z</time></trkpt><trkpt lat="42.77969478862578" lon="12.910603715824841"><ele>997.8</ele><time>2026-04-12T12:06:18Z</time></trkpt><trkpt lat="42.77975074110317" lon="12.91066191867674"><ele>1002.0</ele><time>2026-04-12T12:06:21Z</time></trkpt><trkpt lat="42.7798065033852" lon="12.91072826077868"><ele>1002.0</ele><time>2026-04-12T12:06:23Z</time></trkpt><trkpt lat="42.77985633676106" lon="12.910798242154637"><ele>1002.0</ele><time>2026-04-12T12:06:26Z</time></trkpt><trkpt lat="42.77990389088511" lon="12.910859137983813"><ele>1002.0</ele><time>2026-04-12T12:06:55.001Z</time></trkpt><trkpt lat="42.779960664291906" lon="12.910952483115713"><ele>1002.0</ele><time>2026-04-12T12:07:02.001Z</time></trkpt><trkpt lat="42.779998708846634" lon="12.911048345794711"><ele>1002.0</ele><time>2026-04-12T12:07:05.001Z</time></trkpt><trkpt lat="42.78005809000302" lon="12.911148016852033"><ele>1002.0</ele><time>2026-04-12T12:10:15.001Z</time></trkpt><trkpt lat="42.78011794396721" lon="12.911313756503302"><ele>1002.2</ele><time>2026-04-12T12:10:17.001Z</time></trkpt><trkpt lat="42.78014912570939" lon="12.911455075368174"><ele>1002.4000000000001</ele><time>2026-04-12T12:10:18.001Z</time></trkpt><trkpt lat="42.780188767990694" lon="12.91160612845832"><ele>1002.5999999999999</ele><time>2026-04-12T12:10:19.001Z</time></trkpt><trkpt lat="42.78022473015551" lon="12.911736396465"><ele>1002.8</ele><time>2026-04-12T12:10:20.001Z</time></trkpt><trkpt lat="42.78028589123711" lon="12.911871482224155"><ele>1003.0</ele><time>2026-04-12T12:10:21.001Z</time></trkpt><trkpt lat="42.780327498643956" lon="12.912026235782413"><ele>997.8333333333333</ele><time>2026-04-12T12:10:22.001Z</time></trkpt><trkpt lat="42.78036037308367" lon="12.912156643663328"><ele>992.6666666666666</ele><time>2026-04-12T12:10:23.001Z</time></trkpt><trkpt lat="42.78039129015778" lon="12.91224781206515"><ele>987.5</ele><time>2026-04-12T12:10:24.001Z</time></trkpt><trkpt lat="42.78044939651121" lon="12.912342396519218"><ele>982.3333333333333</ele><time>2026-04-12T12:10:26.001Z</time></trkpt><trkpt lat="42.780502522696395" lon="12.912398065061469"><ele>977.1666666666666</ele><time>2026-04-12T12:10:28.001Z</time></trkpt><trkpt lat="42.78057256777851" lon="12.9124208305206"><ele>972.0</ele><time>2026-04-12T12:27:35Z</time></trkpt><trkpt lat="42.78067134224153" lon="12.912464246533418"><ele>972.0</ele><time>2026-04-12T12:27:37Z</time></trkpt><trkpt lat="42.78074690926233" lon="12.912485241080393"><ele>972.0</ele><time>2026-04-12T12:27:39Z</time></trkpt><trkpt lat="42.7808324000785" lon="12.912530883596236"><ele>972.0</ele><time>2026-04-12T12:27:41Z</time></trkpt><trkpt lat="42.78089629338026" lon="12.912566802157306"><ele>972.0</ele><time>2026-04-12T12:27:43.001Z</time></trkpt><trkpt lat="42.78095232957543" lon="12.912616579756001"><ele>972.0</ele><time>2026-04-12T12:27:45.001Z</time></trkpt><trkpt lat="42.78101169036021" lon="12.912654570202129"><ele>972.0</ele><time>2026-04-12T12:27:47.001Z</time></trkpt><trkpt lat="42.78109142772354" lon="12.912724308594271"><ele>967.5</ele><time>2026-04-12T12:27:50.001Z</time></trkpt><trkpt lat="42.781148292683056" lon="12.912766416650914"><ele>963.0</ele><time>2026-04-12T12:27:52.001Z</time></trkpt><trkpt lat="42.78123812891932" lon="12.912807696874916"><ele>958.5</ele><time>2026-04-12T12:27:55.001Z</time></trkpt><trkpt lat="42.78131085942857" lon="12.9128413474373"><ele>954.0</ele><time>2026-04-12T12:27:57.001Z</time></trkpt><trkpt lat="42.78137079459992" lon="12.91281446746192"><ele>949.5</ele><time>2026-04-12T12:27:58.001Z</time></trkpt><trkpt lat="42.781503596512124" lon="12.91274892029555"><ele>945.0</ele><time>2026-04-12T12:28:00.001Z</time></trkpt><trkpt lat="42.78158272330967" lon="12.912752876673844"><ele>945.0</ele><time>2026-04-12T12:28:01.001Z</time></trkpt><trkpt lat="42.78164984795333" lon="12.912742428110352"><ele>945.0</ele><time>2026-04-12T12:28:02.001Z</time></trkpt><trkpt lat="42.78173310589889" lon="12.912748808330395"><ele>945.0</ele><time>2026-04-12T12:28:03.001Z</time></trkpt><trkpt lat="42.78180807983599" lon="12.912776812216594"><ele>945.0</ele><time>2026-04-12T12:28:04.001Z</time></trkpt><trkpt lat="42.78187430345391" lon="12.912816240119843"><ele>945.0</ele><time>2026-04-12T12:28:05.001Z</time></trkpt><trkpt lat="42.78193915497014" lon="12.912869021014597"><ele>945.0</ele><time>2026-04-12T12:28:06.001Z</time></trkpt><trkpt lat="42.78200945688519" lon="12.912924459749636"><ele>944.8333333333334</ele><time>2026-04-12T12:28:07.001Z</time></trkpt><trkpt lat="42.78207807925364" lon="12.912981051474764"><ele>944.6666666666667</ele><time>2026-04-12T12:28:08.001Z</time></trkpt><trkpt lat="42.78215294471869" lon="12.913048183248009"><ele>944.5</ele><time>2026-04-12T12:28:09.001Z</time></trkpt><trkpt lat="42.78223207722699" lon="12.91309153108404"><ele>944.3333333333334</ele><time>2026-04-12T12:28:10.001Z</time></trkpt><trkpt lat="42.782287595538996" lon="12.913134869389536"><ele>944.1666666666667</ele><time>2026-04-12T12:28:11.001Z</time></trkpt><trkpt lat="42.78235349692491" lon="12.913165189929135"><ele>944.0</ele><time>2026-04-12T12:28:12.001Z</time></trkpt><trkpt lat="42.7824825670532" lon="12.913225332479676"><ele>944.0000000000001</ele><time>2026-04-12T12:28:14.001Z</time></trkpt><trkpt lat="42.78254552627802" lon="12.91324525379217"><ele>944.0</ele><time>2026-04-12T12:28:15.001Z</time></trkpt><trkpt lat="42.78260768459617" lon="12.913281618666154"><ele>944.0</ele><time>2026-04-12T12:28:16.001Z</time></trkpt><trkpt lat="42.78268641215956" lon="12.913285103757788"><ele>944.0</ele><time>2026-04-12T12:28:17.001Z</time></trkpt><trkpt lat="42.78277758368637" lon="12.913254391505463"><ele>944.0000000000001</ele><time>2026-04-12T12:28:18.001Z</time></trkpt><trkpt lat="42.78287043644558" lon="12.913268438061033"><ele>944.0</ele><time>2026-04-12T12:28:19.001Z</time></trkpt><trkpt lat="42.78296292965826" lon="12.913238626779542"><ele>943.0000000000001</ele><time>2026-04-12T12:28:20.001Z</time></trkpt><trkpt lat="42.78305301618392" lon="12.913253316935531"><ele>942.0</ele><time>2026-04-12T12:28:21.001Z</time></trkpt><trkpt lat="42.7831381666355" lon="12.913248571142786"><ele>941.0</ele><time>2026-04-12T12:28:22.001Z</time></trkpt><trkpt lat="42.78321999889862" lon="12.913244777073386"><ele>940.0</ele><time>2026-04-12T12:28:23.001Z</time></trkpt><trkpt lat="42.78330478747419" lon="12.913232269342098"><ele>939.0000000000001</ele><time>2026-04-12T12:28:24.001Z</time></trkpt><trkpt lat="42.78337486080386" lon="12.913225123079998"><ele>938.0</ele><time>2026-04-12T12:28:25.001Z</time></trkpt><trkpt lat="42.78344493612523" lon="12.913244365496515"><ele>936.4</ele><time>2026-04-12T12:28:26.001Z</time></trkpt><trkpt lat="42.78356311169757" lon="12.913252905560402"><ele>934.8</ele><time>2026-04-12T12:28:28.001Z</time></trkpt><trkpt lat="42.78365735961914" lon="12.913232319892414"><ele>933.2</ele><time>2026-04-12T12:28:30.001Z</time></trkpt><trkpt lat="42.7837657842992" lon="12.91318016053464"><ele>931.6</ele><time>2026-04-12T12:28:32.001Z</time></trkpt><trkpt lat="42.78386328390024" lon="12.913148592434426"><ele>930.0</ele><time>2026-04-12T12:28:34.001Z</time></trkpt><trkpt lat="42.7839521571406" lon="12.913197666715343"><ele>930.0</ele><time>2026-04-12T12:28:37.001Z</time></trkpt><trkpt lat="42.784040657453005" lon="12.91321400749728"><ele>930.0</ele><time>2026-04-12T12:28:38.001Z</time></trkpt><trkpt lat="42.78412496053811" lon="12.913240880134197"><ele>930.0</ele><time>2026-04-12T12:28:39.001Z</time></trkpt><trkpt lat="42.78420526292261" lon="12.913230102697007"><ele>930.0</ele><time>2026-04-12T12:28:40.001Z</time></trkpt><trkpt lat="42.78429557694729" lon="12.91319597691461"><ele>930.0</ele><time>2026-04-12T12:28:41.001Z</time></trkpt><trkpt lat="42.78438775366057" lon="12.913164432492009"><ele>930.0</ele><time>2026-04-12T12:28:42.001Z</time></trkpt><trkpt lat="42.78446963075742" lon="12.913168393211047"><ele>926.6</ele><time>2026-04-12T12:28:43.001Z</time></trkpt><trkpt lat="42.784545622600916" lon="12.913155113069616"><ele>923.2</ele><time>2026-04-12T12:28:44.001Z</time></trkpt><trkpt lat="42.78466793627166" lon="12.913160046087066"><ele>919.8</ele><time>2026-04-12T12:28:45.999Z</time></trkpt><trkpt lat="42.784781126336185" lon="12.913134444450286"><ele>916.4</ele><time>2026-04-12T12:28:47.999Z</time></trkpt><trkpt lat="42.78485814602597" lon="12.913104661994794"><ele>913.0</ele><time>2026-04-12T12:28:48.999Z</time></trkpt><trkpt lat="42.784928395743805" lon="12.913095937466819"><ele>912.9999999999999</ele><time>2026-04-12T12:28:49.999Z</time></trkpt><trkpt lat="42.78498982128087" lon="12.91304760385"><ele>913.0</ele><time>2026-04-12T12:28:50.999Z</time></trkpt><trkpt lat="42.78512004450185" lon="12.912984212116717"><ele>913.0</ele><time>2026-04-12T12:28:52.999Z</time></trkpt><trkpt lat="42.785189007095006" lon="12.91295712573856"><ele>913.0</ele><time>2026-04-12T12:28:53.999Z</time></trkpt><trkpt lat="42.78525766144667" lon="12.91292718798072"><ele>912.9999999999999</ele><time>2026-04-12T12:28:54.999Z</time></trkpt><trkpt lat="42.7853298995003" lon="12.912906545705116"><ele>913.0</ele><time>2026-04-12T12:28:55.999Z</time></trkpt><trkpt lat="42.78538460726496" lon="12.912862714216937"><ele>907.0</ele><time>2026-04-12T12:28:56.999Z</time></trkpt><trkpt lat="42.78544935909809" lon="12.912850657357195"><ele>901.0</ele><time>2026-04-12T12:28:57.999Z</time></trkpt><trkpt lat="42.78555104143638" lon="12.91280589968783"><ele>895.0</ele><time>2026-04-12T12:28:59.999Z</time></trkpt><trkpt lat="42.78565095360632" lon="12.912795505648976"><ele>889.0</ele><time>2026-04-12T12:29:01.999Z</time></trkpt><trkpt lat="42.78575811806564" lon="12.912785063955857"><ele>883.0</ele><time>2026-04-12T12:29:03.999Z</time></trkpt><trkpt lat="42.78585983087931" lon="12.912750324792986"><ele>883.0</ele><time>2026-04-12T12:29:05.999Z</time></trkpt><trkpt lat="42.78595231092788" lon="12.912712519412308"><ele>883.0</ele><time>2026-04-12T12:29:07.999Z</time></trkpt><trkpt lat="42.78606233684613" lon="12.912656381661533"><ele>883.0</ele><time>2026-04-12T12:29:09.999Z</time></trkpt><trkpt lat="42.78617273398102" lon="12.912599969655155"><ele>883.0</ele><time>2026-04-12T12:29:11.999Z</time></trkpt><trkpt lat="42.78627694932515" lon="12.91250908302603"><ele>880.8333333333333</ele><time>2026-04-12T12:29:14Z</time></trkpt><trkpt lat="42.78631442234994" lon="12.912437966817302"><ele>878.6666666666666</ele><time>2026-04-12T12:29:15Z</time></trkpt><trkpt lat="42.78636186608955" lon="12.912370698814883"><ele>876.5</ele><time>2026-04-12T12:29:16Z</time></trkpt><trkpt lat="42.78645996802963" lon="12.91225308404779"><ele>874.3333333333333</ele><time>2026-04-12T12:29:18Z</time></trkpt><trkpt lat="42.78648798715451" lon="12.912175414213579"><ele>872.1666666666666</ele><time>2026-04-12T12:29:19Z</time></trkpt><trkpt lat="42.78657095206341" lon="12.912078045372152"><ele>870.0</ele><time>2026-04-12T12:29:21Z</time></trkpt><trkpt lat="42.786628735488506" lon="12.912025194558105"><ele>870.0</ele><time>2026-04-12T12:29:22Z</time></trkpt><trkpt lat="42.78669791506109" lon="12.91197338568279"><ele>870.0</ele><time>2026-04-12T12:29:23Z</time></trkpt><trkpt lat="42.78678903710463" lon="12.911968724837896"><ele>870.0</ele><time>2026-04-12T12:29:24Z</time></trkpt><trkpt lat="42.78686365246822" lon="12.911934211627308"><ele>870.0</ele><time>2026-04-12T12:29:25Z</time></trkpt><trkpt lat="42.78696325595897" lon="12.911919148069094"><ele>870.0</ele><time>2026-04-12T12:29:26Z</time></trkpt><trkpt lat="42.787036139959106" lon="12.911891663529076"><ele>870.0</ele><time>2026-04-12T12:29:27Z</time></trkpt><trkpt lat="42.787143440395475" lon="12.911849344367633"><ele>870.0</ele><time>2026-04-12T12:29:28Z</time></trkpt><trkpt lat="42.78723207352115" lon="12.911805188999224"><ele>870.0</ele><time>2026-04-12T12:29:29Z</time></trkpt><trkpt lat="42.78730192633648" lon="12.911770912204908"><ele>870.0</ele><time>2026-04-12T12:29:30Z</time></trkpt><trkpt lat="42.78738357573803" lon="12.91171471697733"><ele>870.0</ele><time>2026-04-12T12:29:31Z</time></trkpt><trkpt lat="42.78745568140526" lon="12.911673769717057"><ele>870.0</ele><time>2026-04-12T12:29:32Z</time></trkpt><trkpt lat="42.78754620530227" lon="12.911624130766674"><ele>870.0</ele><time>2026-04-12T12:29:34Z</time></trkpt><trkpt lat="42.787628588740525" lon="12.911590137123406"><ele>868.4</ele><time>2026-04-12T12:29:36Z</time></trkpt><trkpt lat="42.78773211867194" lon="12.911547356604645"><ele>866.8</ele><time>2026-04-12T12:29:38Z</time></trkpt><trkpt lat="42.78785282839334" lon="12.9115160522718"><ele>865.2</ele><time>2026-04-12T12:29:40Z</time></trkpt><trkpt lat="42.78792544588125" lon="12.911515876743483"><ele>863.6</ele><time>2026-04-12T12:29:41Z</time></trkpt><trkpt lat="42.78801747774626" lon="12.911519334042062"><ele>862.0</ele><time>2026-04-12T12:29:42Z</time></trkpt><trkpt lat="42.788110499737485" lon="12.911530609979124"><ele>861.9999999999999</ele><time>2026-04-12T12:29:43Z</time></trkpt><trkpt lat="42.788222332132364" lon="12.91155794137257"><ele>862.0</ele><time>2026-04-12T12:29:44Z</time></trkpt><trkpt lat="42.78829589434913" lon="12.91157526996534"><ele>862.0</ele><time>2026-04-12T12:29:45Z</time></trkpt><trkpt lat="42.78839862130222" lon="12.911600969497506"><ele>862.0</ele><time>2026-04-12T12:29:47Z</time></trkpt><trkpt lat="42.788470118928686" lon="12.911619989579615"><ele>861.9999999999999</ele><time>2026-04-12T12:29:48Z</time></trkpt><trkpt lat="42.78853968009797" lon="12.911640921187248"><ele>862.0</ele><time>2026-04-12T12:29:49Z</time></trkpt><trkpt lat="42.78861381097126" lon="12.911641501884489"><ele>861.9999999999999</ele><time>2026-04-12T12:29:50Z</time></trkpt><trkpt lat="42.78867908444818" lon="12.911678291306716"><ele>862.0</ele><time>2026-04-12T12:29:51Z</time></trkpt><trkpt lat="42.788754388393436" lon="12.91168160819706"><ele>862.0</ele><time>2026-04-12T12:29:52Z</time></trkpt><trkpt lat="42.78883785426467" lon="12.911668950834407"><ele>862.0</ele><time>2026-04-12T12:29:53Z</time></trkpt><trkpt lat="42.78892760730584" lon="12.911690307532819"><ele>861.9999999999999</ele><time>2026-04-12T12:29:54Z</time></trkpt><trkpt lat="42.78899915300703" lon="12.91169953555149"><ele>862.0</ele><time>2026-04-12T12:29:55Z</time></trkpt><trkpt lat="42.78907338237515" lon="12.911694365189014"><ele>861.9999999999999</ele><time>2026-04-12T12:29:56Z</time></trkpt><trkpt lat="42.78914327111322" lon="12.911706205199815"><ele>862.0</ele><time>2026-04-12T12:29:57Z</time></trkpt><trkpt lat="42.78924204723398" lon="12.91170731091748"><ele>862.0</ele><time>2026-04-12T12:29:58Z</time></trkpt><trkpt lat="42.78931987220342" lon="12.911688925738957"><ele>862.0</ele><time>2026-04-12T12:29:59Z</time></trkpt><trkpt lat="42.78939098623222" lon="12.911653616827603"><ele>861.9999999999999</ele><time>2026-04-12T12:30:00Z</time></trkpt><trkpt lat="42.789495937945794" lon="12.911627043484875"><ele>862.0</ele><time>2026-04-12T12:30:02Z</time></trkpt><trkpt lat="42.789575044632336" lon="12.911609772050586"><ele>858.8333333333333</ele><time>2026-04-12T12:30:04Z</time></trkpt><trkpt lat="42.78963988897008" lon="12.911596612893998"><ele>855.6666666666666</ele><time>2026-04-12T12:30:06Z</time></trkpt><trkpt lat="42.78972999825474" lon="12.911599230330793"><ele>852.5</ele><time>2026-04-12T12:30:08Z</time></trkpt><trkpt lat="42.789791463670525" lon="12.911565663688915"><ele>849.3333333333333</ele><time>2026-04-12T12:30:09Z</time></trkpt><trkpt lat="42.78990458667007" lon="12.911515283009411"><ele>846.1666666666666</ele><time>2026-04-12T12:30:11.001Z</time></trkpt><trkpt lat="42.78998551801659" lon="12.911479331862589"><ele>843.0</ele><time>2026-04-12T12:30:12.001Z</time></trkpt><trkpt lat="42.790073738862134" lon="12.911439235350045"><ele>843.0</ele><time>2026-04-12T12:30:13.001Z</time></trkpt><trkpt lat="42.790155389473014" lon="12.911375147206883"><ele>843.0</ele><time>2026-04-12T12:30:14.001Z</time></trkpt><trkpt lat="42.79023934780935" lon="12.91134638959439"><ele>843.0</ele><time>2026-04-12T12:30:15.001Z</time></trkpt><trkpt lat="42.790324985238286" lon="12.911329661655127"><ele>843.0</ele><time>2026-04-12T12:30:16.001Z</time></trkpt><trkpt lat="42.79039500405884" lon="12.911322970179489"><ele>843.0</ele><time>2026-04-12T12:30:17.001Z</time></trkpt><trkpt lat="42.790460470636056" lon="12.91131901891916"><ele>843.0</ele><time>2026-04-12T12:30:18.001Z</time></trkpt><trkpt lat="42.790524685891704" lon="12.91131661762336"><ele>840.5999999999999</ele><time>2026-04-12T12:30:19.001Z</time></trkpt><trkpt lat="42.790588343329844" lon="12.91131777799017"><ele>838.1999999999999</ele><time>2026-04-12T12:30:20.001Z</time></trkpt><trkpt lat="42.79069057290058" lon="12.911333883007561"><ele>835.8</ele><time>2026-04-12T12:30:22.001Z</time></trkpt><trkpt lat="42.79080042522092" lon="12.911385231484513"><ele>833.4</ele><time>2026-04-12T12:30:24.001Z</time></trkpt><trkpt lat="42.790920250458775" lon="12.911409860630704"><ele>831.0</ele><time>2026-04-12T12:30:26.001Z</time></trkpt><trkpt lat="42.7910661202825" lon="12.911361808946694"><ele>828.0</ele><time>2026-04-12T12:30:28.001Z</time></trkpt><trkpt lat="42.791141596545174" lon="12.911327512156346"><ele>825.0</ele><time>2026-04-12T12:30:29.001Z</time></trkpt><trkpt lat="42.79124765835872" lon="12.911263214789365"><ele>822.0</ele><time>2026-04-12T12:30:31.001Z</time></trkpt><trkpt lat="42.79131837263807" lon="12.911236059605274"><ele>819.0</ele><time>2026-04-12T12:30:32.001Z</time></trkpt><trkpt lat="42.7913940990342" lon="12.911209257013157"><ele>816.0</ele><time>2026-04-12T12:30:33.001Z</time></trkpt><trkpt lat="42.7914600274273" lon="12.911185922249933"><ele>813.0</ele><time>2026-04-12T12:30:34.001Z</time></trkpt><trkpt lat="42.79158476677264" lon="12.911125845891151"><ele>813.0</ele><time>2026-04-12T12:30:36.001Z</time></trkpt><trkpt lat="42.79165854842994" lon="12.911130142525076"><ele>813.0</ele><time>2026-04-12T12:30:37.001Z</time></trkpt><trkpt lat="42.79173145782075" lon="12.9111258496995"><ele>813.0</ele><time>2026-04-12T12:30:38.001Z</time></trkpt><trkpt lat="42.79179402560862" lon="12.91110917354519"><ele>813.0</ele><time>2026-04-12T12:30:39.001Z</time></trkpt><trkpt lat="42.791866915686754" lon="12.911117380142377"><ele>813.0</ele><time>2026-04-12T12:30:40.001Z</time></trkpt><trkpt lat="42.79193407382945" lon="12.91113222703469"><ele>813.0</ele><time>2026-04-12T12:30:41.001Z</time></trkpt><trkpt lat="42.792054274281256" lon="12.91119994065395"><ele>809.0</ele><time>2026-04-12T12:30:43.001Z</time></trkpt><trkpt lat="42.79216918766674" lon="12.911258207143705"><ele>805.0</ele><time>2026-04-12T12:30:45.001Z</time></trkpt><trkpt lat="42.79229242377484" lon="12.911275907727697"><ele>801.0</ele><time>2026-04-12T12:30:47.001Z</time></trkpt><trkpt lat="42.792365419426886" lon="12.911271742865958"><ele>797.0</ele><time>2026-04-12T12:30:48.001Z</time></trkpt><trkpt lat="42.79243706023065" lon="12.911262024565346"><ele>793.0</ele><time>2026-04-12T12:30:49.001Z</time></trkpt><trkpt lat="42.79255590997024" lon="12.91121256267999"><ele>793.0</ele><time>2026-04-12T12:30:50.998Z</time></trkpt><trkpt lat="42.792621808364494" lon="12.911183918339043"><ele>793.0</ele><time>2026-04-12T12:30:51.998Z</time></trkpt><trkpt lat="42.792725169527756" lon="12.911145389307217"><ele>793.0</ele><time>2026-04-12T12:30:53.998Z</time></trkpt><trkpt lat="42.792793243666324" lon="12.911135311875716"><ele>793.0</ele><time>2026-04-12T12:30:54.998Z</time></trkpt><trkpt lat="42.79291825241466" lon="12.9110789484614"><ele>793.0</ele><time>2026-04-12T12:30:56.998Z</time></trkpt><trkpt lat="42.792999370194906" lon="12.911074206137286"><ele>788.6666666666666</ele><time>2026-04-12T12:30:57.998Z</time></trkpt><trkpt lat="42.79306976819654" lon="12.911055145539075"><ele>784.3333333333333</ele><time>2026-04-12T12:30:58.998Z</time></trkpt><trkpt lat="42.79315146856939" lon="12.911034125262557"><ele>780.0</ele><time>2026-04-12T12:30:59.998Z</time></trkpt><trkpt lat="42.793214119779826" lon="12.911000914413629"><ele>775.6666666666666</ele><time>2026-04-12T12:31:00.999Z</time></trkpt><trkpt lat="42.79331889883662" lon="12.911006702589264"><ele>771.3333333333333</ele><time>2026-04-12T12:31:02.999Z</time></trkpt><trkpt lat="42.793431640717834" lon="12.910982036830807"><ele>767.0</ele><time>2026-04-12T12:31:04.999Z</time></trkpt><trkpt lat="42.79354532976274" lon="12.910945796733179"><ele>766.8</ele><time>2026-04-12T12:31:06.999Z</time></trkpt><trkpt lat="42.79366109780685" lon="12.910902443749048"><ele>766.6</ele><time>2026-04-12T12:31:08.999Z</time></trkpt><trkpt lat="42.793749503813274" lon="12.910842161969814"><ele>766.4</ele><time>2026-04-12T12:31:10.999Z</time></trkpt><trkpt lat="42.793843281780774" lon="12.910812352432808"><ele>766.1999999999999</ele><time>2026-04-12T12:31:12.999Z</time></trkpt><trkpt lat="42.79391553068451" lon="12.91075313990621"><ele>766.0</ele><time>2026-04-12T12:31:14.999Z</time></trkpt><trkpt lat="42.79398369241621" lon="12.910724849374436"><ele>766.0</ele><time>2026-04-12T12:31:16.999Z</time></trkpt><trkpt lat="42.794048852152685" lon="12.910680123503285"><ele>766.0</ele><time>2026-04-12T12:31:19.999Z</time></trkpt><trkpt lat="42.79397639340238" lon="12.910701941016494"><ele>766.0</ele><time>2026-04-12T12:32:26.001Z</time></trkpt><trkpt lat="42.793847144362026" lon="12.910712509549509"><ele>766.0</ele><time>2026-04-12T12:32:29.001Z</time></trkpt><trkpt lat="42.79380351019598" lon="12.910838313713091"><ele>766.0</ele><time>2026-04-12T12:32:31.001Z</time></trkpt><trkpt lat="42.793861788626785" lon="12.910949580303225"><ele>766.1666666666667</ele><time>2026-04-12T12:36:00.001Z</time></trkpt><trkpt lat="42.79380531474643" lon="12.911024917196215"><ele>766.3333333333334</ele><time>2026-04-12T12:40:36.001Z</time></trkpt><trkpt lat="42.793729731069604" lon="12.91107054172288"><ele>766.5</ele><time>2026-04-12T12:40:38.001Z</time></trkpt><trkpt lat="42.79367982102736" lon="12.911125416801491"><ele>766.6666666666666</ele><time>2026-04-12T12:40:39.001Z</time></trkpt><trkpt lat="42.79361684945017" lon="12.911161176058483"><ele>766.8333333333333</ele><time>2026-04-12T12:40:40.001Z</time></trkpt><trkpt lat="42.79348466002825" lon="12.911226914807491"><ele>767.0</ele><time>2026-04-12T12:40:42.001Z</time></trkpt><trkpt lat="42.793409207827615" lon="12.911274515455057"><ele>767.0</ele><time>2026-04-12T12:40:43.001Z</time></trkpt><trkpt lat="42.79333760995849" lon="12.911318313652313"><ele>767.0</ele><time>2026-04-12T12:40:44.001Z</time></trkpt><trkpt lat="42.79326700322553" lon="12.911374388580617"><ele>767.0</ele><time>2026-04-12T12:40:45.001Z</time></trkpt><trkpt lat="42.79318116841197" lon="12.911438091010245"><ele>767.0</ele><time>2026-04-12T12:40:46.001Z</time></trkpt><trkpt lat="42.793094702379825" lon="12.911525831606259"><ele>767.0</ele><time>2026-04-12T12:40:47.001Z</time></trkpt><trkpt lat="42.79300315285151" lon="12.911616432975167"><ele>767.0</ele><time>2026-04-12T12:40:48.001Z</time></trkpt><trkpt lat="42.79290517351164" lon="12.911720903091522"><ele>767.0</ele><time>2026-04-12T12:40:49.001Z</time></trkpt><trkpt lat="42.792810518389715" lon="12.911818768135147"><ele>767.0</ele><time>2026-04-12T12:40:50.001Z</time></trkpt><trkpt lat="42.79270980771855" lon="12.911881098714098"><ele>767.0</ele><time>2026-04-12T12:40:51.001Z</time></trkpt><trkpt lat="42.792623556265546" lon="12.911945041704982"><ele>764.8</ele><time>2026-04-12T12:40:52.001Z</time></trkpt><trkpt lat="42.79254636731693" lon="12.912019866656303"><ele>762.6</ele><time>2026-04-12T12:40:53.001Z</time></trkpt><trkpt lat="42.7924743590485" lon="12.912073987192642"><ele>760.4</ele><time>2026-04-12T12:40:54.002Z</time></trkpt><trkpt lat="42.79239009662642" lon="12.912125101907899"><ele>758.1999999999999</ele><time>2026-04-12T12:40:55.002Z</time></trkpt><trkpt lat="42.7923009826188" lon="12.912154629389885"><ele>756.0</ele><time>2026-04-12T12:40:56.002Z</time></trkpt><trkpt lat="42.792196965549145" lon="12.91220838826063"><ele>756.0</ele><time>2026-04-12T12:40:57.002Z</time></trkpt><trkpt lat="42.792102382198514" lon="12.912256868410575"><ele>756.0</ele><time>2026-04-12T12:40:58.002Z</time></trkpt><trkpt lat="42.79201791881033" lon="12.912324549829286"><ele>756.0</ele><time>2026-04-12T12:40:59.002Z</time></trkpt><trkpt lat="42.7919216903874" lon="12.912357955474363"><ele>756.0</ele><time>2026-04-12T12:41:00.002Z</time></trkpt><trkpt lat="42.791833956255566" lon="12.912406753199198"><ele>756.0</ele><time>2026-04-12T12:41:01.002Z</time></trkpt><trkpt lat="42.791750701340085" lon="12.912452185798834"><ele>754.5</ele><time>2026-04-12T12:41:02.002Z</time></trkpt><trkpt lat="42.791660794527004" lon="12.91249182537528"><ele>753.0</ele><time>2026-04-12T12:41:03.002Z</time></trkpt><trkpt lat="42.79158697911785" lon="12.912517620535768"><ele>751.5</ele><time>2026-04-12T12:41:04.002Z</time></trkpt><trkpt lat="42.79150362349173" lon="12.912542879712152"><ele>750.0</ele><time>2026-04-12T12:41:05.002Z</time></trkpt><trkpt lat="42.79143176258703" lon="12.912584611254754"><ele>748.5</ele><time>2026-04-12T12:41:06.002Z</time></trkpt><trkpt lat="42.79134952595798" lon="12.912595601898097"><ele>747.0</ele><time>2026-04-12T12:41:07.002Z</time></trkpt><trkpt lat="42.791275010826205" lon="12.912626394008853"><ele>747.0</ele><time>2026-04-12T12:41:08.002Z</time></trkpt><trkpt lat="42.79118565845235" lon="12.912632540527762"><ele>747.0</ele><time>2026-04-12T12:41:09.002Z</time></trkpt><trkpt lat="42.791114444335314" lon="12.912675551677037"><ele>747.0</ele><time>2026-04-12T12:41:10.002Z</time></trkpt><trkpt lat="42.79104753697832" lon="12.912698520348027"><ele>747.0</ele><time>2026-04-12T12:41:11.002Z</time></trkpt><trkpt lat="42.790969575443135" lon="12.912713821874341"><ele>747.0</ele><time>2026-04-12T12:41:12.002Z</time></trkpt><trkpt lat="42.790891725306935" lon="12.912760055374667"><ele>747.0</ele><time>2026-04-12T12:41:13.002Z</time></trkpt><trkpt lat="42.79083826502858" lon="12.912833136070333"><ele>752.6</ele><time>2026-04-12T12:41:14.002Z</time></trkpt><trkpt lat="42.790770952182456" lon="12.912865020462657"><ele>758.2</ele><time>2026-04-12T12:41:15.002Z</time></trkpt><trkpt lat="42.790646719688056" lon="12.912930821135006"><ele>763.8</ele><time>2026-04-12T12:41:17.002Z</time></trkpt><trkpt lat="42.790567002320586" lon="12.912991399334999"><ele>769.4</ele><time>2026-04-12T12:41:18.002Z</time></trkpt><trkpt lat="42.790488664767594" lon="12.913011508829031"><ele>775.0</ele><time>2026-04-12T12:41:19.002Z</time></trkpt><trkpt lat="42.790410968091216" lon="12.913068178265263"><ele>774.9999999999999</ele><time>2026-04-12T12:41:20.002Z</time></trkpt><trkpt lat="42.79033582932925" lon="12.913105460419848"><ele>775.0</ele><time>2026-04-12T12:41:21.001Z</time></trkpt><trkpt lat="42.79026068536643" lon="12.913128484845156"><ele>775.0</ele><time>2026-04-12T12:41:22Z</time></trkpt><trkpt lat="42.79017924906638" lon="12.913179220302851"><ele>775.0</ele><time>2026-04-12T12:41:23Z</time></trkpt><trkpt lat="42.79009901859302" lon="12.913213256402372"><ele>774.9999999999999</ele><time>2026-04-12T12:41:24Z</time></trkpt><trkpt lat="42.790013632335764" lon="12.9132469887279"><ele>775.0</ele><time>2026-04-12T12:41:25Z</time></trkpt><trkpt lat="42.78993458412838" lon="12.913294457185682"><ele>777.4285714285713</ele><time>2026-04-12T12:41:26Z</time></trkpt><trkpt lat="42.78986372275273" lon="12.91333923692003"><ele>779.8571428571429</ele><time>2026-04-12T12:41:27Z</time></trkpt><trkpt lat="42.78979113051725" lon="12.913357407382769"><ele>782.2857142857142</ele><time>2026-04-12T12:41:28Z</time></trkpt><trkpt lat="42.78972475704504" lon="12.91339470306767"><ele>784.7142857142857</ele><time>2026-04-12T12:41:29Z</time></trkpt><trkpt lat="42.789656486971396" lon="12.913418005468722"><ele>787.1428571428571</ele><time>2026-04-12T12:41:30Z</time></trkpt><trkpt lat="42.789590664150076" lon="12.913443612490397"><ele>789.5714285714286</ele><time>2026-04-12T12:41:31Z</time></trkpt><trkpt lat="42.78952389934211" lon="12.91346840214775"><ele>792.0</ele><time>2026-04-12T12:41:32Z</time></trkpt><trkpt lat="42.78945519231994" lon="12.91347674456434"><ele>783.4000000000001</ele><time>2026-04-12T12:41:33Z</time></trkpt><trkpt lat="42.789340859603236" lon="12.91350204072399"><ele>774.8000000000001</ele><time>2026-04-12T12:41:35Z</time></trkpt><trkpt lat="42.789232695532974" lon="12.913496856438279"><ele>766.2</ele><time>2026-04-12T12:41:37Z</time></trkpt><trkpt lat="42.78911049516815" lon="12.913455046402381"><ele>757.6</ele><time>2026-04-12T12:41:39Z</time></trkpt><trkpt lat="42.78904065979108" lon="12.913428104945314"><ele>749.0</ele><time>2026-04-12T12:41:40Z</time></trkpt><trkpt lat="42.78896376990011" lon="12.913418467512576"><ele>756.0</ele><time>2026-04-12T12:41:41Z</time></trkpt><trkpt lat="42.788901093925105" lon="12.913366930758615"><ele>763.0</ele><time>2026-04-12T12:41:42Z</time></trkpt><trkpt lat="42.788826361097414" lon="12.913349307969874"><ele>770.0</ele><time>2026-04-12T12:41:43Z</time></trkpt><trkpt lat="42.78875718812141" lon="12.913304969744614"><ele>777.0</ele><time>2026-04-12T12:41:44Z</time></trkpt><trkpt lat="42.78867882845531" lon="12.9132734290756"><ele>784.0000000000001</ele><time>2026-04-12T12:41:45Z</time></trkpt><trkpt lat="42.78859992732942" lon="12.913238426702307"><ele>791.0</ele><time>2026-04-12T12:41:46Z</time></trkpt><trkpt lat="42.788523222359316" lon="12.913197958650402"><ele>789.5000000000001</ele><time>2026-04-12T12:41:47Z</time></trkpt><trkpt lat="42.788447682498365" lon="12.913157730876305"><ele>788.0</ele><time>2026-04-12T12:41:48Z</time></trkpt><trkpt lat="42.788375891627254" lon="12.91312119548941"><ele>786.5</ele><time>2026-04-12T12:41:49Z</time></trkpt><trkpt lat="42.78829581184237" lon="12.913101790377706"><ele>785.0</ele><time>2026-04-12T12:41:50Z</time></trkpt><trkpt lat="42.78822338040211" lon="12.913062461611258"><ele>783.5000000000001</ele><time>2026-04-12T12:41:51Z</time></trkpt><trkpt lat="42.78814678695966" lon="12.913034542491532"><ele>782.0</ele><time>2026-04-12T12:41:52Z</time></trkpt><trkpt lat="42.78806334185561" lon="12.913034877592999"><ele>782.0000000000001</ele><time>2026-04-12T12:41:53Z</time></trkpt><trkpt lat="42.78799735263534" lon="12.913030001262102"><ele>782.0</ele><time>2026-04-12T12:41:54Z</time></trkpt><trkpt lat="42.78793046922021" lon="12.913080671697937"><ele>782.0</ele><time>2026-04-12T12:41:55Z</time></trkpt><trkpt lat="42.7878545906775" lon="12.913136948527603"><ele>782.0</ele><time>2026-04-12T12:41:56Z</time></trkpt><trkpt lat="42.787779459461746" lon="12.913216570585996"><ele>782.0000000000001</ele><time>2026-04-12T12:41:57Z</time></trkpt><trkpt lat="42.78773003886223" lon="12.913294705151099"><ele>782.0</ele><time>2026-04-12T12:41:58Z</time></trkpt><trkpt lat="42.787670033257925" lon="12.913366472456335"><ele>781.3333333333334</ele><time>2026-04-12T12:41:59Z</time></trkpt><trkpt lat="42.78760828924505" lon="12.913418366491038"><ele>780.6666666666667</ele><time>2026-04-12T12:42:00Z</time></trkpt><trkpt lat="42.78750885249514" lon="12.913544754781034"><ele>780.0</ele><time>2026-04-12T12:42:02Z</time></trkpt><trkpt lat="42.78744110203384" lon="12.913613737583939"><ele>779.3333333333333</ele><time>2026-04-12T12:42:03Z</time></trkpt><trkpt lat="42.78738633428336" lon="12.913664609112294"><ele>778.6666666666666</ele><time>2026-04-12T12:42:04Z</time></trkpt><trkpt lat="42.78734284563715" lon="12.913733042280372"><ele>778.0</ele><time>2026-04-12T12:42:05Z</time></trkpt><trkpt lat="42.78728946545479" lon="12.913786757314943"><ele>777.9999999999999</ele><time>2026-04-12T12:42:06Z</time></trkpt><trkpt lat="42.787245535609536" lon="12.9138501475722"><ele>778.0</ele><time>2026-04-12T12:42:07Z</time></trkpt><trkpt lat="42.78719976290022" lon="12.913912601014877"><ele>778.0</ele><time>2026-04-12T12:42:08Z</time></trkpt><trkpt lat="42.787161830353114" lon="12.914041890113868"><ele>778.0</ele><time>2026-04-12T12:42:10.001Z</time></trkpt><trkpt lat="42.787111192929956" lon="12.914189172516076"><ele>777.9999999999999</ele><time>2026-04-12T12:42:12.001Z</time></trkpt><trkpt lat="42.78707857405495" lon="12.914280375304404"><ele>778.0</ele><time>2026-04-12T12:42:13.001Z</time></trkpt><trkpt lat="42.78709179482003" lon="12.914400989387444"><ele>775.7142857142858</ele><time>2026-04-12T12:42:14.001Z</time></trkpt><trkpt lat="42.78710686033755" lon="12.914493481064659"><ele>773.4285714285713</ele><time>2026-04-12T12:42:15.001Z</time></trkpt><trkpt lat="42.78712888480922" lon="12.914585789843281"><ele>771.1428571428571</ele><time>2026-04-12T12:42:16.001Z</time></trkpt><trkpt lat="42.78714242312862" lon="12.9146708915298"><ele>768.8571428571429</ele><time>2026-04-12T12:42:17.001Z</time></trkpt><trkpt lat="42.787121308247954" lon="12.914766943972113"><ele>766.5714285714287</ele><time>2026-04-12T12:42:18.001Z</time></trkpt><trkpt lat="42.78708757606464" lon="12.914842903262285"><ele>764.2857142857142</ele><time>2026-04-12T12:42:19.001Z</time></trkpt><trkpt lat="42.78704678042118" lon="12.914932355926345"><ele>762.0</ele><time>2026-04-12T12:42:20.001Z</time></trkpt><trkpt lat="42.78701188610988" lon="12.9150423571202"><ele>766.1666666666666</ele><time>2026-04-12T12:42:21.001Z</time></trkpt><trkpt lat="42.78696489932551" lon="12.915116924695038"><ele>770.3333333333333</ele><time>2026-04-12T12:42:22.001Z</time></trkpt><trkpt lat="42.78688933914802" lon="12.915199983826248"><ele>774.5</ele><time>2026-04-12T12:42:23.001Z</time></trkpt><trkpt lat="42.78684033561853" lon="12.915290994777397"><ele>778.6666666666666</ele><time>2026-04-12T12:42:24.001Z</time></trkpt><trkpt lat="42.78678453412342" lon="12.915345281331826"><ele>782.8333333333333</ele><time>2026-04-12T12:42:25.001Z</time></trkpt><trkpt lat="42.78672650390308" lon="12.915481727030746"><ele>787.0</ele><time>2026-04-12T12:42:27.001Z</time></trkpt><trkpt lat="42.786684830590964" lon="12.915633011828634"><ele>786.9999999999999</ele><time>2026-04-12T12:42:29.001Z</time></trkpt><trkpt lat="42.78660795329754" lon="12.915765952524204"><ele>787.0</ele><time>2026-04-12T12:42:31.001Z</time></trkpt><trkpt lat="42.78656208448462" lon="12.9158330026861"><ele>787.0</ele><time>2026-04-12T12:42:32.001Z</time></trkpt><trkpt lat="42.78651319352459" lon="12.915904576435993"><ele>787.0</ele><time>2026-04-12T12:42:33.001Z</time></trkpt><trkpt lat="42.78644284464321" lon="12.91602919924684"><ele>786.9999999999999</ele><time>2026-04-12T12:42:35.001Z</time></trkpt><trkpt lat="42.786383732422394" lon="12.91606861464987"><ele>787.0</ele><time>2026-04-12T12:42:36.001Z</time></trkpt><trkpt lat="42.786327230133125" lon="12.916128433912686"><ele>785.6</ele><time>2026-04-12T12:42:38.001Z</time></trkpt><trkpt lat="42.786178275098116" lon="12.916208836802598"><ele>784.2</ele><time>2026-04-12T12:42:40.001Z</time></trkpt><trkpt lat="42.78606899581755" lon="12.916279830073215"><ele>782.8</ele><time>2026-04-12T12:42:42.001Z</time></trkpt><trkpt lat="42.78601628346328" lon="12.916328968194556"><ele>781.4</ele><time>2026-04-12T12:42:43.001Z</time></trkpt><trkpt lat="42.785963237888346" lon="12.9163900274823"><ele>780.0</ele><time>2026-04-12T12:42:44.001Z</time></trkpt><trkpt lat="42.78591499025436" lon="12.916450408659173"><ele>780.0</ele><time>2026-04-12T12:42:45.001Z</time></trkpt><trkpt lat="42.78589172792664" lon="12.916547676328996"><ele>780.0</ele><time>2026-04-12T12:42:46.001Z</time></trkpt><trkpt lat="42.78580047100747" lon="12.916658506161497"><ele>780.0</ele><time>2026-04-12T12:42:48.001Z</time></trkpt><trkpt lat="42.785688532400805" lon="12.916764145093946"><ele>780.0</ele><time>2026-04-12T12:42:50.001Z</time></trkpt><trkpt lat="42.7855721093563" lon="12.916856166047722"><ele>778.4285714285714</ele><time>2026-04-12T12:42:52.001Z</time></trkpt><trkpt lat="42.78551461232672" lon="12.916898614502893"><ele>776.8571428571429</ele><time>2026-04-12T12:42:53.001Z</time></trkpt><trkpt lat="42.78545203534244" lon="12.916942368866232"><ele>775.2857142857142</ele><time>2026-04-12T12:42:54.001Z</time></trkpt><trkpt lat="42.78538577780235" lon="12.916988985293958"><ele>773.7142857142858</ele><time>2026-04-12T12:42:55.001Z</time></trkpt><trkpt lat="42.78532965953987" lon="12.917032639785258"><ele>772.1428571428572</ele><time>2026-04-12T12:42:56.001Z</time></trkpt><trkpt lat="42.78526355941975" lon="12.91708797321087"><ele>770.5714285714286</ele><time>2026-04-12T12:42:57.001Z</time></trkpt><trkpt lat="42.78521036501229" lon="12.91714147090202"><ele>769.0</ele><time>2026-04-12T12:42:58.001Z</time></trkpt><trkpt lat="42.785118376016065" lon="12.917279258683765"><ele>769.0</ele><time>2026-04-12T12:43:00.001Z</time></trkpt><trkpt lat="42.78508728805" lon="12.917354881811951"><ele>769.0</ele><time>2026-04-12T12:43:01.001Z</time></trkpt><trkpt lat="42.78503710455895" lon="12.917524452616611"><ele>769.0</ele><time>2026-04-12T12:43:03.001Z</time></trkpt><trkpt lat="42.78501531015076" lon="12.917607140031183"><ele>769.0</ele><time>2026-04-12T12:43:04.001Z</time></trkpt><trkpt lat="42.78499103614891" lon="12.91768816151155"><ele>769.0</ele><time>2026-04-12T12:43:05.001Z</time></trkpt><trkpt lat="42.7849300276457" lon="12.91783797217591"><ele>764.6</ele><time>2026-04-12T12:43:07.001Z</time></trkpt><trkpt lat="42.78485788776941" lon="12.917973757256082"><ele>760.2</ele><time>2026-04-12T12:43:09.001Z</time></trkpt><trkpt lat="42.784811696852834" lon="12.918043630639202"><ele>755.8000000000001</ele><time>2026-04-12T12:43:10.001Z</time></trkpt><trkpt lat="42.78476006682168" lon="12.918113204821564"><ele>751.4000000000001</ele><time>2026-04-12T12:43:11.001Z</time></trkpt><trkpt lat="42.78464978185483" lon="12.918243359744439"><ele>747.0</ele><time>2026-04-12T12:43:13.001Z</time></trkpt><trkpt lat="42.78459472859097" lon="12.918305791279382"><ele>747.0</ele><time>2026-04-12T12:43:14.001Z</time></trkpt><trkpt lat="42.78454316380325" lon="12.918389888875046"><ele>747.0</ele><time>2026-04-12T12:43:15.001Z</time></trkpt><trkpt lat="42.78448600032375" lon="12.918450602723583"><ele>747.0</ele><time>2026-04-12T12:43:16.001Z</time></trkpt><trkpt lat="42.78440580199043" lon="12.918511748138927"><ele>747.0</ele><time>2026-04-12T12:43:17.001Z</time></trkpt><trkpt lat="42.78434885786404" lon="12.918575414702458"><ele>747.0</ele><time>2026-04-12T12:43:18.001Z</time></trkpt><trkpt lat="42.78430554294121" lon="12.918652885601253"><ele>747.0</ele><time>2026-04-12T12:43:19.001Z</time></trkpt><trkpt lat="42.78425619465851" lon="12.918708379142169"><ele>745.25</ele><time>2026-04-12T12:43:20.001Z</time></trkpt><trkpt lat="42.78414823402824" lon="12.918822730845388"><ele>743.5</ele><time>2026-04-12T12:43:22.001Z</time></trkpt><trkpt lat="42.784103558081874" lon="12.91888885714077"><ele>741.75</ele><time>2026-04-12T12:43:23.001Z</time></trkpt><trkpt lat="42.78403144210247" lon="12.919025653789996"><ele>740.0</ele><time>2026-04-12T12:43:25.001Z</time></trkpt><trkpt lat="42.78396176633119" lon="12.919167593329872"><ele>734.3333333333333</ele><time>2026-04-12T12:43:26.999Z</time></trkpt><trkpt lat="42.78388087899029" lon="12.91931274557206"><ele>728.6666666666666</ele><time>2026-04-12T12:43:28.999Z</time></trkpt><trkpt lat="42.783813302216025" lon="12.919402359578928"><ele>723.0</ele><time>2026-04-12T12:43:30.999Z</time></trkpt><trkpt lat="42.78374552360241" lon="12.919410539747874"><ele>717.3333333333334</ele><time>2026-04-12T12:43:35.999Z</time></trkpt><trkpt lat="42.783681753732075" lon="12.919456908041967"><ele>711.6666666666667</ele><time>2026-04-12T12:43:39.999Z</time></trkpt><trkpt lat="42.78367672352549" lon="12.919566405973416"><ele>706.0</ele><time>2026-04-12T12:43:41.999Z</time></trkpt><trkpt lat="42.78376462428734" lon="12.919635493308894"><ele>706.0</ele><time>2026-04-12T12:43:43.999Z</time></trkpt><trkpt lat="42.78383068015202" lon="12.919611386833134"><ele>706.0</ele><time>2026-04-12T12:43:44.999Z</time></trkpt><trkpt lat="42.78389600939913" lon="12.919606467738204"><ele>706.0</ele><time>2026-04-12T12:43:45.999Z</time></trkpt><trkpt lat="42.7840134992788" lon="12.91959641448142"><ele>706.0</ele><time>2026-04-12T12:43:47.999Z</time></trkpt><trkpt lat="42.78410166794852" lon="12.919576960658178"><ele>706.0</ele><time>2026-04-12T12:43:49Z</time></trkpt><trkpt lat="42.78417401086097" lon="12.919571786311893"><ele>706.0</ele><time>2026-04-12T12:43:50Z</time></trkpt><trkpt lat="42.78430386659214" lon="12.919547193351578"><ele>701.3333333333334</ele><time>2026-04-12T12:43:52Z</time></trkpt><trkpt lat="42.78437463616948" lon="12.919554201494089"><ele>696.6666666666667</ele><time>2026-04-12T12:43:53Z</time></trkpt><trkpt lat="42.784446865880675" lon="12.919523627112467"><ele>692.0</ele><time>2026-04-12T12:43:54Z</time></trkpt><trkpt lat="42.78451695524383" lon="12.919522577389166"><ele>687.3333333333334</ele><time>2026-04-12T12:43:55Z</time></trkpt><trkpt lat="42.784587927802114" lon="12.919482662264924"><ele>682.6666666666666</ele><time>2026-04-12T12:43:56Z</time></trkpt><trkpt lat="42.78465832114116" lon="12.919493309803853"><ele>678.0</ele><time>2026-04-12T12:43:57Z</time></trkpt><trkpt lat="42.784745039464674" lon="12.91948664767367"><ele>678.0</ele><time>2026-04-12T12:43:59Z</time></trkpt><trkpt lat="42.784812583502955" lon="12.919485808074539"><ele>678.0</ele><time>2026-04-12T12:44:00Z</time></trkpt><trkpt lat="42.784937812827174" lon="12.919499306823607"><ele>678.0</ele><time>2026-04-12T12:44:02Z</time></trkpt><trkpt lat="42.785013556436326" lon="12.919518705210125"><ele>678.0</ele><time>2026-04-12T12:44:03Z</time></trkpt><trkpt lat="42.78509639446437" lon="12.919545528955291"><ele>678.0</ele><time>2026-04-12T12:44:04Z</time></trkpt><trkpt lat="42.78518085009006" lon="12.919557875275636"><ele>678.0</ele><time>2026-04-12T12:44:05Z</time></trkpt><trkpt lat="42.78525154443466" lon="12.919569362837361"><ele>673.8333333333334</ele><time>2026-04-12T12:44:06Z</time></trkpt><trkpt lat="42.785333125249856" lon="12.919604191100223"><ele>669.6666666666666</ele><time>2026-04-12T12:44:07Z</time></trkpt><trkpt lat="42.78540879055339" lon="12.91959612596724"><ele>665.5</ele><time>2026-04-12T12:44:08Z</time></trkpt><trkpt lat="42.78548268733308" lon="12.919618719173688"><ele>661.3333333333333</ele><time>2026-04-12T12:44:09Z</time></trkpt><trkpt lat="42.78555902241352" lon="12.91963162823418"><ele>657.1666666666666</ele><time>2026-04-12T12:44:10Z</time></trkpt><trkpt lat="42.78562361800921" lon="12.91964106185999"><ele>653.0</ele><time>2026-04-12T12:44:11Z</time></trkpt><trkpt lat="42.785735419637" lon="12.919637064342721"><ele>653.0</ele><time>2026-04-12T12:44:13Z</time></trkpt><trkpt lat="42.785845688571555" lon="12.919596304971632"><ele>653.0</ele><time>2026-04-12T12:44:15Z</time></trkpt><trkpt lat="42.785938140474364" lon="12.919516693917698"><ele>653.0</ele><time>2026-04-12T12:44:17Z</time></trkpt><trkpt lat="42.7859887169051" lon="12.919395138221606"><ele>653.0</ele><time>2026-04-12T12:44:19Z</time></trkpt><trkpt lat="42.78603246421791" lon="12.919272229315464"><ele>653.0</ele><time>2026-04-12T12:44:21Z</time></trkpt><trkpt lat="42.78605931232511" lon="12.91914193626898"><ele>650.0</ele><time>2026-04-12T12:44:23Z</time></trkpt><trkpt lat="42.786127227797" lon="12.918998057160714"><ele>647.0</ele><time>2026-04-12T12:44:25Z</time></trkpt><trkpt lat="42.78614405649743" lon="12.918900244144279"><ele>644.0</ele><time>2026-04-12T12:44:26Z</time></trkpt><trkpt lat="42.786173347710495" lon="12.91881558972727"><ele>641.0</ele><time>2026-04-12T12:44:27Z</time></trkpt><trkpt lat="42.78618949392606" lon="12.918695037129748"><ele>638.0</ele><time>2026-04-12T12:44:29Z</time></trkpt><trkpt lat="42.786277220046976" lon="12.918618455847849"><ele>638.0</ele><time>2026-04-12T12:44:31Z</time></trkpt><trkpt lat="42.78635411782013" lon="12.918570859920507"><ele>638.0</ele><time>2026-04-12T12:44:33Z</time></trkpt><trkpt lat="42.786439500794245" lon="12.918518234514895"><ele>638.0</ele><time>2026-04-12T12:44:35Z</time></trkpt><trkpt lat="42.78648873916109" lon="12.91844111071739"><ele>638.0</ele><time>2026-04-12T12:44:37Z</time></trkpt><trkpt lat="42.786555374260274" lon="12.918419283805578"><ele>638.0</ele><time>2026-04-12T12:44:42Z</time></trkpt><trkpt lat="42.786675334633564" lon="12.918383038752951"><ele>638.0</ele><time>2026-04-12T12:44:45.001Z</time></trkpt><trkpt lat="42.78674835615316" lon="12.918358688369134"><ele>636.3333333333333</ele><time>2026-04-12T12:44:46.001Z</time></trkpt><trkpt lat="42.786825409179976" lon="12.918315973897661"><ele>634.6666666666666</ele><time>2026-04-12T12:44:47.001Z</time></trkpt><trkpt lat="42.786917605076056" lon="12.918309476144838"><ele>633.0</ele><time>2026-04-12T12:44:48.001Z</time></trkpt><trkpt lat="42.786998535823614" lon="12.918259835412556"><ele>631.3333333333334</ele><time>2026-04-12T12:44:49.001Z</time></trkpt><trkpt lat="42.787060951445035" lon="12.918206274621696"><ele>629.6666666666667</ele><time>2026-04-12T12:44:50.001Z</time></trkpt><trkpt lat="42.7871428045191" lon="12.91821162655646"><ele>628.0</ele><time>2026-04-12T12:44:51.001Z</time></trkpt><trkpt lat="42.78721174508604" lon="12.918197346095688"><ele>628.0</ele><time>2026-04-12T12:44:52.001Z</time></trkpt><trkpt lat="42.78734415756986" lon="12.918160356072478"><ele>628.0</ele><time>2026-04-12T12:44:54.001Z</time></trkpt><trkpt lat="42.78741705878588" lon="12.918135646481394"><ele>628.0</ele><time>2026-04-12T12:44:55.001Z</time></trkpt><trkpt lat="42.787500612288014" lon="12.918124230474296"><ele>628.0</ele><time>2026-04-12T12:44:56.001Z</time></trkpt><trkpt lat="42.78757357390725" lon="12.918100420700645"><ele>628.0</ele><time>2026-04-12T12:44:57.001Z</time></trkpt><trkpt lat="42.78766510228497" lon="12.918063600525707"><ele>622.2857142857142</ele><time>2026-04-12T12:44:58.001Z</time></trkpt><trkpt lat="42.78773621904789" lon="12.918027717506405"><ele>616.5714285714286</ele><time>2026-04-12T12:44:59.001Z</time></trkpt><trkpt lat="42.787796835195806" lon="12.917974018977697"><ele>610.8571428571429</ele><time>2026-04-12T12:45:00.001Z</time></trkpt><trkpt lat="42.78785612942921" lon="12.917930891406115"><ele>605.1428571428571</ele><time>2026-04-12T12:45:01.001Z</time></trkpt><trkpt lat="42.78792174352526" lon="12.917891313461011"><ele>599.4285714285714</ele><time>2026-04-12T12:45:02.001Z</time></trkpt><trkpt lat="42.7879792720873" lon="12.917839648271213"><ele>593.7142857142857</ele><time>2026-04-12T12:45:03.001Z</time></trkpt><trkpt lat="42.7880395560934" lon="12.917782049284627"><ele>588.0</ele><time>2026-04-12T12:45:04.001Z</time></trkpt><trkpt lat="42.788121929207364" lon="12.917724366138296"><ele>588.0</ele><time>2026-04-12T12:45:05.001Z</time></trkpt><trkpt lat="42.78818099373478" lon="12.917668001011892"><ele>588.0</ele><time>2026-04-12T12:45:06.001Z</time></trkpt><trkpt lat="42.78826084371439" lon="12.91759631497807"><ele>588.0</ele><time>2026-04-12T12:45:08.001Z</time></trkpt><trkpt lat="42.788317965123" lon="12.917506308531916"><ele>588.0</ele><time>2026-04-12T12:45:09.001Z</time></trkpt><trkpt lat="42.788371502142844" lon="12.917449190108993"><ele>588.0</ele><time>2026-04-12T12:45:10.001Z</time></trkpt><trkpt lat="42.78843599742444" lon="12.91739172414121"><ele>588.0</ele><time>2026-04-12T12:45:11.001Z</time></trkpt><trkpt lat="42.78850808565947" lon="12.917335795592818"><ele>587.4</ele><time>2026-04-12T12:45:12.001Z</time></trkpt><trkpt lat="42.788568734504175" lon="12.91728931316937"><ele>586.8</ele><time>2026-04-12T12:45:13.001Z</time></trkpt><trkpt lat="42.788643328195604" lon="12.917254811079106"><ele>586.2</ele><time>2026-04-12T12:45:14.001Z</time></trkpt><trkpt lat="42.788726462852" lon="12.917210378919195"><ele>585.6</ele><time>2026-04-12T12:45:15.001Z</time></trkpt><trkpt lat="42.788828609038724" lon="12.917172033299027"><ele>585.0</ele><time>2026-04-12T12:45:16.001Z</time></trkpt><trkpt lat="42.78894375381888" lon="12.917160270351278"><ele>585.0</ele><time>2026-04-12T12:45:18.001Z</time></trkpt><trkpt lat="42.789013421218016" lon="12.91714177025339"><ele>585.0</ele><time>2026-04-12T12:45:19.001Z</time></trkpt><trkpt lat="42.78911308607527" lon="12.917172350251906"><ele>585.0</ele><time>2026-04-12T12:45:21.001Z</time></trkpt><trkpt lat="42.789183036762005" lon="12.917222041162535"><ele>585.0</ele><time>2026-04-12T12:45:24.001Z</time></trkpt><trkpt lat="42.78922475110621" lon="12.91728957767038"><ele>585.0</ele><time>2026-04-12T12:45:27.001Z</time></trkpt><trkpt lat="42.7892615641235" lon="12.917365935037939"><ele>585.0</ele><time>2026-04-12T12:45:30.001Z</time></trkpt><trkpt lat="42.78925931626535" lon="12.91746742977692"><ele>585.0</ele><time>2026-04-12T12:45:31.001Z</time></trkpt><trkpt lat="42.78933733178767" lon="12.917514055501488"><ele>585.0</ele><time>2026-04-12T12:45:31.999Z</time></trkpt><trkpt lat="42.78941784983394" lon="12.917624635452672"><ele>585.0</ele><time>2026-04-12T12:45:33.999Z</time></trkpt><trkpt lat="42.789468705584085" lon="12.917693147000975"><ele>585.0</ele><time>2026-04-12T12:45:34.999Z</time></trkpt><trkpt lat="42.78957550583542" lon="12.917777872303331"><ele>585.0</ele><time>2026-04-12T12:45:36.999Z</time></trkpt><trkpt lat="42.78962793030495" lon="12.917827328756369"><ele>581.7142857142858</ele><time>2026-04-12T12:45:37.999Z</time></trkpt><trkpt lat="42.78968280316258" lon="12.917871482407861"><ele>578.4285714285714</ele><time>2026-04-12T12:45:38.999Z</time></trkpt><trkpt lat="42.789744630898205" lon="12.917919608879508"><ele>575.1428571428571</ele><time>2026-04-12T12:45:39.999Z</time></trkpt><trkpt lat="42.78981330949316" lon="12.917954642380582"><ele>571.8571428571429</ele><time>2026-04-12T12:45:40.999Z</time></trkpt><trkpt lat="42.78989022580355" lon="12.917976168455182"><ele>568.5714285714286</ele><time>2026-04-12T12:45:41.999Z</time></trkpt><trkpt lat="42.78997029094872" lon="12.917975712906214"><ele>565.2857142857143</ele><time>2026-04-12T12:45:42.999Z</time></trkpt><trkpt lat="42.79005012359274" lon="12.91796148497357"><ele>562.0</ele><time>2026-04-12T12:45:43.999Z</time></trkpt><trkpt lat="42.790126701775165" lon="12.917945806988593"><ele>557.6</ele><time>2026-04-12T12:45:44.999Z</time></trkpt><trkpt lat="42.79021921422393" lon="12.917944389416839"><ele>553.2</ele><time>2026-04-12T12:45:45.999Z</time></trkpt><trkpt lat="42.7903175905141" lon="12.917915880210693"><ele>548.8</ele><time>2026-04-12T12:45:46.999Z</time></trkpt><trkpt lat="42.7903933813402" lon="12.917893629715955"><ele>544.4</ele><time>2026-04-12T12:45:47.999Z</time></trkpt><trkpt lat="42.79049864071879" lon="12.917861039588264"><ele>540.0</ele><time>2026-04-12T12:45:49.999Z</time></trkpt><trkpt lat="42.7905768278361" lon="12.917844263524954"><ele>540.0</ele><time>2026-04-12T12:45:51.999Z</time></trkpt><trkpt lat="42.79066535319519" lon="12.917820585943659"><ele>540.0</ele><time>2026-04-12T12:45:55.999Z</time></trkpt><trkpt lat="42.79075703604779" lon="12.917779895865184"><ele>540.0</ele><time>2026-04-12T12:45:57.999Z</time></trkpt><trkpt lat="42.79085999612099" lon="12.917749482199731"><ele>540.0</ele><time>2026-04-12T12:46:00Z</time></trkpt><trkpt lat="42.790982576508355" lon="12.917711459812102"><ele>540.0</ele><time>2026-04-12T12:46:02Z</time></trkpt><trkpt lat="42.79104890412948" lon="12.917682484657561"><ele>541.0</ele><time>2026-04-12T12:46:03Z</time></trkpt><trkpt lat="42.791120726178384" lon="12.917652509875664"><ele>542.0</ele><time>2026-04-12T12:46:04Z</time></trkpt><trkpt lat="42.79122052004346" lon="12.917616367362282"><ele>543.0</ele><time>2026-04-12T12:46:06Z</time></trkpt><trkpt lat="42.79131404373924" lon="12.91756257014831"><ele>544.0</ele><time>2026-04-12T12:46:08Z</time></trkpt><trkpt lat="42.79140081168995" lon="12.917549517906416"><ele>545.0</ele><time>2026-04-12T12:46:10Z</time></trkpt><trkpt lat="42.791496297582505" lon="12.917542156155577"><ele>545.0</ele><time>2026-04-12T12:46:12Z</time></trkpt><trkpt lat="42.79158912284772" lon="12.917522333902689"><ele>545.0</ele><time>2026-04-12T12:46:14Z</time></trkpt><trkpt lat="42.79174182679961" lon="12.917520644590738"><ele>545.0</ele><time>2026-04-12T12:46:16Z</time></trkpt><trkpt lat="42.79182419335294" lon="12.917560138170963"><ele>545.0</ele><time>2026-04-12T12:46:17Z</time></trkpt><trkpt lat="42.7918998403147" lon="12.917610239169832"><ele>545.0</ele><time>2026-04-12T12:46:18Z</time></trkpt><trkpt lat="42.79197036626609" lon="12.917722236249725"><ele>540.8333333333333</ele><time>2026-04-12T12:46:20Z</time></trkpt><trkpt lat="42.79203760101269" lon="12.917786970348557"><ele>536.6666666666666</ele><time>2026-04-12T12:46:21Z</time></trkpt><trkpt lat="42.792088835422" lon="12.917839635458845"><ele>532.5</ele><time>2026-04-12T12:46:22Z</time></trkpt><trkpt lat="42.79214523570799" lon="12.917894102359949"><ele>528.3333333333334</ele><time>2026-04-12T12:46:23Z</time></trkpt><trkpt lat="42.7922055653792" lon="12.91800040759824"><ele>524.1666666666667</ele><time>2026-04-12T12:46:25Z</time></trkpt><trkpt lat="42.79227765461103" lon="12.918101742526263"><ele>520.0</ele><time>2026-04-12T12:46:27Z</time></trkpt><trkpt lat="42.792344104641145" lon="12.918197336625793"><ele>520.0</ele><time>2026-04-12T12:46:29Z</time></trkpt><trkpt lat="42.79241428822624" lon="12.918308727512388"><ele>520.0</ele><time>2026-04-12T12:46:31Z</time></trkpt><trkpt lat="42.79249210905749" lon="12.918437875159398"><ele>520.0</ele><time>2026-04-12T12:46:33Z</time></trkpt><trkpt lat="42.79260487900925" lon="12.91850285789046"><ele>520.0</ele><time>2026-04-12T12:46:35Z</time></trkpt><trkpt lat="42.79272776037008" lon="12.918517155020414"><ele>510.4</ele><time>2026-04-12T12:46:37Z</time></trkpt><trkpt lat="42.79286248186953" lon="12.91852945691968"><ele>500.8</ele><time>2026-04-12T12:46:39Z</time></trkpt><trkpt lat="42.79293350604448" lon="12.918531267039667"><ele>491.20000000000005</ele><time>2026-04-12T12:46:40Z</time></trkpt><trkpt lat="42.79305421300286" lon="12.918531296411885"><ele>481.6</ele><time>2026-04-12T12:46:42Z</time></trkpt><trkpt lat="42.79317658897907" lon="12.91853499227754"><ele>472.0</ele><time>2026-04-12T12:46:44Z</time></trkpt><trkpt lat="42.793296373969696" lon="12.918525237781388"><ele>472.00000000000006</ele><time>2026-04-12T12:46:46.001Z</time></trkpt><trkpt lat="42.79341768950595" lon="12.918451563980021"><ele>472.0</ele><time>2026-04-12T12:46:48.001Z</time></trkpt><trkpt lat="42.79347968660303" lon="12.918408252503047"><ele>472.0</ele><time>2026-04-12T12:46:49.001Z</time></trkpt><trkpt lat="42.79354111658262" lon="12.918364965824562"><ele>472.0</ele><time>2026-04-12T12:46:50.001Z</time></trkpt><trkpt lat="42.793598133453145" lon="12.91832631558884"><ele>472.00000000000006</ele><time>2026-04-12T12:46:51.001Z</time></trkpt><trkpt lat="42.793695326622384" lon="12.918262040114026"><ele>472.0</ele><time>2026-04-12T12:46:52.001Z</time></trkpt><trkpt lat="42.79376685717506" lon="12.918220047798812"><ele>473.0</ele><time>2026-04-12T12:46:53.001Z</time></trkpt><trkpt lat="42.79383173899649" lon="12.918189068809989"><ele>474.0</ele><time>2026-04-12T12:46:54.001Z</time></trkpt><trkpt lat="42.793894660599165" lon="12.918162363137965"><ele>475.0</ele><time>2026-04-12T12:46:55.001Z</time></trkpt><trkpt lat="42.793958322312335" lon="12.91813849507783"><ele>476.0</ele><time>2026-04-12T12:46:56.001Z</time></trkpt><trkpt lat="42.79403399007453" lon="12.918112377095044"><ele>477.0</ele><time>2026-04-12T12:46:57.001Z</time></trkpt><trkpt lat="42.794111914392346" lon="12.91810003625975"><ele>478.0</ele><time>2026-04-12T12:46:58.001Z</time></trkpt><trkpt lat="42.79419580423604" lon="12.918069365369464"><ele>479.0</ele><time>2026-04-12T12:46:59.001Z</time></trkpt><trkpt lat="42.79431976743409" lon="12.918089892199"><ele>476.3333333333333</ele><time>2026-04-12T12:47:00.001Z</time></trkpt><trkpt lat="42.794391037381665" lon="12.918077014657698"><ele>473.66666666666663</ele><time>2026-04-12T12:47:01.001Z</time></trkpt><trkpt lat="42.79447710142938" lon="12.918079210703183"><ele>471.0</ele><time>2026-04-12T12:47:02.001Z</time></trkpt><trkpt lat="42.79455740339373" lon="12.91806870198137"><ele>468.33333333333337</ele><time>2026-04-12T12:47:03.001Z</time></trkpt><trkpt lat="42.794637062442916" lon="12.918062798103387"><ele>465.6666666666667</ele><time>2026-04-12T12:47:04.001Z</time></trkpt><trkpt lat="42.794723135992975" lon="12.918051975483408"><ele>463.0</ele><time>2026-04-12T12:47:05.001Z</time></trkpt><trkpt lat="42.794815916446666" lon="12.918045222115099"><ele>463.00000000000006</ele><time>2026-04-12T12:47:06.001Z</time></trkpt><trkpt lat="42.79490182193697" lon="12.91804065035074"><ele>463.0</ele><time>2026-04-12T12:47:07.001Z</time></trkpt><trkpt lat="42.79498683459212" lon="12.918036976497675"><ele>463.0</ele><time>2026-04-12T12:47:08.001Z</time></trkpt><trkpt lat="42.79506382184511" lon="12.918043361950508"><ele>463.0</ele><time>2026-04-12T12:47:09.001Z</time></trkpt><trkpt lat="42.79514223602431" lon="12.918055422709456"><ele>463.00000000000006</ele><time>2026-04-12T12:47:10.001Z</time></trkpt><trkpt lat="42.79522071907613" lon="12.918068474505906"><ele>463.0</ele><time>2026-04-12T12:47:11.001Z</time></trkpt><trkpt lat="42.79529788104606" lon="12.918099784953503"><ele>461.2</ele><time>2026-04-12T12:47:12.001Z</time></trkpt><trkpt lat="42.79538217157895" lon="12.918092731281229"><ele>459.4</ele><time>2026-04-12T12:47:13.001Z</time></trkpt><trkpt lat="42.795488292353426" lon="12.918107607457111"><ele>457.59999999999997</ele><time>2026-04-12T12:47:14.001Z</time></trkpt><trkpt lat="42.795587955972444" lon="12.918123337921738"><ele>455.79999999999995</ele><time>2026-04-12T12:47:15.001Z</time></trkpt><trkpt lat="42.79567076420834" lon="12.918141635921762"><ele>454.0</ele><time>2026-04-12T12:47:16.001Z</time></trkpt><trkpt lat="42.79575291976094" lon="12.91818182952147"><ele>454.00000000000006</ele><time>2026-04-12T12:47:17.001Z</time></trkpt><trkpt lat="42.795835716183575" lon="12.91820124067473"><ele>454.0</ele><time>2026-04-12T12:47:18.001Z</time></trkpt><trkpt lat="42.79591106750177" lon="12.918218906355758"><ele>454.0</ele><time>2026-04-12T12:47:19.001Z</time></trkpt><trkpt lat="42.795978722564456" lon="12.918234767689741"><ele>454.0</ele><time>2026-04-12T12:47:20.001Z</time></trkpt><trkpt lat="42.79610068327684" lon="12.918250636673408"><ele>454.00000000000006</ele><time>2026-04-12T12:47:22.001Z</time></trkpt><trkpt lat="42.79615865778816" lon="12.918290669845204"><ele>454.0</ele><time>2026-04-12T12:47:23.001Z</time></trkpt><trkpt lat="42.796231577710024" lon="12.918285257425492"><ele>450.4</ele><time>2026-04-12T12:47:24.001Z</time></trkpt><trkpt lat="42.796304215384126" lon="12.918246993607148"><ele>446.79999999999995</ele><time>2026-04-12T12:47:25.001Z</time></trkpt><trkpt lat="42.79637677070871" lon="12.918222554945666"><ele>443.20000000000005</ele><time>2026-04-12T12:47:26.001Z</time></trkpt><trkpt lat="42.79643901299884" lon="12.918198456837082"><ele>439.6</ele><time>2026-04-12T12:47:27.001Z</time></trkpt><trkpt lat="42.79658320765647" lon="12.91814497007879"><ele>436.0</ele><time>2026-04-12T12:47:29.001Z</time></trkpt><trkpt lat="42.79667406279255" lon="12.91808594868489"><ele>436.0</ele><time>2026-04-12T12:47:30.001Z</time></trkpt><trkpt lat="42.79677855868059" lon="12.918026470082735"><ele>436.0</ele><time>2026-04-12T12:47:32.001Z</time></trkpt><trkpt lat="42.79684530629866" lon="12.918010767284418"><ele>436.0</ele><time>2026-04-12T12:47:33.001Z</time></trkpt><trkpt lat="42.79694496649554" lon="12.91792896058266"><ele>436.0</ele><time>2026-04-12T12:47:35.001Z</time></trkpt><trkpt lat="42.79704449540131" lon="12.91782704987332"><ele>436.0</ele><time>2026-04-12T12:47:37.001Z</time></trkpt><trkpt lat="42.79710544729527" lon="12.917788198815154"><ele>432.33333333333337</ele><time>2026-04-12T12:47:37.999Z</time></trkpt><trkpt lat="42.79716127872438" lon="12.91774061880038"><ele>428.6666666666667</ele><time>2026-04-12T12:47:38.999Z</time></trkpt><trkpt lat="42.797258334857126" lon="12.917695557224368"><ele>425.0</ele><time>2026-04-12T12:47:40.999Z</time></trkpt><trkpt lat="42.797337941781066" lon="12.917663709351014"><ele>421.33333333333337</ele><time>2026-04-12T12:47:42.999Z</time></trkpt><trkpt lat="42.79742327713962" lon="12.917639391776062"><ele>417.6666666666667</ele><time>2026-04-12T12:47:44.999Z</time></trkpt><trkpt lat="42.79751232458267" lon="12.917597390053052"><ele>414.0</ele><time>2026-04-12T12:47:47.999Z</time></trkpt><trkpt lat="42.79757716442801" lon="12.91767540479178"><ele>414.0</ele><time>2026-04-12T12:47:50.999Z</time></trkpt><trkpt lat="42.79756181330808" lon="12.917761726599538"><ele>414.0</ele><time>2026-04-12T12:47:52.999Z</time></trkpt><trkpt lat="42.79746900621715" lon="12.9178195268741"><ele>414.0</ele><time>2026-04-12T12:47:54.999Z</time></trkpt><trkpt lat="42.797393288315384" lon="12.917918762278257"><ele>414.0</ele><time>2026-04-12T12:47:56.999Z</time></trkpt><trkpt lat="42.79737782466911" lon="12.918003675063908"><ele>414.0</ele><time>2026-04-12T12:47:57.999Z</time></trkpt><trkpt lat="42.797367730944025" lon="12.918090223173417"><ele>414.0</ele><time>2026-04-12T12:47:58.999Z</time></trkpt><trkpt lat="42.79736995647021" lon="12.918184267856303"><ele>414.0</ele><time>2026-04-12T12:47:59.999Z</time></trkpt><trkpt lat="42.797382931458245" lon="12.918332579874471"><ele>414.0</ele><time>2026-04-12T12:48:02Z</time></trkpt><trkpt lat="42.797405016277466" lon="12.918414278433186"><ele>414.0</ele><time>2026-04-12T12:48:03Z</time></trkpt><trkpt lat="42.79745293867472" lon="12.918481396475421"><ele>414.0</ele><time>2026-04-12T12:48:04Z</time></trkpt><trkpt lat="42.79751799267785" lon="12.91855363966392"><ele>414.0</ele><time>2026-04-12T12:48:05Z</time></trkpt><trkpt lat="42.79758086128536" lon="12.918615046489002"><ele>414.0</ele><time>2026-04-12T12:48:06Z</time></trkpt><trkpt lat="42.797637109476725" lon="12.918673526737495"><ele>410.79999999999995</ele><time>2026-04-12T12:48:07Z</time></trkpt><trkpt lat="42.797684497248895" lon="12.918742118229545"><ele>407.59999999999997</ele><time>2026-04-12T12:48:08Z</time></trkpt><trkpt lat="42.79772999138533" lon="12.918810432586094"><ele>404.4</ele><time>2026-04-12T12:48:09Z</time></trkpt><trkpt lat="42.79784018622263" lon="12.91888911852613"><ele>401.2</ele><time>2026-04-12T12:48:11Z</time></trkpt><trkpt lat="42.7979345269871" lon="12.918986288505431"><ele>398.0</ele><time>2026-04-12T12:48:13Z</time></trkpt><trkpt lat="42.797997089759164" lon="12.91904964576911"><ele>397.99999999999994</ele><time>2026-04-12T12:48:15Z</time></trkpt><trkpt lat="42.7980562000469" lon="12.91913364778889"><ele>398.0</ele><time>2026-04-12T12:48:18Z</time></trkpt><trkpt lat="42.79808804330275" lon="12.919225723464029"><ele>398.0</ele><time>2026-04-12T12:48:21Z</time></trkpt><trkpt lat="42.7981302371699" lon="12.91930700161969"><ele>398.0</ele><time>2026-04-12T12:48:38Z</time></trkpt><trkpt lat="42.79816770326057" lon="12.919388799998915"><ele>397.99999999999994</ele><time>2026-04-12T12:48:40Z</time></trkpt><trkpt lat="42.798215502615044" lon="12.919462023838577"><ele>398.0</ele><time>2026-04-12T12:48:43.001Z</time></trkpt><trkpt lat="42.79801259383925" lon="12.91970422783765"><ele>400.75</ele><time>2026-04-12T12:48:49.001Z</time></trkpt><trkpt lat="42.79788716402167" lon="12.919514119512458"><ele>403.5</ele><time>2026-04-12T12:48:50.001Z</time></trkpt><trkpt lat="42.797804275950405" lon="12.919491991373194"><ele>406.25</ele><time>2026-04-12T12:48:52.001Z</time></trkpt><trkpt lat="42.79767513167285" lon="12.919558503737601"><ele>409.0</ele><time>2026-04-12T12:48:54.001Z</time></trkpt><trkpt lat="42.79779628978198" lon="12.919382481972141"><ele>409.0</ele><time>2026-04-12T12:48:55.001Z</time></trkpt><trkpt lat="42.79781978018712" lon="12.919291891197208"><ele>409.0</ele><time>2026-04-12T12:48:56.001Z</time></trkpt><trkpt lat="42.797888730809156" lon="12.919090993641232"><ele>409.0</ele><time>2026-04-12T12:48:58.001Z</time></trkpt><trkpt lat="42.797921201590036" lon="12.919009205853278"><ele>409.0</ele><time>2026-04-12T12:48:59.001Z</time></trkpt><trkpt lat="42.79783157636569" lon="12.918877562137551"><ele>409.0</ele><time>2026-04-12T12:49:02.001Z</time></trkpt><trkpt lat="42.79776099045722" lon="12.91881384265502"><ele>408.1666666666667</ele><time>2026-04-12T12:49:03.001Z</time></trkpt><trkpt lat="42.797708060938206" lon="12.918706143757456"><ele>407.33333333333337</ele><time>2026-04-12T12:49:04.001Z</time></trkpt><trkpt lat="42.797648839212854" lon="12.918625441255761"><ele>406.5</ele><time>2026-04-12T12:49:05.001Z</time></trkpt><trkpt lat="42.797578090946864" lon="12.918575140139158"><ele>405.66666666666663</ele><time>2026-04-12T12:49:06.001Z</time></trkpt><trkpt lat="42.79750724050071" lon="12.918503529311632"><ele>404.8333333333333</ele><time>2026-04-12T12:49:07.001Z</time></trkpt><trkpt lat="42.79745461352532" lon="12.918412919932242"><ele>404.0</ele><time>2026-04-12T12:49:08.001Z</time></trkpt><trkpt lat="42.797410187207035" lon="12.918337452862625"><ele>406.0</ele><time>2026-04-12T12:49:09.001Z</time></trkpt><trkpt lat="42.797402425000314" lon="12.918175558730624"><ele>408.0</ele><time>2026-04-12T12:49:11.001Z</time></trkpt><trkpt lat="42.79740381375879" lon="12.918076199111077"><ele>410.0</ele><time>2026-04-12T12:49:12.001Z</time></trkpt><trkpt lat="42.79743062186997" lon="12.91790695631212"><ele>412.0</ele><time>2026-04-12T12:49:14.001Z</time></trkpt><trkpt lat="42.797479943616665" lon="12.917826532812906"><ele>414.0</ele><time>2026-04-12T12:49:15.001Z</time></trkpt><trkpt lat="42.79754986843395" lon="12.917783149513603"><ele>414.0</ele><time>2026-04-12T12:49:16.001Z</time></trkpt><trkpt lat="42.797601478843085" lon="12.917669964331747"><ele>414.0</ele><time>2026-04-12T12:49:18.001Z</time></trkpt><trkpt lat="42.79756660187153" lon="12.917551676824115"><ele>414.0</ele><time>2026-04-12T12:49:20.001Z</time></trkpt><trkpt lat="42.79746401030125" lon="12.917574610053832"><ele>414.0</ele><time>2026-04-12T12:49:22.001Z</time></trkpt><trkpt lat="42.79739543306153" lon="12.917603582592434"><ele>414.0</ele><time>2026-04-12T12:49:23.001Z</time></trkpt><trkpt lat="42.7973053062398" lon="12.917658990959996"><ele>414.0</ele><time>2026-04-12T12:49:24.001Z</time></trkpt><trkpt lat="42.79720858191752" lon="12.917707960945041"><ele>414.0</ele><time>2026-04-12T12:49:25.001Z</time></trkpt><trkpt lat="42.79711202790753" lon="12.917756150723697"><ele>414.0</ele><time>2026-04-12T12:49:26.001Z</time></trkpt><trkpt lat="42.79701745265757" lon="12.917826878806672"><ele>414.0</ele><time>2026-04-12T12:49:27.001Z</time></trkpt><trkpt lat="42.796913882659624" lon="12.917915454360402"><ele>414.0</ele><time>2026-04-12T12:49:28.001Z</time></trkpt><trkpt lat="42.79681331450353" lon="12.918002425585328"><ele>419.5</ele><time>2026-04-12T12:49:29.001Z</time></trkpt><trkpt lat="42.79670930480233" lon="12.918038513844506"><ele>425.0</ele><time>2026-04-12T12:49:30.002Z</time></trkpt><trkpt lat="42.796598168311874" lon="12.918091455510817"><ele>430.5</ele><time>2026-04-12T12:49:31.002Z</time></trkpt><trkpt lat="42.7964590584804" lon="12.918143670303982"><ele>436.0</ele><time>2026-04-12T12:49:32.002Z</time></trkpt><trkpt lat="42.79633054900327" lon="12.91821513453916"><ele>436.00000000000006</ele><time>2026-04-12T12:49:33.002Z</time></trkpt><trkpt lat="42.79621384991282" lon="12.918231335901217"><ele>436.0</ele><time>2026-04-12T12:49:34.002Z</time></trkpt><trkpt lat="42.796131948342264" lon="12.918242556149886"><ele>436.0</ele><time>2026-04-12T12:49:35.002Z</time></trkpt><trkpt lat="42.796063872682794" lon="12.9182088384089"><ele>436.0</ele><time>2026-04-12T12:49:36.002Z</time></trkpt><trkpt lat="42.79599078146603" lon="12.91820865972424"><ele>436.00000000000006</ele><time>2026-04-12T12:49:37.002Z</time></trkpt><trkpt lat="42.79589518234329" lon="12.918177497216183"><ele>436.0</ele><time>2026-04-12T12:49:38.002Z</time></trkpt><trkpt lat="42.79577278578704" lon="12.91816099006252"><ele>440.5</ele><time>2026-04-12T12:49:39.002Z</time></trkpt><trkpt lat="42.79565257705155" lon="12.918112412481063"><ele>445.0</ele><time>2026-04-12T12:49:40.002Z</time></trkpt><trkpt lat="42.79551198685662" lon="12.918096287233173"><ele>449.5</ele><time>2026-04-12T12:49:41.002Z</time></trkpt><trkpt lat="42.79535223161754" lon="12.918062409405287"><ele>454.0</ele><time>2026-04-12T12:49:42.002Z</time></trkpt><trkpt lat="42.795205697245265" lon="12.918039732259588"><ele>456.25</ele><time>2026-04-12T12:49:43.002Z</time></trkpt><trkpt lat="42.795090245766865" lon="12.918020425631566"><ele>458.5</ele><time>2026-04-12T12:49:43.999Z</time></trkpt><trkpt lat="42.79499032011216" lon="12.918031001713597"><ele>460.75</ele><time>2026-04-12T12:49:44.999Z</time></trkpt><trkpt lat="42.794862562699564" lon="12.918008869478546"><ele>463.0</ele><time>2026-04-12T12:49:45.999Z</time></trkpt><trkpt lat="42.79472562267847" lon="12.918028743510032"><ele>463.0</ele><time>2026-04-12T12:49:46.999Z</time></trkpt><trkpt lat="42.79456797741614" lon="12.918056069339599"><ele>463.0</ele><time>2026-04-12T12:49:47.999Z</time></trkpt><trkpt lat="42.794411747410045" lon="12.918067627817742"><ele>463.0</ele><time>2026-04-12T12:49:48.999Z</time></trkpt><trkpt lat="42.79429009547058" lon="12.918044450829502"><ele>463.0</ele><time>2026-04-12T12:49:49.999Z</time></trkpt><trkpt lat="42.794177074595055" lon="12.918037474297996"><ele>467.0</ele><time>2026-04-12T12:49:50.999Z</time></trkpt><trkpt lat="42.79407373372337" lon="12.91805664653569"><ele>471.0</ele><time>2026-04-12T12:49:51.999Z</time></trkpt><trkpt lat="42.79395095219739" lon="12.91808970884878"><ele>475.0</ele><time>2026-04-12T12:49:52.999Z</time></trkpt><trkpt lat="42.79380908989878" lon="12.918150210530694"><ele>479.0</ele><time>2026-04-12T12:49:53.999Z</time></trkpt><trkpt lat="42.79369515357676" lon="12.918233669121461"><ele>478.99999999999994</ele><time>2026-04-12T12:49:56Z</time></trkpt><trkpt lat="42.79360099913168" lon="12.91827364334452"><ele>479.0</ele><time>2026-04-12T12:49:57Z</time></trkpt><trkpt lat="42.79351264586335" lon="12.918334452742272"><ele>479.0</ele><time>2026-04-12T12:49:58Z</time></trkpt><trkpt lat="42.7934439819392" lon="12.918380981114941"><ele>479.0</ele><time>2026-04-12T12:49:59Z</time></trkpt><trkpt lat="42.793382507655046" lon="12.918438752074547"><ele>478.99999999999994</ele><time>2026-04-12T12:50:00Z</time></trkpt><trkpt lat="42.79330133018527" lon="12.918456856236016"><ele>479.0</ele><time>2026-04-12T12:50:01Z</time></trkpt><trkpt lat="42.79323002390564" lon="12.918496840589967"><ele>478.99999999999994</ele><time>2026-04-12T12:50:03Z</time></trkpt><trkpt lat="42.793298140669705" lon="12.9184622883626"><ele>479.0</ele><time>2026-04-12T12:50:10Z</time></trkpt><trkpt lat="42.793368552295156" lon="12.918431731865516"><ele>479.0</ele><time>2026-04-12T12:50:25Z</time></trkpt><trkpt lat="42.79342777523484" lon="12.918391255671644"><ele>479.0</ele><time>2026-04-12T12:50:28Z</time></trkpt><trkpt lat="42.79350527870882" lon="12.918412939461872"><ele>478.99999999999994</ele><time>2026-04-12T12:53:58.001Z</time></trkpt><trkpt lat="42.7935460782239" lon="12.918344741440489"><ele>479.0</ele><time>2026-04-12T12:54:22.001Z</time></trkpt><trkpt lat="42.793636359714505" lon="12.918285414916852"><ele>478.99999999999994</ele><time>2026-04-12T12:54:24.001Z</time></trkpt><trkpt lat="42.79371131132576" lon="12.918220783786813"><ele>479.0</ele><time>2026-04-12T12:54:26.001Z</time></trkpt><trkpt lat="42.79380596842221" lon="12.91818430366002"><ele>479.0</ele><time>2026-04-12T12:54:28.001Z</time></trkpt><trkpt lat="42.793870242097796" lon="12.918132448772443"><ele>479.0</ele><time>2026-04-12T12:54:29.001Z</time></trkpt><trkpt lat="42.79393287334187" lon="12.918101651577889"><ele>478.99999999999994</ele><time>2026-04-12T12:54:30.001Z</time></trkpt><trkpt lat="42.79400809512788" lon="12.918121315216963"><ele>479.0</ele><time>2026-04-12T12:54:31.001Z</time></trkpt><trkpt lat="42.79407799223349" lon="12.918104537087336"><ele>479.0</ele><time>2026-04-12T12:54:32.001Z</time></trkpt><trkpt lat="42.79420338786627" lon="12.918096219468438"><ele>479.0</ele><time>2026-04-12T12:54:34.001Z</time></trkpt><trkpt lat="42.79429401811603" lon="12.918106333246099"><ele>479.0</ele><time>2026-04-12T12:54:35.001Z</time></trkpt><trkpt lat="42.79436115522931" lon="12.918075649682091"><ele>479.0</ele><time>2026-04-12T12:54:36.001Z</time></trkpt><trkpt lat="42.79446374981634" lon="12.918090027983547"><ele>479.0</ele><time>2026-04-12T12:54:38.001Z</time></trkpt><trkpt lat="42.79456517776042" lon="12.918085071720926"><ele>476.3333333333333</ele><time>2026-04-12T12:54:39.001Z</time></trkpt><trkpt lat="42.79466275597658" lon="12.91807835322701"><ele>473.66666666666663</ele><time>2026-04-12T12:54:40.001Z</time></trkpt><trkpt lat="42.7947476967348" lon="12.918072504850729"><ele>471.0</ele><time>2026-04-12T12:54:41.001Z</time></trkpt><trkpt lat="42.7948381561722" lon="12.918041908109213"><ele>468.33333333333337</ele><time>2026-04-12T12:54:42.001Z</time></trkpt><trkpt lat="42.794909376936864" lon="12.918036690169718"><ele>465.6666666666667</ele><time>2026-04-12T12:54:43.001Z</time></trkpt><trkpt lat="42.79499182852312" lon="12.918033253397825"><ele>463.0</ele><time>2026-04-12T12:54:44.001Z</time></trkpt><trkpt lat="42.79509855482404" lon="12.918067073585794"><ele>460.75</ele><time>2026-04-12T12:54:45.001Z</time></trkpt><trkpt lat="42.795209642795925" lon="12.918085955700596"><ele>458.5</ele><time>2026-04-12T12:54:46.001Z</time></trkpt><trkpt lat="42.79532369586343" lon="12.91808178308453"><ele>456.25</ele><time>2026-04-12T12:54:47.001Z</time></trkpt><trkpt lat="42.79543008634533" lon="12.9181189688714"><ele>454.0</ele><time>2026-04-12T12:54:48.001Z</time></trkpt><trkpt lat="42.795543963214875" lon="12.918136352283492"><ele>454.0</ele><time>2026-04-12T12:54:49.001Z</time></trkpt><trkpt lat="42.79565477647042" lon="12.91815882041184"><ele>454.0</ele><time>2026-04-12T12:54:50.001Z</time></trkpt><trkpt lat="42.79575796632978" lon="12.91818301266461"><ele>454.0</ele><time>2026-04-12T12:54:51.001Z</time></trkpt><trkpt lat="42.795856070951615" lon="12.918206012748861"><ele>454.0</ele><time>2026-04-12T12:54:52.001Z</time></trkpt><trkpt lat="42.795952847734306" lon="12.918205887507453"><ele>454.0</ele><time>2026-04-12T12:54:53.001Z</time></trkpt><trkpt lat="42.79604193142948" lon="12.918236992743722"><ele>451.00000000000006</ele><time>2026-04-12T12:54:54.001Z</time></trkpt><trkpt lat="42.79611981752625" lon="12.918250879119553"><ele>448.0</ele><time>2026-04-12T12:54:55.001Z</time></trkpt><trkpt lat="42.79619692094474" lon="12.918262898764858"><ele>445.0</ele><time>2026-04-12T12:54:56.001Z</time></trkpt><trkpt lat="42.79628016694585" lon="12.91824204028922"><ele>442.0</ele><time>2026-04-12T12:54:57.001Z</time></trkpt><trkpt lat="42.796363474958646" lon="12.91820864934016"><ele>439.00000000000006</ele><time>2026-04-12T12:54:58.001Z</time></trkpt><trkpt lat="42.796435234992366" lon="12.918195310541885"><ele>436.0</ele><time>2026-04-12T12:54:59.001Z</time></trkpt><trkpt lat="42.79651031544978" lon="12.918152690035772"><ele>436.00000000000006</ele><time>2026-04-12T12:55:00.001Z</time></trkpt><trkpt lat="42.79659626376819" lon="12.918140014666225"><ele>436.0</ele><time>2026-04-12T12:55:01.001Z</time></trkpt><trkpt lat="42.79667258811281" lon="12.918088757319193"><ele>436.0</ele><time>2026-04-12T12:55:02.001Z</time></trkpt><trkpt lat="42.79674718338187" lon="12.918061381209842"><ele>436.0</ele><time>2026-04-12T12:55:03.001Z</time></trkpt><trkpt lat="42.796819379931996" lon="12.91801382138629"><ele>436.00000000000006</ele><time>2026-04-12T12:55:04.001Z</time></trkpt><trkpt lat="42.796894759389396" lon="12.917957880129164"><ele>436.0</ele><time>2026-04-12T12:55:05.002Z</time></trkpt><trkpt lat="42.796954585748445" lon="12.9179038020811"><ele>435.20000000000005</ele><time>2026-04-12T12:55:06.002Z</time></trkpt><trkpt lat="42.79700622989229" lon="12.917853915398773"><ele>434.40000000000003</ele><time>2026-04-12T12:55:07.002Z</time></trkpt><trkpt lat="42.79710364705533" lon="12.917790045038863"><ele>433.6</ele><time>2026-04-12T12:55:09.002Z</time></trkpt><trkpt lat="42.79717470039668" lon="12.917750641923226"><ele>432.8</ele><time>2026-04-12T12:55:11.002Z</time></trkpt><trkpt lat="42.797247328408496" lon="12.917698696511568"><ele>432.0</ele><time>2026-04-12T12:55:14.002Z</time></trkpt><trkpt lat="42.79742734456134" lon="12.917536655017935"><ele>426.0</ele><time>2026-04-12T12:55:19.002Z</time></trkpt><trkpt lat="42.79738502078677" lon="12.917984516392123"><ele>420.0</ele><time>2026-04-12T12:55:24.002Z</time></trkpt><trkpt lat="42.79736958113794" lon="12.91811139773601"><ele>414.0</ele><time>2026-04-12T12:55:25.002Z</time></trkpt><trkpt lat="42.79737060796217" lon="12.918228927974978"><ele>414.0</ele><time>2026-04-12T12:55:26.002Z</time></trkpt><trkpt lat="42.7973785046485" lon="12.918316324092016"><ele>414.0</ele><time>2026-04-12T12:55:27.002Z</time></trkpt><trkpt lat="42.797407916828384" lon="12.918396110735067"><ele>414.0</ele><time>2026-04-12T12:55:28.002Z</time></trkpt><trkpt lat="42.797516972193954" lon="12.91854048470166"><ele>414.0</ele><time>2026-04-12T12:55:30.002Z</time></trkpt><trkpt lat="42.79758329589111" lon="12.918617427178068"><ele>414.0</ele><time>2026-04-12T12:55:31.002Z</time></trkpt><trkpt lat="42.79765533007653" lon="12.918663332841398"><ele>414.0</ele><time>2026-04-12T12:55:32.002Z</time></trkpt><trkpt lat="42.797706130995564" lon="12.918775450957362"><ele>411.3333333333333</ele><time>2026-04-12T12:55:33.002Z</time></trkpt><trkpt lat="42.79776692859787" lon="12.918858956188153"><ele>408.66666666666663</ele><time>2026-04-12T12:55:34.002Z</time></trkpt><trkpt lat="42.79783426312096" lon="12.918903942680164"><ele>406.0</ele><time>2026-04-12T12:55:35.002Z</time></trkpt><trkpt lat="42.79790237461881" lon="12.918945366335326"><ele>403.3333333333333</ele><time>2026-04-12T12:55:36.002Z</time></trkpt><trkpt lat="42.79796067057736" lon="12.918993382737304"><ele>400.66666666666663</ele><time>2026-04-12T12:55:37.002Z</time></trkpt><trkpt lat="42.79804339223306" lon="12.919134929020338"><ele>398.0</ele><time>2026-04-12T12:55:39.002Z</time></trkpt><trkpt lat="42.79808301120198" lon="12.919216030103629"><ele>399.8333333333333</ele><time>2026-04-12T12:55:40.002Z</time></trkpt><trkpt lat="42.79814639266125" lon="12.919265058814146"><ele>401.66666666666663</ele><time>2026-04-12T13:00:34.001Z</time></trkpt><trkpt lat="42.79820361319827" lon="12.919394865523063"><ele>403.5</ele><time>2026-04-12T13:00:36.001Z</time></trkpt><trkpt lat="42.79827791367655" lon="12.919530404368968"><ele>405.33333333333337</ele><time>2026-04-12T13:00:38.001Z</time></trkpt><trkpt lat="42.79829093185251" lon="12.919624612166317"><ele>407.1666666666667</ele><time>2026-04-12T13:00:39.001Z</time></trkpt><trkpt lat="42.79833145206084" lon="12.919698579831243"><ele>409.0</ele><time>2026-04-12T13:00:40.001Z</time></trkpt><trkpt lat="42.79839151483345" lon="12.919832031972653"><ele>409.00000000000006</ele><time>2026-04-12T13:00:42.001Z</time></trkpt><trkpt lat="42.798431001073865" lon="12.919935111452292"><ele>409.0</ele><time>2026-04-12T13:00:44.001Z</time></trkpt><trkpt lat="42.798459369707004" lon="12.920035638077136"><ele>409.0</ele><time>2026-04-12T13:00:47.001Z</time></trkpt><trkpt lat="42.79855684870349" lon="12.919983673900703"><ele>409.0</ele><time>2026-04-12T13:01:13.001Z</time></trkpt><trkpt lat="42.79862347312258" lon="12.919934410519707"><ele>409.00000000000006</ele><time>2026-04-12T13:01:14.001Z</time></trkpt><trkpt lat="42.79869885851192" lon="12.919875476884267"><ele>409.0</ele><time>2026-04-12T13:01:15.001Z</time></trkpt><trkpt lat="42.79877422210273" lon="12.91984081807406"><ele>411.79999999999995</ele><time>2026-04-12T13:01:16.001Z</time></trkpt><trkpt lat="42.798836347869155" lon="12.919822758577055"><ele>414.59999999999997</ele><time>2026-04-12T13:01:17.001Z</time></trkpt><trkpt lat="42.79895501080812" lon="12.919730891905637"><ele>417.4</ele><time>2026-04-12T13:01:19.001Z</time></trkpt><trkpt lat="42.79902364133494" lon="12.919631237588165"><ele>420.2</ele><time>2026-04-12T13:01:20.001Z</time></trkpt><trkpt lat="42.799088045421065" lon="12.91953385488268"><ele>423.0</ele><time>2026-04-12T13:01:21.001Z</time></trkpt><trkpt lat="42.79915386438952" lon="12.919435811589027"><ele>423.0</ele><time>2026-04-12T13:01:22.001Z</time></trkpt><trkpt lat="42.7992059507566" lon="12.919358861461566"><ele>423.0</ele><time>2026-04-12T13:01:23.001Z</time></trkpt><trkpt lat="42.79925252049114" lon="12.919289420248164"><ele>423.0</ele><time>2026-04-12T13:01:24.001Z</time></trkpt><trkpt lat="42.79933370655168" lon="12.919172909904402"><ele>423.0</ele><time>2026-04-12T13:01:26.001Z</time></trkpt><trkpt lat="42.799416674450256" lon="12.919071451454121"><ele>423.0</ele><time>2026-04-12T13:01:28.001Z</time></trkpt><trkpt lat="42.799524498502976" lon="12.91897343665469"><ele>423.0</ele><time>2026-04-12T13:01:30.001Z</time></trkpt><trkpt lat="42.799582385537164" lon="12.918933101917272"><ele>423.0</ele><time>2026-04-12T13:01:31.001Z</time></trkpt><trkpt lat="42.799659355467455" lon="12.918883882543383"><ele>423.0</ele><time>2026-04-12T13:01:32.001Z</time></trkpt><trkpt lat="42.799732737316255" lon="12.918851344222336"><ele>423.0</ele><time>2026-04-12T13:01:33.001Z</time></trkpt><trkpt lat="42.79980359194532" lon="12.918831544488711"><ele>423.0</ele><time>2026-04-12T13:01:34.001Z</time></trkpt><trkpt lat="42.79987901925902" lon="12.91879517214149"><ele>423.0</ele><time>2026-04-12T13:01:35.001Z</time></trkpt><trkpt lat="42.79993635461273" lon="12.918753885799818"><ele>423.0</ele><time>2026-04-12T13:01:36.001Z</time></trkpt><trkpt lat="42.79999954283946" lon="12.918659497509294"><ele>423.0</ele><time>2026-04-12T13:01:37.001Z</time></trkpt><trkpt lat="42.80005672998639" lon="12.918564454367534"><ele>423.0</ele><time>2026-04-12T13:01:38.001Z</time></trkpt><trkpt lat="42.80011551910101" lon="12.918484862411194"><ele>423.0</ele><time>2026-04-12T13:01:39.001Z</time></trkpt><trkpt lat="42.800184482597174" lon="12.918406672713871"><ele>423.0</ele><time>2026-04-12T13:01:40.001Z</time></trkpt><trkpt lat="42.800250353237374" lon="12.918333912047936"><ele>423.0</ele><time>2026-04-12T13:01:41.001Z</time></trkpt><trkpt lat="42.80031774002017" lon="12.918257810917254"><ele>423.0</ele><time>2026-04-12T13:01:42.001Z</time></trkpt><trkpt lat="42.80038429129857" lon="12.918174184883439"><ele>422.6666666666667</ele><time>2026-04-12T13:01:43.001Z</time></trkpt><trkpt lat="42.800436174886485" lon="12.918066853193686"><ele>422.33333333333337</ele><time>2026-04-12T13:01:44.001Z</time></trkpt><trkpt lat="42.80050053332993" lon="12.917977536314908"><ele>422.0</ele><time>2026-04-12T13:01:45.002Z</time></trkpt><trkpt lat="42.80057574819471" lon="12.917918352629375"><ele>421.6666666666667</ele><time>2026-04-12T13:01:46.002Z</time></trkpt><trkpt lat="42.80063812555745" lon="12.91784912272893"><ele>421.33333333333337</ele><time>2026-04-12T13:01:47.002Z</time></trkpt><trkpt lat="42.80071884216305" lon="12.917811555852103"><ele>421.0</ele><time>2026-04-12T13:01:48.002Z</time></trkpt><trkpt lat="42.80078197959684" lon="12.917779243045326"><ele>421.00000000000006</ele><time>2026-04-12T13:01:49.002Z</time></trkpt><trkpt lat="42.80085557873469" lon="12.917752354456534"><ele>421.0</ele><time>2026-04-12T13:01:50.002Z</time></trkpt><trkpt lat="42.800935537021715" lon="12.91772205705043"><ele>421.0</ele><time>2026-04-12T13:01:51.002Z</time></trkpt><trkpt lat="42.801013649068224" lon="12.917674965644185"><ele>421.0</ele><time>2026-04-12T13:01:52.002Z</time></trkpt><trkpt lat="42.801091065460355" lon="12.917643823391074"><ele>421.00000000000006</ele><time>2026-04-12T13:01:53.002Z</time></trkpt><trkpt lat="42.801174814858605" lon="12.917587173324145"><ele>421.0</ele><time>2026-04-12T13:01:54.002Z</time></trkpt><trkpt lat="42.80127910721481" lon="12.917542495546078"><ele>418.75</ele><time>2026-04-12T13:01:55.002Z</time></trkpt><trkpt lat="42.80137476071611" lon="12.91747546214729"><ele>416.5</ele><time>2026-04-12T13:01:56.002Z</time></trkpt><trkpt lat="42.801470267054796" lon="12.91740543200435"><ele>414.25</ele><time>2026-04-12T13:01:57.002Z</time></trkpt><trkpt lat="42.80157178705773" lon="12.917327163849336"><ele>412.0</ele><time>2026-04-12T13:01:58.002Z</time></trkpt><trkpt lat="42.80167720920255" lon="12.917245887268066"><ele>412.0</ele><time>2026-04-12T13:01:59.002Z</time></trkpt><trkpt lat="42.801780209710394" lon="12.91714078877571"><ele>412.0</ele><time>2026-04-12T13:02:00.002Z</time></trkpt><trkpt lat="42.801902030240356" lon="12.917072558555436"><ele>412.0</ele><time>2026-04-12T13:02:01.002Z</time></trkpt><trkpt lat="42.80200572534483" lon="12.91697626628016"><ele>412.0</ele><time>2026-04-12T13:02:02.002Z</time></trkpt><trkpt lat="42.8021139406052" lon="12.91688760199004"><ele>411.75</ele><time>2026-04-12T13:02:03.002Z</time></trkpt><trkpt lat="42.802224458454894" lon="12.916810113899256"><ele>411.5</ele><time>2026-04-12T13:02:04.002Z</time></trkpt><trkpt lat="42.80233746141537" lon="12.916738630242799"><ele>411.25</ele><time>2026-04-12T13:02:05.002Z</time></trkpt><trkpt lat="42.80244420784863" lon="12.91664562627061"><ele>411.0</ele><time>2026-04-12T13:02:06.002Z</time></trkpt><trkpt lat="42.80254025261319" lon="12.916531327324156"><ele>411.0</ele><time>2026-04-12T13:02:07.002Z</time></trkpt><trkpt lat="42.80264888557707" lon="12.91642940366815"><ele>411.0</ele><time>2026-04-12T13:02:08.002Z</time></trkpt><trkpt lat="42.80275625321649" lon="12.916318553559158"><ele>411.0</ele><time>2026-04-12T13:02:09.002Z</time></trkpt><trkpt lat="42.80284818163712" lon="12.91620641343392"><ele>411.0</ele><time>2026-04-12T13:02:10.002Z</time></trkpt><trkpt lat="42.80293547588765" lon="12.916105156270167"><ele>410.5</ele><time>2026-04-12T13:02:11.002Z</time></trkpt><trkpt lat="42.80301847025924" lon="12.916021093071787"><ele>410.0</ele><time>2026-04-12T13:02:12.002Z</time></trkpt><trkpt lat="42.803094443375734" lon="12.91594076960316"><ele>409.5</ele><time>2026-04-12T13:02:13.002Z</time></trkpt><trkpt lat="42.80315702171396" lon="12.915911012345038"><ele>409.0</ele><time>2026-04-12T13:02:14.002Z</time></trkpt><trkpt lat="42.80323805823415" lon="12.915855222694173"><ele>408.5</ele><time>2026-04-12T13:02:15.002Z</time></trkpt><trkpt lat="42.80331532060311" lon="12.915796453764997"><ele>408.0</ele><time>2026-04-12T13:02:16.002Z</time></trkpt><trkpt lat="42.80338989612561" lon="12.91574798739275"><ele>408.0</ele><time>2026-04-12T13:02:17.002Z</time></trkpt><trkpt lat="42.80345544198106" lon="12.91568994350482"><ele>408.0</ele><time>2026-04-12T13:02:18.002Z</time></trkpt><trkpt lat="42.803517200868335" lon="12.915633281579249"><ele>408.0</ele><time>2026-04-12T13:02:19.002Z</time></trkpt><trkpt lat="42.80356716448011" lon="12.915570930816767"><ele>408.0</ele><time>2026-04-12T13:02:20Z</time></trkpt><trkpt lat="42.803632103946605" lon="12.915501918896407"><ele>408.0</ele><time>2026-04-12T13:02:21Z</time></trkpt><trkpt lat="42.803697013360406" lon="12.915410507632327"><ele>408.0</ele><time>2026-04-12T13:02:22Z</time></trkpt><trkpt lat="42.803770764588926" lon="12.915346561955843"><ele>408.59999999999997</ele><time>2026-04-12T13:02:23Z</time></trkpt><trkpt lat="42.8038457158692" lon="12.915263650434069"><ele>409.2</ele><time>2026-04-12T13:02:24Z</time></trkpt><trkpt lat="42.80391742835618" lon="12.915178170746964"><ele>409.8</ele><time>2026-04-12T13:02:25Z</time></trkpt><trkpt lat="42.803972600070544" lon="12.915076589984267"><ele>410.4</ele><time>2026-04-12T13:02:26Z</time></trkpt><trkpt lat="42.80404943154031" lon="12.915007022984186"><ele>411.0</ele><time>2026-04-12T13:02:27Z</time></trkpt><trkpt lat="42.80411790633601" lon="12.9149273525653"><ele>411.0</ele><time>2026-04-12T13:02:28Z</time></trkpt><trkpt lat="42.80420880222019" lon="12.914893701848142"><ele>411.0</ele><time>2026-04-12T13:02:29Z</time></trkpt><trkpt lat="42.80433133196184" lon="12.914809839562428"><ele>411.0</ele><time>2026-04-12T13:02:30Z</time></trkpt><trkpt lat="42.80443885796176" lon="12.914728431664724"><ele>411.0</ele><time>2026-04-12T13:02:31Z</time></trkpt><trkpt lat="42.80455888301641" lon="12.914600676808186"><ele>419.25</ele><time>2026-04-12T13:02:32Z</time></trkpt><trkpt lat="42.804674334949475" lon="12.914506497081883"><ele>427.5</ele><time>2026-04-12T13:02:33Z</time></trkpt><trkpt lat="42.804796373984715" lon="12.914416768791725"><ele>435.75</ele><time>2026-04-12T13:02:34Z</time></trkpt><trkpt lat="42.80488248076095" lon="12.914329319471424"><ele>444.0</ele><time>2026-04-12T13:02:35Z</time></trkpt><trkpt lat="42.80496080830131" lon="12.914246322920322"><ele>445.79999999999995</ele><time>2026-04-12T13:02:36Z</time></trkpt><trkpt lat="42.80503851738985" lon="12.914144173223203"><ele>447.59999999999997</ele><time>2026-04-12T13:02:37Z</time></trkpt><trkpt lat="42.80509929545273" lon="12.914020683238164"><ele>449.4</ele><time>2026-04-12T13:02:38Z</time></trkpt><trkpt lat="42.80514269716028" lon="12.913896871844686"><ele>451.2</ele><time>2026-04-12T13:02:39Z</time></trkpt><trkpt lat="42.80517241995001" lon="12.913788290064796"><ele>453.0</ele><time>2026-04-12T13:02:40Z</time></trkpt><trkpt lat="42.80519105468148" lon="12.91368194822236"><ele>453.0</ele><time>2026-04-12T13:02:41Z</time></trkpt><trkpt lat="42.80521464197934" lon="12.913572886712185"><ele>452.99999999999994</ele><time>2026-04-12T13:02:43Z</time></trkpt><trkpt lat="42.805240921498324" lon="12.913430284896787"><ele>452.99999999999994</ele><time>2026-04-12T13:02:45Z</time></trkpt><trkpt lat="42.805262082162706" lon="12.913277145076083"><ele>453.0</ele><time>2026-04-12T13:02:47Z</time></trkpt><trkpt lat="42.80532086096791" lon="12.913210234156251"><ele>453.0</ele><time>2026-04-12T13:02:48Z</time></trkpt><trkpt lat="42.80535568411495" lon="12.913129639026716"><ele>450.4</ele><time>2026-04-12T13:02:49Z</time></trkpt><trkpt lat="42.80543751316605" lon="12.913037300462925"><ele>447.79999999999995</ele><time>2026-04-12T13:02:51Z</time></trkpt><trkpt lat="42.80550460385591" lon="12.912955220040143"><ele>445.2</ele><time>2026-04-12T13:02:53Z</time></trkpt><trkpt lat="42.80557011342216" lon="12.912866572311009"><ele>442.6</ele><time>2026-04-12T13:02:55Z</time></trkpt><trkpt lat="42.80564861411782" lon="12.912762825114434"><ele>440.0</ele><time>2026-04-12T13:02:57Z</time></trkpt><trkpt lat="42.80573817064061" lon="12.912657609801242"><ele>439.99999999999994</ele><time>2026-04-12T13:02:59Z</time></trkpt><trkpt lat="42.805839899484155" lon="12.912584793528032"><ele>440.0</ele><time>2026-04-12T13:03:01Z</time></trkpt><trkpt lat="42.80589709415938" lon="12.91254704682578"><ele>440.0</ele><time>2026-04-12T13:03:02Z</time></trkpt><trkpt lat="42.80598574327201" lon="12.912506803582666"><ele>440.0</ele><time>2026-04-12T13:03:04Z</time></trkpt><trkpt lat="42.806039037582245" lon="12.912451061866044"><ele>439.99999999999994</ele><time>2026-04-12T13:03:06Z</time></trkpt><trkpt lat="42.806093440473504" lon="12.912402531100298"><ele>440.0</ele><time>2026-04-12T13:03:08Z</time></trkpt><trkpt lat="42.80623292737594" lon="12.912528764505412"><ele>437.75</ele><time>2026-04-12T13:03:11Z</time></trkpt><trkpt lat="42.80628177262113" lon="12.912584589316934"><ele>435.5</ele><time>2026-04-12T13:03:12Z</time></trkpt><trkpt lat="42.80638851689419" lon="12.9127464741674"><ele>433.25</ele><time>2026-04-12T13:03:14.001Z</time></trkpt><trkpt lat="42.806472053088214" lon="12.91288988230473"><ele>431.0</ele><time>2026-04-12T13:03:15.001Z</time></trkpt><trkpt lat="42.80657027398385" lon="12.913028121288367"><ele>431.0</ele><time>2026-04-12T13:03:16.001Z</time></trkpt><trkpt lat="42.80664501645463" lon="12.913193126439744"><ele>431.0</ele><time>2026-04-12T13:03:17.001Z</time></trkpt><trkpt lat="42.80674717066252" lon="12.913328031107161"><ele>431.0</ele><time>2026-04-12T13:03:18.001Z</time></trkpt><trkpt lat="42.8068427293997" lon="12.91349055814812"><ele>431.0</ele><time>2026-04-12T13:03:19.001Z</time></trkpt><trkpt lat="42.80693684694645" lon="12.913640109243746"><ele>426.0</ele><time>2026-04-12T13:03:20.001Z</time></trkpt><trkpt lat="42.8070245822405" lon="12.9137842543668"><ele>421.0</ele><time>2026-04-12T13:03:21.001Z</time></trkpt><trkpt lat="42.80710593570039" lon="12.913919435745779"><ele>416.0</ele><time>2026-04-12T13:03:22.001Z</time></trkpt><trkpt lat="42.80718018376147" lon="12.914032981440478"><ele>411.0</ele><time>2026-04-12T13:03:23.001Z</time></trkpt><trkpt lat="42.807253970699364" lon="12.914136367894338"><ele>411.0</ele><time>2026-04-12T13:03:24.001Z</time></trkpt><trkpt lat="42.807339047286945" lon="12.914234184212745"><ele>411.0</ele><time>2026-04-12T13:03:25.001Z</time></trkpt><trkpt lat="42.80741327590064" lon="12.914337618752933"><ele>411.0</ele><time>2026-04-12T13:03:26.001Z</time></trkpt><trkpt lat="42.80749191480725" lon="12.914432051561114"><ele>411.0</ele><time>2026-04-12T13:03:27.001Z</time></trkpt><trkpt lat="42.807583369764245" lon="12.914516517996985"><ele>411.0</ele><time>2026-04-12T13:03:28.001Z</time></trkpt><trkpt lat="42.80766441937264" lon="12.91460054847307"><ele>410.0</ele><time>2026-04-12T13:03:29.001Z</time></trkpt><trkpt lat="42.807738281802855" lon="12.914698232611705"><ele>409.0</ele><time>2026-04-12T13:03:30.001Z</time></trkpt><trkpt lat="42.80781711864143" lon="12.914769143019871"><ele>408.0</ele><time>2026-04-12T13:03:31.001Z</time></trkpt><trkpt lat="42.80789248481839" lon="12.914837720757525"><ele>407.0</ele><time>2026-04-12T13:03:32.001Z</time></trkpt><trkpt lat="42.80796718733373" lon="12.914908659007596"><ele>406.0</ele><time>2026-04-12T13:03:33.001Z</time></trkpt><trkpt lat="42.80803775159622" lon="12.914977408717842"><ele>406.00000000000006</ele><time>2026-04-12T13:03:34.001Z</time></trkpt><trkpt lat="42.808108638413884" lon="12.915045758476566"><ele>406.0</ele><time>2026-04-12T13:03:35.001Z</time></trkpt><trkpt lat="42.80817513877854" lon="12.915107697087427"><ele>406.0</ele><time>2026-04-12T13:03:36.001Z</time></trkpt><trkpt lat="42.80824287838083" lon="12.915167606959354"><ele>406.0</ele><time>2026-04-12T13:03:37.001Z</time></trkpt><trkpt lat="42.8083155260304" lon="12.915232675133977"><ele>406.00000000000006</ele><time>2026-04-12T13:03:38.001Z</time></trkpt><trkpt lat="42.80839251731919" lon="12.91531084824113"><ele>406.0</ele><time>2026-04-12T13:03:39.001Z</time></trkpt><trkpt lat="42.808473027437635" lon="12.915386059227686"><ele>404.0</ele><time>2026-04-12T13:03:40.001Z</time></trkpt><trkpt lat="42.80856205112032" lon="12.915468870687944"><ele>402.0</ele><time>2026-04-12T13:03:41.001Z</time></trkpt><trkpt lat="42.80865638843451" lon="12.915556437954487"><ele>400.0</ele><time>2026-04-12T13:03:42.001Z</time></trkpt><trkpt lat="42.80874870601959" lon="12.915641560552967"><ele>398.0</ele><time>2026-04-12T13:03:43.001Z</time></trkpt><trkpt lat="42.80884633818774" lon="12.915735818501068"><ele>398.0</ele><time>2026-04-12T13:03:44.001Z</time></trkpt><trkpt lat="42.8089480633736" lon="12.915834414012984"><ele>398.0</ele><time>2026-04-12T13:03:45.001Z</time></trkpt><trkpt lat="42.80905569467393" lon="12.915933451412622"><ele>398.0</ele><time>2026-04-12T13:03:46.001Z</time></trkpt><trkpt lat="42.80916675084321" lon="12.916024319107605"><ele>398.0</ele><time>2026-04-12T13:03:47.001Z</time></trkpt><trkpt lat="42.80928975373679" lon="12.916104960054247"><ele>402.0</ele><time>2026-04-12T13:03:48.001Z</time></trkpt><trkpt lat="42.80941998374481" lon="12.916172724959024"><ele>406.0</ele><time>2026-04-12T13:03:49.001Z</time></trkpt><trkpt lat="42.80955928785784" lon="12.916238210400348"><ele>410.0</ele><time>2026-04-12T13:03:50.001Z</time></trkpt><trkpt lat="42.8097006037787" lon="12.916295761688207"><ele>414.0</ele><time>2026-04-12T13:03:51.001Z</time></trkpt><trkpt lat="42.809830659465455" lon="12.916340306857325"><ele>414.0</ele><time>2026-04-12T13:03:52.001Z</time></trkpt><trkpt lat="42.80995458792239" lon="12.916377407304104"><ele>414.0</ele><time>2026-04-12T13:03:53.001Z</time></trkpt><trkpt lat="42.81007575707819" lon="12.916413493457485"><ele>414.0</ele><time>2026-04-12T13:03:54.001Z</time></trkpt><trkpt lat="42.810186837041925" lon="12.916447492376443"><ele>414.0</ele><time>2026-04-12T13:03:55.001Z</time></trkpt><trkpt lat="42.81031536361237" lon="12.916480883408656"><ele>409.25</ele><time>2026-04-12T13:03:56.001Z</time></trkpt><trkpt lat="42.810422122134064" lon="12.916503403317734"><ele>404.5</ele><time>2026-04-12T13:03:57.001Z</time></trkpt><trkpt lat="42.81056367025149" lon="12.916524574111792"><ele>399.75</ele><time>2026-04-12T13:03:58.001Z</time></trkpt><trkpt lat="42.810690797015" lon="12.916546564013466"><ele>395.0</ele><time>2026-04-12T13:03:59.001Z</time></trkpt><trkpt lat="42.81081487989681" lon="12.916558708201139"><ele>395.0</ele><time>2026-04-12T13:04:00.001Z</time></trkpt><trkpt lat="42.81093590010403" lon="12.916571005222174"><ele>395.0</ele><time>2026-04-12T13:04:01.001Z</time></trkpt><trkpt lat="42.81105990691053" lon="12.916576951511454"><ele>395.0</ele><time>2026-04-12T13:04:02.001Z</time></trkpt><trkpt lat="42.811180393483994" lon="12.91658177937699"><ele>395.0</ele><time>2026-04-12T13:04:03.001Z</time></trkpt><trkpt lat="42.811303947719686" lon="12.916586390216514"><ele>391.25</ele><time>2026-04-12T13:04:04.001Z</time></trkpt><trkpt lat="42.811428581307744" lon="12.916593083973423"><ele>387.5</ele><time>2026-04-12T13:04:05.001Z</time></trkpt><trkpt lat="42.81155458683945" lon="12.916608857643165"><ele>383.75</ele><time>2026-04-12T13:04:06.001Z</time></trkpt><trkpt lat="42.81167784375451" lon="12.916628721814767"><ele>380.0</ele><time>2026-04-12T13:04:07.001Z</time></trkpt><trkpt lat="42.811807430532006" lon="12.916660329484165"><ele>377.5</ele><time>2026-04-12T13:04:08.001Z</time></trkpt><trkpt lat="42.811935539519595" lon="12.916690057350966"><ele>375.0</ele><time>2026-04-12T13:04:09.001Z</time></trkpt><trkpt lat="42.81206721578274" lon="12.916721222224856"><ele>372.5</ele><time>2026-04-12T13:04:10.001Z</time></trkpt><trkpt lat="42.81219917498851" lon="12.916752554883281"><ele>370.0</ele><time>2026-04-12T13:04:11.001Z</time></trkpt><trkpt lat="42.81232492320221" lon="12.91677502164174"><ele>373.75</ele><time>2026-04-12T13:04:12.001Z</time></trkpt><trkpt lat="42.8124459926966" lon="12.916800154135643"><ele>377.5</ele><time>2026-04-12T13:04:13.001Z</time></trkpt><trkpt lat="42.81256385357724" lon="12.916823875429715"><ele>381.25</ele><time>2026-04-12T13:04:14.001Z</time></trkpt><trkpt lat="42.81268099736374" lon="12.916844515126806"><ele>385.0</ele><time>2026-04-12T13:04:15.001Z</time></trkpt><trkpt lat="42.81279780646333" lon="12.91686618696379"><ele>385.0</ele><time>2026-04-12T13:04:16.001Z</time></trkpt><trkpt lat="42.81291123479632" lon="12.916889399243752"><ele>385.0</ele><time>2026-04-12T13:04:17.001Z</time></trkpt><trkpt lat="42.81302309841707" lon="12.916921939355314"><ele>385.0</ele><time>2026-04-12T13:04:18.001Z</time></trkpt><trkpt lat="42.81312883069977" lon="12.916945159655786"><ele>385.0</ele><time>2026-04-12T13:04:19.001Z</time></trkpt><trkpt lat="42.81323848022704" lon="12.916968901989998"><ele>385.0</ele><time>2026-04-12T13:04:20.001Z</time></trkpt><trkpt lat="42.813329974619165" lon="12.916970100893979"><ele>385.0</ele><time>2026-04-12T13:04:21.001Z</time></trkpt><trkpt lat="42.81343579874826" lon="12.91699097785057"><ele>385.0</ele><time>2026-04-12T13:04:22.001Z</time></trkpt><trkpt lat="42.81354204314037" lon="12.917014778953236"><ele>385.0</ele><time>2026-04-12T13:04:23.001Z</time></trkpt><trkpt lat="42.81365417557845" lon="12.917047825706687"><ele>385.0</ele><time>2026-04-12T13:04:24.001Z</time></trkpt><trkpt lat="42.81375367066945" lon="12.917061072739072"><ele>385.0</ele><time>2026-04-12T13:04:25.002Z</time></trkpt><trkpt lat="42.81384939792407" lon="12.917077223490981"><ele>382.25</ele><time>2026-04-12T13:04:25.999Z</time></trkpt><trkpt lat="42.81394174711795" lon="12.917075820940122"><ele>379.5</ele><time>2026-04-12T13:04:26.999Z</time></trkpt><trkpt lat="42.81406774287476" lon="12.917097245158047"><ele>376.75</ele><time>2026-04-12T13:04:27.999Z</time></trkpt><trkpt lat="42.81417971609702" lon="12.917086567207138"><ele>374.0</ele><time>2026-04-12T13:04:28.999Z</time></trkpt><trkpt lat="42.81429851446702" lon="12.917058480641263"><ele>373.2</ele><time>2026-04-12T13:04:29.999Z</time></trkpt><trkpt lat="42.81444681179657" lon="12.9170066934867"><ele>372.4</ele><time>2026-04-12T13:04:30.999Z</time></trkpt><trkpt lat="42.814568084534926" lon="12.916979237625563"><ele>371.6</ele><time>2026-04-12T13:04:31.999Z</time></trkpt><trkpt lat="42.81465051262039" lon="12.91696760180219"><ele>370.8</ele><time>2026-04-12T13:04:32.999Z</time></trkpt><trkpt lat="42.814739361899754" lon="12.91696011672315"><ele>370.0</ele><time>2026-04-12T13:04:33.999Z</time></trkpt><trkpt lat="42.81482473307766" lon="12.916958818144364"><ele>369.99999999999994</ele><time>2026-04-12T13:04:34.999Z</time></trkpt><trkpt lat="42.81490424203704" lon="12.916966631741104"><ele>370.0</ele><time>2026-04-12T13:04:35.999Z</time></trkpt><trkpt lat="42.81497923238564" lon="12.916979970576909"><ele>370.0</ele><time>2026-04-12T13:04:36.999Z</time></trkpt><trkpt lat="42.815047077714354" lon="12.917005508359242"><ele>370.0</ele><time>2026-04-12T13:04:37.999Z</time></trkpt><trkpt lat="42.815107573096014" lon="12.917034592193222"><ele>370.0</ele><time>2026-04-12T13:04:38.999Z</time></trkpt><trkpt lat="42.81516536727714" lon="12.917075428132211"><ele>369.99999999999994</ele><time>2026-04-12T13:04:39.999Z</time></trkpt><trkpt lat="42.81524562168668" lon="12.917121116701715"><ele>370.0</ele><time>2026-04-12T13:04:40.999Z</time></trkpt><trkpt lat="42.81532945043538" lon="12.917170761030187"><ele>368.2</ele><time>2026-04-12T13:04:41.999Z</time></trkpt><trkpt lat="42.81541058979917" lon="12.917211834201275"><ele>366.4</ele><time>2026-04-12T13:04:42.999Z</time></trkpt><trkpt lat="42.81550969613699" lon="12.9172302038388"><ele>364.6</ele><time>2026-04-12T13:04:43.999Z</time></trkpt><trkpt lat="42.81560251724087" lon="12.91726653756783"><ele>362.8</ele><time>2026-04-12T13:04:45Z</time></trkpt><trkpt lat="42.81570222201273" lon="12.917277179122543"><ele>361.0</ele><time>2026-04-12T13:04:46Z</time></trkpt><trkpt lat="42.8157816490929" lon="12.91726356415574"><ele>361.0</ele><time>2026-04-12T13:04:47Z</time></trkpt><trkpt lat="42.81589314686155" lon="12.917279710129769"><ele>361.0</ele><time>2026-04-12T13:04:48Z</time></trkpt><trkpt lat="42.81597263234654" lon="12.917268202077256"><ele>361.0</ele><time>2026-04-12T13:04:49Z</time></trkpt><trkpt lat="42.81606330813833" lon="12.917270442439229"><ele>361.0</ele><time>2026-04-12T13:04:50Z</time></trkpt><trkpt lat="42.81615700399917" lon="12.917280730639215"><ele>361.0</ele><time>2026-04-12T13:04:51Z</time></trkpt><trkpt lat="42.81625772750075" lon="12.91731994682447"><ele>361.0</ele><time>2026-04-12T13:04:52Z</time></trkpt><trkpt lat="42.81637425068767" lon="12.917337670267797"><ele>361.0</ele><time>2026-04-12T13:04:53Z</time></trkpt><trkpt lat="42.81650458727461" lon="12.917306067490813"><ele>361.0</ele><time>2026-04-12T13:04:55Z</time></trkpt><trkpt lat="42.816585806521516" lon="12.917298213645374"><ele>361.0</ele><time>2026-04-12T13:04:56Z</time></trkpt><trkpt lat="42.8166515799836" lon="12.917308042966097"><ele>361.0</ele><time>2026-04-12T13:04:57Z</time></trkpt><trkpt lat="42.81671676850891" lon="12.917327701530676"><ele>361.0</ele><time>2026-04-12T13:04:58Z</time></trkpt><trkpt lat="42.81678892239506" lon="12.917271914875089"><ele>361.0</ele><time>2026-04-12T13:05:00Z</time></trkpt><trkpt lat="42.816854616700304" lon="12.917212709971759"><ele>361.0</ele><time>2026-04-12T13:05:02Z</time></trkpt><trkpt lat="42.81682658405839" lon="12.917039459548368"><ele>361.0</ele><time>2026-04-12T13:05:03Z</time></trkpt><trkpt lat="42.81677931830218" lon="12.916878046106927"><ele>361.0</ele><time>2026-04-12T13:05:04Z</time></trkpt><trkpt lat="42.81669718438091" lon="12.916696738971007"><ele>362.3333333333333</ele><time>2026-04-12T13:05:05Z</time></trkpt><trkpt lat="42.816596486629045" lon="12.916491842379193"><ele>363.6666666666667</ele><time>2026-04-12T13:05:06Z</time></trkpt><trkpt lat="42.81648241133375" lon="12.916306691686534"><ele>365.0</ele><time>2026-04-12T13:05:07Z</time></trkpt><trkpt lat="42.81636047441413" lon="12.916175884537225"><ele>365.0</ele><time>2026-04-12T13:05:08Z</time></trkpt><trkpt lat="42.816244158229125" lon="12.916027360458333"><ele>365.0</ele><time>2026-04-12T13:05:09Z</time></trkpt><trkpt lat="42.8161391201407" lon="12.915911535162968"><ele>365.0</ele><time>2026-04-12T13:05:10Z</time></trkpt><trkpt lat="42.816016886242835" lon="12.915891711123718"><ele>365.0</ele><time>2026-04-12T13:05:11Z</time></trkpt><trkpt lat="42.81591156392438" lon="12.915839333724806"><ele>364.8</ele><time>2026-04-12T13:05:12Z</time></trkpt><trkpt lat="42.81580636933759" lon="12.91580514346193"><ele>364.6</ele><time>2026-04-12T13:05:13Z</time></trkpt><trkpt lat="42.81567969609542" lon="12.915758185807263"><ele>364.4</ele><time>2026-04-12T13:05:15Z</time></trkpt><trkpt lat="42.815611974680984" lon="12.915740411118003"><ele>364.2</ele><time>2026-04-12T13:05:16Z</time></trkpt><trkpt lat="42.815493960337115" lon="12.915681421810561"><ele>364.0</ele><time>2026-04-12T13:05:18Z</time></trkpt><trkpt lat="42.815426971506234" lon="12.915669260154958"><ele>364.0</ele><time>2026-04-12T13:05:19Z</time></trkpt><trkpt lat="42.815361498478374" lon="12.915655791053668"><ele>364.0</ele><time>2026-04-12T13:05:20Z</time></trkpt><trkpt lat="42.81529332797356" lon="12.915619586355115"><ele>364.0</ele><time>2026-04-12T13:05:21Z</time></trkpt><trkpt lat="42.81521557733113" lon="12.91556370816781"><ele>364.0</ele><time>2026-04-12T13:05:22Z</time></trkpt><trkpt lat="42.81513093210213" lon="12.91550166371251"><ele>364.0</ele><time>2026-04-12T13:05:23Z</time></trkpt><trkpt lat="42.81504872919077" lon="12.915436862060325"><ele>364.0</ele><time>2026-04-12T13:05:24Z</time></trkpt><trkpt lat="42.814980704791154" lon="12.915335249353905"><ele>363.3333333333333</ele><time>2026-04-12T13:05:25Z</time></trkpt><trkpt lat="42.81490875928295" lon="12.915246787769403"><ele>362.66666666666663</ele><time>2026-04-12T13:05:26Z</time></trkpt><trkpt lat="42.814847790324755" lon="12.915171780877333"><ele>362.0</ele><time>2026-04-12T13:05:27Z</time></trkpt><trkpt lat="42.814794233534144" lon="12.915104551042726"><ele>361.3333333333333</ele><time>2026-04-12T13:05:28Z</time></trkpt><trkpt lat="42.814739313748774" lon="12.91503613300933"><ele>360.6666666666667</ele><time>2026-04-12T13:05:29Z</time></trkpt><trkpt lat="42.81468975322916" lon="12.91498063999126"><ele>360.0</ele><time>2026-04-12T13:05:30.001Z</time></trkpt><trkpt lat="42.81463404514261" lon="12.91492332938542"><ele>360.0</ele><time>2026-04-12T13:05:31.001Z</time></trkpt><trkpt lat="42.81455067618931" lon="12.914864136848283"><ele>360.0</ele><time>2026-04-12T13:05:33.001Z</time></trkpt><trkpt lat="42.81450053247698" lon="12.914810469390309"><ele>360.0</ele><time>2026-04-12T13:05:35.001Z</time></trkpt><trkpt lat="42.8144374823256" lon="12.914745789908192"><ele>360.0</ele><time>2026-04-12T13:05:38.001Z</time></trkpt><trkpt lat="42.81432769501432" lon="12.914658688782264"><ele>360.0</ele><time>2026-04-12T13:05:40.001Z</time></trkpt><trkpt lat="42.814265241540575" lon="12.914601701257835"><ele>360.0</ele><time>2026-04-12T13:05:42.001Z</time></trkpt><trkpt lat="42.8142060643379" lon="12.914552869904742"><ele>360.0</ele><time>2026-04-12T13:05:45.001Z</time></trkpt><trkpt lat="42.814213763346515" lon="12.914640472649598"><ele>360.0</ele><time>2026-04-12T13:05:53.001Z</time></trkpt><trkpt lat="42.81429373138956" lon="12.91468941181893"><ele>360.0</ele><time>2026-04-12T13:05:56.001Z</time></trkpt><trkpt lat="42.81436663146196" lon="12.914770511628257"><ele>360.0</ele><time>2026-04-12T13:05:59.001Z</time></trkpt><trkpt lat="42.81441969426256" lon="12.914717537211347"><ele>360.0</ele><time>2026-04-12T13:06:02.001Z</time></trkpt><trkpt lat="42.81437332162347" lon="12.914633225237678"><ele>360.0</ele><time>2026-04-12T13:06:04.001Z</time></trkpt><trkpt lat="42.81431675921024" lon="12.914580122006136"><ele>357.0</ele><time>2026-04-12T13:06:07.001Z</time></trkpt><trkpt lat="42.81427935990815" lon="12.914504591996675"><ele>357.0</ele><time>2026-04-12T13:08:06.001Z</time></trkpt></trkseg></trk></gpx>